<?xml version='1.0' encoding='UTF-8'?><gpx version="1.1" creator="JPX - https://github.com/jenetics/jpx" xmlns="http://www.topografix.com/GPX/1/1"><trk><trkseg><trkpt lat="45.5951291" lon="10.5532208"><ele>115.00000000000001</ele><time>2026-04-16T04:34:10.2Z</time></trkpt><trkpt lat="45.5950401" lon="10.5532209"><ele>115.0</ele><time>2026-04-16T04:34:12.2Z</time></trkpt><trkpt lat="45.5949636" lon="10.5532655"><ele>115.0</ele><time>2026-04-16T04:34:15.201Z</time></trkpt><trkpt lat="45.5949453" lon="10.5533725"><ele>115.0</ele><time>2026-04-16T04:34:18.201Z</time></trkpt><trkpt lat="45.5949466" lon="10.5534673"><ele>115.00000000000001</ele><time>2026-04-16T04:34:21.201Z</time></trkpt><trkpt lat="45.5949612" lon="10.5535699"><ele>115.0</ele><time>2026-04-16T04:34:32.201Z</time></trkpt><trkpt lat="45.5949014" lon="10.5536097"><ele>115.00000000000001</ele><time>2026-04-16T04:35:23.201Z</time></trkpt><trkpt lat="45.5948385" lon="10.5536179"><ele>115.0</ele><time>2026-04-16T04:35:24.2Z</time></trkpt><trkpt lat="45.5947727" lon="10.553607"><ele>115.0</ele><time>2026-04-16T04:35:25.201Z</time></trkpt><trkpt lat="45.5946936" lon="10.5535987"><ele>115.0</ele><time>2026-04-16T04:35:26.201Z</time></trkpt><trkpt lat="45.5946207" lon="10.5535937"><ele>115.00000000000001</ele><time>2026-04-16T04:35:27.2Z</time></trkpt><trkpt lat="45.594532" lon="10.5536021"><ele>115.0</ele><time>2026-04-16T04:35:28.201Z</time></trkpt><trkpt lat="45.5944387" lon="10.5536029"><ele>115.4</ele><time>2026-04-16T04:35:29.201Z</time></trkpt><trkpt lat="45.5943658" lon="10.5535995"><ele>115.8</ele><time>2026-04-16T04:35:30.2Z</time></trkpt><trkpt lat="45.5942966" lon="10.5535433"><ele>116.19999999999999</ele><time>2026-04-16T04:35:33.201Z</time></trkpt><trkpt lat="45.5942774" lon="10.5533615"><ele>116.6</ele><time>2026-04-16T04:35:35.201Z</time></trkpt><trkpt lat="45.594269" lon="10.5531652"><ele>117.0</ele><time>2026-04-16T04:35:36.201Z</time></trkpt><trkpt lat="45.5942629" lon="10.5529521"><ele>117.0</ele><time>2026-04-16T04:35:37.2Z</time></trkpt><trkpt lat="45.5942479" lon="10.5527273"><ele>117.0</ele><time>2026-04-16T04:35:38.2Z</time></trkpt><trkpt lat="45.5942387" lon="10.5525327"><ele>117.0</ele><time>2026-04-16T04:35:39.201Z</time></trkpt><trkpt lat="45.5942301" lon="10.5523531"><ele>117.0</ele><time>2026-04-16T04:35:40.2Z</time></trkpt><trkpt lat="45.5942297" lon="10.5521723"><ele>116.0</ele><time>2026-04-16T04:35:41.201Z</time></trkpt><trkpt lat="45.5942273" lon="10.5519963"><ele>115.0</ele><time>2026-04-16T04:35:42.201Z</time></trkpt><trkpt lat="45.5942124" lon="10.5518382"><ele>114.0</ele><time>2026-04-16T04:35:43.201Z</time></trkpt><trkpt lat="45.5941833" lon="10.5516827"><ele>113.0</ele><time>2026-04-16T04:35:44.2Z</time></trkpt><trkpt lat="45.5941343" lon="10.5515419"><ele>113.0</ele><time>2026-04-16T04:35:45.201Z</time></trkpt><trkpt lat="45.5940706" lon="10.5514116"><ele>113.00000000000001</ele><time>2026-04-16T04:35:46.2Z</time></trkpt><trkpt lat="45.5940028" lon="10.5512827"><ele>113.00000000000001</ele><time>2026-04-16T04:35:47.2Z</time></trkpt><trkpt lat="45.5939547" lon="10.5511587"><ele>113.0</ele><time>2026-04-16T04:35:48.201Z</time></trkpt><trkpt lat="45.5939153" lon="10.5510221"><ele>113.0</ele><time>2026-04-16T04:35:49.2Z</time></trkpt><trkpt lat="45.5938999" lon="10.5508847"><ele>112.0</ele><time>2026-04-16T04:35:50.201Z</time></trkpt><trkpt lat="45.5938966" lon="10.5507336"><ele>111.0</ele><time>2026-04-16T04:35:51.201Z</time></trkpt><trkpt lat="45.5939067" lon="10.5505498"><ele>110.0</ele><time>2026-04-16T04:35:52.2Z</time></trkpt><trkpt lat="45.5939443" lon="10.5503447"><ele>109.0</ele><time>2026-04-16T04:35:53.201Z</time></trkpt><trkpt lat="45.5940253" lon="10.5501333"><ele>109.0</ele><time>2026-04-16T04:35:54.2Z</time></trkpt><trkpt lat="45.5941115" lon="10.5499314"><ele>109.0</ele><time>2026-04-16T04:35:55.2Z</time></trkpt><trkpt lat="45.5942043" lon="10.549718"><ele>109.0</ele><time>2026-04-16T04:35:56.201Z</time></trkpt><trkpt lat="45.5942986" lon="10.5494695"><ele>109.0</ele><time>2026-04-16T04:35:57.2Z</time></trkpt><trkpt lat="45.5943543" lon="10.5492053"><ele>109.0</ele><time>2026-04-16T04:35:58.201Z</time></trkpt><trkpt lat="45.5943823" lon="10.5489225"><ele>109.0</ele><time>2026-04-16T04:35:59.2Z</time></trkpt><trkpt lat="45.5943849" lon="10.5486364"><ele>110.0</ele><time>2026-04-16T04:36:00.201Z</time></trkpt><trkpt lat="45.5943729" lon="10.548338"><ele>111.0</ele><time>2026-04-16T04:36:01.201Z</time></trkpt><trkpt lat="45.5943582" lon="10.5480254"><ele>112.0</ele><time>2026-04-16T04:36:02.2Z</time></trkpt><trkpt lat="45.5943514" lon="10.5477047"><ele>114.0</ele><time>2026-04-16T04:36:03.201Z</time></trkpt><trkpt lat="45.5943599" lon="10.5473854"><ele>116.0</ele><time>2026-04-16T04:36:04.201Z</time></trkpt><trkpt lat="45.5943893" lon="10.5470601"><ele>116.66666666666666</ele><time>2026-04-16T04:36:05.201Z</time></trkpt><trkpt lat="45.5944279" lon="10.5467711"><ele>117.33333333333334</ele><time>2026-04-16T04:36:06.201Z</time></trkpt><trkpt lat="45.594469" lon="10.5465396"><ele>118.0</ele><time>2026-04-16T04:36:07.2Z</time></trkpt><trkpt lat="45.5944965" lon="10.5463269"><ele>116.80000000000001</ele><time>2026-04-16T04:36:08.2Z</time></trkpt><trkpt lat="45.5945127" lon="10.5461557"><ele>115.60000000000001</ele><time>2026-04-16T04:36:09.2Z</time></trkpt><trkpt lat="45.5945315" lon="10.5460178"><ele>114.39999999999999</ele><time>2026-04-16T04:36:10.201Z</time></trkpt><trkpt lat="45.5945698" lon="10.5459089"><ele>113.19999999999999</ele><time>2026-04-16T04:36:11.201Z</time></trkpt><trkpt lat="45.5946068" lon="10.5458308"><ele>112.0</ele><time>2026-04-16T04:36:12.2Z</time></trkpt><trkpt lat="45.5946175" lon="10.5456646"><ele>112.0</ele><time>2026-04-16T04:36:14.201Z</time></trkpt><trkpt lat="45.5945817" lon="10.5455486"><ele>112.0</ele><time>2026-04-16T04:36:15.2Z</time></trkpt><trkpt lat="45.594547" lon="10.5453714"><ele>112.0</ele><time>2026-04-16T04:36:16.2Z</time></trkpt><trkpt lat="45.5945227" lon="10.5451824"><ele>112.0</ele><time>2026-04-16T04:36:17.201Z</time></trkpt><trkpt lat="45.5945097" lon="10.5449554"><ele>115.0</ele><time>2026-04-16T04:36:18.201Z</time></trkpt><trkpt lat="45.594496" lon="10.544708"><ele>118.0</ele><time>2026-04-16T04:36:19.2Z</time></trkpt><trkpt lat="45.5944878" lon="10.5444388"><ele>121.0</ele><time>2026-04-16T04:36:20.2Z</time></trkpt><trkpt lat="45.59446" lon="10.5441874"><ele>122.33333333333334</ele><time>2026-04-16T04:36:21.201Z</time></trkpt><trkpt lat="45.5944175" lon="10.5439588"><ele>123.66666666666666</ele><time>2026-04-16T04:36:22.2Z</time></trkpt><trkpt lat="45.5943552" lon="10.5437499"><ele>125.0</ele><time>2026-04-16T04:36:23.201Z</time></trkpt><trkpt lat="45.5942999" lon="10.5435445"><ele>125.66666666666666</ele><time>2026-04-16T04:36:24.201Z</time></trkpt><trkpt lat="45.5942384" lon="10.5433415"><ele>126.33333333333334</ele><time>2026-04-16T04:36:25.201Z</time></trkpt><trkpt lat="45.5941761" lon="10.5431274"><ele>127.0</ele><time>2026-04-16T04:36:26.2Z</time></trkpt><trkpt lat="45.5941097" lon="10.5429138"><ele>127.5</ele><time>2026-04-16T04:36:27.201Z</time></trkpt><trkpt lat="45.5940521" lon="10.5427012"><ele>128.0</ele><time>2026-04-16T04:36:28.201Z</time></trkpt><trkpt lat="45.5940161" lon="10.5425032"><ele>128.5</ele><time>2026-04-16T04:36:29.2Z</time></trkpt><trkpt lat="45.5940132" lon="10.5422963"><ele>129.0</ele><time>2026-04-16T04:36:30.201Z</time></trkpt><trkpt lat="45.5940426" lon="10.5420723"><ele>130.33333333333334</ele><time>2026-04-16T04:36:31.201Z</time></trkpt><trkpt lat="45.594092" lon="10.5418439"><ele>131.66666666666669</ele><time>2026-04-16T04:36:32.201Z</time></trkpt><trkpt lat="45.5941367" lon="10.541625"><ele>133.0</ele><time>2026-04-16T04:36:33.199Z</time></trkpt><trkpt lat="45.594187" lon="10.5414232"><ele>133.0</ele><time>2026-04-16T04:36:34.2Z</time></trkpt><trkpt lat="45.5942175" lon="10.5412569"><ele>133.0</ele><time>2026-04-16T04:36:35.199Z</time></trkpt><trkpt lat="45.5942297" lon="10.5411234"><ele>133.0</ele><time>2026-04-16T04:36:36.2Z</time></trkpt><trkpt lat="45.5942137" lon="10.5410163"><ele>133.0</ele><time>2026-04-16T04:36:37.2Z</time></trkpt><trkpt lat="45.5941778" lon="10.5409253"><ele>133.0</ele><time>2026-04-16T04:36:38.2Z</time></trkpt><trkpt lat="45.5941117" lon="10.5408679"><ele>133.0</ele><time>2026-04-16T04:36:39.199Z</time></trkpt><trkpt lat="45.594021" lon="10.540869"><ele>134.0</ele><time>2026-04-16T04:36:40.2Z</time></trkpt><trkpt lat="45.5939213" lon="10.5409203"><ele>135.0</ele><time>2026-04-16T04:36:41.199Z</time></trkpt><trkpt lat="45.5938241" lon="10.5410308"><ele>136.0</ele><time>2026-04-16T04:36:42.2Z</time></trkpt><trkpt lat="45.5937318" lon="10.541114"><ele>137.0</ele><time>2026-04-16T04:36:43.2Z</time></trkpt><trkpt lat="45.5936447" lon="10.5411202"><ele>138.0</ele><time>2026-04-16T04:36:44.199Z</time></trkpt><trkpt lat="45.5935603" lon="10.5410689"><ele>139.25</ele><time>2026-04-16T04:36:45.199Z</time></trkpt><trkpt lat="45.5934901" lon="10.5409969"><ele>140.5</ele><time>2026-04-16T04:36:46.199Z</time></trkpt><trkpt lat="45.5934313" lon="10.5408909"><ele>141.75</ele><time>2026-04-16T04:36:47.2Z</time></trkpt><trkpt lat="45.5933737" lon="10.540732"><ele>143.0</ele><time>2026-04-16T04:36:48.199Z</time></trkpt><trkpt lat="45.5932926" lon="10.5405473"><ele>144.0</ele><time>2026-04-16T04:36:49.2Z</time></trkpt><trkpt lat="45.5932128" lon="10.5403334"><ele>145.0</ele><time>2026-04-16T04:36:50.2Z</time></trkpt><trkpt lat="45.5931498" lon="10.5401166"><ele>146.0</ele><time>2026-04-16T04:36:51.2Z</time></trkpt><trkpt lat="45.5930916" lon="10.5398971"><ele>146.0</ele><time>2026-04-16T04:36:52.199Z</time></trkpt><trkpt lat="45.5930324" lon="10.5396471"><ele>146.0</ele><time>2026-04-16T04:36:53.2Z</time></trkpt><trkpt lat="45.5929659" lon="10.5394081"><ele>146.0</ele><time>2026-04-16T04:36:54.2Z</time></trkpt><trkpt lat="45.5929004" lon="10.5391887"><ele>147.0</ele><time>2026-04-16T04:36:55.2Z</time></trkpt><trkpt lat="45.5928435" lon="10.5390007"><ele>148.0</ele><time>2026-04-16T04:36:56.2Z</time></trkpt><trkpt lat="45.5927957" lon="10.538829"><ele>149.0</ele><time>2026-04-16T04:36:57.2Z</time></trkpt><trkpt lat="45.5927646" lon="10.5386415"><ele>150.0</ele><time>2026-04-16T04:36:58.199Z</time></trkpt><trkpt lat="45.5927415" lon="10.5384207"><ele>151.0</ele><time>2026-04-16T04:36:59.2Z</time></trkpt><trkpt lat="45.5927314" lon="10.5381838"><ele>152.0</ele><time>2026-04-16T04:37:00.2Z</time></trkpt><trkpt lat="45.5927279" lon="10.5379266"><ele>153.0</ele><time>2026-04-16T04:37:01.199Z</time></trkpt><trkpt lat="45.5927266" lon="10.5376635"><ele>154.0</ele><time>2026-04-16T04:37:02.199Z</time></trkpt><trkpt lat="45.5927246" lon="10.5373748"><ele>155.0</ele><time>2026-04-16T04:37:03.2Z</time></trkpt><trkpt lat="45.5927151" lon="10.5370916"><ele>156.0</ele><time>2026-04-16T04:37:04.199Z</time></trkpt><trkpt lat="45.5927087" lon="10.5368108"><ele>156.33333333333334</ele><time>2026-04-16T04:37:05.199Z</time></trkpt><trkpt lat="45.592695" lon="10.5365208"><ele>156.66666666666669</ele><time>2026-04-16T04:37:06.2Z</time></trkpt><trkpt lat="45.5926932" lon="10.5362326"><ele>157.0</ele><time>2026-04-16T04:37:07.199Z</time></trkpt><trkpt lat="45.5927149" lon="10.5359478"><ele>157.0</ele><time>2026-04-16T04:37:08.199Z</time></trkpt><trkpt lat="45.5927583" lon="10.5356743"><ele>157.0</ele><time>2026-04-16T04:37:09.199Z</time></trkpt><trkpt lat="45.5928186" lon="10.5353972"><ele>157.0</ele><time>2026-04-16T04:37:10.199Z</time></trkpt><trkpt lat="45.5928778" lon="10.5351133"><ele>157.0</ele><time>2026-04-16T04:37:11.199Z</time></trkpt><trkpt lat="45.5929254" lon="10.5348224"><ele>157.0</ele><time>2026-04-16T04:37:12.199Z</time></trkpt><trkpt lat="45.5929532" lon="10.5345165"><ele>157.0</ele><time>2026-04-16T04:37:13.2Z</time></trkpt><trkpt lat="45.5929626" lon="10.5341919"><ele>157.33333333333334</ele><time>2026-04-16T04:37:14.199Z</time></trkpt><trkpt lat="45.5929621" lon="10.5338784"><ele>157.66666666666666</ele><time>2026-04-16T04:37:15.199Z</time></trkpt><trkpt lat="45.5929539" lon="10.5335891"><ele>158.0</ele><time>2026-04-16T04:37:16.2Z</time></trkpt><trkpt lat="45.5929576" lon="10.5333215"><ele>156.66666666666666</ele><time>2026-04-16T04:37:17.2Z</time></trkpt><trkpt lat="45.5929652" lon="10.5330722"><ele>155.33333333333334</ele><time>2026-04-16T04:37:18.199Z</time></trkpt><trkpt lat="45.5929712" lon="10.5328422"><ele>154.0</ele><time>2026-04-16T04:37:19.2Z</time></trkpt><trkpt lat="45.5929799" lon="10.5326276"><ele>154.0</ele><time>2026-04-16T04:37:20.2Z</time></trkpt><trkpt lat="45.59299" lon="10.5324188"><ele>154.0</ele><time>2026-04-16T04:37:21.2Z</time></trkpt><trkpt lat="45.593" lon="10.5321896"><ele>154.0</ele><time>2026-04-16T04:37:22.199Z</time></trkpt><trkpt lat="45.5930053" lon="10.5319441"><ele>154.0</ele><time>2026-04-16T04:37:23.2Z</time></trkpt><trkpt lat="45.5930239" lon="10.5316902"><ele>154.0</ele><time>2026-04-16T04:37:24.199Z</time></trkpt><trkpt lat="45.5930599" lon="10.5314214"><ele>154.0</ele><time>2026-04-16T04:37:25.199Z</time></trkpt><trkpt lat="45.5931095" lon="10.5311376"><ele>154.33333333333334</ele><time>2026-04-16T04:37:26.2Z</time></trkpt><trkpt lat="45.5931505" lon="10.5308413"><ele>154.66666666666666</ele><time>2026-04-16T04:37:27.199Z</time></trkpt><trkpt lat="45.5931894" lon="10.5305418"><ele>155.0</ele><time>2026-04-16T04:37:28.2Z</time></trkpt><trkpt lat="45.5932202" lon="10.5302589"><ele>155.0</ele><time>2026-04-16T04:37:29.2Z</time></trkpt><trkpt lat="45.5932358" lon="10.5299902"><ele>155.0</ele><time>2026-04-16T04:37:30.2Z</time></trkpt><trkpt lat="45.5932305" lon="10.5297293"><ele>155.0</ele><time>2026-04-16T04:37:31.2Z</time></trkpt><trkpt lat="45.5932074" lon="10.5294624"><ele>155.0</ele><time>2026-04-16T04:37:32.2Z</time></trkpt><trkpt lat="45.593171" lon="10.5291985"><ele>155.0</ele><time>2026-04-16T04:37:33.199Z</time></trkpt><trkpt lat="45.5931144" lon="10.5289285"><ele>155.0</ele><time>2026-04-16T04:37:34.2Z</time></trkpt><trkpt lat="45.5930559" lon="10.5286343"><ele>154.5</ele><time>2026-04-16T04:37:35.2Z</time></trkpt><trkpt lat="45.593008" lon="10.52831"><ele>154.0</ele><time>2026-04-16T04:37:36.199Z</time></trkpt><trkpt lat="45.592952" lon="10.5279852"><ele>153.5</ele><time>2026-04-16T04:37:37.2Z</time></trkpt><trkpt lat="45.5928921" lon="10.5276691"><ele>153.0</ele><time>2026-04-16T04:37:38.199Z</time></trkpt><trkpt lat="45.59283" lon="10.5273615"><ele>154.66666666666666</ele><time>2026-04-16T04:37:39.2Z</time></trkpt><trkpt lat="45.5927727" lon="10.5270528"><ele>156.33333333333331</ele><time>2026-04-16T04:37:40.2Z</time></trkpt><trkpt lat="45.5927065" lon="10.5267558"><ele>158.0</ele><time>2026-04-16T04:37:41.2Z</time></trkpt><trkpt lat="45.5926308" lon="10.5264887"><ele>158.0</ele><time>2026-04-16T04:37:42.199Z</time></trkpt><trkpt lat="45.5925721" lon="10.5262376"><ele>158.0</ele><time>2026-04-16T04:37:43.2Z</time></trkpt><trkpt lat="45.5925428" lon="10.5260015"><ele>158.0</ele><time>2026-04-16T04:37:44.2Z</time></trkpt><trkpt lat="45.5925361" lon="10.525765"><ele>158.0</ele><time>2026-04-16T04:37:45.2Z</time></trkpt><trkpt lat="45.5925774" lon="10.5254972"><ele>158.0</ele><time>2026-04-16T04:37:46.199Z</time></trkpt><trkpt lat="45.592613" lon="10.5252224"><ele>158.0</ele><time>2026-04-16T04:37:47.2Z</time></trkpt><trkpt lat="45.5926121" lon="10.5249197"><ele>158.33333333333331</ele><time>2026-04-16T04:37:48.2Z</time></trkpt><trkpt lat="45.5926143" lon="10.5246163"><ele>158.66666666666666</ele><time>2026-04-16T04:37:49.2Z</time></trkpt><trkpt lat="45.5926191" lon="10.5243172"><ele>159.0</ele><time>2026-04-16T04:37:50.2Z</time></trkpt><trkpt lat="45.5926159" lon="10.5240478"><ele>159.66666666666666</ele><time>2026-04-16T04:37:51.2Z</time></trkpt><trkpt lat="45.5926105" lon="10.5237977"><ele>160.33333333333331</ele><time>2026-04-16T04:37:52.199Z</time></trkpt><trkpt lat="45.5925756" lon="10.5235701"><ele>161.0</ele><time>2026-04-16T04:37:53.199Z</time></trkpt><trkpt lat="45.5925242" lon="10.5233601"><ele>159.75</ele><time>2026-04-16T04:37:54.199Z</time></trkpt><trkpt lat="45.5924739" lon="10.5231644"><ele>158.5</ele><time>2026-04-16T04:37:55.2Z</time></trkpt><trkpt lat="45.5924335" lon="10.5229846"><ele>157.25</ele><time>2026-04-16T04:37:56.199Z</time></trkpt><trkpt lat="45.5924011" lon="10.5228353"><ele>156.0</ele><time>2026-04-16T04:37:57.199Z</time></trkpt><trkpt lat="45.5923582" lon="10.5227213"><ele>156.4</ele><time>2026-04-16T04:37:58.199Z</time></trkpt><trkpt lat="45.5923021" lon="10.5226234"><ele>156.8</ele><time>2026-04-16T04:37:59.199Z</time></trkpt><trkpt lat="45.5922426" lon="10.5225736"><ele>157.20000000000002</ele><time>2026-04-16T04:38:00.2Z</time></trkpt><trkpt lat="45.5921069" lon="10.5225959"><ele>157.6</ele><time>2026-04-16T04:38:02.2Z</time></trkpt><trkpt lat="45.59203" lon="10.5226744"><ele>158.0</ele><time>2026-04-16T04:38:03.199Z</time></trkpt><trkpt lat="45.5919458" lon="10.5227997"><ele>160.0</ele><time>2026-04-16T04:38:04.2Z</time></trkpt><trkpt lat="45.5918518" lon="10.5229224"><ele>162.0</ele><time>2026-04-16T04:38:05.2Z</time></trkpt><trkpt lat="45.5917598" lon="10.5229902"><ele>164.0</ele><time>2026-04-16T04:38:06.2Z</time></trkpt><trkpt lat="45.5916591" lon="10.523033"><ele>166.0</ele><time>2026-04-16T04:38:07.2Z</time></trkpt><trkpt lat="45.5915674" lon="10.5230391"><ele>168.0</ele><time>2026-04-16T04:38:08.2Z</time></trkpt><trkpt lat="45.5915007" lon="10.5230155"><ele>168.0</ele><time>2026-04-16T04:38:09.199Z</time></trkpt><trkpt lat="45.5914092" lon="10.5229239"><ele>168.0</ele><time>2026-04-16T04:38:11.2Z</time></trkpt><trkpt lat="45.5913591" lon="10.5228194"><ele>168.0</ele><time>2026-04-16T04:38:12.2Z</time></trkpt><trkpt lat="45.5912901" lon="10.5227346"><ele>168.0</ele><time>2026-04-16T04:38:13.2Z</time></trkpt><trkpt lat="45.5912165" lon="10.5226929"><ele>168.0</ele><time>2026-04-16T04:38:14.2Z</time></trkpt><trkpt lat="45.5911473" lon="10.5227003"><ele>168.0</ele><time>2026-04-16T04:38:15.199Z</time></trkpt><trkpt lat="45.5910711" lon="10.5227696"><ele>168.0</ele><time>2026-04-16T04:38:16.2Z</time></trkpt><trkpt lat="45.5909982" lon="10.5228707"><ele>168.0</ele><time>2026-04-16T04:38:17.199Z</time></trkpt><trkpt lat="45.5909064" lon="10.5229461"><ele>168.0</ele><time>2026-04-16T04:38:18.2Z</time></trkpt><trkpt lat="45.590807" lon="10.5229888"><ele>168.0</ele><time>2026-04-16T04:38:19.199Z</time></trkpt><trkpt lat="45.5906982" lon="10.5229835"><ele>168.0</ele><time>2026-04-16T04:38:20.199Z</time></trkpt><trkpt lat="45.5905784" lon="10.5229086"><ele>164.66666666666666</ele><time>2026-04-16T04:38:21.199Z</time></trkpt><trkpt lat="45.5904377" lon="10.5228018"><ele>161.33333333333331</ele><time>2026-04-16T04:38:22.2Z</time></trkpt><trkpt lat="45.5902808" lon="10.522677"><ele>158.0</ele><time>2026-04-16T04:38:23.2Z</time></trkpt><trkpt lat="45.5901065" lon="10.5225482"><ele>158.0</ele><time>2026-04-16T04:38:24.199Z</time></trkpt><trkpt lat="45.5899274" lon="10.5224044"><ele>158.0</ele><time>2026-04-16T04:38:25.2Z</time></trkpt><trkpt lat="45.5897244" lon="10.5222377"><ele>158.0</ele><time>2026-04-16T04:38:26.2Z</time></trkpt><trkpt lat="45.5895055" lon="10.5220662"><ele>155.5</ele><time>2026-04-16T04:38:27.2Z</time></trkpt><trkpt lat="45.5892752" lon="10.5218929"><ele>153.0</ele><time>2026-04-16T04:38:28.2Z</time></trkpt><trkpt lat="45.5890331" lon="10.5217054"><ele>153.0</ele><time>2026-04-16T04:38:29.199Z</time></trkpt><trkpt lat="45.588799" lon="10.5215305"><ele>153.0</ele><time>2026-04-16T04:38:30.2Z</time></trkpt><trkpt lat="45.5885938" lon="10.5213773"><ele>153.0</ele><time>2026-04-16T04:38:31.2Z</time></trkpt><trkpt lat="45.5884062" lon="10.5212226"><ele>153.0</ele><time>2026-04-16T04:38:32.199Z</time></trkpt><trkpt lat="45.5882265" lon="10.5210859"><ele>153.0</ele><time>2026-04-16T04:38:33.2Z</time></trkpt><trkpt lat="45.5880597" lon="10.5209352"><ele>153.0</ele><time>2026-04-16T04:38:34.2Z</time></trkpt><trkpt lat="45.5879111" lon="10.5207757"><ele>153.0</ele><time>2026-04-16T04:38:35.2Z</time></trkpt><trkpt lat="45.5877754" lon="10.5205945"><ele>153.0</ele><time>2026-04-16T04:38:36.2Z</time></trkpt><trkpt lat="45.5876608" lon="10.5204029"><ele>152.33333333333334</ele><time>2026-04-16T04:38:37.2Z</time></trkpt><trkpt lat="45.5875611" lon="10.5201902"><ele>151.66666666666669</ele><time>2026-04-16T04:38:38.199Z</time></trkpt><trkpt lat="45.5874801" lon="10.5199583"><ele>151.0</ele><time>2026-04-16T04:38:39.2Z</time></trkpt><trkpt lat="45.5874136" lon="10.5197042"><ele>151.0</ele><time>2026-04-16T04:38:40.199Z</time></trkpt><trkpt lat="45.5873462" lon="10.5194501"><ele>151.0</ele><time>2026-04-16T04:38:41.2Z</time></trkpt><trkpt lat="45.587277" lon="10.5192101"><ele>151.0</ele><time>2026-04-16T04:38:42.2Z</time></trkpt><trkpt lat="45.5872102" lon="10.5189813"><ele>151.0</ele><time>2026-04-16T04:38:43.2Z</time></trkpt><trkpt lat="45.5871415" lon="10.5187545"><ele>151.0</ele><time>2026-04-16T04:38:44.2Z</time></trkpt><trkpt lat="45.5870749" lon="10.5185338"><ele>151.0</ele><time>2026-04-16T04:38:45.2Z</time></trkpt><trkpt lat="45.5870149" lon="10.5183172"><ele>151.4</ele><time>2026-04-16T04:38:46.2Z</time></trkpt><trkpt lat="45.5869625" lon="10.5181229"><ele>151.8</ele><time>2026-04-16T04:38:47.199Z</time></trkpt><trkpt lat="45.5869337" lon="10.5179605"><ele>152.20000000000002</ele><time>2026-04-16T04:38:48.2Z</time></trkpt><trkpt lat="45.5869194" lon="10.5178337"><ele>152.6</ele><time>2026-04-16T04:38:49.2Z</time></trkpt><trkpt lat="45.5869312" lon="10.5177292"><ele>153.0</ele><time>2026-04-16T04:38:50.199Z</time></trkpt><trkpt lat="45.5869572" lon="10.5175999"><ele>153.16666666666666</ele><time>2026-04-16T04:38:52.2Z</time></trkpt><trkpt lat="45.5869856" lon="10.5174575"><ele>153.33333333333334</ele><time>2026-04-16T04:38:54.2Z</time></trkpt><trkpt lat="45.5869924" lon="10.5173347"><ele>153.5</ele><time>2026-04-16T04:38:55.2Z</time></trkpt><trkpt lat="45.5870025" lon="10.5172225"><ele>153.66666666666669</ele><time>2026-04-16T04:38:56.2Z</time></trkpt><trkpt lat="45.5870334" lon="10.5171109"><ele>153.83333333333334</ele><time>2026-04-16T04:38:57.2Z</time></trkpt><trkpt lat="45.5870874" lon="10.5170091"><ele>154.0</ele><time>2026-04-16T04:38:58.199Z</time></trkpt><trkpt lat="45.5871573" lon="10.5168984"><ele>154.0</ele><time>2026-04-16T04:38:59.199Z</time></trkpt><trkpt lat="45.5872411" lon="10.5167734"><ele>154.0</ele><time>2026-04-16T04:39:00.199Z</time></trkpt><trkpt lat="45.5873391" lon="10.5166597"><ele>154.0</ele><time>2026-04-16T04:39:01.199Z</time></trkpt><trkpt lat="45.5874513" lon="10.5165484"><ele>154.0</ele><time>2026-04-16T04:39:02.199Z</time></trkpt><trkpt lat="45.5875624" lon="10.516424"><ele>154.0</ele><time>2026-04-16T04:39:03.199Z</time></trkpt><trkpt lat="45.5876654" lon="10.5162922"><ele>154.0</ele><time>2026-04-16T04:39:04.199Z</time></trkpt><trkpt lat="45.5877701" lon="10.5161761"><ele>154.0</ele><time>2026-04-16T04:39:05.199Z</time></trkpt><trkpt lat="45.5878657" lon="10.5160727"><ele>154.0</ele><time>2026-04-16T04:39:06.2Z</time></trkpt><trkpt lat="45.5879566" lon="10.5159731"><ele>154.83333333333334</ele><time>2026-04-16T04:39:07.2Z</time></trkpt><trkpt lat="45.5880253" lon="10.5158912"><ele>155.66666666666669</ele><time>2026-04-16T04:39:08.199Z</time></trkpt><trkpt lat="45.588084" lon="10.515822"><ele>156.5</ele><time>2026-04-16T04:39:09.2Z</time></trkpt><trkpt lat="45.5881396" lon="10.5157551"><ele>157.33333333333334</ele><time>2026-04-16T04:39:10.2Z</time></trkpt><trkpt lat="45.5882129" lon="10.515689"><ele>158.16666666666666</ele><time>2026-04-16T04:39:12.2Z</time></trkpt><trkpt lat="45.5883099" lon="10.5156199"><ele>159.0</ele><time>2026-04-16T04:39:15.2Z</time></trkpt><trkpt lat="45.5883814" lon="10.5155333"><ele>159.0</ele><time>2026-04-16T04:39:16.199Z</time></trkpt><trkpt lat="45.5884777" lon="10.5154116"><ele>159.0</ele><time>2026-04-16T04:39:17.199Z</time></trkpt><trkpt lat="45.5885968" lon="10.5152832"><ele>159.0</ele><time>2026-04-16T04:39:18.2Z</time></trkpt><trkpt lat="45.5887079" lon="10.5151505"><ele>159.0</ele><time>2026-04-16T04:39:19.199Z</time></trkpt><trkpt lat="45.5888404" lon="10.5149989"><ele>158.33333333333334</ele><time>2026-04-16T04:39:20.199Z</time></trkpt><trkpt lat="45.588985" lon="10.5148139"><ele>157.66666666666669</ele><time>2026-04-16T04:39:21.199Z</time></trkpt><trkpt lat="45.5891488" lon="10.5146371"><ele>157.0</ele><time>2026-04-16T04:39:22.199Z</time></trkpt><trkpt lat="45.5893075" lon="10.5144538"><ele>157.0</ele><time>2026-04-16T04:39:23.2Z</time></trkpt><trkpt lat="45.5894941" lon="10.5142624"><ele>157.0</ele><time>2026-04-16T04:39:24.199Z</time></trkpt><trkpt lat="45.5896742" lon="10.5140618"><ele>157.0</ele><time>2026-04-16T04:39:25.2Z</time></trkpt><trkpt lat="45.5898467" lon="10.5138747"><ele>157.0</ele><time>2026-04-16T04:39:26.199Z</time></trkpt><trkpt lat="45.5900127" lon="10.5136978"><ele>157.0</ele><time>2026-04-16T04:39:27.2Z</time></trkpt><trkpt lat="45.590184" lon="10.5135122"><ele>157.0</ele><time>2026-04-16T04:39:28.199Z</time></trkpt><trkpt lat="45.5903406" lon="10.5133239"><ele>157.0</ele><time>2026-04-16T04:39:29.199Z</time></trkpt><trkpt lat="45.5904675" lon="10.5131188"><ele>157.0</ele><time>2026-04-16T04:39:30.2Z</time></trkpt><trkpt lat="45.5905841" lon="10.5128927"><ele>158.0</ele><time>2026-04-16T04:39:31.199Z</time></trkpt><trkpt lat="45.5906838" lon="10.5126468"><ele>159.0</ele><time>2026-04-16T04:39:32.2Z</time></trkpt><trkpt lat="45.5907635" lon="10.5123969"><ele>160.0</ele><time>2026-04-16T04:39:33.199Z</time></trkpt><trkpt lat="45.5908186" lon="10.5121474"><ele>160.0</ele><time>2026-04-16T04:39:34.199Z</time></trkpt><trkpt lat="45.5908698" lon="10.5118749"><ele>160.0</ele><time>2026-04-16T04:39:35.2Z</time></trkpt><trkpt lat="45.5909226" lon="10.5115875"><ele>160.0</ele><time>2026-04-16T04:39:36.199Z</time></trkpt><trkpt lat="45.590985" lon="10.5112934"><ele>159.66666666666669</ele><time>2026-04-16T04:39:37.2Z</time></trkpt><trkpt lat="45.5910442" lon="10.5109895"><ele>159.33333333333334</ele><time>2026-04-16T04:39:38.199Z</time></trkpt><trkpt lat="45.5911033" lon="10.5106887"><ele>159.0</ele><time>2026-04-16T04:39:39.2Z</time></trkpt><trkpt lat="45.5911696" lon="10.5103827"><ele>162.0</ele><time>2026-04-16T04:39:40.199Z</time></trkpt><trkpt lat="45.5912365" lon="10.5100696"><ele>165.0</ele><time>2026-04-16T04:39:41.199Z</time></trkpt><trkpt lat="45.591305" lon="10.5097591"><ele>165.0</ele><time>2026-04-16T04:39:42.2Z</time></trkpt><trkpt lat="45.5913706" lon="10.5094573"><ele>165.0</ele><time>2026-04-16T04:39:43.199Z</time></trkpt><trkpt lat="45.5914397" lon="10.5091621"><ele>165.0</ele><time>2026-04-16T04:39:44.199Z</time></trkpt><trkpt lat="45.5915058" lon="10.5088751"><ele>164.66666666666666</ele><time>2026-04-16T04:39:45.199Z</time></trkpt><trkpt lat="45.5915725" lon="10.508599"><ele>164.33333333333331</ele><time>2026-04-16T04:39:46.2Z</time></trkpt><trkpt lat="45.5916393" lon="10.5083328"><ele>164.0</ele><time>2026-04-16T04:39:47.2Z</time></trkpt><trkpt lat="45.5917078" lon="10.5080649"><ele>163.33333333333331</ele><time>2026-04-16T04:39:48.199Z</time></trkpt><trkpt lat="45.5917819" lon="10.5077971"><ele>162.66666666666666</ele><time>2026-04-16T04:39:49.199Z</time></trkpt><trkpt lat="45.5918564" lon="10.5075283"><ele>162.0</ele><time>2026-04-16T04:39:50.2Z</time></trkpt><trkpt lat="45.5919446" lon="10.5072485"><ele>162.0</ele><time>2026-04-16T04:39:51.2Z</time></trkpt><trkpt lat="45.5920425" lon="10.5069706"><ele>162.0</ele><time>2026-04-16T04:39:52.2Z</time></trkpt><trkpt lat="45.592157" lon="10.5066886"><ele>162.0</ele><time>2026-04-16T04:39:53.199Z</time></trkpt><trkpt lat="45.5922824" lon="10.5064087"><ele>163.0</ele><time>2026-04-16T04:39:54.2Z</time></trkpt><trkpt lat="45.592425" lon="10.5061348"><ele>164.0</ele><time>2026-04-16T04:39:55.2Z</time></trkpt><trkpt lat="45.5925695" lon="10.5058573"><ele>164.0</ele><time>2026-04-16T04:39:56.199Z</time></trkpt><trkpt lat="45.5927195" lon="10.5055774"><ele>164.0</ele><time>2026-04-16T04:39:57.2Z</time></trkpt><trkpt lat="45.592871" lon="10.5052956"><ele>165.5</ele><time>2026-04-16T04:39:58.2Z</time></trkpt><trkpt lat="45.5930334" lon="10.5050277"><ele>167.0</ele><time>2026-04-16T04:39:59.199Z</time></trkpt><trkpt lat="45.5932123" lon="10.5047906"><ele>168.5</ele><time>2026-04-16T04:40:00.199Z</time></trkpt><trkpt lat="45.5934025" lon="10.5045794"><ele>170.0</ele><time>2026-04-16T04:40:01.199Z</time></trkpt><trkpt lat="45.593599" lon="10.5044275"><ele>169.0</ele><time>2026-04-16T04:40:02.199Z</time></trkpt><trkpt lat="45.5938187" lon="10.5043117"><ele>168.0</ele><time>2026-04-16T04:40:03.2Z</time></trkpt><trkpt lat="45.5940362" lon="10.5042195"><ele>168.0</ele><time>2026-04-16T04:40:04.199Z</time></trkpt><trkpt lat="45.5942567" lon="10.5041513"><ele>168.0</ele><time>2026-04-16T04:40:05.2Z</time></trkpt><trkpt lat="45.5944968" lon="10.5041032"><ele>168.5</ele><time>2026-04-16T04:40:06.199Z</time></trkpt><trkpt lat="45.594746" lon="10.5040837"><ele>169.0</ele><time>2026-04-16T04:40:07.2Z</time></trkpt><trkpt lat="45.5950054" lon="10.5040865"><ele>169.0</ele><time>2026-04-16T04:40:08.2Z</time></trkpt><trkpt lat="45.5952715" lon="10.5040894"><ele>169.0</ele><time>2026-04-16T04:40:09.2Z</time></trkpt><trkpt lat="45.5955411" lon="10.5040814"><ele>171.0</ele><time>2026-04-16T04:40:10.2Z</time></trkpt><trkpt lat="45.5958179" lon="10.5040748"><ele>173.0</ele><time>2026-04-16T04:40:11.2Z</time></trkpt><trkpt lat="45.5961031" lon="10.5040798"><ele>172.0</ele><time>2026-04-16T04:40:12.2Z</time></trkpt><trkpt lat="45.5963889" lon="10.5040729"><ele>171.0</ele><time>2026-04-16T04:40:13.2Z</time></trkpt><trkpt lat="45.596674" lon="10.5040726"><ele>171.0</ele><time>2026-04-16T04:40:14.2Z</time></trkpt><trkpt lat="45.5969553" lon="10.5040707"><ele>171.0</ele><time>2026-04-16T04:40:15.2Z</time></trkpt><trkpt lat="45.5972381" lon="10.5040681"><ele>171.0</ele><time>2026-04-16T04:40:16.2Z</time></trkpt><trkpt lat="45.5975078" lon="10.504063"><ele>171.0</ele><time>2026-04-16T04:40:17.199Z</time></trkpt><trkpt lat="45.5977615" lon="10.5040473"><ele>172.66666666666666</ele><time>2026-04-16T04:40:18.2Z</time></trkpt><trkpt lat="45.5979912" lon="10.5040068"><ele>174.33333333333331</ele><time>2026-04-16T04:40:19.199Z</time></trkpt><trkpt lat="45.5981968" lon="10.5039389"><ele>176.0</ele><time>2026-04-16T04:40:20.2Z</time></trkpt><trkpt lat="45.5983831" lon="10.5038547"><ele>176.0</ele><time>2026-04-16T04:40:21.2Z</time></trkpt><trkpt lat="45.5985634" lon="10.5037557"><ele>176.0</ele><time>2026-04-16T04:40:22.199Z</time></trkpt><trkpt lat="45.5987341" lon="10.5036489"><ele>176.0</ele><time>2026-04-16T04:40:23.2Z</time></trkpt><trkpt lat="45.5988886" lon="10.5035209"><ele>176.66666666666666</ele><time>2026-04-16T04:40:24.2Z</time></trkpt><trkpt lat="45.5990325" lon="10.5033793"><ele>177.33333333333334</ele><time>2026-04-16T04:40:25.2Z</time></trkpt><trkpt lat="45.5991655" lon="10.5032365"><ele>178.0</ele><time>2026-04-16T04:40:26.2Z</time></trkpt><trkpt lat="45.5992961" lon="10.5030917"><ele>178.0</ele><time>2026-04-16T04:40:27.199Z</time></trkpt><trkpt lat="45.5994264" lon="10.5029491"><ele>178.0</ele><time>2026-04-16T04:40:28.2Z</time></trkpt><trkpt lat="45.5995546" lon="10.5028168"><ele>178.0</ele><time>2026-04-16T04:40:29.2Z</time></trkpt><trkpt lat="45.5996872" lon="10.5027207"><ele>179.33333333333334</ele><time>2026-04-16T04:40:30.2Z</time></trkpt><trkpt lat="45.5998346" lon="10.5026714"><ele>180.66666666666666</ele><time>2026-04-16T04:40:31.2Z</time></trkpt><trkpt lat="45.5999861" lon="10.5026429"><ele>182.0</ele><time>2026-04-16T04:40:32.199Z</time></trkpt><trkpt lat="45.6001399" lon="10.5026582"><ele>182.0</ele><time>2026-04-16T04:40:33.2Z</time></trkpt><trkpt lat="45.6002927" lon="10.5026894"><ele>182.0</ele><time>2026-04-16T04:40:34.199Z</time></trkpt><trkpt lat="45.6004363" lon="10.5027394"><ele>182.0</ele><time>2026-04-16T04:40:35.199Z</time></trkpt><trkpt lat="45.6005808" lon="10.5027773"><ele>182.0</ele><time>2026-04-16T04:40:36.2Z</time></trkpt><trkpt lat="45.6007267" lon="10.5027934"><ele>181.75</ele><time>2026-04-16T04:40:37.2Z</time></trkpt><trkpt lat="45.6008681" lon="10.5027999"><ele>181.5</ele><time>2026-04-16T04:40:38.199Z</time></trkpt><trkpt lat="45.6010055" lon="10.5027408"><ele>181.25</ele><time>2026-04-16T04:40:39.199Z</time></trkpt><trkpt lat="45.6011371" lon="10.5026797"><ele>181.0</ele><time>2026-04-16T04:40:40.2Z</time></trkpt><trkpt lat="45.6012731" lon="10.5025894"><ele>180.33333333333334</ele><time>2026-04-16T04:40:41.2Z</time></trkpt><trkpt lat="45.6014062" lon="10.502462"><ele>179.66666666666666</ele><time>2026-04-16T04:40:42.199Z</time></trkpt><trkpt lat="45.6015634" lon="10.5022715"><ele>179.0</ele><time>2026-04-16T04:40:43.2Z</time></trkpt><trkpt lat="45.6017464" lon="10.5020625"><ele>177.0</ele><time>2026-04-16T04:40:44.2Z</time></trkpt><trkpt lat="45.6019422" lon="10.5018592"><ele>175.0</ele><time>2026-04-16T04:40:45.199Z</time></trkpt><trkpt lat="45.6021489" lon="10.5016456"><ele>175.0</ele><time>2026-04-16T04:40:46.199Z</time></trkpt><trkpt lat="45.6023717" lon="10.5013966"><ele>175.0</ele><time>2026-04-16T04:40:47.2Z</time></trkpt><trkpt lat="45.6025964" lon="10.5011552"><ele>177.5</ele><time>2026-04-16T04:40:48.2Z</time></trkpt><trkpt lat="45.602808" lon="10.5009182"><ele>180.0</ele><time>2026-04-16T04:40:49.199Z</time></trkpt><trkpt lat="45.6030072" lon="10.500704"><ele>180.0</ele><time>2026-04-16T04:40:50.2Z</time></trkpt><trkpt lat="45.603188" lon="10.5004964"><ele>180.0</ele><time>2026-04-16T04:40:51.199Z</time></trkpt><trkpt lat="45.6033454" lon="10.5003154"><ele>180.0</ele><time>2026-04-16T04:40:52.2Z</time></trkpt><trkpt lat="45.6035098" lon="10.5001714"><ele>181.66666666666666</ele><time>2026-04-16T04:40:53.2Z</time></trkpt><trkpt lat="45.60368" lon="10.5000875"><ele>183.33333333333331</ele><time>2026-04-16T04:40:54.2Z</time></trkpt><trkpt lat="45.6038512" lon="10.5000444"><ele>185.0</ele><time>2026-04-16T04:40:55.2Z</time></trkpt><trkpt lat="45.6040434" lon="10.5000479"><ele>185.0</ele><time>2026-04-16T04:40:56.2Z</time></trkpt><trkpt lat="45.6042451" lon="10.5000634"><ele>185.0</ele><time>2026-04-16T04:40:57.2Z</time></trkpt><trkpt lat="45.604462" lon="10.5000828"><ele>185.0</ele><time>2026-04-16T04:40:58.2Z</time></trkpt><trkpt lat="45.6046831" lon="10.5000867"><ele>184.66666666666666</ele><time>2026-04-16T04:40:59.199Z</time></trkpt><trkpt lat="45.6048812" lon="10.5000677"><ele>184.33333333333334</ele><time>2026-04-16T04:41:00.2Z</time></trkpt><trkpt lat="45.6050573" lon="10.500002"><ele>184.0</ele><time>2026-04-16T04:41:01.2Z</time></trkpt><trkpt lat="45.6052085" lon="10.4998994"><ele>183.66666666666669</ele><time>2026-04-16T04:41:02.199Z</time></trkpt><trkpt lat="45.6053566" lon="10.4997583"><ele>183.33333333333334</ele><time>2026-04-16T04:41:03.2Z</time></trkpt><trkpt lat="45.60549" lon="10.4995866"><ele>183.0</ele><time>2026-04-16T04:41:04.2Z</time></trkpt><trkpt lat="45.6056113" lon="10.4993748"><ele>183.0</ele><time>2026-04-16T04:41:05.2Z</time></trkpt><trkpt lat="45.6057062" lon="10.499113"><ele>183.0</ele><time>2026-04-16T04:41:06.198Z</time></trkpt><trkpt lat="45.6057859" lon="10.4988205"><ele>183.0</ele><time>2026-04-16T04:41:07.199Z</time></trkpt><trkpt lat="45.6058715" lon="10.4985071"><ele>189.0</ele><time>2026-04-16T04:41:08.199Z</time></trkpt><trkpt lat="45.6059826" lon="10.4981792"><ele>195.0</ele><time>2026-04-16T04:41:09.199Z</time></trkpt><trkpt lat="45.6060956" lon="10.4978285"><ele>192.5</ele><time>2026-04-16T04:41:10.199Z</time></trkpt><trkpt lat="45.6062201" lon="10.4974502"><ele>190.0</ele><time>2026-04-16T04:41:11.199Z</time></trkpt><trkpt lat="45.6063421" lon="10.4970705"><ele>190.0</ele><time>2026-04-16T04:41:12.199Z</time></trkpt><trkpt lat="45.6064678" lon="10.4967127"><ele>190.0</ele><time>2026-04-16T04:41:13.198Z</time></trkpt><trkpt lat="45.6065716" lon="10.4963594"><ele>194.0</ele><time>2026-04-16T04:41:14.199Z</time></trkpt><trkpt lat="45.60666" lon="10.496017"><ele>198.0</ele><time>2026-04-16T04:41:15.199Z</time></trkpt><trkpt lat="45.6067218" lon="10.495663"><ele>198.5</ele><time>2026-04-16T04:41:16.199Z</time></trkpt><trkpt lat="45.606741" lon="10.4953155"><ele>199.0</ele><time>2026-04-16T04:41:17.198Z</time></trkpt><trkpt lat="45.6067453" lon="10.4949464"><ele>199.5</ele><time>2026-04-16T04:41:18.199Z</time></trkpt><trkpt lat="45.6067261" lon="10.4945677"><ele>200.0</ele><time>2026-04-16T04:41:19.199Z</time></trkpt><trkpt lat="45.6066885" lon="10.4941851"><ele>200.0</ele><time>2026-04-16T04:41:20.198Z</time></trkpt><trkpt lat="45.6066319" lon="10.4937921"><ele>200.0</ele><time>2026-04-16T04:41:21.199Z</time></trkpt><trkpt lat="45.6065576" lon="10.4933878"><ele>198.0</ele><time>2026-04-16T04:41:22.199Z</time></trkpt><trkpt lat="45.6064764" lon="10.4929618"><ele>196.0</ele><time>2026-04-16T04:41:23.199Z</time></trkpt><trkpt lat="45.6063833" lon="10.4925227"><ele>192.5</ele><time>2026-04-16T04:41:24.199Z</time></trkpt><trkpt lat="45.6062832" lon="10.492064"><ele>189.0</ele><time>2026-04-16T04:41:25.199Z</time></trkpt><trkpt lat="45.6061961" lon="10.4916082"><ele>201.0</ele><time>2026-04-16T04:41:26.198Z</time></trkpt><trkpt lat="45.6061046" lon="10.491193"><ele>213.0</ele><time>2026-04-16T04:41:27.199Z</time></trkpt><trkpt lat="45.606013" lon="10.4907891"><ele>210.0</ele><time>2026-04-16T04:41:28.198Z</time></trkpt><trkpt lat="45.605928" lon="10.4903834"><ele>207.0</ele><time>2026-04-16T04:41:29.199Z</time></trkpt><trkpt lat="45.6058432" lon="10.4899802"><ele>207.0</ele><time>2026-04-16T04:41:30.199Z</time></trkpt><trkpt lat="45.605762" lon="10.4895922"><ele>207.0</ele><time>2026-04-16T04:41:31.199Z</time></trkpt><trkpt lat="45.6056813" lon="10.4892326"><ele>205.5</ele><time>2026-04-16T04:41:32.199Z</time></trkpt><trkpt lat="45.6056272" lon="10.4888802"><ele>204.0</ele><time>2026-04-16T04:41:33.198Z</time></trkpt><trkpt lat="45.6055993" lon="10.4885126"><ele>203.0</ele><time>2026-04-16T04:41:34.198Z</time></trkpt><trkpt lat="45.6056045" lon="10.4881558"><ele>202.0</ele><time>2026-04-16T04:41:35.199Z</time></trkpt><trkpt lat="45.605641" lon="10.4877889"><ele>201.5</ele><time>2026-04-16T04:41:36.198Z</time></trkpt><trkpt lat="45.6056945" lon="10.4874213"><ele>201.0</ele><time>2026-04-16T04:41:37.199Z</time></trkpt><trkpt lat="45.6057544" lon="10.4870504"><ele>204.5</ele><time>2026-04-16T04:41:38.199Z</time></trkpt><trkpt lat="45.6058198" lon="10.486682"><ele>208.0</ele><time>2026-04-16T04:41:39.199Z</time></trkpt><trkpt lat="45.6058964" lon="10.4863225"><ele>212.0</ele><time>2026-04-16T04:41:40.199Z</time></trkpt><trkpt lat="45.6059874" lon="10.4859645"><ele>216.0</ele><time>2026-04-16T04:41:41.199Z</time></trkpt><trkpt lat="45.6060755" lon="10.4856222"><ele>206.5</ele><time>2026-04-16T04:41:42.199Z</time></trkpt><trkpt lat="45.606164" lon="10.4852856"><ele>197.0</ele><time>2026-04-16T04:41:43.198Z</time></trkpt><trkpt lat="45.6062366" lon="10.4849428"><ele>201.5</ele><time>2026-04-16T04:41:44.198Z</time></trkpt><trkpt lat="45.6062998" lon="10.4845794"><ele>206.0</ele><time>2026-04-16T04:41:45.199Z</time></trkpt><trkpt lat="45.6063228" lon="10.4841962"><ele>206.0</ele><time>2026-04-16T04:41:46.198Z</time></trkpt><trkpt lat="45.6063492" lon="10.4838042"><ele>206.0</ele><time>2026-04-16T04:41:47.199Z</time></trkpt><trkpt lat="45.6047982" lon="10.4678607"><ele>213.66666666666669</ele><time>2026-04-16T04:42:35.199Z</time></trkpt><trkpt lat="45.6048673" lon="10.4676811"><ele>221.33333333333331</ele><time>2026-04-16T04:42:36.199Z</time></trkpt><trkpt lat="45.6050432" lon="10.4673754"><ele>229.0</ele><time>2026-04-16T04:42:37.199Z</time></trkpt><trkpt lat="45.6050812" lon="10.4672152"><ele>227.5</ele><time>2026-04-16T04:42:38.198Z</time></trkpt><trkpt lat="45.6051674" lon="10.467104"><ele>226.0</ele><time>2026-04-16T04:42:39.198Z</time></trkpt><trkpt lat="45.605259" lon="10.4670161"><ele>224.5</ele><time>2026-04-16T04:42:40.199Z</time></trkpt><trkpt lat="45.605367" lon="10.4669763"><ele>223.0</ele><time>2026-04-16T04:42:41.198Z</time></trkpt><trkpt lat="45.6054885" lon="10.4669715"><ele>222.25</ele><time>2026-04-16T04:42:42.198Z</time></trkpt><trkpt lat="45.6055963" lon="10.4669954"><ele>221.5</ele><time>2026-04-16T04:42:43.198Z</time></trkpt><trkpt lat="45.605702" lon="10.4670594"><ele>220.75</ele><time>2026-04-16T04:42:44.198Z</time></trkpt><trkpt lat="45.605801" lon="10.467172"><ele>220.0</ele><time>2026-04-16T04:42:45.199Z</time></trkpt><trkpt lat="45.6058815" lon="10.4673291"><ele>219.66666666666666</ele><time>2026-04-16T04:42:46.199Z</time></trkpt><trkpt lat="45.6059515" lon="10.4675061"><ele>219.33333333333331</ele><time>2026-04-16T04:42:47.199Z</time></trkpt><trkpt lat="45.6060283" lon="10.4677083"><ele>219.0</ele><time>2026-04-16T04:42:48.199Z</time></trkpt><trkpt lat="45.6061214" lon="10.4679737"><ele>219.66666666666669</ele><time>2026-04-16T04:42:49.199Z</time></trkpt><trkpt lat="45.6061145" lon="10.4681676"><ele>220.33333333333334</ele><time>2026-04-16T04:42:50.198Z</time></trkpt><trkpt lat="45.6061834" lon="10.4684136"><ele>221.0</ele><time>2026-04-16T04:42:51.199Z</time></trkpt><trkpt lat="45.6062819" lon="10.4686844"><ele>221.0</ele><time>2026-04-16T04:42:52.199Z</time></trkpt><trkpt lat="45.6063805" lon="10.4689303"><ele>221.0</ele><time>2026-04-16T04:42:53.198Z</time></trkpt><trkpt lat="45.607591" lon="10.469969"><ele>220.0</ele><time>2026-04-16T04:43:03.199Z</time></trkpt><trkpt lat="45.6076963" lon="10.4699954"><ele>219.0</ele><time>2026-04-16T04:43:04.199Z</time></trkpt><trkpt lat="45.607824" lon="10.4700322"><ele>218.0</ele><time>2026-04-16T04:43:05.198Z</time></trkpt><trkpt lat="45.6079559" lon="10.4700664"><ele>217.0</ele><time>2026-04-16T04:43:06.199Z</time></trkpt><trkpt lat="45.6080921" lon="10.4700803"><ele>216.25</ele><time>2026-04-16T04:43:07.199Z</time></trkpt><trkpt lat="45.6082318" lon="10.4700855"><ele>215.5</ele><time>2026-04-16T04:43:08.198Z</time></trkpt><trkpt lat="45.6083654" lon="10.4700843"><ele>214.75</ele><time>2026-04-16T04:43:09.198Z</time></trkpt><trkpt lat="45.6084878" lon="10.4700793"><ele>214.0</ele><time>2026-04-16T04:43:10.199Z</time></trkpt><trkpt lat="45.60862" lon="10.470071"><ele>217.0</ele><time>2026-04-16T04:43:11.199Z</time></trkpt><trkpt lat="45.6087532" lon="10.470069"><ele>220.0</ele><time>2026-04-16T04:43:12.199Z</time></trkpt><trkpt lat="45.6088839" lon="10.4700624"><ele>223.0</ele><time>2026-04-16T04:43:13.199Z</time></trkpt><trkpt lat="45.6090096" lon="10.4700601"><ele>226.0</ele><time>2026-04-16T04:43:14.199Z</time></trkpt><trkpt lat="45.6091317" lon="10.4700494"><ele>226.0</ele><time>2026-04-16T04:43:15.199Z</time></trkpt><trkpt lat="45.6092512" lon="10.4700385"><ele>226.0</ele><time>2026-04-16T04:43:16.199Z</time></trkpt><trkpt lat="45.6093645" lon="10.4700274"><ele>226.0</ele><time>2026-04-16T04:43:17.199Z</time></trkpt><trkpt lat="45.609485" lon="10.470022"><ele>226.0</ele><time>2026-04-16T04:43:18.199Z</time></trkpt><trkpt lat="45.6178482" lon="10.4807642"><ele>232.0</ele><time>2026-04-16T04:44:33.198Z</time></trkpt><trkpt lat="45.6179977" lon="10.4808732"><ele>238.0</ele><time>2026-04-16T04:44:34.199Z</time></trkpt><trkpt lat="45.6181529" lon="10.480983"><ele>244.0</ele><time>2026-04-16T04:44:35.199Z</time></trkpt><trkpt lat="45.6182973" lon="10.4810757"><ele>244.0</ele><time>2026-04-16T04:44:36.199Z</time></trkpt><trkpt lat="45.6184499" lon="10.481182"><ele>244.0</ele><time>2026-04-16T04:44:37.198Z</time></trkpt><trkpt lat="45.6186126" lon="10.4812885"><ele>244.0</ele><time>2026-04-16T04:44:38.198Z</time></trkpt><trkpt lat="45.6188116" lon="10.4814256"><ele>244.5</ele><time>2026-04-16T04:44:39.198Z</time></trkpt><trkpt lat="45.6190365" lon="10.4815736"><ele>245.0</ele><time>2026-04-16T04:44:40.199Z</time></trkpt><trkpt lat="45.6192633" lon="10.4817559"><ele>245.0</ele><time>2026-04-16T04:44:41.199Z</time></trkpt><trkpt lat="45.6194832" lon="10.4819645"><ele>245.0</ele><time>2026-04-16T04:44:42.198Z</time></trkpt><trkpt lat="45.6197027" lon="10.4821737"><ele>251.0</ele><time>2026-04-16T04:44:43.199Z</time></trkpt><trkpt lat="45.6199015" lon="10.4823912"><ele>257.0</ele><time>2026-04-16T04:44:44.198Z</time></trkpt><trkpt lat="45.620095" lon="10.482614"><ele>257.0</ele><time>2026-04-16T04:44:45.198Z</time></trkpt><trkpt lat="45.6202912" lon="10.4828368"><ele>257.0</ele><time>2026-04-16T04:44:46.198Z</time></trkpt><trkpt lat="45.6205677" lon="10.48332"><ele>252.0</ele><time>2026-04-16T04:44:48.198Z</time></trkpt><trkpt lat="45.6317133" lon="10.4951069"><ele>252.0</ele><time>2026-04-16T04:45:42.199Z</time></trkpt><trkpt lat="45.6318436" lon="10.4952448"><ele>252.0</ele><time>2026-04-16T04:45:43.199Z</time></trkpt><trkpt lat="45.6319779" lon="10.4953723"><ele>252.0</ele><time>2026-04-16T04:45:44.198Z</time></trkpt><trkpt lat="45.632123" lon="10.4955075"><ele>252.66666666666669</ele><time>2026-04-16T04:45:45.198Z</time></trkpt><trkpt lat="45.6322788" lon="10.4956363"><ele>253.33333333333334</ele><time>2026-04-16T04:45:46.199Z</time></trkpt><trkpt lat="45.6324403" lon="10.4957523"><ele>254.0</ele><time>2026-04-16T04:45:47.199Z</time></trkpt><trkpt lat="45.6326171" lon="10.4958457"><ele>254.0</ele><time>2026-04-16T04:45:48.199Z</time></trkpt><trkpt lat="45.6328022" lon="10.495923"><ele>254.0</ele><time>2026-04-16T04:45:49.199Z</time></trkpt><trkpt lat="45.6329808" lon="10.4960014"><ele>254.0</ele><time>2026-04-16T04:45:50.198Z</time></trkpt><trkpt lat="45.6331529" lon="10.4960799"><ele>254.33333333333334</ele><time>2026-04-16T04:45:51.199Z</time></trkpt><trkpt lat="45.6333351" lon="10.4961434"><ele>254.66666666666669</ele><time>2026-04-16T04:45:52.199Z</time></trkpt><trkpt lat="45.633513" lon="10.4961795"><ele>255.0</ele><time>2026-04-16T04:45:53.198Z</time></trkpt><trkpt lat="45.6336849" lon="10.4962141"><ele>255.0</ele><time>2026-04-16T04:45:54.198Z</time></trkpt><trkpt lat="45.6338591" lon="10.4962397"><ele>255.0</ele><time>2026-04-16T04:45:55.198Z</time></trkpt><trkpt lat="45.6340373" lon="10.4962711"><ele>255.0</ele><time>2026-04-16T04:45:56.199Z</time></trkpt><trkpt lat="45.634217" lon="10.4962832"><ele>255.0</ele><time>2026-04-16T04:45:57.198Z</time></trkpt><trkpt lat="45.6343938" lon="10.4962841"><ele>255.0</ele><time>2026-04-16T04:45:58.199Z</time></trkpt><trkpt lat="45.6345675" lon="10.4962763"><ele>255.0</ele><time>2026-04-16T04:45:59.199Z</time></trkpt><trkpt lat="45.6347355" lon="10.4962696"><ele>256.3333333333333</ele><time>2026-04-16T04:46:00.198Z</time></trkpt><trkpt lat="45.6348958" lon="10.4962476"><ele>257.66666666666663</ele><time>2026-04-16T04:46:01.198Z</time></trkpt><trkpt lat="45.635046" lon="10.4962187"><ele>259.0</ele><time>2026-04-16T04:46:02.199Z</time></trkpt><trkpt lat="45.6352043" lon="10.4961968"><ele>259.66666666666663</ele><time>2026-04-16T04:46:03.199Z</time></trkpt><trkpt lat="45.6353715" lon="10.4961698"><ele>260.3333333333333</ele><time>2026-04-16T04:46:04.199Z</time></trkpt><trkpt lat="45.6355312" lon="10.4961484"><ele>261.0</ele><time>2026-04-16T04:46:05.199Z</time></trkpt><trkpt lat="45.6356853" lon="10.496128"><ele>261.0</ele><time>2026-04-16T04:46:06.199Z</time></trkpt><trkpt lat="45.6358365" lon="10.4960979"><ele>261.0</ele><time>2026-04-16T04:46:07.198Z</time></trkpt><trkpt lat="45.635987" lon="10.4960623"><ele>261.0</ele><time>2026-04-16T04:46:08.198Z</time></trkpt><trkpt lat="45.6361468" lon="10.4960352"><ele>262.0</ele><time>2026-04-16T04:46:09.197Z</time></trkpt><trkpt lat="45.636309" lon="10.4960018"><ele>263.0</ele><time>2026-04-16T04:46:10.197Z</time></trkpt><trkpt lat="45.6364773" lon="10.4959639"><ele>264.0</ele><time>2026-04-16T04:46:11.197Z</time></trkpt><trkpt lat="45.6366483" lon="10.4959291"><ele>264.0</ele><time>2026-04-16T04:46:12.197Z</time></trkpt><trkpt lat="45.636817" lon="10.4958862"><ele>264.0</ele><time>2026-04-16T04:46:13.198Z</time></trkpt><trkpt lat="45.6369853" lon="10.4958342"><ele>264.0</ele><time>2026-04-16T04:46:14.197Z</time></trkpt><trkpt lat="45.6371535" lon="10.4957781"><ele>262.3333333333333</ele><time>2026-04-16T04:46:15.198Z</time></trkpt><trkpt lat="45.6373233" lon="10.4957068"><ele>260.66666666666663</ele><time>2026-04-16T04:46:16.198Z</time></trkpt><trkpt lat="45.6375118" lon="10.4956235"><ele>259.0</ele><time>2026-04-16T04:46:17.197Z</time></trkpt><trkpt lat="45.6377213" lon="10.4955151"><ele>260.5</ele><time>2026-04-16T04:46:18.198Z</time></trkpt><trkpt lat="45.6379487" lon="10.4953682"><ele>262.0</ele><time>2026-04-16T04:46:19.197Z</time></trkpt><trkpt lat="45.6382283" lon="10.4952324"><ele>262.0</ele><time>2026-04-16T04:46:20.197Z</time></trkpt><trkpt lat="45.638535" lon="10.4950943"><ele>262.0</ele><time>2026-04-16T04:46:21.197Z</time></trkpt><trkpt lat="45.6388395" lon="10.4949574"><ele>261.0</ele><time>2026-04-16T04:46:22.198Z</time></trkpt><trkpt lat="45.6391124" lon="10.4948178"><ele>260.0</ele><time>2026-04-16T04:46:23.198Z</time></trkpt><trkpt lat="45.6393653" lon="10.4946579"><ele>263.5</ele><time>2026-04-16T04:46:24.197Z</time></trkpt><trkpt lat="45.6396058" lon="10.4944708"><ele>267.0</ele><time>2026-04-16T04:46:25.198Z</time></trkpt><trkpt lat="45.6398247" lon="10.4942813"><ele>267.0</ele><time>2026-04-16T04:46:26.198Z</time></trkpt><trkpt lat="45.6400356" lon="10.4940886"><ele>267.0</ele><time>2026-04-16T04:46:27.198Z</time></trkpt><trkpt lat="45.6402276" lon="10.4938771"><ele>265.5</ele><time>2026-04-16T04:46:28.197Z</time></trkpt><trkpt lat="45.6404149" lon="10.4936651"><ele>264.0</ele><time>2026-04-16T04:46:29.197Z</time></trkpt><trkpt lat="45.6405815" lon="10.4934377"><ele>264.0</ele><time>2026-04-16T04:46:30.198Z</time></trkpt><trkpt lat="45.640732" lon="10.4932159"><ele>264.0</ele><time>2026-04-16T04:46:31.198Z</time></trkpt><trkpt lat="45.6408601" lon="10.4929896"><ele>264.0</ele><time>2026-04-16T04:46:32.198Z</time></trkpt><trkpt lat="45.6409849" lon="10.4927527"><ele>264.3333333333333</ele><time>2026-04-16T04:46:33.197Z</time></trkpt><trkpt lat="45.6410853" lon="10.4925238"><ele>264.66666666666663</ele><time>2026-04-16T04:46:34.198Z</time></trkpt><trkpt lat="45.6411777" lon="10.4923115"><ele>265.0</ele><time>2026-04-16T04:46:35.198Z</time></trkpt><trkpt lat="45.6412628" lon="10.4920961"><ele>268.66666666666663</ele><time>2026-04-16T04:46:36.198Z</time></trkpt><trkpt lat="45.6413389" lon="10.4918783"><ele>272.3333333333333</ele><time>2026-04-16T04:46:37.198Z</time></trkpt><trkpt lat="45.6414051" lon="10.4916678"><ele>276.0</ele><time>2026-04-16T04:46:38.198Z</time></trkpt><trkpt lat="45.6414634" lon="10.491462"><ele>284.6666666666667</ele><time>2026-04-16T04:46:39.197Z</time></trkpt><trkpt lat="45.6415132" lon="10.4912527"><ele>293.33333333333337</ele><time>2026-04-16T04:46:40.197Z</time></trkpt><trkpt lat="45.6415668" lon="10.4910418"><ele>302.0</ele><time>2026-04-16T04:46:41.197Z</time></trkpt><trkpt lat="45.6416228" lon="10.490835"><ele>254.0</ele><time>2026-04-16T04:46:42.197Z</time></trkpt><trkpt lat="45.6429948" lon="10.4658005"><ele>254.0</ele><time>2026-04-16T04:48:25.197Z</time></trkpt><trkpt lat="45.6430778" lon="10.4655621"><ele>254.0</ele><time>2026-04-16T04:48:26.198Z</time></trkpt><trkpt lat="45.6431576" lon="10.4653231"><ele>254.0</ele><time>2026-04-16T04:48:27.205Z</time></trkpt><trkpt lat="45.6432164" lon="10.4650814"><ele>254.33333333333334</ele><time>2026-04-16T04:48:28.206Z</time></trkpt><trkpt lat="45.6432845" lon="10.4648354"><ele>254.66666666666669</ele><time>2026-04-16T04:48:29.206Z</time></trkpt><trkpt lat="45.64335" lon="10.4645957"><ele>255.0</ele><time>2026-04-16T04:48:30.206Z</time></trkpt><trkpt lat="45.6434114" lon="10.4643631"><ele>255.0</ele><time>2026-04-16T04:48:31.205Z</time></trkpt><trkpt lat="45.6434844" lon="10.4641429"><ele>255.0</ele><time>2026-04-16T04:48:32.205Z</time></trkpt><trkpt lat="45.6435609" lon="10.4639251"><ele>255.0</ele><time>2026-04-16T04:48:33.206Z</time></trkpt><trkpt lat="45.6436256" lon="10.4637114"><ele>258.3333333333333</ele><time>2026-04-16T04:48:34.205Z</time></trkpt><trkpt lat="45.6436882" lon="10.4635038"><ele>261.66666666666663</ele><time>2026-04-16T04:48:35.206Z</time></trkpt><trkpt lat="45.64375" lon="10.463299"><ele>265.0</ele><time>2026-04-16T04:48:36.206Z</time></trkpt><trkpt lat="45.6438161" lon="10.4631006"><ele>265.66666666666663</ele><time>2026-04-16T04:48:37.206Z</time></trkpt><trkpt lat="45.6438873" lon="10.4629036"><ele>266.3333333333333</ele><time>2026-04-16T04:48:38.205Z</time></trkpt><trkpt lat="45.6439571" lon="10.462708"><ele>267.0</ele><time>2026-04-16T04:48:39.205Z</time></trkpt><trkpt lat="45.6440156" lon="10.462508"><ele>267.0</ele><time>2026-04-16T04:48:40.206Z</time></trkpt><trkpt lat="45.6440764" lon="10.462323"><ele>267.0</ele><time>2026-04-16T04:48:41.205Z</time></trkpt><trkpt lat="45.6441278" lon="10.4621604"><ele>267.0</ele><time>2026-04-16T04:48:42.205Z</time></trkpt><trkpt lat="45.6441798" lon="10.46202"><ele>267.0</ele><time>2026-04-16T04:48:43.206Z</time></trkpt><trkpt lat="45.6442257" lon="10.4618931"><ele>266.8333333333333</ele><time>2026-04-16T04:48:44.205Z</time></trkpt><trkpt lat="45.6442582" lon="10.4617834"><ele>266.6666666666667</ele><time>2026-04-16T04:48:45.206Z</time></trkpt><trkpt lat="45.6442855" lon="10.4616896"><ele>266.5</ele><time>2026-04-16T04:48:46.206Z</time></trkpt><trkpt lat="45.6443259" lon="10.4615456"><ele>266.33333333333337</ele><time>2026-04-16T04:48:48.205Z</time></trkpt><trkpt lat="45.6443405" lon="10.4614392"><ele>266.1666666666667</ele><time>2026-04-16T04:48:50.205Z</time></trkpt><trkpt lat="45.6442962" lon="10.4613291"><ele>266.0</ele><time>2026-04-16T04:48:52.205Z</time></trkpt><trkpt lat="45.644246" lon="10.4612627"><ele>265.6</ele><time>2026-04-16T04:48:53.206Z</time></trkpt><trkpt lat="45.6441749" lon="10.4612025"><ele>265.20000000000005</ele><time>2026-04-16T04:48:54.206Z</time></trkpt><trkpt lat="45.6440871" lon="10.4611674"><ele>264.79999999999995</ele><time>2026-04-16T04:48:55.205Z</time></trkpt><trkpt lat="45.6439978" lon="10.4611196"><ele>264.4</ele><time>2026-04-16T04:48:56.205Z</time></trkpt><trkpt lat="45.6439084" lon="10.4610648"><ele>264.0</ele><time>2026-04-16T04:48:57.206Z</time></trkpt><trkpt lat="45.6438207" lon="10.4610135"><ele>264.0</ele><time>2026-04-16T04:48:58.205Z</time></trkpt><trkpt lat="45.6437363" lon="10.460962"><ele>264.0</ele><time>2026-04-16T04:48:59.206Z</time></trkpt><trkpt lat="45.6436505" lon="10.4608944"><ele>264.0</ele><time>2026-04-16T04:49:00.205Z</time></trkpt><trkpt lat="45.6435725" lon="10.4608113"><ele>264.0</ele><time>2026-04-16T04:49:01.205Z</time></trkpt><trkpt lat="45.6435156" lon="10.460703"><ele>264.0</ele><time>2026-04-16T04:49:02.206Z</time></trkpt><trkpt lat="45.6434796" lon="10.4605734"><ele>263.59999999999997</ele><time>2026-04-16T04:49:03.206Z</time></trkpt><trkpt lat="45.6434657" lon="10.4604494"><ele>263.2</ele><time>2026-04-16T04:49:04.206Z</time></trkpt><trkpt lat="45.6434718" lon="10.4603309"><ele>262.79999999999995</ele><time>2026-04-16T04:49:05.206Z</time></trkpt><trkpt lat="45.6435151" lon="10.4602169"><ele>262.4</ele><time>2026-04-16T04:49:06.206Z</time></trkpt><trkpt lat="45.6435935" lon="10.4601216"><ele>262.0</ele><time>2026-04-16T04:49:07.206Z</time></trkpt><trkpt lat="45.6436992" lon="10.4600093"><ele>262.0</ele><time>2026-04-16T04:49:08.206Z</time></trkpt><trkpt lat="45.6437869" lon="10.4598864"><ele>262.0</ele><time>2026-04-16T04:49:09.205Z</time></trkpt><trkpt lat="45.6438733" lon="10.4597411"><ele>262.0</ele><time>2026-04-16T04:49:10.205Z</time></trkpt><trkpt lat="45.6439542" lon="10.4595989"><ele>262.0</ele><time>2026-04-16T04:49:11.206Z</time></trkpt><trkpt lat="45.6440295" lon="10.459456"><ele>261.75</ele><time>2026-04-16T04:49:12.205Z</time></trkpt><trkpt lat="45.6441125" lon="10.4593174"><ele>261.5</ele><time>2026-04-16T04:49:13.205Z</time></trkpt><trkpt lat="45.644195" lon="10.4591781"><ele>261.25</ele><time>2026-04-16T04:49:14.205Z</time></trkpt><trkpt lat="45.6442838" lon="10.4590318"><ele>261.0</ele><time>2026-04-16T04:49:15.206Z</time></trkpt><trkpt lat="45.6443736" lon="10.4588526"><ele>262.6666666666667</ele><time>2026-04-16T04:49:16.205Z</time></trkpt><trkpt lat="45.6444681" lon="10.4586528"><ele>264.33333333333337</ele><time>2026-04-16T04:49:17.205Z</time></trkpt><trkpt lat="45.6445779" lon="10.458444"><ele>266.0</ele><time>2026-04-16T04:49:18.205Z</time></trkpt><trkpt lat="45.6446844" lon="10.4582199"><ele>266.0</ele><time>2026-04-16T04:49:19.205Z</time></trkpt><trkpt lat="45.644809" lon="10.4579916"><ele>266.0</ele><time>2026-04-16T04:49:20.206Z</time></trkpt><trkpt lat="45.6449277" lon="10.457761"><ele>266.0</ele><time>2026-04-16T04:49:21.205Z</time></trkpt><trkpt lat="45.6450499" lon="10.4575315"><ele>265.0</ele><time>2026-04-16T04:49:22.205Z</time></trkpt><trkpt lat="45.6451585" lon="10.4573185"><ele>264.0</ele><time>2026-04-16T04:49:23.205Z</time></trkpt><trkpt lat="45.6452554" lon="10.4571009"><ele>263.0</ele><time>2026-04-16T04:49:24.206Z</time></trkpt><trkpt lat="45.6453458" lon="10.456893"><ele>264.33333333333337</ele><time>2026-04-16T04:49:25.206Z</time></trkpt><trkpt lat="45.645436" lon="10.4566645"><ele>265.6666666666667</ele><time>2026-04-16T04:49:26.206Z</time></trkpt><trkpt lat="45.6455263" lon="10.456441"><ele>267.0</ele><time>2026-04-16T04:49:27.205Z</time></trkpt><trkpt lat="45.6456035" lon="10.4562221"><ele>267.0</ele><time>2026-04-16T04:49:28.205Z</time></trkpt><trkpt lat="45.6456852" lon="10.4560072"><ele>267.0</ele><time>2026-04-16T04:49:29.206Z</time></trkpt><trkpt lat="45.6457564" lon="10.4557796"><ele>267.0</ele><time>2026-04-16T04:49:30.206Z</time></trkpt><trkpt lat="45.6458293" lon="10.4555669"><ele>266.6666666666667</ele><time>2026-04-16T04:49:31.206Z</time></trkpt><trkpt lat="45.6458986" lon="10.455361"><ele>266.33333333333337</ele><time>2026-04-16T04:49:32.206Z</time></trkpt><trkpt lat="45.6459629" lon="10.4551629"><ele>266.0</ele><time>2026-04-16T04:49:33.206Z</time></trkpt><trkpt lat="45.6460369" lon="10.4549628"><ele>266.0</ele><time>2026-04-16T04:49:34.205Z</time></trkpt><trkpt lat="45.646102" lon="10.4547565"><ele>266.0</ele><time>2026-04-16T04:49:35.206Z</time></trkpt><trkpt lat="45.6461712" lon="10.4545541"><ele>266.0</ele><time>2026-04-16T04:49:36.206Z</time></trkpt><trkpt lat="45.646244" lon="10.4543424"><ele>266.33333333333337</ele><time>2026-04-16T04:49:37.206Z</time></trkpt><trkpt lat="45.6463106" lon="10.4541246"><ele>266.6666666666667</ele><time>2026-04-16T04:49:38.206Z</time></trkpt><trkpt lat="45.6463809" lon="10.453915"><ele>267.0</ele><time>2026-04-16T04:49:39.205Z</time></trkpt><trkpt lat="45.6464511" lon="10.4536947"><ele>267.0</ele><time>2026-04-16T04:49:40.206Z</time></trkpt><trkpt lat="45.6465212" lon="10.4534909"><ele>267.0</ele><time>2026-04-16T04:49:41.206Z</time></trkpt><trkpt lat="45.6465896" lon="10.4532813"><ele>267.0</ele><time>2026-04-16T04:49:42.206Z</time></trkpt><trkpt lat="45.6466597" lon="10.4530673"><ele>266.6666666666667</ele><time>2026-04-16T04:49:43.206Z</time></trkpt><trkpt lat="45.6467336" lon="10.4528378"><ele>266.33333333333337</ele><time>2026-04-16T04:49:44.205Z</time></trkpt><trkpt lat="45.646809" lon="10.452599"><ele>266.0</ele><time>2026-04-16T04:49:45.206Z</time></trkpt><trkpt lat="45.6468929" lon="10.4523324"><ele>271.0</ele><time>2026-04-16T04:49:46.206Z</time></trkpt><trkpt lat="45.6469784" lon="10.4520515"><ele>276.0</ele><time>2026-04-16T04:49:47.205Z</time></trkpt><trkpt lat="45.6470635" lon="10.4517667"><ele>281.0</ele><time>2026-04-16T04:49:48.205Z</time></trkpt><trkpt lat="45.6471403" lon="10.451496"><ele>280.0</ele><time>2026-04-16T04:49:49.206Z</time></trkpt><trkpt lat="45.6472091" lon="10.4512388"><ele>279.0</ele><time>2026-04-16T04:49:50.206Z</time></trkpt><trkpt lat="45.6472717" lon="10.4510009"><ele>278.0</ele><time>2026-04-16T04:49:51.205Z</time></trkpt><trkpt lat="45.647329" lon="10.4507738"><ele>278.0</ele><time>2026-04-16T04:49:52.205Z</time></trkpt><trkpt lat="45.6473876" lon="10.4505721"><ele>278.0</ele><time>2026-04-16T04:49:53.206Z</time></trkpt><trkpt lat="45.6474475" lon="10.4503592"><ele>278.0</ele><time>2026-04-16T04:49:54.205Z</time></trkpt><trkpt lat="45.6475158" lon="10.4501473"><ele>275.6666666666667</ele><time>2026-04-16T04:49:55.206Z</time></trkpt><trkpt lat="45.6475923" lon="10.4499307"><ele>273.3333333333333</ele><time>2026-04-16T04:49:56.205Z</time></trkpt><trkpt lat="45.6476667" lon="10.4497239"><ele>271.0</ele><time>2026-04-16T04:49:57.206Z</time></trkpt><trkpt lat="45.6477448" lon="10.4495216"><ele>274.3333333333333</ele><time>2026-04-16T04:49:58.206Z</time></trkpt><trkpt lat="45.6478371" lon="10.4493231"><ele>277.6666666666667</ele><time>2026-04-16T04:49:59.206Z</time></trkpt><trkpt lat="45.6479488" lon="10.4491491"><ele>281.0</ele><time>2026-04-16T04:50:00.205Z</time></trkpt><trkpt lat="45.6480714" lon="10.4490105"><ele>281.0</ele><time>2026-04-16T04:50:01.205Z</time></trkpt><trkpt lat="45.6482082" lon="10.4488857"><ele>281.0</ele><time>2026-04-16T04:50:02.206Z</time></trkpt><trkpt lat="45.648348" lon="10.4487823"><ele>281.0</ele><time>2026-04-16T04:50:03.206Z</time></trkpt><trkpt lat="45.6484911" lon="10.448684"><ele>281.0</ele><time>2026-04-16T04:50:04.206Z</time></trkpt><trkpt lat="45.6486408" lon="10.4485876"><ele>281.0</ele><time>2026-04-16T04:50:05.206Z</time></trkpt><trkpt lat="45.6487921" lon="10.4485026"><ele>281.0</ele><time>2026-04-16T04:50:06.205Z</time></trkpt><trkpt lat="45.6489417" lon="10.4484242"><ele>281.0</ele><time>2026-04-16T04:50:07.206Z</time></trkpt><trkpt lat="45.6491008" lon="10.4483555"><ele>281.0</ele><time>2026-04-16T04:50:08.205Z</time></trkpt><trkpt lat="45.6492569" lon="10.448295"><ele>281.0</ele><time>2026-04-16T04:50:09.206Z</time></trkpt><trkpt lat="45.6494048" lon="10.4482265"><ele>275.33333333333337</ele><time>2026-04-16T04:50:10.206Z</time></trkpt><trkpt lat="45.6495559" lon="10.4481268"><ele>269.6666666666667</ele><time>2026-04-16T04:50:11.206Z</time></trkpt><trkpt lat="45.6497052" lon="10.4480059"><ele>264.0</ele><time>2026-04-16T04:50:12.205Z</time></trkpt><trkpt lat="45.649839" lon="10.4478694"><ele>264.0</ele><time>2026-04-16T04:50:13.206Z</time></trkpt><trkpt lat="45.6499758" lon="10.4477271"><ele>264.0</ele><time>2026-04-16T04:50:14.206Z</time></trkpt><trkpt lat="45.6500966" lon="10.4475967"><ele>264.0</ele><time>2026-04-16T04:50:15.205Z</time></trkpt><trkpt lat="45.6502063" lon="10.4474357"><ele>266.6666666666667</ele><time>2026-04-16T04:50:16.206Z</time></trkpt><trkpt lat="45.6503085" lon="10.4472612"><ele>269.33333333333337</ele><time>2026-04-16T04:50:17.205Z</time></trkpt><trkpt lat="45.6503947" lon="10.4470568"><ele>272.0</ele><time>2026-04-16T04:50:18.205Z</time></trkpt><trkpt lat="45.6504539" lon="10.4468234"><ele>272.0</ele><time>2026-04-16T04:50:19.205Z</time></trkpt><trkpt lat="45.6505045" lon="10.4465768"><ele>272.0</ele><time>2026-04-16T04:50:20.205Z</time></trkpt><trkpt lat="45.6505415" lon="10.4463297"><ele>272.0</ele><time>2026-04-16T04:50:21.205Z</time></trkpt><trkpt lat="45.650573" lon="10.4460824"><ele>271.0</ele><time>2026-04-16T04:50:22.206Z</time></trkpt><trkpt lat="45.6506071" lon="10.445848"><ele>270.0</ele><time>2026-04-16T04:50:23.205Z</time></trkpt><trkpt lat="45.6506462" lon="10.4456113"><ele>269.0</ele><time>2026-04-16T04:50:24.205Z</time></trkpt><trkpt lat="45.6506836" lon="10.4453656"><ele>267.6666666666667</ele><time>2026-04-16T04:50:25.205Z</time></trkpt><trkpt lat="45.6507214" lon="10.4451246"><ele>266.3333333333333</ele><time>2026-04-16T04:50:26.206Z</time></trkpt><trkpt lat="45.6507585" lon="10.4448964"><ele>265.0</ele><time>2026-04-16T04:50:27.205Z</time></trkpt><trkpt lat="45.650785" lon="10.4446793"><ele>264.3333333333333</ele><time>2026-04-16T04:50:28.205Z</time></trkpt><trkpt lat="45.6508155" lon="10.4444683"><ele>263.6666666666667</ele><time>2026-04-16T04:50:29.206Z</time></trkpt><trkpt lat="45.6508478" lon="10.4442467"><ele>263.0</ele><time>2026-04-16T04:50:30.206Z</time></trkpt><trkpt lat="45.6508741" lon="10.4440188"><ele>262.6666666666667</ele><time>2026-04-16T04:50:31.205Z</time></trkpt><trkpt lat="45.650901" lon="10.4437765"><ele>262.3333333333333</ele><time>2026-04-16T04:50:32.206Z</time></trkpt><trkpt lat="45.6509184" lon="10.4435322"><ele>262.0</ele><time>2026-04-16T04:50:33.205Z</time></trkpt><trkpt lat="45.6509231" lon="10.4432784"><ele>262.0</ele><time>2026-04-16T04:50:34.206Z</time></trkpt><trkpt lat="45.650928" lon="10.4430141"><ele>262.0</ele><time>2026-04-16T04:50:35.206Z</time></trkpt><trkpt lat="45.6509303" lon="10.4427407"><ele>262.0</ele><time>2026-04-16T04:50:36.205Z</time></trkpt><trkpt lat="45.6509246" lon="10.4424734"><ele>263.3333333333333</ele><time>2026-04-16T04:50:37.206Z</time></trkpt><trkpt lat="45.6509168" lon="10.4422094"><ele>264.6666666666667</ele><time>2026-04-16T04:50:38.205Z</time></trkpt><trkpt lat="45.6508917" lon="10.4419413"><ele>266.0</ele><time>2026-04-16T04:50:39.206Z</time></trkpt><trkpt lat="45.6508675" lon="10.4416736"><ele>266.6666666666667</ele><time>2026-04-16T04:50:40.206Z</time></trkpt><trkpt lat="45.6508332" lon="10.4414137"><ele>267.3333333333333</ele><time>2026-04-16T04:50:41.206Z</time></trkpt><trkpt lat="45.6507947" lon="10.4411507"><ele>268.0</ele><time>2026-04-16T04:50:42.206Z</time></trkpt><trkpt lat="45.6507498" lon="10.4408873"><ele>269.3333333333333</ele><time>2026-04-16T04:50:43.206Z</time></trkpt><trkpt lat="45.6507035" lon="10.44062"><ele>270.6666666666667</ele><time>2026-04-16T04:50:44.206Z</time></trkpt><trkpt lat="45.65066" lon="10.440359"><ele>272.0</ele><time>2026-04-16T04:50:45.205Z</time></trkpt><trkpt lat="45.6506046" lon="10.4400905"><ele>272.5</ele><time>2026-04-16T04:50:46.205Z</time></trkpt><trkpt lat="45.6505465" lon="10.4397842"><ele>273.0</ele><time>2026-04-16T04:50:47.205Z</time></trkpt><trkpt lat="45.6504899" lon="10.4394489"><ele>273.0</ele><time>2026-04-16T04:50:48.205Z</time></trkpt><trkpt lat="45.6504381" lon="10.4391074"><ele>273.0</ele><time>2026-04-16T04:50:49.205Z</time></trkpt><trkpt lat="45.6503738" lon="10.4387444"><ele>273.5</ele><time>2026-04-16T04:50:50.206Z</time></trkpt><trkpt lat="45.6503152" lon="10.438391"><ele>274.0</ele><time>2026-04-16T04:50:51.206Z</time></trkpt><trkpt lat="45.6502665" lon="10.438034"><ele>269.0</ele><time>2026-04-16T04:50:52.206Z</time></trkpt><trkpt lat="45.6502297" lon="10.4376828"><ele>264.0</ele><time>2026-04-16T04:50:53.206Z</time></trkpt><trkpt lat="45.6502051" lon="10.4373371"><ele>265.0</ele><time>2026-04-16T04:50:54.205Z</time></trkpt><trkpt lat="45.6501977" lon="10.4369861"><ele>266.0</ele><time>2026-04-16T04:50:55.206Z</time></trkpt><trkpt lat="45.6502113" lon="10.4366451"><ele>266.0</ele><time>2026-04-16T04:50:56.206Z</time></trkpt><trkpt lat="45.6502468" lon="10.4363196"><ele>266.0</ele><time>2026-04-16T04:50:57.206Z</time></trkpt><trkpt lat="45.650302" lon="10.4360061"><ele>268.0</ele><time>2026-04-16T04:50:58.205Z</time></trkpt><trkpt lat="45.6503754" lon="10.4357058"><ele>270.0</ele><time>2026-04-16T04:50:59.206Z</time></trkpt><trkpt lat="45.650462" lon="10.4354094"><ele>272.0</ele><time>2026-04-16T04:51:00.205Z</time></trkpt><trkpt lat="45.6505584" lon="10.4351286"><ele>272.0</ele><time>2026-04-16T04:51:01.205Z</time></trkpt><trkpt lat="45.6506726" lon="10.4348826"><ele>272.0</ele><time>2026-04-16T04:51:02.206Z</time></trkpt><trkpt lat="45.6507757" lon="10.4346752"><ele>272.0</ele><time>2026-04-16T04:51:03.206Z</time></trkpt><trkpt lat="45.6508571" lon="10.4345124"><ele>270.75</ele><time>2026-04-16T04:51:04.206Z</time></trkpt><trkpt lat="45.6509454" lon="10.4343482"><ele>269.5</ele><time>2026-04-16T04:51:05.206Z</time></trkpt><trkpt lat="45.6510262" lon="10.4341929"><ele>268.25</ele><time>2026-04-16T04:51:06.205Z</time></trkpt><trkpt lat="45.651112" lon="10.4340252"><ele>267.0</ele><time>2026-04-16T04:51:07.205Z</time></trkpt><trkpt lat="45.651193" lon="10.4338567"><ele>270.0</ele><time>2026-04-16T04:51:08.206Z</time></trkpt><trkpt lat="45.6512797" lon="10.4336785"><ele>273.0</ele><time>2026-04-16T04:51:09.206Z</time></trkpt><trkpt lat="45.6513721" lon="10.4334908"><ele>276.0</ele><time>2026-04-16T04:51:10.206Z</time></trkpt><trkpt lat="45.6514683" lon="10.4332936"><ele>276.0</ele><time>2026-04-16T04:51:11.206Z</time></trkpt><trkpt lat="45.65157" lon="10.4330927"><ele>276.0</ele><time>2026-04-16T04:51:12.206Z</time></trkpt><trkpt lat="45.6516694" lon="10.4328839"><ele>276.0</ele><time>2026-04-16T04:51:13.205Z</time></trkpt><trkpt lat="45.6517716" lon="10.4326789"><ele>275.0</ele><time>2026-04-16T04:51:14.206Z</time></trkpt><trkpt lat="45.6518784" lon="10.4324621"><ele>274.0</ele><time>2026-04-16T04:51:15.206Z</time></trkpt><trkpt lat="45.6519865" lon="10.4322516"><ele>273.0</ele><time>2026-04-16T04:51:16.205Z</time></trkpt><trkpt lat="45.6521021" lon="10.4320354"><ele>273.0</ele><time>2026-04-16T04:51:17.205Z</time></trkpt><trkpt lat="45.6522162" lon="10.4318146"><ele>273.0</ele><time>2026-04-16T04:51:18.206Z</time></trkpt><trkpt lat="45.6523295" lon="10.4315841"><ele>273.0</ele><time>2026-04-16T04:51:19.206Z</time></trkpt><trkpt lat="45.6524463" lon="10.4313516"><ele>271.6666666666667</ele><time>2026-04-16T04:51:20.206Z</time></trkpt><trkpt lat="45.6525575" lon="10.4311142"><ele>270.33333333333337</ele><time>2026-04-16T04:51:21.205Z</time></trkpt><trkpt lat="45.6526804" lon="10.4308811"><ele>269.0</ele><time>2026-04-16T04:51:22.205Z</time></trkpt><trkpt lat="45.6528054" lon="10.4306381"><ele>270.6666666666667</ele><time>2026-04-16T04:51:23.205Z</time></trkpt><trkpt lat="45.6529256" lon="10.4303931"><ele>272.3333333333333</ele><time>2026-04-16T04:51:24.205Z</time></trkpt><trkpt lat="45.653044" lon="10.4301474"><ele>274.0</ele><time>2026-04-16T04:51:25.206Z</time></trkpt><trkpt lat="45.6531681" lon="10.429898"><ele>274.0</ele><time>2026-04-16T04:51:26.206Z</time></trkpt><trkpt lat="45.6533006" lon="10.429665"><ele>274.0</ele><time>2026-04-16T04:51:27.205Z</time></trkpt><trkpt lat="45.653429" lon="10.4294505"><ele>274.0</ele><time>2026-04-16T04:51:28.206Z</time></trkpt><trkpt lat="45.6535572" lon="10.4292539"><ele>275.3333333333333</ele><time>2026-04-16T04:51:29.205Z</time></trkpt><trkpt lat="45.6536724" lon="10.4290793"><ele>276.6666666666667</ele><time>2026-04-16T04:51:30.205Z</time></trkpt><trkpt lat="45.6537785" lon="10.428914"><ele>278.0</ele><time>2026-04-16T04:51:31.205Z</time></trkpt><trkpt lat="45.6538895" lon="10.4287742"><ele>275.75</ele><time>2026-04-16T04:51:32.206Z</time></trkpt><trkpt lat="45.6539937" lon="10.4286509"><ele>273.5</ele><time>2026-04-16T04:51:33.206Z</time></trkpt><trkpt lat="45.6541016" lon="10.4285479"><ele>271.25</ele><time>2026-04-16T04:51:34.205Z</time></trkpt><trkpt lat="45.6542052" lon="10.4284782"><ele>269.0</ele><time>2026-04-16T04:51:35.206Z</time></trkpt><trkpt lat="45.6543132" lon="10.4284456"><ele>269.0</ele><time>2026-04-16T04:51:36.205Z</time></trkpt><trkpt lat="45.6544038" lon="10.428442"><ele>269.0</ele><time>2026-04-16T04:51:37.205Z</time></trkpt><trkpt lat="45.6545009" lon="10.4284578"><ele>269.0</ele><time>2026-04-16T04:51:38.205Z</time></trkpt><trkpt lat="45.6545841" lon="10.4284382"><ele>269.0</ele><time>2026-04-16T04:51:39.205Z</time></trkpt><trkpt lat="45.6546453" lon="10.4283575"><ele>269.0</ele><time>2026-04-16T04:51:40.206Z</time></trkpt><trkpt lat="45.6546799" lon="10.4282556"><ele>269.0</ele><time>2026-04-16T04:51:41.205Z</time></trkpt><trkpt lat="45.6546791" lon="10.4281396"><ele>269.2</ele><time>2026-04-16T04:51:42.205Z</time></trkpt><trkpt lat="45.6546443" lon="10.42805"><ele>269.4</ele><time>2026-04-16T04:51:43.205Z</time></trkpt><trkpt lat="45.6545826" lon="10.4279741"><ele>269.6</ele><time>2026-04-16T04:51:44.206Z</time></trkpt><trkpt lat="45.6544862" lon="10.4278924"><ele>269.8</ele><time>2026-04-16T04:51:45.205Z</time></trkpt><trkpt lat="45.6543733" lon="10.4278407"><ele>270.0</ele><time>2026-04-16T04:51:46.205Z</time></trkpt><trkpt lat="45.6542757" lon="10.4277527"><ele>270.0</ele><time>2026-04-16T04:51:47.205Z</time></trkpt><trkpt lat="45.6541896" lon="10.4276335"><ele>270.0</ele><time>2026-04-16T04:51:48.206Z</time></trkpt><trkpt lat="45.6541182" lon="10.4274642"><ele>270.0</ele><time>2026-04-16T04:51:49.206Z</time></trkpt><trkpt lat="45.6540414" lon="10.4272796"><ele>270.0</ele><time>2026-04-16T04:51:50.205Z</time></trkpt><trkpt lat="45.6539584" lon="10.4270817"><ele>270.0</ele><time>2026-04-16T04:51:51.206Z</time></trkpt><trkpt lat="45.653863" lon="10.4268654"><ele>270.0</ele><time>2026-04-16T04:51:52.206Z</time></trkpt><trkpt lat="45.6537682" lon="10.4266384"><ele>270.0</ele><time>2026-04-16T04:51:53.205Z</time></trkpt><trkpt lat="45.6536653" lon="10.426403"><ele>273.0</ele><time>2026-04-16T04:51:54.206Z</time></trkpt><trkpt lat="45.653563" lon="10.4261669"><ele>276.0</ele><time>2026-04-16T04:51:55.206Z</time></trkpt><trkpt lat="45.6534527" lon="10.4259142"><ele>279.0</ele><time>2026-04-16T04:51:56.205Z</time></trkpt><trkpt lat="45.6533424" lon="10.4256447"><ele>280.3333333333333</ele><time>2026-04-16T04:51:57.206Z</time></trkpt><trkpt lat="45.6532404" lon="10.4253703"><ele>281.66666666666663</ele><time>2026-04-16T04:51:58.206Z</time></trkpt><trkpt lat="45.6531395" lon="10.4250931"><ele>283.0</ele><time>2026-04-16T04:51:59.205Z</time></trkpt><trkpt lat="45.6530411" lon="10.424801"><ele>284.3333333333333</ele><time>2026-04-16T04:52:00.205Z</time></trkpt><trkpt lat="45.6529369" lon="10.4245207"><ele>285.6666666666667</ele><time>2026-04-16T04:52:01.206Z</time></trkpt><trkpt lat="45.6528353" lon="10.4242402"><ele>287.0</ele><time>2026-04-16T04:52:02.206Z</time></trkpt><trkpt lat="45.6527426" lon="10.4239834"><ele>288.6666666666667</ele><time>2026-04-16T04:52:03.206Z</time></trkpt><trkpt lat="45.6526592" lon="10.4237184"><ele>290.3333333333333</ele><time>2026-04-16T04:52:04.205Z</time></trkpt><trkpt lat="45.6525767" lon="10.4234745"><ele>292.0</ele><time>2026-04-16T04:52:05.206Z</time></trkpt><trkpt lat="45.6524947" lon="10.4232325"><ele>292.0</ele><time>2026-04-16T04:52:06.205Z</time></trkpt><trkpt lat="45.6524144" lon="10.4229824"><ele>292.0</ele><time>2026-04-16T04:52:07.205Z</time></trkpt><trkpt lat="45.6523224" lon="10.4227197"><ele>292.0</ele><time>2026-04-16T04:52:08.206Z</time></trkpt><trkpt lat="45.652229" lon="10.4224595"><ele>290.66666666666663</ele><time>2026-04-16T04:52:09.206Z</time></trkpt><trkpt lat="45.6521406" lon="10.4221872"><ele>289.3333333333333</ele><time>2026-04-16T04:52:10.205Z</time></trkpt><trkpt lat="45.6520461" lon="10.4218995"><ele>288.0</ele><time>2026-04-16T04:52:11.205Z</time></trkpt><trkpt lat="45.6519523" lon="10.4216197"><ele>285.5</ele><time>2026-04-16T04:52:12.205Z</time></trkpt><trkpt lat="45.6518534" lon="10.4213257"><ele>283.0</ele><time>2026-04-16T04:52:13.205Z</time></trkpt><trkpt lat="45.6517517" lon="10.4210328"><ele>283.0</ele><time>2026-04-16T04:52:14.206Z</time></trkpt><trkpt lat="45.6516491" lon="10.4207336"><ele>283.0</ele><time>2026-04-16T04:52:15.205Z</time></trkpt><trkpt lat="45.651546" lon="10.4204294"><ele>289.0</ele><time>2026-04-16T04:52:16.206Z</time></trkpt><trkpt lat="45.6514362" lon="10.4201106"><ele>295.0</ele><time>2026-04-16T04:52:17.206Z</time></trkpt><trkpt lat="45.6513238" lon="10.4197928"><ele>294.0</ele><time>2026-04-16T04:52:18.206Z</time></trkpt><trkpt lat="45.6512212" lon="10.4194776"><ele>293.0</ele><time>2026-04-16T04:52:19.206Z</time></trkpt><trkpt lat="45.6505037" lon="10.4173264"><ele>292.6666666666667</ele><time>2026-04-16T04:52:26.205Z</time></trkpt><trkpt lat="45.6504298" lon="10.4170567"><ele>292.3333333333333</ele><time>2026-04-16T04:52:27.206Z</time></trkpt><trkpt lat="45.6503206" lon="10.4167476"><ele>292.0</ele><time>2026-04-16T04:52:28.206Z</time></trkpt><trkpt lat="45.6502207" lon="10.4164687"><ele>290.3333333333333</ele><time>2026-04-16T04:52:29.206Z</time></trkpt><trkpt lat="45.6501181" lon="10.416186"><ele>288.6666666666667</ele><time>2026-04-16T04:52:30.205Z</time></trkpt><trkpt lat="45.6500295" lon="10.4159068"><ele>287.0</ele><time>2026-04-16T04:52:31.205Z</time></trkpt><trkpt lat="45.6499405" lon="10.4156272"><ele>287.0</ele><time>2026-04-16T04:52:32.205Z</time></trkpt><trkpt lat="45.6498534" lon="10.4153599"><ele>287.0</ele><time>2026-04-16T04:52:33.205Z</time></trkpt><trkpt lat="45.6497898" lon="10.4151172"><ele>287.0</ele><time>2026-04-16T04:52:34.206Z</time></trkpt><trkpt lat="45.6497415" lon="10.4148741"><ele>289.6666666666667</ele><time>2026-04-16T04:52:35.205Z</time></trkpt><trkpt lat="45.6496983" lon="10.4146331"><ele>292.3333333333333</ele><time>2026-04-16T04:52:36.206Z</time></trkpt><trkpt lat="45.6496612" lon="10.4143922"><ele>295.0</ele><time>2026-04-16T04:52:37.205Z</time></trkpt><trkpt lat="45.6496258" lon="10.4141429"><ele>295.0</ele><time>2026-04-16T04:52:38.205Z</time></trkpt><trkpt lat="45.6496004" lon="10.413892"><ele>295.0</ele><time>2026-04-16T04:52:39.205Z</time></trkpt><trkpt lat="45.6495802" lon="10.4136586"><ele>295.0</ele><time>2026-04-16T04:52:40.205Z</time></trkpt><trkpt lat="45.6495656" lon="10.4134255"><ele>296.3333333333333</ele><time>2026-04-16T04:52:41.206Z</time></trkpt><trkpt lat="45.6495652" lon="10.4131909"><ele>297.6666666666667</ele><time>2026-04-16T04:52:42.206Z</time></trkpt><trkpt lat="45.6495645" lon="10.4129473"><ele>299.0</ele><time>2026-04-16T04:52:43.205Z</time></trkpt><trkpt lat="45.6495728" lon="10.4126932"><ele>299.0</ele><time>2026-04-16T04:52:44.205Z</time></trkpt><trkpt lat="45.6495826" lon="10.4124288"><ele>299.0</ele><time>2026-04-16T04:52:45.205Z</time></trkpt><trkpt lat="45.6496096" lon="10.4121512"><ele>299.0</ele><time>2026-04-16T04:52:46.205Z</time></trkpt><trkpt lat="45.6496434" lon="10.4118851"><ele>299.0</ele><time>2026-04-16T04:52:47.206Z</time></trkpt><trkpt lat="45.6496921" lon="10.411625"><ele>299.0</ele><time>2026-04-16T04:52:48.206Z</time></trkpt><trkpt lat="45.6497374" lon="10.4113823"><ele>299.0</ele><time>2026-04-16T04:52:49.205Z</time></trkpt><trkpt lat="45.6497894" lon="10.4111389"><ele>298.0</ele><time>2026-04-16T04:52:50.206Z</time></trkpt><trkpt lat="45.6498427" lon="10.4109007"><ele>297.0</ele><time>2026-04-16T04:52:51.205Z</time></trkpt><trkpt lat="45.6498999" lon="10.4106688"><ele>296.0</ele><time>2026-04-16T04:52:52.206Z</time></trkpt><trkpt lat="45.6499668" lon="10.4104298"><ele>296.0</ele><time>2026-04-16T04:52:53.205Z</time></trkpt><trkpt lat="45.6500403" lon="10.4101859"><ele>296.0</ele><time>2026-04-16T04:52:54.205Z</time></trkpt><trkpt lat="45.6501246" lon="10.4099277"><ele>296.0</ele><time>2026-04-16T04:52:55.205Z</time></trkpt><trkpt lat="45.650213" lon="10.4096493"><ele>298.6666666666667</ele><time>2026-04-16T04:52:56.205Z</time></trkpt><trkpt lat="45.650304" lon="10.4093814"><ele>301.3333333333333</ele><time>2026-04-16T04:52:57.206Z</time></trkpt><trkpt lat="45.6503984" lon="10.4091285"><ele>304.0</ele><time>2026-04-16T04:52:58.206Z</time></trkpt><trkpt lat="45.6504858" lon="10.4088888"><ele>302.66666666666663</ele><time>2026-04-16T04:52:59.205Z</time></trkpt><trkpt lat="45.6505696" lon="10.408643"><ele>301.3333333333333</ele><time>2026-04-16T04:53:00.206Z</time></trkpt><trkpt lat="45.6506464" lon="10.4083925"><ele>300.0</ele><time>2026-04-16T04:53:01.206Z</time></trkpt><trkpt lat="45.6507289" lon="10.408133"><ele>298.5</ele><time>2026-04-16T04:53:02.205Z</time></trkpt><trkpt lat="45.650826" lon="10.4078197"><ele>297.0</ele><time>2026-04-16T04:53:03.205Z</time></trkpt><trkpt lat="45.6509412" lon="10.4074965"><ele>297.0</ele><time>2026-04-16T04:53:04.206Z</time></trkpt><trkpt lat="45.6510565" lon="10.4071697"><ele>297.0</ele><time>2026-04-16T04:53:05.206Z</time></trkpt><trkpt lat="45.6511769" lon="10.4068377"><ele>298.5</ele><time>2026-04-16T04:53:06.205Z</time></trkpt><trkpt lat="45.6513019" lon="10.4065137"><ele>300.0</ele><time>2026-04-16T04:53:07.206Z</time></trkpt><trkpt lat="45.6514174" lon="10.406182"><ele>300.0</ele><time>2026-04-16T04:53:08.205Z</time></trkpt><trkpt lat="45.6515324" lon="10.4058423"><ele>300.0</ele><time>2026-04-16T04:53:09.206Z</time></trkpt><trkpt lat="45.6516496" lon="10.4054989"><ele>300.5</ele><time>2026-04-16T04:53:10.206Z</time></trkpt><trkpt lat="45.6517648" lon="10.4051524"><ele>301.0</ele><time>2026-04-16T04:53:11.205Z</time></trkpt><trkpt lat="45.6518796" lon="10.4048093"><ele>305.5</ele><time>2026-04-16T04:53:12.206Z</time></trkpt><trkpt lat="45.6519924" lon="10.4044672"><ele>310.0</ele><time>2026-04-16T04:53:13.206Z</time></trkpt><trkpt lat="45.6521108" lon="10.4041246"><ele>308.0</ele><time>2026-04-16T04:53:14.206Z</time></trkpt><trkpt lat="45.6522253" lon="10.4037779"><ele>306.0</ele><time>2026-04-16T04:53:15.206Z</time></trkpt><trkpt lat="45.6523406" lon="10.4034251"><ele>306.0</ele><time>2026-04-16T04:53:16.206Z</time></trkpt><trkpt lat="45.6524543" lon="10.4030684"><ele>306.0</ele><time>2026-04-16T04:53:17.206Z</time></trkpt><trkpt lat="45.6525692" lon="10.4027306"><ele>305.0</ele><time>2026-04-16T04:53:18.206Z</time></trkpt><trkpt lat="45.6526831" lon="10.4023871"><ele>304.0</ele><time>2026-04-16T04:53:19.206Z</time></trkpt><trkpt lat="45.6528066" lon="10.4020416"><ele>306.0</ele><time>2026-04-16T04:53:20.205Z</time></trkpt><trkpt lat="45.6529306" lon="10.4016848"><ele>308.0</ele><time>2026-04-16T04:53:21.206Z</time></trkpt><trkpt lat="45.6530428" lon="10.4013323"><ele>307.0</ele><time>2026-04-16T04:53:22.205Z</time></trkpt><trkpt lat="45.6531567" lon="10.4009744"><ele>306.0</ele><time>2026-04-16T04:53:23.205Z</time></trkpt><trkpt lat="45.653274" lon="10.4006234"><ele>305.0</ele><time>2026-04-16T04:53:24.205Z</time></trkpt><trkpt lat="45.6533919" lon="10.4002729"><ele>304.0</ele><time>2026-04-16T04:53:25.206Z</time></trkpt><trkpt lat="45.6535092" lon="10.3999241"><ele>307.5</ele><time>2026-04-16T04:53:26.206Z</time></trkpt><trkpt lat="45.653625" lon="10.3995708"><ele>311.0</ele><time>2026-04-16T04:53:27.206Z</time></trkpt><trkpt lat="45.6537444" lon="10.399215"><ele>311.0</ele><time>2026-04-16T04:53:28.205Z</time></trkpt><trkpt lat="45.6538659" lon="10.398862"><ele>311.0</ele><time>2026-04-16T04:53:29.205Z</time></trkpt><trkpt lat="45.6539866" lon="10.3985025"><ele>309.0</ele><time>2026-04-16T04:53:30.205Z</time></trkpt><trkpt lat="45.6541034" lon="10.3981458"><ele>307.0</ele><time>2026-04-16T04:53:31.205Z</time></trkpt><trkpt lat="45.6542228" lon="10.3977879"><ele>306.0</ele><time>2026-04-16T04:53:32.205Z</time></trkpt><trkpt lat="45.6543335" lon="10.3974235"><ele>305.0</ele><time>2026-04-16T04:53:33.205Z</time></trkpt><trkpt lat="45.6544398" lon="10.3970619"><ele>307.0</ele><time>2026-04-16T04:53:34.206Z</time></trkpt><trkpt lat="45.6545374" lon="10.396693"><ele>309.0</ele><time>2026-04-16T04:53:35.206Z</time></trkpt><trkpt lat="45.6546183" lon="10.3963151"><ele>309.0</ele><time>2026-04-16T04:53:36.206Z</time></trkpt><trkpt lat="45.6546959" lon="10.3959413"><ele>309.0</ele><time>2026-04-16T04:53:37.206Z</time></trkpt><trkpt lat="45.6547637" lon="10.3955664"><ele>308.5</ele><time>2026-04-16T04:53:38.205Z</time></trkpt><trkpt lat="45.654816" lon="10.3951876"><ele>308.0</ele><time>2026-04-16T04:53:39.205Z</time></trkpt><trkpt lat="45.6548641" lon="10.3948021"><ele>308.0</ele><time>2026-04-16T04:53:40.205Z</time></trkpt><trkpt lat="45.6548998" lon="10.3944197"><ele>308.0</ele><time>2026-04-16T04:53:41.206Z</time></trkpt><trkpt lat="45.6549275" lon="10.3940338"><ele>309.0</ele><time>2026-04-16T04:53:42.206Z</time></trkpt><trkpt lat="45.6549472" lon="10.3936424"><ele>310.0</ele><time>2026-04-16T04:53:43.205Z</time></trkpt><trkpt lat="45.6549524" lon="10.3932589"><ele>311.5</ele><time>2026-04-16T04:53:44.206Z</time></trkpt><trkpt lat="45.654953" lon="10.3928671"><ele>313.0</ele><time>2026-04-16T04:53:45.206Z</time></trkpt><trkpt lat="45.6549519" lon="10.3924758"><ele>312.5</ele><time>2026-04-16T04:53:46.206Z</time></trkpt><trkpt lat="45.6549552" lon="10.3920819"><ele>312.0</ele><time>2026-04-16T04:53:47.206Z</time></trkpt><trkpt lat="45.654953" lon="10.3916881"><ele>310.5</ele><time>2026-04-16T04:53:48.205Z</time></trkpt><trkpt lat="45.6549598" lon="10.3913037"><ele>309.0</ele><time>2026-04-16T04:53:49.205Z</time></trkpt><trkpt lat="45.6549533" lon="10.3909397"><ele>309.0</ele><time>2026-04-16T04:53:50.206Z</time></trkpt><trkpt lat="45.6549491" lon="10.3905685"><ele>309.0</ele><time>2026-04-16T04:53:51.206Z</time></trkpt><trkpt lat="45.6549408" lon="10.390203"><ele>309.5</ele><time>2026-04-16T04:53:52.205Z</time></trkpt><trkpt lat="45.6549358" lon="10.3898566"><ele>310.0</ele><time>2026-04-16T04:53:53.206Z</time></trkpt><trkpt lat="45.6549363" lon="10.3895432"><ele>309.3333333333333</ele><time>2026-04-16T04:53:54.205Z</time></trkpt><trkpt lat="45.6549317" lon="10.3892556"><ele>308.6666666666667</ele><time>2026-04-16T04:53:55.205Z</time></trkpt><trkpt lat="45.6549265" lon="10.3889915"><ele>308.0</ele><time>2026-04-16T04:53:56.205Z</time></trkpt><trkpt lat="45.654924" lon="10.3887296"><ele>308.0</ele><time>2026-04-16T04:53:57.205Z</time></trkpt><trkpt lat="45.6549209" lon="10.3884746"><ele>308.0</ele><time>2026-04-16T04:53:58.205Z</time></trkpt><trkpt lat="45.6549126" lon="10.3882051"><ele>308.0</ele><time>2026-04-16T04:53:59.205Z</time></trkpt><trkpt lat="45.6549079" lon="10.3879192"><ele>308.0</ele><time>2026-04-16T04:54:00.205Z</time></trkpt><trkpt lat="45.6549025" lon="10.3876244"><ele>308.0</ele><time>2026-04-16T04:54:01.205Z</time></trkpt><trkpt lat="45.6548982" lon="10.3873271"><ele>308.0</ele><time>2026-04-16T04:54:02.204Z</time></trkpt><trkpt lat="45.6548951" lon="10.3870237"><ele>308.33333333333337</ele><time>2026-04-16T04:54:03.204Z</time></trkpt><trkpt lat="45.6548895" lon="10.3867306"><ele>308.6666666666667</ele><time>2026-04-16T04:54:04.204Z</time></trkpt><trkpt lat="45.6548876" lon="10.3864618"><ele>309.0</ele><time>2026-04-16T04:54:05.205Z</time></trkpt><trkpt lat="45.6548939" lon="10.3862102"><ele>309.0</ele><time>2026-04-16T04:54:06.204Z</time></trkpt><trkpt lat="45.6548952" lon="10.3859921"><ele>309.0</ele><time>2026-04-16T04:54:07.205Z</time></trkpt><trkpt lat="45.6549006" lon="10.3857848"><ele>309.0</ele><time>2026-04-16T04:54:08.205Z</time></trkpt><trkpt lat="45.6549035" lon="10.3855939"><ele>309.0</ele><time>2026-04-16T04:54:09.204Z</time></trkpt><trkpt lat="45.6549141" lon="10.3854344"><ele>308.8</ele><time>2026-04-16T04:54:10.205Z</time></trkpt><trkpt lat="45.6549445" lon="10.3852846"><ele>308.59999999999997</ele><time>2026-04-16T04:54:11.204Z</time></trkpt><trkpt lat="45.6549822" lon="10.385152"><ele>308.4</ele><time>2026-04-16T04:54:12.205Z</time></trkpt><trkpt lat="45.6550309" lon="10.3850418"><ele>308.2</ele><time>2026-04-16T04:54:13.204Z</time></trkpt><trkpt lat="45.6550581" lon="10.3849192"><ele>308.0</ele><time>2026-04-16T04:54:14.204Z</time></trkpt><trkpt lat="45.6550508" lon="10.3847689"><ele>307.75</ele><time>2026-04-16T04:54:15.205Z</time></trkpt><trkpt lat="45.6550194" lon="10.384576"><ele>307.5</ele><time>2026-04-16T04:54:16.204Z</time></trkpt><trkpt lat="45.6549796" lon="10.3843751"><ele>307.25</ele><time>2026-04-16T04:54:17.205Z</time></trkpt><trkpt lat="45.6549381" lon="10.3841466"><ele>307.0</ele><time>2026-04-16T04:54:18.204Z</time></trkpt><trkpt lat="45.6549016" lon="10.3839034"><ele>307.66666666666663</ele><time>2026-04-16T04:54:19.204Z</time></trkpt><trkpt lat="45.6548755" lon="10.3836386"><ele>308.3333333333333</ele><time>2026-04-16T04:54:20.204Z</time></trkpt><trkpt lat="45.6548611" lon="10.3833452"><ele>309.0</ele><time>2026-04-16T04:54:21.205Z</time></trkpt><trkpt lat="45.6548562" lon="10.3830521"><ele>310.0</ele><time>2026-04-16T04:54:22.205Z</time></trkpt><trkpt lat="45.6548566" lon="10.3827693"><ele>311.0</ele><time>2026-04-16T04:54:23.205Z</time></trkpt><trkpt lat="45.6548553" lon="10.3824854"><ele>312.0</ele><time>2026-04-16T04:54:24.204Z</time></trkpt><trkpt lat="45.6548561" lon="10.3821908"><ele>311.6666666666667</ele><time>2026-04-16T04:54:25.204Z</time></trkpt><trkpt lat="45.654863" lon="10.3818946"><ele>311.33333333333337</ele><time>2026-04-16T04:54:26.204Z</time></trkpt><trkpt lat="45.6548721" lon="10.3815901"><ele>311.0</ele><time>2026-04-16T04:54:27.205Z</time></trkpt><trkpt lat="45.6548947" lon="10.3812804"><ele>311.0</ele><time>2026-04-16T04:54:28.204Z</time></trkpt><trkpt lat="45.6549315" lon="10.380964"><ele>311.0</ele><time>2026-04-16T04:54:29.204Z</time></trkpt><trkpt lat="45.6549785" lon="10.3806421"><ele>312.0</ele><time>2026-04-16T04:54:30.205Z</time></trkpt><trkpt lat="45.6550347" lon="10.3803154"><ele>313.0</ele><time>2026-04-16T04:54:31.204Z</time></trkpt><trkpt lat="45.6551103" lon="10.3799945"><ele>313.5</ele><time>2026-04-16T04:54:32.205Z</time></trkpt><trkpt lat="45.6551955" lon="10.379672"><ele>314.0</ele><time>2026-04-16T04:54:33.204Z</time></trkpt><trkpt lat="45.6552932" lon="10.3793519"><ele>315.0</ele><time>2026-04-16T04:54:34.205Z</time></trkpt><trkpt lat="45.6553984" lon="10.3790297"><ele>316.0</ele><time>2026-04-16T04:54:35.205Z</time></trkpt><trkpt lat="45.6555032" lon="10.3787035"><ele>316.0</ele><time>2026-04-16T04:54:36.204Z</time></trkpt><trkpt lat="45.6556023" lon="10.3783814"><ele>316.0</ele><time>2026-04-16T04:54:37.204Z</time></trkpt><trkpt lat="45.655703" lon="10.3780703"><ele>315.0</ele><time>2026-04-16T04:54:38.205Z</time></trkpt><trkpt lat="45.6558069" lon="10.3777645"><ele>314.0</ele><time>2026-04-16T04:54:39.205Z</time></trkpt><trkpt lat="45.6558969" lon="10.3774566"><ele>314.5</ele><time>2026-04-16T04:54:40.205Z</time></trkpt><trkpt lat="45.6559812" lon="10.3771536"><ele>315.0</ele><time>2026-04-16T04:54:41.205Z</time></trkpt><trkpt lat="45.6560541" lon="10.3768412"><ele>315.0</ele><time>2026-04-16T04:54:42.205Z</time></trkpt><trkpt lat="45.656116" lon="10.3765446"><ele>315.0</ele><time>2026-04-16T04:54:43.205Z</time></trkpt><trkpt lat="45.6561696" lon="10.3762448"><ele>315.0</ele><time>2026-04-16T04:54:44.205Z</time></trkpt><trkpt lat="45.6562031" lon="10.3759318"><ele>316.6666666666667</ele><time>2026-04-16T04:54:45.204Z</time></trkpt><trkpt lat="45.6562247" lon="10.3756216"><ele>318.33333333333337</ele><time>2026-04-16T04:54:46.204Z</time></trkpt><trkpt lat="45.6562302" lon="10.3753065"><ele>320.0</ele><time>2026-04-16T04:54:47.204Z</time></trkpt><trkpt lat="45.6562282" lon="10.3749904"><ele>319.33333333333337</ele><time>2026-04-16T04:54:48.204Z</time></trkpt><trkpt lat="45.6562144" lon="10.3746795"><ele>318.6666666666667</ele><time>2026-04-16T04:54:49.204Z</time></trkpt><trkpt lat="45.6561973" lon="10.3743818"><ele>318.0</ele><time>2026-04-16T04:54:50.204Z</time></trkpt><trkpt lat="45.6561777" lon="10.3740873"><ele>318.0</ele><time>2026-04-16T04:54:51.205Z</time></trkpt><trkpt lat="45.6561623" lon="10.3737998"><ele>318.0</ele><time>2026-04-16T04:54:52.205Z</time></trkpt><trkpt lat="45.6561458" lon="10.3735066"><ele>318.0</ele><time>2026-04-16T04:54:53.205Z</time></trkpt><trkpt lat="45.6561276" lon="10.3732072"><ele>317.6666666666667</ele><time>2026-04-16T04:54:54.205Z</time></trkpt><trkpt lat="45.6561098" lon="10.3729008"><ele>317.33333333333337</ele><time>2026-04-16T04:54:55.204Z</time></trkpt><trkpt lat="45.6560904" lon="10.372596"><ele>317.0</ele><time>2026-04-16T04:54:56.204Z</time></trkpt><trkpt lat="45.6560659" lon="10.3722843"><ele>317.6666666666667</ele><time>2026-04-16T04:54:57.204Z</time></trkpt><trkpt lat="45.6560444" lon="10.3719793"><ele>318.3333333333333</ele><time>2026-04-16T04:54:58.205Z</time></trkpt><trkpt lat="45.6560282" lon="10.3716791"><ele>319.0</ele><time>2026-04-16T04:54:59.204Z</time></trkpt><trkpt lat="45.656003" lon="10.3713886"><ele>319.66666666666663</ele><time>2026-04-16T04:55:00.204Z</time></trkpt><trkpt lat="45.6559849" lon="10.3711033"><ele>320.3333333333333</ele><time>2026-04-16T04:55:01.205Z</time></trkpt><trkpt lat="45.6559578" lon="10.3708192"><ele>321.0</ele><time>2026-04-16T04:55:02.204Z</time></trkpt><trkpt lat="45.6559316" lon="10.3705314"><ele>321.3333333333333</ele><time>2026-04-16T04:55:03.205Z</time></trkpt><trkpt lat="45.6559064" lon="10.3702342"><ele>321.66666666666663</ele><time>2026-04-16T04:55:04.205Z</time></trkpt><trkpt lat="45.6558855" lon="10.3699355"><ele>322.0</ele><time>2026-04-16T04:55:05.204Z</time></trkpt><trkpt lat="45.6558604" lon="10.3696312"><ele>322.3333333333333</ele><time>2026-04-16T04:55:06.205Z</time></trkpt><trkpt lat="45.6558351" lon="10.369327"><ele>322.6666666666667</ele><time>2026-04-16T04:55:07.205Z</time></trkpt><trkpt lat="45.6558137" lon="10.3690238"><ele>323.0</ele><time>2026-04-16T04:55:08.205Z</time></trkpt><trkpt lat="45.6557952" lon="10.3687218"><ele>324.0</ele><time>2026-04-16T04:55:09.204Z</time></trkpt><trkpt lat="45.6557739" lon="10.3684304"><ele>325.0</ele><time>2026-04-16T04:55:10.204Z</time></trkpt><trkpt lat="45.6557529" lon="10.3681428"><ele>326.0</ele><time>2026-04-16T04:55:11.204Z</time></trkpt><trkpt lat="45.6557335" lon="10.3678616"><ele>326.0</ele><time>2026-04-16T04:55:12.204Z</time></trkpt><trkpt lat="45.655723" lon="10.3675912"><ele>326.0</ele><time>2026-04-16T04:55:13.204Z</time></trkpt><trkpt lat="45.6557266" lon="10.3673249"><ele>326.0</ele><time>2026-04-16T04:55:14.204Z</time></trkpt><trkpt lat="45.6557377" lon="10.3670642"><ele>325.6666666666667</ele><time>2026-04-16T04:55:15.204Z</time></trkpt><trkpt lat="45.6557568" lon="10.3668189"><ele>325.3333333333333</ele><time>2026-04-16T04:55:16.204Z</time></trkpt><trkpt lat="45.6557862" lon="10.3665868"><ele>325.0</ele><time>2026-04-16T04:55:17.204Z</time></trkpt><trkpt lat="45.655824" lon="10.3663628"><ele>325.0</ele><time>2026-04-16T04:55:18.205Z</time></trkpt><trkpt lat="45.6558714" lon="10.3661382"><ele>325.0</ele><time>2026-04-16T04:55:19.205Z</time></trkpt><trkpt lat="45.6559249" lon="10.3659116"><ele>325.0</ele><time>2026-04-16T04:55:20.204Z</time></trkpt><trkpt lat="45.6559984" lon="10.3656711"><ele>326.0</ele><time>2026-04-16T04:55:21.204Z</time></trkpt><trkpt lat="45.6560757" lon="10.3654303"><ele>327.0</ele><time>2026-04-16T04:55:22.205Z</time></trkpt><trkpt lat="45.6561537" lon="10.3651873"><ele>328.0</ele><time>2026-04-16T04:55:23.204Z</time></trkpt><trkpt lat="45.6562539" lon="10.364932"><ele>330.5</ele><time>2026-04-16T04:55:24.204Z</time></trkpt><trkpt lat="45.6563661" lon="10.3646533"><ele>333.0</ele><time>2026-04-16T04:55:25.204Z</time></trkpt><trkpt lat="45.6564761" lon="10.3643668"><ele>333.0</ele><time>2026-04-16T04:55:26.205Z</time></trkpt><trkpt lat="45.6565819" lon="10.3640582"><ele>333.0</ele><time>2026-04-16T04:55:27.205Z</time></trkpt><trkpt lat="45.6566848" lon="10.3637499"><ele>333.5</ele><time>2026-04-16T04:55:28.204Z</time></trkpt><trkpt lat="45.6568064" lon="10.3634303"><ele>334.0</ele><time>2026-04-16T04:55:29.204Z</time></trkpt><trkpt lat="45.6569311" lon="10.3631126"><ele>338.0</ele><time>2026-04-16T04:55:30.204Z</time></trkpt><trkpt lat="45.6570509" lon="10.3627943"><ele>342.0</ele><time>2026-04-16T04:55:31.205Z</time></trkpt><trkpt lat="45.6571712" lon="10.3624849"><ele>342.0</ele><time>2026-04-16T04:55:32.205Z</time></trkpt><trkpt lat="45.657284" lon="10.3621745"><ele>342.0</ele><time>2026-04-16T04:55:33.204Z</time></trkpt><trkpt lat="45.657397" lon="10.361875"><ele>342.0</ele><time>2026-04-16T04:55:34.205Z</time></trkpt><trkpt lat="45.657507" lon="10.361589"><ele>342.0</ele><time>2026-04-16T04:55:35.205Z</time></trkpt><trkpt lat="45.6576082" lon="10.3613134"><ele>342.0</ele><time>2026-04-16T04:55:36.204Z</time></trkpt><trkpt lat="45.6577124" lon="10.3610629"><ele>342.3333333333333</ele><time>2026-04-16T04:55:37.204Z</time></trkpt><trkpt lat="45.6578214" lon="10.3608294"><ele>342.66666666666663</ele><time>2026-04-16T04:55:38.204Z</time></trkpt><trkpt lat="45.657924" lon="10.3606088"><ele>343.0</ele><time>2026-04-16T04:55:39.204Z</time></trkpt><trkpt lat="45.6580298" lon="10.360392"><ele>344.0</ele><time>2026-04-16T04:55:40.205Z</time></trkpt><trkpt lat="45.6581361" lon="10.360171"><ele>345.0</ele><time>2026-04-16T04:55:41.205Z</time></trkpt><trkpt lat="45.6582381" lon="10.3599492"><ele>346.0</ele><time>2026-04-16T04:55:42.205Z</time></trkpt><trkpt lat="45.6583359" lon="10.35973"><ele>346.3333333333333</ele><time>2026-04-16T04:55:43.205Z</time></trkpt><trkpt lat="45.6584349" lon="10.3595084"><ele>346.6666666666667</ele><time>2026-04-16T04:55:44.204Z</time></trkpt><trkpt lat="45.6585371" lon="10.359287"><ele>347.0</ele><time>2026-04-16T04:55:45.205Z</time></trkpt><trkpt lat="45.658638" lon="10.3590525"><ele>349.0</ele><time>2026-04-16T04:55:46.205Z</time></trkpt><trkpt lat="45.6587462" lon="10.3588057"><ele>351.0</ele><time>2026-04-16T04:55:47.205Z</time></trkpt><trkpt lat="45.6588595" lon="10.3585537"><ele>353.0</ele><time>2026-04-16T04:55:48.204Z</time></trkpt><trkpt lat="45.6589782" lon="10.3582956"><ele>354.0</ele><time>2026-04-16T04:55:49.204Z</time></trkpt><trkpt lat="45.6591027" lon="10.3580308"><ele>355.0</ele><time>2026-04-16T04:55:50.205Z</time></trkpt><trkpt lat="45.6592235" lon="10.3577545"><ele>355.0</ele><time>2026-04-16T04:55:51.205Z</time></trkpt><trkpt lat="45.6593521" lon="10.3574779"><ele>355.0</ele><time>2026-04-16T04:55:52.205Z</time></trkpt><trkpt lat="45.6594889" lon="10.3572011"><ele>357.5</ele><time>2026-04-16T04:55:53.205Z</time></trkpt><trkpt lat="45.6596293" lon="10.3569179"><ele>360.0</ele><time>2026-04-16T04:55:54.205Z</time></trkpt><trkpt lat="45.6597705" lon="10.3566276"><ele>360.5</ele><time>2026-04-16T04:55:55.205Z</time></trkpt><trkpt lat="45.6599143" lon="10.3563297"><ele>361.0</ele><time>2026-04-16T04:55:56.204Z</time></trkpt><trkpt lat="45.6600518" lon="10.3560303"><ele>361.0</ele><time>2026-04-16T04:55:57.204Z</time></trkpt><trkpt lat="45.6601861" lon="10.3557332"><ele>361.0</ele><time>2026-04-16T04:55:58.205Z</time></trkpt><trkpt lat="45.6603227" lon="10.3554394"><ele>367.0</ele><time>2026-04-16T04:55:59.205Z</time></trkpt><trkpt lat="45.6604555" lon="10.3551489"><ele>373.0</ele><time>2026-04-16T04:56:00.205Z</time></trkpt><trkpt lat="45.6605949" lon="10.3548547"><ele>372.0</ele><time>2026-04-16T04:56:01.205Z</time></trkpt><trkpt lat="45.6607318" lon="10.3545635"><ele>371.0</ele><time>2026-04-16T04:56:02.204Z</time></trkpt><trkpt lat="45.6608706" lon="10.3542589"><ele>371.0</ele><time>2026-04-16T04:56:03.204Z</time></trkpt><trkpt lat="45.6610057" lon="10.3539652"><ele>371.0</ele><time>2026-04-16T04:56:04.204Z</time></trkpt><trkpt lat="45.661139" lon="10.35367"><ele>376.5</ele><time>2026-04-16T04:56:05.205Z</time></trkpt><trkpt lat="45.6612749" lon="10.3533723"><ele>382.0</ele><time>2026-04-16T04:56:06.205Z</time></trkpt><trkpt lat="45.6614139" lon="10.3530809"><ele>380.5</ele><time>2026-04-16T04:56:07.204Z</time></trkpt><trkpt lat="45.6615461" lon="10.3527914"><ele>379.0</ele><time>2026-04-16T04:56:08.204Z</time></trkpt><trkpt lat="45.6616939" lon="10.3525086"><ele>379.0</ele><time>2026-04-16T04:56:09.205Z</time></trkpt><trkpt lat="45.6618527" lon="10.352247"><ele>379.0</ele><time>2026-04-16T04:56:10.204Z</time></trkpt><trkpt lat="45.6620198" lon="10.3520082"><ele>384.5</ele><time>2026-04-16T04:56:11.205Z</time></trkpt><trkpt lat="45.6621919" lon="10.3517873"><ele>390.0</ele><time>2026-04-16T04:56:12.205Z</time></trkpt><trkpt lat="45.6623801" lon="10.3515768"><ele>390.0</ele><time>2026-04-16T04:56:13.205Z</time></trkpt><trkpt lat="45.6625825" lon="10.3513863"><ele>390.0</ele><time>2026-04-16T04:56:14.205Z</time></trkpt><trkpt lat="45.6627905" lon="10.351198"><ele>393.0</ele><time>2026-04-16T04:56:15.204Z</time></trkpt><trkpt lat="45.6629895" lon="10.3510083"><ele>396.0</ele><time>2026-04-16T04:56:16.204Z</time></trkpt><trkpt lat="45.6631851" lon="10.3508091"><ele>396.0</ele><time>2026-04-16T04:56:17.204Z</time></trkpt><trkpt lat="45.6633823" lon="10.3506015"><ele>396.0</ele><time>2026-04-16T04:56:18.205Z</time></trkpt><trkpt lat="45.663566" lon="10.3503901"><ele>399.0</ele><time>2026-04-16T04:56:19.205Z</time></trkpt><trkpt lat="45.663738" lon="10.3501734"><ele>402.0</ele><time>2026-04-16T04:56:20.205Z</time></trkpt><trkpt lat="45.6639016" lon="10.3499451"><ele>402.0</ele><time>2026-04-16T04:56:21.205Z</time></trkpt><trkpt lat="45.6640655" lon="10.3497243"><ele>402.0</ele><time>2026-04-16T04:56:22.205Z</time></trkpt><trkpt lat="45.6642232" lon="10.3495084"><ele>402.0</ele><time>2026-04-16T04:56:23.204Z</time></trkpt><trkpt lat="45.6643698" lon="10.3493042"><ele>405.0</ele><time>2026-04-16T04:56:24.204Z</time></trkpt><trkpt lat="45.6644933" lon="10.3491266"><ele>408.0</ele><time>2026-04-16T04:56:25.205Z</time></trkpt><trkpt lat="45.6646153" lon="10.3489656"><ele>411.0</ele><time>2026-04-16T04:56:26.204Z</time></trkpt><trkpt lat="45.6647261" lon="10.3488212"><ele>411.0</ele><time>2026-04-16T04:56:27.204Z</time></trkpt><trkpt lat="45.6648154" lon="10.348698"><ele>411.0</ele><time>2026-04-16T04:56:28.205Z</time></trkpt><trkpt lat="45.6648925" lon="10.3485787"><ele>411.0</ele><time>2026-04-16T04:56:29.205Z</time></trkpt><trkpt lat="45.6649468" lon="10.348465"><ele>411.0</ele><time>2026-04-16T04:56:30.204Z</time></trkpt><trkpt lat="45.6649679" lon="10.3483321"><ele>411.0</ele><time>2026-04-16T04:56:31.205Z</time></trkpt><trkpt lat="45.6649571" lon="10.3481883"><ele>411.0</ele><time>2026-04-16T04:56:32.204Z</time></trkpt><trkpt lat="45.6649149" lon="10.3480635"><ele>411.0</ele><time>2026-04-16T04:56:33.205Z</time></trkpt><trkpt lat="45.664845" lon="10.3479657"><ele>411.0</ele><time>2026-04-16T04:56:34.205Z</time></trkpt><trkpt lat="45.6647435" lon="10.3479054"><ele>411.0</ele><time>2026-04-16T04:56:35.204Z</time></trkpt><trkpt lat="45.6646445" lon="10.3479102"><ele>411.0</ele><time>2026-04-16T04:56:36.205Z</time></trkpt><trkpt lat="45.664537" lon="10.3479505"><ele>409.0</ele><time>2026-04-16T04:56:37.205Z</time></trkpt><trkpt lat="45.6643865" lon="10.3479816"><ele>407.0</ele><time>2026-04-16T04:56:38.205Z</time></trkpt><trkpt lat="45.6642358" lon="10.3480448"><ele>405.0</ele><time>2026-04-16T04:56:39.205Z</time></trkpt><trkpt lat="45.6640634" lon="10.3481139"><ele>405.0</ele><time>2026-04-16T04:56:40.204Z</time></trkpt><trkpt lat="45.6638969" lon="10.3481651"><ele>405.0</ele><time>2026-04-16T04:56:41.204Z</time></trkpt><trkpt lat="45.6637114" lon="10.3482184"><ele>405.0</ele><time>2026-04-16T04:56:42.205Z</time></trkpt><trkpt lat="45.6635133" lon="10.3482837"><ele>405.33333333333337</ele><time>2026-04-16T04:56:43.204Z</time></trkpt><trkpt lat="45.6633092" lon="10.3483431"><ele>405.6666666666667</ele><time>2026-04-16T04:56:44.204Z</time></trkpt><trkpt lat="45.6631175" lon="10.3483939"><ele>406.0</ele><time>2026-04-16T04:56:45.205Z</time></trkpt><trkpt lat="45.6629505" lon="10.3484531"><ele>406.0</ele><time>2026-04-16T04:56:46.205Z</time></trkpt><trkpt lat="45.6628223" lon="10.3484847"><ele>406.0</ele><time>2026-04-16T04:56:47.205Z</time></trkpt><trkpt lat="45.6627055" lon="10.3484852"><ele>406.0</ele><time>2026-04-16T04:56:48.204Z</time></trkpt><trkpt lat="45.662613" lon="10.3484408"><ele>406.0</ele><time>2026-04-16T04:56:49.204Z</time></trkpt><trkpt lat="45.662541" lon="10.3483191"><ele>406.5</ele><time>2026-04-16T04:56:50.205Z</time></trkpt><trkpt lat="45.6625003" lon="10.3481802"><ele>407.0</ele><time>2026-04-16T04:56:51.205Z</time></trkpt><trkpt lat="45.6624874" lon="10.3480259"><ele>407.5</ele><time>2026-04-16T04:56:52.205Z</time></trkpt><trkpt lat="45.6625305" lon="10.3478819"><ele>408.0</ele><time>2026-04-16T04:56:53.205Z</time></trkpt><trkpt lat="45.6626021" lon="10.3477113"><ele>408.0</ele><time>2026-04-16T04:56:54.204Z</time></trkpt><trkpt lat="45.662703" lon="10.3475271"><ele>408.0</ele><time>2026-04-16T04:56:55.205Z</time></trkpt><trkpt lat="45.6628154" lon="10.3473268"><ele>408.0</ele><time>2026-04-16T04:56:56.205Z</time></trkpt><trkpt lat="45.662937" lon="10.3470741"><ele>415.5</ele><time>2026-04-16T04:56:57.205Z</time></trkpt><trkpt lat="45.6630669" lon="10.3468073"><ele>423.0</ele><time>2026-04-16T04:56:58.205Z</time></trkpt><trkpt lat="45.663197" lon="10.3465204"><ele>420.5</ele><time>2026-04-16T04:56:59.204Z</time></trkpt><trkpt lat="45.6633219" lon="10.3462248"><ele>418.0</ele><time>2026-04-16T04:57:00.204Z</time></trkpt><trkpt lat="45.6634342" lon="10.3459006"><ele>418.0</ele><time>2026-04-16T04:57:01.204Z</time></trkpt><trkpt lat="45.6635392" lon="10.3455534"><ele>418.0</ele><time>2026-04-16T04:57:02.205Z</time></trkpt><trkpt lat="45.6636273" lon="10.3451855"><ele>432.0</ele><time>2026-04-16T04:57:03.204Z</time></trkpt><trkpt lat="45.6637055" lon="10.3448255"><ele>446.0</ele><time>2026-04-16T04:57:04.204Z</time></trkpt><trkpt lat="45.6637826" lon="10.3444515"><ele>446.5</ele><time>2026-04-16T04:57:05.205Z</time></trkpt><trkpt lat="45.6638595" lon="10.3440793"><ele>447.0</ele><time>2026-04-16T04:57:06.205Z</time></trkpt><trkpt lat="45.6639444" lon="10.3437128"><ele>445.0</ele><time>2026-04-16T04:57:07.205Z</time></trkpt><trkpt lat="45.6640233" lon="10.3433635"><ele>443.0</ele><time>2026-04-16T04:57:08.205Z</time></trkpt><trkpt lat="45.664086" lon="10.3430422"><ele>441.66666666666663</ele><time>2026-04-16T04:57:09.205Z</time></trkpt><trkpt lat="45.6641202" lon="10.3427437"><ele>440.33333333333337</ele><time>2026-04-16T04:57:10.204Z</time></trkpt><trkpt lat="45.6641237" lon="10.3424551"><ele>439.0</ele><time>2026-04-16T04:57:11.205Z</time></trkpt><trkpt lat="45.6641066" lon="10.3421676"><ele>441.6666666666667</ele><time>2026-04-16T04:57:12.204Z</time></trkpt><trkpt lat="45.6640749" lon="10.3419099"><ele>444.33333333333337</ele><time>2026-04-16T04:57:13.205Z</time></trkpt><trkpt lat="45.6640337" lon="10.3416661"><ele>447.0</ele><time>2026-04-16T04:57:14.204Z</time></trkpt><trkpt lat="45.6639962" lon="10.3414603"><ele>450.25</ele><time>2026-04-16T04:57:15.204Z</time></trkpt><trkpt lat="45.6639624" lon="10.3412845"><ele>453.5</ele><time>2026-04-16T04:57:16.205Z</time></trkpt><trkpt lat="45.6639107" lon="10.3411184"><ele>456.75</ele><time>2026-04-16T04:57:17.204Z</time></trkpt><trkpt lat="45.6638416" lon="10.3409862"><ele>460.0</ele><time>2026-04-16T04:57:18.205Z</time></trkpt><trkpt lat="45.6637423" lon="10.3408902"><ele>460.0</ele><time>2026-04-16T04:57:19.204Z</time></trkpt><trkpt lat="45.6636334" lon="10.3408222"><ele>460.0</ele><time>2026-04-16T04:57:20.204Z</time></trkpt><trkpt lat="45.6635262" lon="10.3408002"><ele>460.0</ele><time>2026-04-16T04:57:21.205Z</time></trkpt><trkpt lat="45.6633989" lon="10.3408144"><ele>460.0</ele><time>2026-04-16T04:57:22.205Z</time></trkpt><trkpt lat="45.6632698" lon="10.3408757"><ele>459.0</ele><time>2026-04-16T04:57:23.205Z</time></trkpt><trkpt lat="45.6631299" lon="10.3409925"><ele>458.0</ele><time>2026-04-16T04:57:24.205Z</time></trkpt><trkpt lat="45.6629639" lon="10.3411516"><ele>457.0</ele><time>2026-04-16T04:57:25.204Z</time></trkpt><trkpt lat="45.6627733" lon="10.3413242"><ele>461.0</ele><time>2026-04-16T04:57:26.205Z</time></trkpt><trkpt lat="45.6625537" lon="10.3415277"><ele>465.0</ele><time>2026-04-16T04:57:27.205Z</time></trkpt><trkpt lat="45.6623159" lon="10.3417378"><ele>465.0</ele><time>2026-04-16T04:57:28.205Z</time></trkpt><trkpt lat="45.6620561" lon="10.3419976"><ele>465.0</ele><time>2026-04-16T04:57:29.205Z</time></trkpt><trkpt lat="45.6617868" lon="10.3422509"><ele>466.0</ele><time>2026-04-16T04:57:30.205Z</time></trkpt><trkpt lat="45.6615257" lon="10.3425246"><ele>467.0</ele><time>2026-04-16T04:57:31.205Z</time></trkpt><trkpt lat="45.6612812" lon="10.3428141"><ele>471.0</ele><time>2026-04-16T04:57:32.204Z</time></trkpt><trkpt lat="45.6610634" lon="10.3430854"><ele>475.0</ele><time>2026-04-16T04:57:33.205Z</time></trkpt><trkpt lat="45.6608579" lon="10.3433146"><ele>475.0</ele><time>2026-04-16T04:57:34.204Z</time></trkpt><trkpt lat="45.660658" lon="10.3435073"><ele>475.0</ele><time>2026-04-16T04:57:35.205Z</time></trkpt><trkpt lat="45.6604504" lon="10.3436744"><ele>479.5</ele><time>2026-04-16T04:57:36.204Z</time></trkpt><trkpt lat="45.6602334" lon="10.3437932"><ele>484.0</ele><time>2026-04-16T04:57:37.205Z</time></trkpt><trkpt lat="45.6600042" lon="10.3438432"><ele>484.0</ele><time>2026-04-16T04:57:38.204Z</time></trkpt><trkpt lat="45.6598062" lon="10.3438796"><ele>484.0</ele><time>2026-04-16T04:57:39.204Z</time></trkpt><trkpt lat="45.6596164" lon="10.3438813"><ele>484.0</ele><time>2026-04-16T04:57:40.205Z</time></trkpt><trkpt lat="45.6594598" lon="10.3438855"><ele>483.2</ele><time>2026-04-16T04:57:41.205Z</time></trkpt><trkpt lat="45.6593223" lon="10.3438993"><ele>482.4</ele><time>2026-04-16T04:57:42.204Z</time></trkpt><trkpt lat="45.6592076" lon="10.3438958"><ele>481.6</ele><time>2026-04-16T04:57:43.204Z</time></trkpt><trkpt lat="45.659109" lon="10.3438572"><ele>480.8</ele><time>2026-04-16T04:57:44.204Z</time></trkpt><trkpt lat="45.6590299" lon="10.3438042"><ele>480.0</ele><time>2026-04-16T04:57:45.205Z</time></trkpt><trkpt lat="45.6589584" lon="10.343734"><ele>484.0</ele><time>2026-04-16T04:57:46.205Z</time></trkpt><trkpt lat="45.6588761" lon="10.3437022"><ele>488.0</ele><time>2026-04-16T04:57:47.204Z</time></trkpt><trkpt lat="45.6587796" lon="10.3437433"><ele>492.0</ele><time>2026-04-16T04:57:48.205Z</time></trkpt><trkpt lat="45.6586595" lon="10.3438076"><ele>496.0</ele><time>2026-04-16T04:57:49.204Z</time></trkpt><trkpt lat="45.6585063" lon="10.3438791"><ele>494.0</ele><time>2026-04-16T04:57:50.205Z</time></trkpt><trkpt lat="45.658321" lon="10.34394"><ele>492.0</ele><time>2026-04-16T04:57:51.205Z</time></trkpt><trkpt lat="45.658112" lon="10.3439816"><ele>490.0</ele><time>2026-04-16T04:57:52.205Z</time></trkpt><trkpt lat="45.6579018" lon="10.3440371"><ele>493.0</ele><time>2026-04-16T04:57:53.205Z</time></trkpt><trkpt lat="45.6577001" lon="10.3441447"><ele>496.0</ele><time>2026-04-16T04:57:54.205Z</time></trkpt><trkpt lat="45.6575036" lon="10.3442794"><ele>499.0</ele><time>2026-04-16T04:57:55.205Z</time></trkpt><trkpt lat="45.657298" lon="10.3444276"><ele>499.0</ele><time>2026-04-16T04:57:56.205Z</time></trkpt><trkpt lat="45.657075" lon="10.3446057"><ele>499.0</ele><time>2026-04-16T04:57:57.204Z</time></trkpt><trkpt lat="45.6568617" lon="10.3447703"><ele>496.5</ele><time>2026-04-16T04:57:58.204Z</time></trkpt><trkpt lat="45.656646" lon="10.344899"><ele>494.0</ele><time>2026-04-16T04:57:59.205Z</time></trkpt><trkpt lat="45.6564266" lon="10.3449922"><ele>494.0</ele><time>2026-04-16T04:58:00.205Z</time></trkpt><trkpt lat="45.6561987" lon="10.3450396"><ele>494.0</ele><time>2026-04-16T04:58:01.205Z</time></trkpt><trkpt lat="45.655973" lon="10.3450689"><ele>497.3333333333333</ele><time>2026-04-16T04:58:02.205Z</time></trkpt><trkpt lat="45.6557539" lon="10.3450738"><ele>500.66666666666663</ele><time>2026-04-16T04:58:03.205Z</time></trkpt><trkpt lat="45.6555561" lon="10.345063"><ele>504.0</ele><time>2026-04-16T04:58:04.205Z</time></trkpt><trkpt lat="45.6553693" lon="10.3450437"><ele>505.33333333333337</ele><time>2026-04-16T04:58:05.205Z</time></trkpt><trkpt lat="45.6551977" lon="10.3450257"><ele>506.6666666666667</ele><time>2026-04-16T04:58:06.205Z</time></trkpt><trkpt lat="45.6550489" lon="10.3450265"><ele>508.0</ele><time>2026-04-16T04:58:07.204Z</time></trkpt><trkpt lat="45.6548962" lon="10.3450387"><ele>508.0</ele><time>2026-04-16T04:58:08.205Z</time></trkpt><trkpt lat="45.6547409" lon="10.3450603"><ele>508.0</ele><time>2026-04-16T04:58:09.205Z</time></trkpt><trkpt lat="45.6545709" lon="10.3451022"><ele>508.0</ele><time>2026-04-16T04:58:10.204Z</time></trkpt><trkpt lat="45.6543935" lon="10.345157"><ele>511.33333333333337</ele><time>2026-04-16T04:58:11.205Z</time></trkpt><trkpt lat="45.6542079" lon="10.3452373"><ele>514.6666666666666</ele><time>2026-04-16T04:58:12.204Z</time></trkpt><trkpt lat="45.6540162" lon="10.3453336"><ele>518.0</ele><time>2026-04-16T04:58:13.205Z</time></trkpt><trkpt lat="45.6538052" lon="10.3454367"><ele>515.0</ele><time>2026-04-16T04:58:14.205Z</time></trkpt><trkpt lat="45.6535898" lon="10.3455455"><ele>512.0</ele><time>2026-04-16T04:58:15.205Z</time></trkpt><trkpt lat="45.65337" lon="10.3456599"><ele>512.0</ele><time>2026-04-16T04:58:16.204Z</time></trkpt><trkpt lat="45.6531445" lon="10.3457773"><ele>512.0</ele><time>2026-04-16T04:58:17.204Z</time></trkpt><trkpt lat="45.6529125" lon="10.3458941"><ele>519.0</ele><time>2026-04-16T04:58:18.205Z</time></trkpt><trkpt lat="45.6526781" lon="10.3460138"><ele>526.0</ele><time>2026-04-16T04:58:19.205Z</time></trkpt><trkpt lat="45.6524429" lon="10.3461468"><ele>526.0</ele><time>2026-04-16T04:58:20.204Z</time></trkpt><trkpt lat="45.6522066" lon="10.3462728"><ele>526.0</ele><time>2026-04-16T04:58:21.204Z</time></trkpt><trkpt lat="45.6519725" lon="10.3463935"><ele>527.5</ele><time>2026-04-16T04:58:22.205Z</time></trkpt><trkpt lat="45.6517307" lon="10.3465186"><ele>529.0</ele><time>2026-04-16T04:58:23.204Z</time></trkpt><trkpt lat="45.6514886" lon="10.3466482"><ele>529.0</ele><time>2026-04-16T04:58:24.205Z</time></trkpt><trkpt lat="45.6512451" lon="10.3467771"><ele>529.0</ele><time>2026-04-16T04:58:25.205Z</time></trkpt><trkpt lat="45.6510196" lon="10.3468966"><ele>535.6666666666667</ele><time>2026-04-16T04:58:26.205Z</time></trkpt><trkpt lat="45.6508175" lon="10.3469955"><ele>542.3333333333334</ele><time>2026-04-16T04:58:27.205Z</time></trkpt><trkpt lat="45.6506394" lon="10.3470904"><ele>549.0</ele><time>2026-04-16T04:58:28.204Z</time></trkpt><trkpt lat="45.6504796" lon="10.3471947"><ele>543.5</ele><time>2026-04-16T04:58:29.205Z</time></trkpt><trkpt lat="45.6503668" lon="10.3473368"><ele>538.0</ele><time>2026-04-16T04:58:30.205Z</time></trkpt><trkpt lat="45.6502812" lon="10.3474968"><ele>532.5</ele><time>2026-04-16T04:58:31.204Z</time></trkpt><trkpt lat="45.6502106" lon="10.3476625"><ele>527.0</ele><time>2026-04-16T04:58:32.205Z</time></trkpt><trkpt lat="45.6501517" lon="10.3478602"><ele>534.0</ele><time>2026-04-16T04:58:33.205Z</time></trkpt><trkpt lat="45.6500789" lon="10.3480748"><ele>541.0</ele><time>2026-04-16T04:58:34.204Z</time></trkpt><trkpt lat="45.6499836" lon="10.3482754"><ele>548.0</ele><time>2026-04-16T04:58:35.204Z</time></trkpt><trkpt lat="45.6498618" lon="10.34845"><ele>548.0</ele><time>2026-04-16T04:58:36.205Z</time></trkpt><trkpt lat="45.6497143" lon="10.3486183"><ele>548.0</ele><time>2026-04-16T04:58:37.204Z</time></trkpt><trkpt lat="45.6495585" lon="10.3487796"><ele>548.0</ele><time>2026-04-16T04:58:38.204Z</time></trkpt><trkpt lat="45.6493912" lon="10.3489456"><ele>550.3333333333333</ele><time>2026-04-16T04:58:39.205Z</time></trkpt><trkpt lat="45.6492577" lon="10.3491016"><ele>552.6666666666666</ele><time>2026-04-16T04:58:40.205Z</time></trkpt><trkpt lat="45.649127" lon="10.3492477"><ele>555.0</ele><time>2026-04-16T04:58:41.205Z</time></trkpt><trkpt lat="45.6490015" lon="10.3493508"><ele>555.0</ele><time>2026-04-16T04:58:42.204Z</time></trkpt><trkpt lat="45.6488738" lon="10.3494284"><ele>555.0</ele><time>2026-04-16T04:58:43.204Z</time></trkpt><trkpt lat="45.6487529" lon="10.3494669"><ele>555.0</ele><time>2026-04-16T04:58:44.205Z</time></trkpt><trkpt lat="45.6486184" lon="10.3494223"><ele>555.0</ele><time>2026-04-16T04:58:45.205Z</time></trkpt><trkpt lat="45.648496" lon="10.3493412"><ele>555.0</ele><time>2026-04-16T04:58:46.205Z</time></trkpt><trkpt lat="45.6483748" lon="10.3492106"><ele>555.0</ele><time>2026-04-16T04:58:47.204Z</time></trkpt><trkpt lat="45.6482512" lon="10.3490589"><ele>555.0</ele><time>2026-04-16T04:58:48.205Z</time></trkpt><trkpt lat="45.6481241" lon="10.3488945"><ele>555.6666666666666</ele><time>2026-04-16T04:58:49.204Z</time></trkpt><trkpt lat="45.6479832" lon="10.3487112"><ele>556.3333333333333</ele><time>2026-04-16T04:58:50.204Z</time></trkpt><trkpt lat="45.647825" lon="10.3485417"><ele>557.0</ele><time>2026-04-16T04:58:51.205Z</time></trkpt><trkpt lat="45.6476706" lon="10.348371"><ele>557.0</ele><time>2026-04-16T04:58:52.204Z</time></trkpt><trkpt lat="45.6475351" lon="10.3482007"><ele>557.0</ele><time>2026-04-16T04:58:53.204Z</time></trkpt><trkpt lat="45.6474259" lon="10.348005"><ele>557.0</ele><time>2026-04-16T04:58:54.205Z</time></trkpt><trkpt lat="45.6473465" lon="10.3477754"><ele>563.3333333333333</ele><time>2026-04-16T04:58:55.204Z</time></trkpt><trkpt lat="45.6473078" lon="10.3475205"><ele>569.6666666666666</ele><time>2026-04-16T04:58:56.204Z</time></trkpt><trkpt lat="45.6472819" lon="10.3472516"><ele>576.0</ele><time>2026-04-16T04:58:57.204Z</time></trkpt><trkpt lat="45.6472559" lon="10.3469469"><ele>577.5</ele><time>2026-04-16T04:58:58.204Z</time></trkpt><trkpt lat="45.6472193" lon="10.3466369"><ele>579.0</ele><time>2026-04-16T04:58:59.205Z</time></trkpt><trkpt lat="45.6471604" lon="10.3463117"><ele>582.0</ele><time>2026-04-16T04:59:00.204Z</time></trkpt><trkpt lat="45.6470838" lon="10.3459734"><ele>585.0</ele><time>2026-04-16T04:59:01.204Z</time></trkpt><trkpt lat="45.6470001" lon="10.3456319"><ele>575.0</ele><time>2026-04-16T04:59:02.205Z</time></trkpt><trkpt lat="45.6469165" lon="10.3452832"><ele>565.0</ele><time>2026-04-16T04:59:03.204Z</time></trkpt><trkpt lat="45.6468326" lon="10.3449366"><ele>571.5</ele><time>2026-04-16T04:59:04.204Z</time></trkpt><trkpt lat="45.6467393" lon="10.3445893"><ele>578.0</ele><time>2026-04-16T04:59:05.204Z</time></trkpt><trkpt lat="45.6466535" lon="10.344249"><ele>578.0</ele><time>2026-04-16T04:59:06.204Z</time></trkpt><trkpt lat="45.6465716" lon="10.3439188"><ele>578.0</ele><time>2026-04-16T04:59:07.205Z</time></trkpt><trkpt lat="45.6464899" lon="10.3436078"><ele>579.3333333333333</ele><time>2026-04-16T04:59:08.204Z</time></trkpt><trkpt lat="45.6464132" lon="10.343331"><ele>580.6666666666666</ele><time>2026-04-16T04:59:09.205Z</time></trkpt><trkpt lat="45.646354" lon="10.3430714"><ele>582.0</ele><time>2026-04-16T04:59:10.205Z</time></trkpt><trkpt lat="45.6462989" lon="10.3428404"><ele>582.0</ele><time>2026-04-16T04:59:11.204Z</time></trkpt><trkpt lat="45.6462458" lon="10.3426335"><ele>582.0</ele><time>2026-04-16T04:59:12.205Z</time></trkpt><trkpt lat="45.6462017" lon="10.3424403"><ele>582.0</ele><time>2026-04-16T04:59:13.204Z</time></trkpt><trkpt lat="45.6461714" lon="10.3422865"><ele>582.0</ele><time>2026-04-16T04:59:14.204Z</time></trkpt><trkpt lat="45.6461666" lon="10.3421483"><ele>582.4</ele><time>2026-04-16T04:59:15.204Z</time></trkpt><trkpt lat="45.6462102" lon="10.34202"><ele>582.8000000000001</ele><time>2026-04-16T04:59:16.205Z</time></trkpt><trkpt lat="45.646283" lon="10.3419374"><ele>583.2</ele><time>2026-04-16T04:59:17.205Z</time></trkpt><trkpt lat="45.6463796" lon="10.3418961"><ele>583.6</ele><time>2026-04-16T04:59:18.204Z</time></trkpt><trkpt lat="45.646468" lon="10.3419043"><ele>584.0</ele><time>2026-04-16T04:59:19.205Z</time></trkpt><trkpt lat="45.6465609" lon="10.3419658"><ele>584.0</ele><time>2026-04-16T04:59:20.204Z</time></trkpt><trkpt lat="45.6466358" lon="10.3420899"><ele>584.0</ele><time>2026-04-16T04:59:21.205Z</time></trkpt><trkpt lat="45.6466837" lon="10.3422717"><ele>584.0</ele><time>2026-04-16T04:59:22.205Z</time></trkpt><trkpt lat="45.6467139" lon="10.3424788"><ele>584.0</ele><time>2026-04-16T04:59:23.205Z</time></trkpt><trkpt lat="45.6467587" lon="10.3427008"><ele>583.3333333333333</ele><time>2026-04-16T04:59:24.205Z</time></trkpt><trkpt lat="45.6468139" lon="10.3429397"><ele>582.6666666666666</ele><time>2026-04-16T04:59:25.204Z</time></trkpt><trkpt lat="45.6468735" lon="10.343188"><ele>582.0</ele><time>2026-04-16T04:59:26.205Z</time></trkpt><trkpt lat="45.6469358" lon="10.3434544"><ele>589.6666666666666</ele><time>2026-04-16T04:59:27.205Z</time></trkpt><trkpt lat="45.6470004" lon="10.3437296"><ele>597.3333333333333</ele><time>2026-04-16T04:59:28.204Z</time></trkpt><trkpt lat="45.6470795" lon="10.3440122"><ele>605.0</ele><time>2026-04-16T04:59:29.205Z</time></trkpt><trkpt lat="45.6471849" lon="10.3442819"><ele>605.0</ele><time>2026-04-16T04:59:30.205Z</time></trkpt><trkpt lat="45.6473027" lon="10.3445613"><ele>605.0</ele><time>2026-04-16T04:59:31.204Z</time></trkpt><trkpt lat="45.6474236" lon="10.3448156"><ele>605.0</ele><time>2026-04-16T04:59:32.204Z</time></trkpt><trkpt lat="45.6475368" lon="10.3450409"><ele>601.6666666666666</ele><time>2026-04-16T04:59:33.205Z</time></trkpt><trkpt lat="45.6476349" lon="10.3452392"><ele>598.3333333333334</ele><time>2026-04-16T04:59:34.204Z</time></trkpt><trkpt lat="45.6477196" lon="10.3454158"><ele>595.0</ele><time>2026-04-16T04:59:35.205Z</time></trkpt><trkpt lat="45.6478003" lon="10.3455799"><ele>600.8</ele><time>2026-04-16T04:59:36.205Z</time></trkpt><trkpt lat="45.6478644" lon="10.3457259"><ele>606.6</ele><time>2026-04-16T04:59:37.205Z</time></trkpt><trkpt lat="45.6479259" lon="10.345848"><ele>612.4</ele><time>2026-04-16T04:59:38.204Z</time></trkpt><trkpt lat="45.6479841" lon="10.345947"><ele>618.2</ele><time>2026-04-16T04:59:39.204Z</time></trkpt><trkpt lat="45.6480657" lon="10.34599"><ele>624.0</ele><time>2026-04-16T04:59:40.204Z</time></trkpt><trkpt lat="45.6481534" lon="10.345994"><ele>624.0</ele><time>2026-04-16T04:59:41.204Z</time></trkpt><trkpt lat="45.6482204" lon="10.3459578"><ele>624.0</ele><time>2026-04-16T04:59:42.205Z</time></trkpt><trkpt lat="45.6482431" lon="10.3458196"><ele>624.0</ele><time>2026-04-16T04:59:43.205Z</time></trkpt><trkpt lat="45.6482352" lon="10.3456677"><ele>624.0</ele><time>2026-04-16T04:59:44.205Z</time></trkpt><trkpt lat="45.6482003" lon="10.3454825"><ele>624.0</ele><time>2026-04-16T04:59:45.205Z</time></trkpt><trkpt lat="45.6481422" lon="10.3452787"><ele>625.3333333333334</ele><time>2026-04-16T04:59:46.205Z</time></trkpt><trkpt lat="45.6480823" lon="10.3450602"><ele>626.6666666666667</ele><time>2026-04-16T04:59:47.205Z</time></trkpt><trkpt lat="45.6480355" lon="10.3448324"><ele>628.0</ele><time>2026-04-16T04:59:48.205Z</time></trkpt><trkpt lat="45.6479837" lon="10.3446192"><ele>632.0</ele><time>2026-04-16T04:59:49.204Z</time></trkpt><trkpt lat="45.6479374" lon="10.3443937"><ele>636.0</ele><time>2026-04-16T04:59:50.205Z</time></trkpt><trkpt lat="45.6478958" lon="10.3441615"><ele>640.0</ele><time>2026-04-16T04:59:51.205Z</time></trkpt><trkpt lat="45.647858" lon="10.3439275"><ele>642.3333333333334</ele><time>2026-04-16T04:59:52.205Z</time></trkpt><trkpt lat="45.6478381" lon="10.3436646"><ele>644.6666666666666</ele><time>2026-04-16T04:59:53.205Z</time></trkpt><trkpt lat="45.6478305" lon="10.3433938"><ele>647.0</ele><time>2026-04-16T04:59:54.204Z</time></trkpt><trkpt lat="45.6478546" lon="10.3431157"><ele>644.3333333333333</ele><time>2026-04-16T04:59:55.205Z</time></trkpt><trkpt lat="45.6479051" lon="10.3428436"><ele>641.6666666666666</ele><time>2026-04-16T04:59:56.205Z</time></trkpt><trkpt lat="45.6479873" lon="10.3425941"><ele>639.0</ele><time>2026-04-16T04:59:57.204Z</time></trkpt><trkpt lat="45.6480878" lon="10.3423384"><ele>634.6666666666666</ele><time>2026-04-16T04:59:58.204Z</time></trkpt><trkpt lat="45.6482118" lon="10.3421111"><ele>630.3333333333333</ele><time>2026-04-16T04:59:59.205Z</time></trkpt><trkpt lat="45.6483695" lon="10.3418564"><ele>626.0</ele><time>2026-04-16T05:00:00.204Z</time></trkpt><trkpt lat="45.648558" lon="10.3415772"><ele>633.5</ele><time>2026-04-16T05:00:01.205Z</time></trkpt><trkpt lat="45.6487504" lon="10.3413005"><ele>641.0</ele><time>2026-04-16T05:00:02.205Z</time></trkpt><trkpt lat="45.6489191" lon="10.3410656"><ele>641.0</ele><time>2026-04-16T05:00:03.204Z</time></trkpt><trkpt lat="45.6490629" lon="10.3408423"><ele>641.0</ele><time>2026-04-16T05:00:04.204Z</time></trkpt><trkpt lat="45.6491901" lon="10.3406498"><ele>641.0</ele><time>2026-04-16T05:00:05.205Z</time></trkpt><trkpt lat="45.6492869" lon="10.3404324"><ele>640.3333333333333</ele><time>2026-04-16T05:00:06.204Z</time></trkpt><trkpt lat="45.6493554" lon="10.3402009"><ele>639.6666666666666</ele><time>2026-04-16T05:00:07.205Z</time></trkpt><trkpt lat="45.6493812" lon="10.33995"><ele>639.0</ele><time>2026-04-16T05:00:08.204Z</time></trkpt><trkpt lat="45.649381" lon="10.3397015"><ele>639.0</ele><time>2026-04-16T05:00:09.204Z</time></trkpt><trkpt lat="45.6493445" lon="10.3394544"><ele>639.0</ele><time>2026-04-16T05:00:10.204Z</time></trkpt><trkpt lat="45.6492699" lon="10.3392167"><ele>639.0</ele><time>2026-04-16T05:00:11.204Z</time></trkpt><trkpt lat="45.6491659" lon="10.3390001"><ele>642.0</ele><time>2026-04-16T05:00:12.204Z</time></trkpt><trkpt lat="45.6490461" lon="10.3388108"><ele>645.0</ele><time>2026-04-16T05:00:13.205Z</time></trkpt><trkpt lat="45.6488997" lon="10.3386638"><ele>648.0</ele><time>2026-04-16T05:00:14.205Z</time></trkpt><trkpt lat="45.6487251" lon="10.3385458"><ele>649.6666666666666</ele><time>2026-04-16T05:00:15.204Z</time></trkpt><trkpt lat="45.6485321" lon="10.3384422"><ele>651.3333333333333</ele><time>2026-04-16T05:00:16.205Z</time></trkpt><trkpt lat="45.648332" lon="10.3383468"><ele>653.0</ele><time>2026-04-16T05:00:17.204Z</time></trkpt><trkpt lat="45.6481138" lon="10.3382414"><ele>653.0</ele><time>2026-04-16T05:00:18.204Z</time></trkpt><trkpt lat="45.6479168" lon="10.338108"><ele>653.0</ele><time>2026-04-16T05:00:19.205Z</time></trkpt><trkpt lat="45.6477394" lon="10.3379377"><ele>653.0</ele><time>2026-04-16T05:00:20.204Z</time></trkpt><trkpt lat="45.6475764" lon="10.3377334"><ele>655.0</ele><time>2026-04-16T05:00:21.204Z</time></trkpt><trkpt lat="45.6474292" lon="10.3375197"><ele>657.0</ele><time>2026-04-16T05:00:22.204Z</time></trkpt><trkpt lat="45.6473072" lon="10.3372687"><ele>659.0</ele><time>2026-04-16T05:00:23.205Z</time></trkpt><trkpt lat="45.6472215" lon="10.3369916"><ele>666.3333333333333</ele><time>2026-04-16T05:00:24.204Z</time></trkpt><trkpt lat="45.6471568" lon="10.3367046"><ele>673.6666666666666</ele><time>2026-04-16T05:00:25.204Z</time></trkpt><trkpt lat="45.6471223" lon="10.3363959"><ele>681.0</ele><time>2026-04-16T05:00:26.204Z</time></trkpt><trkpt lat="45.6471175" lon="10.3360799"><ele>680.5</ele><time>2026-04-16T05:00:27.205Z</time></trkpt><trkpt lat="45.6471383" lon="10.335753"><ele>680.0</ele><time>2026-04-16T05:00:28.204Z</time></trkpt><trkpt lat="45.6471758" lon="10.3354017"><ele>680.0</ele><time>2026-04-16T05:00:29.205Z</time></trkpt><trkpt lat="45.6471992" lon="10.3350377"><ele>680.0</ele><time>2026-04-16T05:00:30.205Z</time></trkpt><trkpt lat="45.6472159" lon="10.3346678"><ele>680.5</ele><time>2026-04-16T05:00:31.204Z</time></trkpt><trkpt lat="45.6472198" lon="10.3342938"><ele>681.0</ele><time>2026-04-16T05:00:32.203Z</time></trkpt><trkpt lat="45.6472158" lon="10.3339189"><ele>682.5</ele><time>2026-04-16T05:00:33.203Z</time></trkpt><trkpt lat="45.6471771" lon="10.3335401"><ele>684.0</ele><time>2026-04-16T05:00:34.204Z</time></trkpt><trkpt lat="45.6471372" lon="10.3331596"><ele>694.0</ele><time>2026-04-16T05:00:35.204Z</time></trkpt><trkpt lat="45.6470907" lon="10.3327918"><ele>704.0</ele><time>2026-04-16T05:00:36.204Z</time></trkpt><trkpt lat="45.6470367" lon="10.3324218"><ele>710.0</ele><time>2026-04-16T05:00:37.203Z</time></trkpt><trkpt lat="45.6469787" lon="10.3320488"><ele>716.0</ele><time>2026-04-16T05:00:38.204Z</time></trkpt><trkpt lat="45.6468873" lon="10.3318275"><ele>722.0</ele><time>2026-04-16T05:00:39.203Z</time></trkpt><trkpt lat="45.6463159" lon="10.3238677"><ele>722.0</ele><time>2026-04-16T05:01:01.204Z</time></trkpt><trkpt lat="45.64644" lon="10.3234531"><ele>722.0</ele><time>2026-04-16T05:01:02.203Z</time></trkpt><trkpt lat="45.6465433" lon="10.3231773"><ele>718.5</ele><time>2026-04-16T05:01:03.203Z</time></trkpt><trkpt lat="45.6466471" lon="10.3228839"><ele>715.0</ele><time>2026-04-16T05:01:04.204Z</time></trkpt><trkpt lat="45.6484049" lon="10.3175932"><ele>715.0</ele><time>2026-04-16T05:01:26.204Z</time></trkpt><trkpt lat="45.648469" lon="10.3174081"><ele>715.0</ele><time>2026-04-16T05:01:27.204Z</time></trkpt><trkpt lat="45.6484949" lon="10.3171535"><ele>715.0</ele><time>2026-04-16T05:01:28.203Z</time></trkpt><trkpt lat="45.6485095" lon="10.316914"><ele>711.0</ele><time>2026-04-16T05:01:29.204Z</time></trkpt><trkpt lat="45.6484911" lon="10.3166529"><ele>707.0</ele><time>2026-04-16T05:01:30.204Z</time></trkpt><trkpt lat="45.6484485" lon="10.3163898"><ele>703.0</ele><time>2026-04-16T05:01:31.203Z</time></trkpt><trkpt lat="45.6483958" lon="10.3161228"><ele>697.3333333333334</ele><time>2026-04-16T05:01:32.203Z</time></trkpt><trkpt lat="45.6483505" lon="10.3158533"><ele>691.6666666666666</ele><time>2026-04-16T05:01:33.204Z</time></trkpt><trkpt lat="45.6483013" lon="10.315588"><ele>686.0</ele><time>2026-04-16T05:01:34.204Z</time></trkpt><trkpt lat="45.648258" lon="10.3153427"><ele>688.6666666666666</ele><time>2026-04-16T05:01:35.203Z</time></trkpt><trkpt lat="45.6482153" lon="10.315095"><ele>691.3333333333334</ele><time>2026-04-16T05:01:36.203Z</time></trkpt><trkpt lat="45.6481739" lon="10.3148495"><ele>694.0</ele><time>2026-04-16T05:01:37.203Z</time></trkpt><trkpt lat="45.6481272" lon="10.3145914"><ele>694.0</ele><time>2026-04-16T05:01:38.203Z</time></trkpt><trkpt lat="45.6480817" lon="10.3143344"><ele>694.0</ele><time>2026-04-16T05:01:39.204Z</time></trkpt><trkpt lat="45.6480381" lon="10.3140764"><ele>694.0</ele><time>2026-04-16T05:01:40.203Z</time></trkpt><trkpt lat="45.6479926" lon="10.3138187"><ele>708.0</ele><time>2026-04-16T05:01:41.203Z</time></trkpt><trkpt lat="45.6479489" lon="10.313563"><ele>722.0</ele><time>2026-04-16T05:01:42.204Z</time></trkpt><trkpt lat="45.647907" lon="10.3133107"><ele>736.0</ele><time>2026-04-16T05:01:43.203Z</time></trkpt><trkpt lat="45.6476618" lon="10.3106401"><ele>730.5</ele><time>2026-04-16T05:01:53.203Z</time></trkpt><trkpt lat="45.6475915" lon="10.3102035"><ele>725.0</ele><time>2026-04-16T05:01:54.204Z</time></trkpt><trkpt lat="45.6475591" lon="10.309858"><ele>721.3333333333333</ele><time>2026-04-16T05:01:55.204Z</time></trkpt><trkpt lat="45.6475388" lon="10.309558"><ele>717.6666666666666</ele><time>2026-04-16T05:01:56.203Z</time></trkpt><trkpt lat="45.6474985" lon="10.3092331"><ele>714.0</ele><time>2026-04-16T05:01:57.204Z</time></trkpt><trkpt lat="45.6474709" lon="10.308926"><ele>709.3333333333334</ele><time>2026-04-16T05:01:58.203Z</time></trkpt><trkpt lat="45.647451" lon="10.3086196"><ele>704.6666666666667</ele><time>2026-04-16T05:01:59.203Z</time></trkpt><trkpt lat="45.6474136" lon="10.3083089"><ele>700.0</ele><time>2026-04-16T05:02:00.203Z</time></trkpt><trkpt lat="45.6473814" lon="10.3079762"><ele>697.0</ele><time>2026-04-16T05:02:01.204Z</time></trkpt><trkpt lat="45.6473519" lon="10.3076346"><ele>694.0</ele><time>2026-04-16T05:02:02.204Z</time></trkpt><trkpt lat="45.6473274" lon="10.307287"><ele>702.0</ele><time>2026-04-16T05:02:03.204Z</time></trkpt><trkpt lat="45.6473014" lon="10.3069442"><ele>710.0</ele><time>2026-04-16T05:02:04.204Z</time></trkpt><trkpt lat="45.6472647" lon="10.3066024"><ele>714.0</ele><time>2026-04-16T05:02:05.204Z</time></trkpt><trkpt lat="45.6472382" lon="10.3062769"><ele>718.0</ele><time>2026-04-16T05:02:06.203Z</time></trkpt><trkpt lat="45.6472085" lon="10.305969"><ele>722.0</ele><time>2026-04-16T05:02:07.203Z</time></trkpt><trkpt lat="45.6471778" lon="10.3056622"><ele>728.3333333333333</ele><time>2026-04-16T05:02:08.204Z</time></trkpt><trkpt lat="45.6471508" lon="10.3053986"><ele>734.6666666666666</ele><time>2026-04-16T05:02:09.203Z</time></trkpt><trkpt lat="45.647131" lon="10.3051379"><ele>741.0</ele><time>2026-04-16T05:02:10.203Z</time></trkpt><trkpt lat="45.6471157" lon="10.3048988"><ele>743.6666666666666</ele><time>2026-04-16T05:02:11.204Z</time></trkpt><trkpt lat="45.6471185" lon="10.3046445"><ele>746.3333333333333</ele><time>2026-04-16T05:02:12.204Z</time></trkpt><trkpt lat="45.6471399" lon="10.3043855"><ele>749.0</ele><time>2026-04-16T05:02:13.203Z</time></trkpt><trkpt lat="45.6471722" lon="10.3041184"><ele>748.6666666666666</ele><time>2026-04-16T05:02:14.204Z</time></trkpt><trkpt lat="45.6472177" lon="10.3038482"><ele>748.3333333333334</ele><time>2026-04-16T05:02:15.204Z</time></trkpt><trkpt lat="45.6472714" lon="10.3035637"><ele>748.0</ele><time>2026-04-16T05:02:16.203Z</time></trkpt><trkpt lat="45.6473429" lon="10.3032629"><ele>739.5</ele><time>2026-04-16T05:02:17.204Z</time></trkpt><trkpt lat="45.6474254" lon="10.3029476"><ele>731.0</ele><time>2026-04-16T05:02:18.204Z</time></trkpt><trkpt lat="45.6475082" lon="10.302637"><ele>731.0</ele><time>2026-04-16T05:02:19.203Z</time></trkpt><trkpt lat="45.6475908" lon="10.3023362"><ele>731.0</ele><time>2026-04-16T05:02:20.203Z</time></trkpt><trkpt lat="45.6476616" lon="10.3020601"><ele>731.0</ele><time>2026-04-16T05:02:21.204Z</time></trkpt><trkpt lat="45.6477245" lon="10.30179"><ele>735.3333333333333</ele><time>2026-04-16T05:02:22.203Z</time></trkpt><trkpt lat="45.6477875" lon="10.301534"><ele>739.6666666666666</ele><time>2026-04-16T05:02:23.203Z</time></trkpt><trkpt lat="45.6478489" lon="10.3012795"><ele>744.0</ele><time>2026-04-16T05:02:24.203Z</time></trkpt><trkpt lat="45.6479102" lon="10.3010418"><ele>744.0</ele><time>2026-04-16T05:02:25.204Z</time></trkpt><trkpt lat="45.6479656" lon="10.3008024"><ele>744.0</ele><time>2026-04-16T05:02:26.204Z</time></trkpt><trkpt lat="45.6479986" lon="10.300561"><ele>744.0</ele><time>2026-04-16T05:02:27.204Z</time></trkpt><trkpt lat="45.6480112" lon="10.3003148"><ele>744.3333333333334</ele><time>2026-04-16T05:02:28.203Z</time></trkpt><trkpt lat="45.6479965" lon="10.3000668"><ele>744.6666666666667</ele><time>2026-04-16T05:02:29.204Z</time></trkpt><trkpt lat="45.6479598" lon="10.2998095"><ele>745.0</ele><time>2026-04-16T05:02:30.203Z</time></trkpt><trkpt lat="45.6479187" lon="10.2995389"><ele>747.3333333333334</ele><time>2026-04-16T05:02:31.204Z</time></trkpt><trkpt lat="45.6478646" lon="10.2992606"><ele>749.6666666666666</ele><time>2026-04-16T05:02:32.203Z</time></trkpt><trkpt lat="45.6478231" lon="10.2989761"><ele>752.0</ele><time>2026-04-16T05:02:33.204Z</time></trkpt><trkpt lat="45.6478036" lon="10.2986891"><ele>752.0</ele><time>2026-04-16T05:02:34.204Z</time></trkpt><trkpt lat="45.6478076" lon="10.2984083"><ele>752.0</ele><time>2026-04-16T05:02:35.203Z</time></trkpt><trkpt lat="45.6478414" lon="10.2981336"><ele>752.0</ele><time>2026-04-16T05:02:36.204Z</time></trkpt><trkpt lat="45.647916" lon="10.2978745"><ele>745.6666666666666</ele><time>2026-04-16T05:02:37.204Z</time></trkpt><trkpt lat="45.6480064" lon="10.2976065"><ele>739.3333333333334</ele><time>2026-04-16T05:02:38.203Z</time></trkpt><trkpt lat="45.6480949" lon="10.2973162"><ele>733.0</ele><time>2026-04-16T05:02:39.203Z</time></trkpt><trkpt lat="45.6482009" lon="10.2970342"><ele>724.0</ele><time>2026-04-16T05:02:40.204Z</time></trkpt><trkpt lat="45.649209" lon="10.2957892"><ele>696.0</ele><time>2026-04-16T05:02:45.204Z</time></trkpt><trkpt lat="45.6489734" lon="10.2951488"><ele>696.0</ele><time>2026-04-16T05:02:46.203Z</time></trkpt><trkpt lat="45.6489802" lon="10.2948152"><ele>696.0</ele><time>2026-04-16T05:02:47.204Z</time></trkpt><trkpt lat="45.6490764" lon="10.2944851"><ele>697.0</ele><time>2026-04-16T05:02:48.203Z</time></trkpt><trkpt lat="45.6491773" lon="10.2941552"><ele>698.0</ele><time>2026-04-16T05:02:49.204Z</time></trkpt><trkpt lat="45.6492779" lon="10.2938365"><ele>689.5</ele><time>2026-04-16T05:02:50.204Z</time></trkpt><trkpt lat="45.6493764" lon="10.2935203"><ele>681.0</ele><time>2026-04-16T05:02:51.204Z</time></trkpt><trkpt lat="45.6494756" lon="10.2932142"><ele>693.0</ele><time>2026-04-16T05:02:52.204Z</time></trkpt><trkpt lat="45.6495711" lon="10.292917"><ele>705.0</ele><time>2026-04-16T05:02:53.204Z</time></trkpt><trkpt lat="45.6496653" lon="10.2926296"><ele>705.0</ele><time>2026-04-16T05:02:54.204Z</time></trkpt><trkpt lat="45.649768" lon="10.2923611"><ele>705.0</ele><time>2026-04-16T05:02:55.203Z</time></trkpt><trkpt lat="45.649894" lon="10.2921158"><ele>705.0</ele><time>2026-04-16T05:02:56.204Z</time></trkpt><trkpt lat="45.6500325" lon="10.2918799"><ele>707.5</ele><time>2026-04-16T05:02:57.204Z</time></trkpt><trkpt lat="45.6501984" lon="10.291665"><ele>710.0</ele><time>2026-04-16T05:02:58.203Z</time></trkpt><trkpt lat="45.6503696" lon="10.2914522"><ele>700.0</ele><time>2026-04-16T05:02:59.203Z</time></trkpt><trkpt lat="45.6505445" lon="10.2912487"><ele>690.0</ele><time>2026-04-16T05:03:00.204Z</time></trkpt><trkpt lat="45.6507086" lon="10.2910571"><ele>680.0</ele><time>2026-04-16T05:03:01.204Z</time></trkpt><trkpt lat="45.6508661" lon="10.2908792"><ele>680.0</ele><time>2026-04-16T05:03:02.204Z</time></trkpt><trkpt lat="45.65102" lon="10.2907082"><ele>680.0</ele><time>2026-04-16T05:03:03.204Z</time></trkpt><trkpt lat="45.6511676" lon="10.2905468"><ele>680.0</ele><time>2026-04-16T05:03:04.203Z</time></trkpt><trkpt lat="45.6513043" lon="10.2903879"><ele>679.6666666666666</ele><time>2026-04-16T05:03:05.204Z</time></trkpt><trkpt lat="45.6514396" lon="10.2902523"><ele>679.3333333333334</ele><time>2026-04-16T05:03:06.204Z</time></trkpt><trkpt lat="45.6515695" lon="10.2901245"><ele>679.0</ele><time>2026-04-16T05:03:07.203Z</time></trkpt><trkpt lat="45.651688" lon="10.2899998"><ele>679.0</ele><time>2026-04-16T05:03:08.203Z</time></trkpt><trkpt lat="45.651792" lon="10.2898835"><ele>679.0</ele><time>2026-04-16T05:03:09.204Z</time></trkpt><trkpt lat="45.6518921" lon="10.2897712"><ele>679.0</ele><time>2026-04-16T05:03:10.203Z</time></trkpt><trkpt lat="45.6519893" lon="10.2896698"><ele>679.0</ele><time>2026-04-16T05:03:11.203Z</time></trkpt><trkpt lat="45.6520808" lon="10.2895704"><ele>677.8000000000001</ele><time>2026-04-16T05:03:12.204Z</time></trkpt><trkpt lat="45.6521699" lon="10.2894838"><ele>676.6</ele><time>2026-04-16T05:03:13.203Z</time></trkpt><trkpt lat="45.6522526" lon="10.289392"><ele>675.4</ele><time>2026-04-16T05:03:14.203Z</time></trkpt><trkpt lat="45.6523362" lon="10.2892979"><ele>674.2</ele><time>2026-04-16T05:03:15.204Z</time></trkpt><trkpt lat="45.6524239" lon="10.2892007"><ele>673.0</ele><time>2026-04-16T05:03:16.203Z</time></trkpt><trkpt lat="45.652507" lon="10.2890964"><ele>673.0</ele><time>2026-04-16T05:03:17.204Z</time></trkpt><trkpt lat="45.6525859" lon="10.2889849"><ele>673.0</ele><time>2026-04-16T05:03:18.204Z</time></trkpt><trkpt lat="45.6526524" lon="10.2888644"><ele>673.0</ele><time>2026-04-16T05:03:19.204Z</time></trkpt><trkpt lat="45.6527149" lon="10.2887442"><ele>673.0</ele><time>2026-04-16T05:03:20.203Z</time></trkpt><trkpt lat="45.6527653" lon="10.2886321"><ele>673.0</ele><time>2026-04-16T05:03:21.203Z</time></trkpt><trkpt lat="45.6528102" lon="10.2885177"><ele>678.2</ele><time>2026-04-16T05:03:22.203Z</time></trkpt><trkpt lat="45.6528472" lon="10.2883943"><ele>683.4</ele><time>2026-04-16T05:03:23.204Z</time></trkpt><trkpt lat="45.6528774" lon="10.2882679"><ele>688.6</ele><time>2026-04-16T05:03:24.203Z</time></trkpt><trkpt lat="45.6529036" lon="10.2881358"><ele>693.8000000000001</ele><time>2026-04-16T05:03:25.204Z</time></trkpt><trkpt lat="45.6529258" lon="10.2879971"><ele>699.0</ele><time>2026-04-16T05:03:26.204Z</time></trkpt><trkpt lat="45.6529527" lon="10.2878559"><ele>699.0</ele><time>2026-04-16T05:03:27.204Z</time></trkpt><trkpt lat="45.6529775" lon="10.287716"><ele>699.0</ele><time>2026-04-16T05:03:28.204Z</time></trkpt><trkpt lat="45.653005" lon="10.287577"><ele>699.0</ele><time>2026-04-16T05:03:29.204Z</time></trkpt><trkpt lat="45.6530297" lon="10.2874395"><ele>699.0</ele><time>2026-04-16T05:03:30.204Z</time></trkpt><trkpt lat="45.6530534" lon="10.2872979"><ele>699.0</ele><time>2026-04-16T05:03:31.204Z</time></trkpt><trkpt lat="45.6530822" lon="10.2871554"><ele>696.8000000000001</ele><time>2026-04-16T05:03:32.204Z</time></trkpt><trkpt lat="45.6531108" lon="10.287001"><ele>694.6</ele><time>2026-04-16T05:03:33.204Z</time></trkpt><trkpt lat="45.6531449" lon="10.2868498"><ele>692.4</ele><time>2026-04-16T05:03:34.204Z</time></trkpt><trkpt lat="45.6531715" lon="10.2867107"><ele>690.2</ele><time>2026-04-16T05:03:35.203Z</time></trkpt><trkpt lat="45.6532061" lon="10.2865718"><ele>688.0</ele><time>2026-04-16T05:03:36.204Z</time></trkpt><trkpt lat="45.6532367" lon="10.2864297"><ele>686.0</ele><time>2026-04-16T05:03:37.204Z</time></trkpt><trkpt lat="45.6532645" lon="10.2862858"><ele>684.0</ele><time>2026-04-16T05:03:38.204Z</time></trkpt><trkpt lat="45.6533005" lon="10.2861443"><ele>682.0</ele><time>2026-04-16T05:03:39.204Z</time></trkpt><trkpt lat="45.6533427" lon="10.2860003"><ele>680.0</ele><time>2026-04-16T05:03:40.203Z</time></trkpt><trkpt lat="45.6533937" lon="10.2858582"><ele>678.0</ele><time>2026-04-16T05:03:41.203Z</time></trkpt><trkpt lat="45.6534536" lon="10.2857182"><ele>677.0</ele><time>2026-04-16T05:03:42.203Z</time></trkpt><trkpt lat="45.6535204" lon="10.28559"><ele>676.0</ele><time>2026-04-16T05:03:43.204Z</time></trkpt><trkpt lat="45.6535865" lon="10.2854774"><ele>675.0</ele><time>2026-04-16T05:03:44.203Z</time></trkpt><trkpt lat="45.6536512" lon="10.285381"><ele>674.0</ele><time>2026-04-16T05:03:45.204Z</time></trkpt><trkpt lat="45.6537135" lon="10.2852895"><ele>673.0</ele><time>2026-04-16T05:03:46.203Z</time></trkpt><trkpt lat="45.6537758" lon="10.2851926"><ele>673.0</ele><time>2026-04-16T05:03:47.204Z</time></trkpt><trkpt lat="45.6538402" lon="10.2850933"><ele>673.0</ele><time>2026-04-16T05:03:48.204Z</time></trkpt><trkpt lat="45.6539055" lon="10.2849974"><ele>673.0</ele><time>2026-04-16T05:03:49.204Z</time></trkpt><trkpt lat="45.653964" lon="10.2849071"><ele>673.0</ele><time>2026-04-16T05:03:50.204Z</time></trkpt><trkpt lat="45.6540199" lon="10.2848086"><ele>673.0</ele><time>2026-04-16T05:03:51.203Z</time></trkpt><trkpt lat="45.6540734" lon="10.2847194"><ele>673.0</ele><time>2026-04-16T05:03:52.204Z</time></trkpt><trkpt lat="45.6541276" lon="10.2846351"><ele>673.0</ele><time>2026-04-16T05:03:53.204Z</time></trkpt><trkpt lat="45.6541783" lon="10.2845452"><ele>673.0</ele><time>2026-04-16T05:03:54.203Z</time></trkpt><trkpt lat="45.6542344" lon="10.2844447"><ele>673.0</ele><time>2026-04-16T05:03:55.203Z</time></trkpt><trkpt lat="45.654283" lon="10.2843409"><ele>673.0</ele><time>2026-04-16T05:03:56.203Z</time></trkpt><trkpt lat="45.6543222" lon="10.2842248"><ele>673.0</ele><time>2026-04-16T05:03:57.204Z</time></trkpt><trkpt lat="45.6543573" lon="10.2841068"><ele>673.0</ele><time>2026-04-16T05:03:58.204Z</time></trkpt><trkpt lat="45.6543787" lon="10.2839786"><ele>671.5999999999999</ele><time>2026-04-16T05:03:59.204Z</time></trkpt><trkpt lat="45.6543963" lon="10.2838386"><ele>670.1999999999999</ele><time>2026-04-16T05:04:00.203Z</time></trkpt><trkpt lat="45.6544003" lon="10.2836942"><ele>668.8</ele><time>2026-04-16T05:04:01.204Z</time></trkpt><trkpt lat="45.6543937" lon="10.2835672"><ele>667.4</ele><time>2026-04-16T05:04:02.203Z</time></trkpt><trkpt lat="45.6543948" lon="10.2834515"><ele>666.0</ele><time>2026-04-16T05:04:03.203Z</time></trkpt><trkpt lat="45.6543946" lon="10.2833373"><ele>666.0</ele><time>2026-04-16T05:04:04.203Z</time></trkpt><trkpt lat="45.6543979" lon="10.2832053"><ele>666.0</ele><time>2026-04-16T05:04:05.204Z</time></trkpt><trkpt lat="45.6543992" lon="10.2830892"><ele>666.0</ele><time>2026-04-16T05:04:06.203Z</time></trkpt><trkpt lat="45.6543964" lon="10.2829637"><ele>666.0</ele><time>2026-04-16T05:04:07.204Z</time></trkpt><trkpt lat="45.6543933" lon="10.2828586"><ele>666.0</ele><time>2026-04-16T05:04:08.204Z</time></trkpt><trkpt lat="45.6543907" lon="10.2827551"><ele>666.0</ele><time>2026-04-16T05:04:09.204Z</time></trkpt><trkpt lat="45.6543945" lon="10.2825743"><ele>665.5</ele><time>2026-04-16T05:04:11.203Z</time></trkpt><trkpt lat="45.6544015" lon="10.2824771"><ele>665.0</ele><time>2026-04-16T05:04:12.204Z</time></trkpt><trkpt lat="45.6544197" lon="10.2823689"><ele>664.5</ele><time>2026-04-16T05:04:13.204Z</time></trkpt><trkpt lat="45.6544457" lon="10.2822585"><ele>664.0</ele><time>2026-04-16T05:04:14.203Z</time></trkpt><trkpt lat="45.6544823" lon="10.2821588"><ele>663.5</ele><time>2026-04-16T05:04:15.204Z</time></trkpt><trkpt lat="45.6545382" lon="10.2820799"><ele>663.0</ele><time>2026-04-16T05:04:16.204Z</time></trkpt><trkpt lat="45.6545981" lon="10.2820069"><ele>664.1666666666666</ele><time>2026-04-16T05:04:17.204Z</time></trkpt><trkpt lat="45.654672" lon="10.2819625"><ele>665.3333333333334</ele><time>2026-04-16T05:04:18.204Z</time></trkpt><trkpt lat="45.6547552" lon="10.2819593"><ele>666.5</ele><time>2026-04-16T05:04:19.203Z</time></trkpt><trkpt lat="45.6548378" lon="10.281973"><ele>667.6666666666667</ele><time>2026-04-16T05:04:20.203Z</time></trkpt><trkpt lat="45.6549159" lon="10.2820012"><ele>668.8333333333334</ele><time>2026-04-16T05:04:21.204Z</time></trkpt><trkpt lat="45.6550012" lon="10.2820278"><ele>670.0</ele><time>2026-04-16T05:04:22.204Z</time></trkpt><trkpt lat="45.6550862" lon="10.2820494"><ele>670.0</ele><time>2026-04-16T05:04:23.204Z</time></trkpt><trkpt lat="45.6551662" lon="10.2820678"><ele>670.0</ele><time>2026-04-16T05:04:24.203Z</time></trkpt><trkpt lat="45.6552393" lon="10.2820843"><ele>670.0</ele><time>2026-04-16T05:04:25.203Z</time></trkpt><trkpt lat="45.6553276" lon="10.2820943"><ele>670.0</ele><time>2026-04-16T05:04:26.203Z</time></trkpt><trkpt lat="45.6554101" lon="10.2820706"><ele>670.0</ele><time>2026-04-16T05:04:27.203Z</time></trkpt><trkpt lat="45.6554891" lon="10.2820224"><ele>670.0</ele><time>2026-04-16T05:04:28.203Z</time></trkpt><trkpt lat="45.655557" lon="10.2819501"><ele>672.6666666666667</ele><time>2026-04-16T05:04:29.204Z</time></trkpt><trkpt lat="45.6556097" lon="10.2818641"><ele>675.3333333333334</ele><time>2026-04-16T05:04:30.204Z</time></trkpt><trkpt lat="45.6556529" lon="10.2817652"><ele>678.0</ele><time>2026-04-16T05:04:31.204Z</time></trkpt><trkpt lat="45.6556761" lon="10.2816491"><ele>680.6666666666666</ele><time>2026-04-16T05:04:32.203Z</time></trkpt><trkpt lat="45.6556821" lon="10.2815374"><ele>683.3333333333333</ele><time>2026-04-16T05:04:33.203Z</time></trkpt><trkpt lat="45.6556741" lon="10.2814155"><ele>686.0</ele><time>2026-04-16T05:04:34.204Z</time></trkpt><trkpt lat="45.6556557" lon="10.2813024"><ele>686.0</ele><time>2026-04-16T05:04:35.204Z</time></trkpt><trkpt lat="45.6556173" lon="10.2811913"><ele>686.0</ele><time>2026-04-16T05:04:36.204Z</time></trkpt><trkpt lat="45.6555736" lon="10.2810768"><ele>686.0</ele><time>2026-04-16T05:04:37.203Z</time></trkpt><trkpt lat="45.6555397" lon="10.2809552"><ele>686.0</ele><time>2026-04-16T05:04:38.204Z</time></trkpt><trkpt lat="45.6555035" lon="10.2808293"><ele>686.0</ele><time>2026-04-16T05:04:39.203Z</time></trkpt><trkpt lat="45.6554706" lon="10.2807073"><ele>685.1999999999999</ele><time>2026-04-16T05:04:40.203Z</time></trkpt><trkpt lat="45.6554421" lon="10.2805776"><ele>684.4</ele><time>2026-04-16T05:04:41.204Z</time></trkpt><trkpt lat="45.6554247" lon="10.2804303"><ele>683.6</ele><time>2026-04-16T05:04:42.203Z</time></trkpt><trkpt lat="45.6554188" lon="10.2802879"><ele>682.8</ele><time>2026-04-16T05:04:43.204Z</time></trkpt><trkpt lat="45.6554127" lon="10.2801392"><ele>682.0</ele><time>2026-04-16T05:04:44.203Z</time></trkpt><trkpt lat="45.6554098" lon="10.2799822"><ele>682.0</ele><time>2026-04-16T05:04:45.204Z</time></trkpt><trkpt lat="45.6554177" lon="10.2798196"><ele>682.0</ele><time>2026-04-16T05:04:46.204Z</time></trkpt><trkpt lat="45.6554215" lon="10.2796479"><ele>682.0</ele><time>2026-04-16T05:04:47.204Z</time></trkpt><trkpt lat="45.655428" lon="10.279472"><ele>682.0</ele><time>2026-04-16T05:04:48.203Z</time></trkpt><trkpt lat="45.6554321" lon="10.2792978"><ele>679.3333333333334</ele><time>2026-04-16T05:04:49.203Z</time></trkpt><trkpt lat="45.6554356" lon="10.2791021"><ele>676.6666666666666</ele><time>2026-04-16T05:04:50.204Z</time></trkpt><trkpt lat="45.6554421" lon="10.2788802"><ele>674.0</ele><time>2026-04-16T05:04:51.203Z</time></trkpt><trkpt lat="45.6554464" lon="10.2786414"><ele>673.3333333333333</ele><time>2026-04-16T05:04:52.204Z</time></trkpt><trkpt lat="45.6554574" lon="10.2783876"><ele>672.6666666666666</ele><time>2026-04-16T05:04:53.203Z</time></trkpt><trkpt lat="45.6554536" lon="10.2781208"><ele>672.0</ele><time>2026-04-16T05:04:54.204Z</time></trkpt><trkpt lat="45.6554317" lon="10.2778542"><ele>674.3333333333334</ele><time>2026-04-16T05:04:55.204Z</time></trkpt><trkpt lat="45.655397" lon="10.2775913"><ele>676.6666666666667</ele><time>2026-04-16T05:04:56.203Z</time></trkpt><trkpt lat="45.6553533" lon="10.2773235"><ele>679.0</ele><time>2026-04-16T05:04:57.203Z</time></trkpt><trkpt lat="45.6553199" lon="10.2770478"><ele>678.3333333333334</ele><time>2026-04-16T05:04:58.204Z</time></trkpt><trkpt lat="45.6552984" lon="10.2767619"><ele>677.6666666666666</ele><time>2026-04-16T05:04:59.203Z</time></trkpt><trkpt lat="45.6553043" lon="10.2764811"><ele>677.0</ele><time>2026-04-16T05:05:00.203Z</time></trkpt><trkpt lat="45.6553433" lon="10.2762103"><ele>677.0</ele><time>2026-04-16T05:05:01.204Z</time></trkpt><trkpt lat="45.6554152" lon="10.2759379"><ele>677.0</ele><time>2026-04-16T05:05:02.204Z</time></trkpt><trkpt lat="45.6555016" lon="10.2756663"><ele>677.0</ele><time>2026-04-16T05:05:03.203Z</time></trkpt><trkpt lat="45.6555898" lon="10.2754019"><ele>671.3333333333333</ele><time>2026-04-16T05:05:04.203Z</time></trkpt><trkpt lat="45.6556795" lon="10.2751548"><ele>665.6666666666666</ele><time>2026-04-16T05:05:05.204Z</time></trkpt><trkpt lat="45.6557512" lon="10.2749313"><ele>660.0</ele><time>2026-04-16T05:05:06.203Z</time></trkpt><trkpt lat="45.6558268" lon="10.2747194"><ele>658.6666666666666</ele><time>2026-04-16T05:05:07.204Z</time></trkpt><trkpt lat="45.6558974" lon="10.2745085"><ele>657.3333333333333</ele><time>2026-04-16T05:05:08.203Z</time></trkpt><trkpt lat="45.6559723" lon="10.2743084"><ele>656.0</ele><time>2026-04-16T05:05:09.203Z</time></trkpt><trkpt lat="45.6560423" lon="10.2741099"><ele>654.5</ele><time>2026-04-16T05:05:10.203Z</time></trkpt><trkpt lat="45.6561129" lon="10.2739162"><ele>653.0</ele><time>2026-04-16T05:05:11.203Z</time></trkpt><trkpt lat="45.6561783" lon="10.2737279"><ele>651.5</ele><time>2026-04-16T05:05:12.203Z</time></trkpt><trkpt lat="45.6562364" lon="10.2735433"><ele>650.0</ele><time>2026-04-16T05:05:13.204Z</time></trkpt><trkpt lat="45.6562884" lon="10.273383"><ele>648.8</ele><time>2026-04-16T05:05:14.204Z</time></trkpt><trkpt lat="45.6563189" lon="10.2732269"><ele>647.6</ele><time>2026-04-16T05:05:15.203Z</time></trkpt><trkpt lat="45.6563135" lon="10.2730931"><ele>646.4000000000001</ele><time>2026-04-16T05:05:16.203Z</time></trkpt><trkpt lat="45.6562759" lon="10.272938"><ele>645.2</ele><time>2026-04-16T05:05:17.203Z</time></trkpt><trkpt lat="45.6562096" lon="10.2728292"><ele>644.0</ele><time>2026-04-16T05:05:18.204Z</time></trkpt><trkpt lat="45.656116" lon="10.2728018"><ele>644.0</ele><time>2026-04-16T05:05:19.204Z</time></trkpt><trkpt lat="45.6560081" lon="10.2728382"><ele>644.0</ele><time>2026-04-16T05:05:20.204Z</time></trkpt><trkpt lat="45.6559086" lon="10.2729035"><ele>644.0</ele><time>2026-04-16T05:05:21.204Z</time></trkpt><trkpt lat="45.6558243" lon="10.2730443"><ele>644.0</ele><time>2026-04-16T05:05:22.204Z</time></trkpt><trkpt lat="45.6557548" lon="10.273227"><ele>646.0</ele><time>2026-04-16T05:05:23.204Z</time></trkpt><trkpt lat="45.6556702" lon="10.273405"><ele>648.0</ele><time>2026-04-16T05:05:24.204Z</time></trkpt><trkpt lat="45.6555786" lon="10.2736046"><ele>650.0</ele><time>2026-04-16T05:05:25.204Z</time></trkpt><trkpt lat="45.6554875" lon="10.2738177"><ele>652.0</ele><time>2026-04-16T05:05:26.204Z</time></trkpt><trkpt lat="45.6553926" lon="10.2740588"><ele>654.0</ele><time>2026-04-16T05:05:27.203Z</time></trkpt><trkpt lat="45.6552862" lon="10.2743123"><ele>656.0</ele><time>2026-04-16T05:05:28.203Z</time></trkpt><trkpt lat="45.6551817" lon="10.2745522"><ele>652.0</ele><time>2026-04-16T05:05:29.204Z</time></trkpt><trkpt lat="45.65508" lon="10.2747693"><ele>648.0</ele><time>2026-04-16T05:05:30.203Z</time></trkpt><trkpt lat="45.6549838" lon="10.2749763"><ele>644.0</ele><time>2026-04-16T05:05:31.204Z</time></trkpt><trkpt lat="45.6549053" lon="10.2751719"><ele>644.0</ele><time>2026-04-16T05:05:32.203Z</time></trkpt><trkpt lat="45.6548674" lon="10.2753741"><ele>644.0</ele><time>2026-04-16T05:05:33.204Z</time></trkpt><trkpt lat="45.654861" lon="10.2755765"><ele>644.0</ele><time>2026-04-16T05:05:34.203Z</time></trkpt><trkpt lat="45.6548757" lon="10.2757693"><ele>644.0</ele><time>2026-04-16T05:05:35.203Z</time></trkpt><trkpt lat="45.6548983" lon="10.2759363"><ele>644.0</ele><time>2026-04-16T05:05:36.203Z</time></trkpt><trkpt lat="45.6549178" lon="10.2760797"><ele>644.0</ele><time>2026-04-16T05:05:37.203Z</time></trkpt><trkpt lat="45.654918" lon="10.2761986"><ele>644.0</ele><time>2026-04-16T05:05:38.204Z</time></trkpt><trkpt lat="45.654887" lon="10.2763012"><ele>644.0</ele><time>2026-04-16T05:05:39.203Z</time></trkpt><trkpt lat="45.6548219" lon="10.2763633"><ele>644.0</ele><time>2026-04-16T05:05:40.204Z</time></trkpt><trkpt lat="45.6547468" lon="10.2763686"><ele>644.0</ele><time>2026-04-16T05:05:41.203Z</time></trkpt><trkpt lat="45.654681" lon="10.2763236"><ele>644.0</ele><time>2026-04-16T05:05:42.204Z</time></trkpt><trkpt lat="45.654644" lon="10.2762254"><ele>644.0</ele><time>2026-04-16T05:05:43.203Z</time></trkpt><trkpt lat="45.6546487" lon="10.276094"><ele>644.0</ele><time>2026-04-16T05:05:44.203Z</time></trkpt><trkpt lat="45.6546792" lon="10.2758992"><ele>644.0</ele><time>2026-04-16T05:05:45.203Z</time></trkpt><trkpt lat="45.6547079" lon="10.2756929"><ele>644.0</ele><time>2026-04-16T05:05:46.204Z</time></trkpt><trkpt lat="45.654724" lon="10.2754691"><ele>644.0</ele><time>2026-04-16T05:05:47.204Z</time></trkpt><trkpt lat="45.6547336" lon="10.2752325"><ele>644.0</ele><time>2026-04-16T05:05:48.204Z</time></trkpt><trkpt lat="45.654726" lon="10.2750001"><ele>641.6666666666666</ele><time>2026-04-16T05:05:49.204Z</time></trkpt><trkpt lat="45.6547184" lon="10.2747513"><ele>639.3333333333334</ele><time>2026-04-16T05:05:50.203Z</time></trkpt><trkpt lat="45.6547082" lon="10.2744899"><ele>637.0</ele><time>2026-04-16T05:05:51.204Z</time></trkpt><trkpt lat="45.6547037" lon="10.274243"><ele>637.0</ele><time>2026-04-16T05:05:52.204Z</time></trkpt><trkpt lat="45.6547035" lon="10.2740046"><ele>637.0</ele><time>2026-04-16T05:05:53.203Z</time></trkpt><trkpt lat="45.6546946" lon="10.2737674"><ele>637.0</ele><time>2026-04-16T05:05:54.204Z</time></trkpt><trkpt lat="45.6547003" lon="10.2735275"><ele>635.3333333333334</ele><time>2026-04-16T05:05:55.204Z</time></trkpt><trkpt lat="45.6547098" lon="10.2732942"><ele>633.6666666666666</ele><time>2026-04-16T05:05:56.204Z</time></trkpt><trkpt lat="45.6547348" lon="10.2730605"><ele>632.0</ele><time>2026-04-16T05:05:57.204Z</time></trkpt><trkpt lat="45.6547814" lon="10.2728329"><ele>630.5</ele><time>2026-04-16T05:05:58.204Z</time></trkpt><trkpt lat="45.6548363" lon="10.2726329"><ele>629.0</ele><time>2026-04-16T05:05:59.204Z</time></trkpt><trkpt lat="45.6549008" lon="10.2724522"><ele>627.5</ele><time>2026-04-16T05:06:00.203Z</time></trkpt><trkpt lat="45.6549585" lon="10.2722934"><ele>626.0</ele><time>2026-04-16T05:06:01.204Z</time></trkpt><trkpt lat="45.654998" lon="10.2721535"><ele>625.6</ele><time>2026-04-16T05:06:02.203Z</time></trkpt><trkpt lat="45.6550099" lon="10.27202"><ele>625.2</ele><time>2026-04-16T05:06:03.203Z</time></trkpt><trkpt lat="45.654984" lon="10.2718945"><ele>624.8</ele><time>2026-04-16T05:06:04.203Z</time></trkpt><trkpt lat="45.6549172" lon="10.2717818"><ele>624.4</ele><time>2026-04-16T05:06:05.204Z</time></trkpt><trkpt lat="45.654823" lon="10.2717275"><ele>624.0</ele><time>2026-04-16T05:06:06.204Z</time></trkpt><trkpt lat="45.6547276" lon="10.2717552"><ele>624.0</ele><time>2026-04-16T05:06:07.204Z</time></trkpt><trkpt lat="45.6546478" lon="10.2718571"><ele>624.0</ele><time>2026-04-16T05:06:08.204Z</time></trkpt><trkpt lat="45.6545588" lon="10.2719772"><ele>624.0</ele><time>2026-04-16T05:06:09.203Z</time></trkpt><trkpt lat="45.6544509" lon="10.2721387"><ele>624.0</ele><time>2026-04-16T05:06:10.204Z</time></trkpt><trkpt lat="45.6543492" lon="10.2723075"><ele>619.3333333333334</ele><time>2026-04-16T05:06:11.204Z</time></trkpt><trkpt lat="45.6542331" lon="10.2724873"><ele>614.6666666666667</ele><time>2026-04-16T05:06:12.203Z</time></trkpt><trkpt lat="45.65412" lon="10.2726695"><ele>610.0</ele><time>2026-04-16T05:06:13.204Z</time></trkpt><trkpt lat="45.6540239" lon="10.2728684"><ele>610.0</ele><time>2026-04-16T05:06:14.204Z</time></trkpt><trkpt lat="45.6539496" lon="10.273094"><ele>610.0</ele><time>2026-04-16T05:06:15.203Z</time></trkpt><trkpt lat="45.6538912" lon="10.2733248"><ele>610.0</ele><time>2026-04-16T05:06:16.203Z</time></trkpt><trkpt lat="45.6538383" lon="10.2735758"><ele>611.6666666666667</ele><time>2026-04-16T05:06:17.203Z</time></trkpt><trkpt lat="45.6537866" lon="10.2738275"><ele>613.3333333333334</ele><time>2026-04-16T05:06:18.204Z</time></trkpt><trkpt lat="45.6537308" lon="10.2740746"><ele>615.0</ele><time>2026-04-16T05:06:19.204Z</time></trkpt><trkpt lat="45.6536746" lon="10.2743016"><ele>616.0</ele><time>2026-04-16T05:06:20.204Z</time></trkpt><trkpt lat="45.6536245" lon="10.2745288"><ele>617.0</ele><time>2026-04-16T05:06:21.204Z</time></trkpt><trkpt lat="45.653591" lon="10.2747387"><ele>618.0</ele><time>2026-04-16T05:06:22.204Z</time></trkpt><trkpt lat="45.653577" lon="10.2749396"><ele>617.75</ele><time>2026-04-16T05:06:23.203Z</time></trkpt><trkpt lat="45.6535869" lon="10.2751417"><ele>617.5</ele><time>2026-04-16T05:06:24.203Z</time></trkpt><trkpt lat="45.6536157" lon="10.2753212"><ele>617.25</ele><time>2026-04-16T05:06:25.203Z</time></trkpt><trkpt lat="45.6536349" lon="10.2754862"><ele>617.0</ele><time>2026-04-16T05:06:26.203Z</time></trkpt><trkpt lat="45.6536537" lon="10.2756568"><ele>616.6</ele><time>2026-04-16T05:06:27.204Z</time></trkpt><trkpt lat="45.653661" lon="10.2758068"><ele>616.2</ele><time>2026-04-16T05:06:28.204Z</time></trkpt><trkpt lat="45.6536372" lon="10.2759394"><ele>615.8</ele><time>2026-04-16T05:06:29.204Z</time></trkpt><trkpt lat="45.6535764" lon="10.2760409"><ele>615.4</ele><time>2026-04-16T05:06:30.204Z</time></trkpt><trkpt lat="45.6534857" lon="10.2760973"><ele>615.0</ele><time>2026-04-16T05:06:31.203Z</time></trkpt><trkpt lat="45.6533883" lon="10.2761026"><ele>611.4</ele><time>2026-04-16T05:06:32.203Z</time></trkpt><trkpt lat="45.6532873" lon="10.2760594"><ele>607.8</ele><time>2026-04-16T05:06:33.204Z</time></trkpt><trkpt lat="45.6532265" lon="10.2759395"><ele>604.2</ele><time>2026-04-16T05:06:34.204Z</time></trkpt><trkpt lat="45.6532048" lon="10.2758031"><ele>600.6</ele><time>2026-04-16T05:06:35.204Z</time></trkpt><trkpt lat="45.6531889" lon="10.2756383"><ele>597.0</ele><time>2026-04-16T05:06:36.204Z</time></trkpt><trkpt lat="45.653188" lon="10.2754755"><ele>597.0</ele><time>2026-04-16T05:06:37.204Z</time></trkpt><trkpt lat="45.6531806" lon="10.275311"><ele>597.0</ele><time>2026-04-16T05:06:38.203Z</time></trkpt><trkpt lat="45.6531539" lon="10.275166"><ele>597.0</ele><time>2026-04-16T05:06:39.204Z</time></trkpt><trkpt lat="45.653145" lon="10.2750226"><ele>597.0</ele><time>2026-04-16T05:06:40.204Z</time></trkpt><trkpt lat="45.6531364" lon="10.2749129"><ele>597.0</ele><time>2026-04-16T05:06:41.204Z</time></trkpt><trkpt lat="45.6530953" lon="10.2747509"><ele>597.0</ele><time>2026-04-16T05:06:43.204Z</time></trkpt><trkpt lat="45.6530397" lon="10.2747031"><ele>597.0</ele><time>2026-04-16T05:06:44.204Z</time></trkpt><trkpt lat="45.6529544" lon="10.2747086"><ele>597.0</ele><time>2026-04-16T05:06:46.204Z</time></trkpt><trkpt lat="45.6528878" lon="10.2748273"><ele>597.0</ele><time>2026-04-16T05:06:48.204Z</time></trkpt><trkpt lat="45.6528737" lon="10.2749427"><ele>597.0</ele><time>2026-04-16T05:06:49.204Z</time></trkpt><trkpt lat="45.6528688" lon="10.2750722"><ele>597.0</ele><time>2026-04-16T05:06:50.204Z</time></trkpt><trkpt lat="45.6528517" lon="10.2751986"><ele>597.0</ele><time>2026-04-16T05:06:51.203Z</time></trkpt><trkpt lat="45.6528386" lon="10.2753235"><ele>597.0</ele><time>2026-04-16T05:06:52.203Z</time></trkpt><trkpt lat="45.6528323" lon="10.2754425"><ele>597.0</ele><time>2026-04-16T05:06:53.203Z</time></trkpt><trkpt lat="45.6528244" lon="10.2755641"><ele>597.0</ele><time>2026-04-16T05:06:54.203Z</time></trkpt><trkpt lat="45.6528149" lon="10.2756808"><ele>597.0</ele><time>2026-04-16T05:06:55.203Z</time></trkpt><trkpt lat="45.6528061" lon="10.2758004"><ele>597.0</ele><time>2026-04-16T05:06:56.203Z</time></trkpt><trkpt lat="45.6527913" lon="10.2759114"><ele>594.7142857142858</ele><time>2026-04-16T05:06:57.202Z</time></trkpt><trkpt lat="45.6527757" lon="10.2760091"><ele>592.4285714285714</ele><time>2026-04-16T05:06:58.202Z</time></trkpt><trkpt lat="45.6527426" lon="10.2761061"><ele>590.1428571428571</ele><time>2026-04-16T05:06:59.202Z</time></trkpt><trkpt lat="45.6526862" lon="10.2761877"><ele>587.8571428571429</ele><time>2026-04-16T05:07:00.202Z</time></trkpt><trkpt lat="45.6526233" lon="10.2762135"><ele>585.5714285714286</ele><time>2026-04-16T05:07:01.202Z</time></trkpt><trkpt lat="45.6525436" lon="10.2762026"><ele>583.2857142857143</ele><time>2026-04-16T05:07:02.203Z</time></trkpt><trkpt lat="45.6524698" lon="10.2761761"><ele>581.0</ele><time>2026-04-16T05:07:03.203Z</time></trkpt><trkpt lat="45.6524203" lon="10.2761047"><ele>581.0</ele><time>2026-04-16T05:07:04.203Z</time></trkpt><trkpt lat="45.6523907" lon="10.2760096"><ele>581.0</ele><time>2026-04-16T05:07:05.203Z</time></trkpt><trkpt lat="45.6523758" lon="10.2758972"><ele>581.0</ele><time>2026-04-16T05:07:06.203Z</time></trkpt><trkpt lat="45.6523712" lon="10.2757754"><ele>581.0</ele><time>2026-04-16T05:07:07.203Z</time></trkpt><trkpt lat="45.6523665" lon="10.2756466"><ele>581.0</ele><time>2026-04-16T05:07:08.203Z</time></trkpt><trkpt lat="45.6523486" lon="10.2754983"><ele>581.0</ele><time>2026-04-16T05:07:09.203Z</time></trkpt><trkpt lat="45.6523314" lon="10.2753607"><ele>580.2</ele><time>2026-04-16T05:07:10.203Z</time></trkpt><trkpt lat="45.6523157" lon="10.2752234"><ele>579.4000000000001</ele><time>2026-04-16T05:07:11.202Z</time></trkpt><trkpt lat="45.6523019" lon="10.2750878"><ele>578.6</ele><time>2026-04-16T05:07:12.203Z</time></trkpt><trkpt lat="45.6522852" lon="10.2749551"><ele>577.8000000000001</ele><time>2026-04-16T05:07:13.202Z</time></trkpt><trkpt lat="45.6522664" lon="10.2748455"><ele>577.0</ele><time>2026-04-16T05:07:14.203Z</time></trkpt><trkpt lat="45.6522444" lon="10.2747159"><ele>576.5</ele><time>2026-04-16T05:07:15.203Z</time></trkpt><trkpt lat="45.652227" lon="10.2745864"><ele>576.0</ele><time>2026-04-16T05:07:16.203Z</time></trkpt><trkpt lat="45.6522213" lon="10.2744627"><ele>575.5</ele><time>2026-04-16T05:07:17.203Z</time></trkpt><trkpt lat="45.6522051" lon="10.2743674"><ele>575.0</ele><time>2026-04-16T05:07:18.203Z</time></trkpt><trkpt lat="45.65213" lon="10.2742374"><ele>574.5</ele><time>2026-04-16T05:07:20.203Z</time></trkpt><trkpt lat="45.6520688" lon="10.274204"><ele>574.0</ele><time>2026-04-16T05:07:21.202Z</time></trkpt><trkpt lat="45.6520105" lon="10.2741663"><ele>574.0</ele><time>2026-04-16T05:07:22.202Z</time></trkpt><trkpt lat="45.6519779" lon="10.2740884"><ele>574.0</ele><time>2026-04-16T05:07:23.202Z</time></trkpt><trkpt lat="45.6519521" lon="10.2739656"><ele>574.0</ele><time>2026-04-16T05:07:24.202Z</time></trkpt><trkpt lat="45.6519265" lon="10.2738193"><ele>574.0</ele><time>2026-04-16T05:07:25.203Z</time></trkpt><trkpt lat="45.6519105" lon="10.2736379"><ele>574.0</ele><time>2026-04-16T05:07:26.203Z</time></trkpt><trkpt lat="45.6518892" lon="10.2734297"><ele>571.2</ele><time>2026-04-16T05:07:27.203Z</time></trkpt><trkpt lat="45.6518633" lon="10.2732376"><ele>568.4</ele><time>2026-04-16T05:07:28.203Z</time></trkpt><trkpt lat="45.6518409" lon="10.2730788"><ele>565.6</ele><time>2026-04-16T05:07:29.203Z</time></trkpt><trkpt lat="45.651822" lon="10.2729346"><ele>562.8</ele><time>2026-04-16T05:07:30.202Z</time></trkpt><trkpt lat="45.6517999" lon="10.2728278"><ele>560.0</ele><time>2026-04-16T05:07:31.203Z</time></trkpt><trkpt lat="45.6517653" lon="10.2727433"><ele>560.0</ele><time>2026-04-16T05:07:32.202Z</time></trkpt><trkpt lat="45.6517034" lon="10.2726954"><ele>560.0</ele><time>2026-04-16T05:07:33.202Z</time></trkpt><trkpt lat="45.6515938" lon="10.2727345"><ele>560.0</ele><time>2026-04-16T05:07:35.202Z</time></trkpt><trkpt lat="45.6515576" lon="10.272829"><ele>560.0</ele><time>2026-04-16T05:07:36.202Z</time></trkpt><trkpt lat="45.6515277" lon="10.2729645"><ele>560.0</ele><time>2026-04-16T05:07:37.203Z</time></trkpt><trkpt lat="45.6514962" lon="10.2731277"><ele>560.0</ele><time>2026-04-16T05:07:38.203Z</time></trkpt><trkpt lat="45.6514635" lon="10.27328"><ele>560.0</ele><time>2026-04-16T05:07:39.202Z</time></trkpt><trkpt lat="45.651431" lon="10.2734069"><ele>560.0</ele><time>2026-04-16T05:07:40.203Z</time></trkpt><trkpt lat="45.6513948" lon="10.2735203"><ele>560.0</ele><time>2026-04-16T05:07:41.203Z</time></trkpt><trkpt lat="45.6512799" lon="10.2735827"><ele>560.0</ele><time>2026-04-16T05:07:43.202Z</time></trkpt><trkpt lat="45.6512036" lon="10.2734791"><ele>560.0</ele><time>2026-04-16T05:07:45.203Z</time></trkpt><trkpt lat="45.6511781" lon="10.2733712"><ele>560.0</ele><time>2026-04-16T05:07:46.202Z</time></trkpt><trkpt lat="45.6511634" lon="10.2732075"><ele>560.0</ele><time>2026-04-16T05:07:47.203Z</time></trkpt><trkpt lat="45.6511463" lon="10.2730206"><ele>560.0</ele><time>2026-04-16T05:07:48.202Z</time></trkpt><trkpt lat="45.6511294" lon="10.2728449"><ele>556.8</ele><time>2026-04-16T05:07:49.203Z</time></trkpt><trkpt lat="45.6511152" lon="10.2726827"><ele>553.6</ele><time>2026-04-16T05:07:50.203Z</time></trkpt><trkpt lat="45.6510956" lon="10.2725306"><ele>550.4</ele><time>2026-04-16T05:07:51.202Z</time></trkpt><trkpt lat="45.6510785" lon="10.2724047"><ele>547.2</ele><time>2026-04-16T05:07:52.203Z</time></trkpt><trkpt lat="45.6510393" lon="10.2722652"><ele>544.0</ele><time>2026-04-16T05:07:54.202Z</time></trkpt><trkpt lat="45.6509174" lon="10.2722741"><ele>544.0</ele><time>2026-04-16T05:07:56.203Z</time></trkpt><trkpt lat="45.6508187" lon="10.272301"><ele>544.0</ele><time>2026-04-16T05:07:57.203Z</time></trkpt><trkpt lat="45.6507095" lon="10.2723322"><ele>544.0</ele><time>2026-04-16T05:07:58.203Z</time></trkpt><trkpt lat="45.6506027" lon="10.2723456"><ele>544.0</ele><time>2026-04-16T05:07:59.203Z</time></trkpt><trkpt lat="45.6504996" lon="10.272334"><ele>544.0</ele><time>2026-04-16T05:08:00.202Z</time></trkpt><trkpt lat="45.6503879" lon="10.2723014"><ele>539.75</ele><time>2026-04-16T05:08:01.203Z</time></trkpt><trkpt lat="45.6502729" lon="10.2722442"><ele>535.5</ele><time>2026-04-16T05:08:02.202Z</time></trkpt><trkpt lat="45.6501598" lon="10.2721891"><ele>531.25</ele><time>2026-04-16T05:08:03.203Z</time></trkpt><trkpt lat="45.650048" lon="10.2721377"><ele>527.0</ele><time>2026-04-16T05:08:04.202Z</time></trkpt><trkpt lat="45.649943" lon="10.2721072"><ele>527.0</ele><time>2026-04-16T05:08:05.203Z</time></trkpt><trkpt lat="45.6498529" lon="10.2720676"><ele>527.0</ele><time>2026-04-16T05:08:06.202Z</time></trkpt><trkpt lat="45.6497747" lon="10.2720279"><ele>527.0</ele><time>2026-04-16T05:08:07.203Z</time></trkpt><trkpt lat="45.6497167" lon="10.2719822"><ele>527.0</ele><time>2026-04-16T05:08:08.203Z</time></trkpt><trkpt lat="45.6496562" lon="10.2719476"><ele>527.0</ele><time>2026-04-16T05:08:09.203Z</time></trkpt><trkpt lat="45.6495646" lon="10.2718727"><ele>527.0</ele><time>2026-04-16T05:08:11.203Z</time></trkpt><trkpt lat="45.6495428" lon="10.2717624"><ele>527.0</ele><time>2026-04-16T05:08:12.203Z</time></trkpt><trkpt lat="45.6495203" lon="10.271581"><ele>527.0</ele><time>2026-04-16T05:08:13.202Z</time></trkpt><trkpt lat="45.6495143" lon="10.2713822"><ele>527.0</ele><time>2026-04-16T05:08:14.203Z</time></trkpt><trkpt lat="45.6495167" lon="10.2711499"><ele>527.0</ele><time>2026-04-16T05:08:15.203Z</time></trkpt><trkpt lat="45.6495399" lon="10.2708764"><ele>525.3333333333333</ele><time>2026-04-16T05:08:16.203Z</time></trkpt><trkpt lat="45.649557" lon="10.2705835"><ele>523.6666666666666</ele><time>2026-04-16T05:08:17.203Z</time></trkpt><trkpt lat="45.6495729" lon="10.2702919"><ele>522.0</ele><time>2026-04-16T05:08:18.203Z</time></trkpt><trkpt lat="45.6495827" lon="10.270015"><ele>519.0</ele><time>2026-04-16T05:08:19.202Z</time></trkpt><trkpt lat="45.6496135" lon="10.2697729"><ele>516.0</ele><time>2026-04-16T05:08:20.203Z</time></trkpt><trkpt lat="45.6496467" lon="10.2695512"><ele>513.0</ele><time>2026-04-16T05:08:21.202Z</time></trkpt><trkpt lat="45.6496771" lon="10.2693333"><ele>513.0</ele><time>2026-04-16T05:08:22.203Z</time></trkpt><trkpt lat="45.6497026" lon="10.2691509"><ele>513.0</ele><time>2026-04-16T05:08:23.202Z</time></trkpt><trkpt lat="45.6497302" lon="10.2689757"><ele>513.0</ele><time>2026-04-16T05:08:24.203Z</time></trkpt><trkpt lat="45.6497598" lon="10.2687926"><ele>513.0</ele><time>2026-04-16T05:08:25.203Z</time></trkpt><trkpt lat="45.6497853" lon="10.2686253"><ele>512.0</ele><time>2026-04-16T05:08:26.202Z</time></trkpt><trkpt lat="45.649803" lon="10.2684546"><ele>511.0</ele><time>2026-04-16T05:08:27.202Z</time></trkpt><trkpt lat="45.6498241" lon="10.2682775"><ele>510.0</ele><time>2026-04-16T05:08:28.203Z</time></trkpt><trkpt lat="45.6498376" lon="10.2681056"><ele>509.0</ele><time>2026-04-16T05:08:29.203Z</time></trkpt><trkpt lat="45.6498553" lon="10.2679263"><ele>508.25</ele><time>2026-04-16T05:08:30.203Z</time></trkpt><trkpt lat="45.6498728" lon="10.2677466"><ele>507.5</ele><time>2026-04-16T05:08:31.203Z</time></trkpt><trkpt lat="45.6498896" lon="10.2675662"><ele>506.75</ele><time>2026-04-16T05:08:32.203Z</time></trkpt><trkpt lat="45.6499093" lon="10.2673936"><ele>506.0</ele><time>2026-04-16T05:08:33.202Z</time></trkpt><trkpt lat="45.6499238" lon="10.2672311"><ele>504.6</ele><time>2026-04-16T05:08:34.202Z</time></trkpt><trkpt lat="45.6499544" lon="10.2670833"><ele>503.20000000000005</ele><time>2026-04-16T05:08:35.203Z</time></trkpt><trkpt lat="45.6499714" lon="10.266943"><ele>501.79999999999995</ele><time>2026-04-16T05:08:36.202Z</time></trkpt><trkpt lat="45.6500052" lon="10.2668105"><ele>500.4</ele><time>2026-04-16T05:08:37.203Z</time></trkpt><trkpt lat="45.6500491" lon="10.2666909"><ele>499.0</ele><time>2026-04-16T05:08:38.202Z</time></trkpt><trkpt lat="45.6501015" lon="10.2665977"><ele>499.00000000000006</ele><time>2026-04-16T05:08:39.203Z</time></trkpt><trkpt lat="45.6501427" lon="10.2665194"><ele>499.0</ele><time>2026-04-16T05:08:40.202Z</time></trkpt><trkpt lat="45.6501566" lon="10.2664206"><ele>499.0</ele><time>2026-04-16T05:08:41.203Z</time></trkpt><trkpt lat="45.6501317" lon="10.2663257"><ele>499.0</ele><time>2026-04-16T05:08:42.203Z</time></trkpt><trkpt lat="45.6500643" lon="10.2662651"><ele>499.00000000000006</ele><time>2026-04-16T05:08:43.203Z</time></trkpt><trkpt lat="45.6499423" lon="10.2663255"><ele>499.0</ele><time>2026-04-16T05:08:45.202Z</time></trkpt><trkpt lat="45.6498588" lon="10.2663754"><ele>499.0</ele><time>2026-04-16T05:08:46.202Z</time></trkpt><trkpt lat="45.6497716" lon="10.2664626"><ele>499.0</ele><time>2026-04-16T05:08:47.203Z</time></trkpt><trkpt lat="45.6496861" lon="10.2665522"><ele>499.0</ele><time>2026-04-16T05:08:48.203Z</time></trkpt><trkpt lat="45.6495853" lon="10.2666485"><ele>499.0</ele><time>2026-04-16T05:08:49.203Z</time></trkpt><trkpt lat="45.6495047" lon="10.2667696"><ele>497.5</ele><time>2026-04-16T05:08:50.203Z</time></trkpt><trkpt lat="45.649441" lon="10.2669069"><ele>496.0</ele><time>2026-04-16T05:08:51.203Z</time></trkpt><trkpt lat="45.6494014" lon="10.2670528"><ele>494.5</ele><time>2026-04-16T05:08:52.202Z</time></trkpt><trkpt lat="45.6493504" lon="10.2671953"><ele>493.0</ele><time>2026-04-16T05:08:53.202Z</time></trkpt><trkpt lat="45.6493009" lon="10.267343"><ele>493.0</ele><time>2026-04-16T05:08:54.202Z</time></trkpt><trkpt lat="45.6492496" lon="10.2674747"><ele>492.99999999999994</ele><time>2026-04-16T05:08:55.203Z</time></trkpt><trkpt lat="45.64919" lon="10.2676109"><ele>492.99999999999994</ele><time>2026-04-16T05:08:56.202Z</time></trkpt><trkpt lat="45.6491214" lon="10.2677432"><ele>493.0</ele><time>2026-04-16T05:08:57.202Z</time></trkpt><trkpt lat="45.6490403" lon="10.2678411"><ele>493.0</ele><time>2026-04-16T05:08:58.203Z</time></trkpt><trkpt lat="45.6489512" lon="10.2679417"><ele>493.0</ele><time>2026-04-16T05:08:59.203Z</time></trkpt><trkpt lat="45.6488627" lon="10.2680415"><ele>492.99999999999994</ele><time>2026-04-16T05:09:00.202Z</time></trkpt><trkpt lat="45.6487693" lon="10.268133"><ele>492.99999999999994</ele><time>2026-04-16T05:09:01.203Z</time></trkpt><trkpt lat="45.6486753" lon="10.2682286"><ele>493.0</ele><time>2026-04-16T05:09:02.203Z</time></trkpt><trkpt lat="45.6485893" lon="10.2682956"><ele>493.0</ele><time>2026-04-16T05:09:03.202Z</time></trkpt><trkpt lat="45.6485068" lon="10.2683682"><ele>492.33333333333337</ele><time>2026-04-16T05:09:04.202Z</time></trkpt><trkpt lat="45.6484294" lon="10.2684452"><ele>491.6666666666667</ele><time>2026-04-16T05:09:05.202Z</time></trkpt><trkpt lat="45.6483539" lon="10.2685119"><ele>491.0</ele><time>2026-04-16T05:09:06.203Z</time></trkpt><trkpt lat="45.6482761" lon="10.2685797"><ele>490.33333333333337</ele><time>2026-04-16T05:09:07.203Z</time></trkpt><trkpt lat="45.6482078" lon="10.2686316"><ele>489.6666666666667</ele><time>2026-04-16T05:09:08.202Z</time></trkpt><trkpt lat="45.6481329" lon="10.2686797"><ele>489.0</ele><time>2026-04-16T05:09:09.203Z</time></trkpt><trkpt lat="45.648059" lon="10.2687216"><ele>489.0</ele><time>2026-04-16T05:09:10.202Z</time></trkpt><trkpt lat="45.6479871" lon="10.2687625"><ele>489.00000000000006</ele><time>2026-04-16T05:09:11.203Z</time></trkpt><trkpt lat="45.64792" lon="10.2687826"><ele>489.0</ele><time>2026-04-16T05:09:12.202Z</time></trkpt><trkpt lat="45.6478498" lon="10.2687678"><ele>489.0</ele><time>2026-04-16T05:09:13.202Z</time></trkpt><trkpt lat="45.6477844" lon="10.2687214"><ele>489.00000000000006</ele><time>2026-04-16T05:09:14.203Z</time></trkpt><trkpt lat="45.6477552" lon="10.2686192"><ele>489.0</ele><time>2026-04-16T05:09:15.203Z</time></trkpt><trkpt lat="45.6477313" lon="10.2685319"><ele>489.0</ele><time>2026-04-16T05:09:16.203Z</time></trkpt><trkpt lat="45.6477587" lon="10.2684441"><ele>489.0</ele><time>2026-04-16T05:09:17.202Z</time></trkpt><trkpt lat="45.647837" lon="10.2683263"><ele>489.0</ele><time>2026-04-16T05:09:18.203Z</time></trkpt><trkpt lat="45.6479235" lon="10.2681686"><ele>489.0</ele><time>2026-04-16T05:09:19.203Z</time></trkpt><trkpt lat="45.6480031" lon="10.2680066"><ele>489.0</ele><time>2026-04-16T05:09:20.202Z</time></trkpt><trkpt lat="45.648084" lon="10.2678511"><ele>488.2</ele><time>2026-04-16T05:09:21.202Z</time></trkpt><trkpt lat="45.6481605" lon="10.2677068"><ele>487.4</ele><time>2026-04-16T05:09:22.203Z</time></trkpt><trkpt lat="45.6482226" lon="10.2675802"><ele>486.6</ele><time>2026-04-16T05:09:23.203Z</time></trkpt><trkpt lat="45.6482868" lon="10.2674606"><ele>485.8</ele><time>2026-04-16T05:09:24.203Z</time></trkpt><trkpt lat="45.6483356" lon="10.2673474"><ele>485.0</ele><time>2026-04-16T05:09:25.203Z</time></trkpt><trkpt lat="45.6483812" lon="10.2672351"><ele>484.2</ele><time>2026-04-16T05:09:26.202Z</time></trkpt><trkpt lat="45.6484102" lon="10.2671149"><ele>483.4</ele><time>2026-04-16T05:09:27.202Z</time></trkpt><trkpt lat="45.6484181" lon="10.2669774"><ele>482.6</ele><time>2026-04-16T05:09:28.203Z</time></trkpt><trkpt lat="45.6484026" lon="10.2668428"><ele>481.8</ele><time>2026-04-16T05:09:29.203Z</time></trkpt><trkpt lat="45.6483767" lon="10.2666971"><ele>481.0</ele><time>2026-04-16T05:09:30.202Z</time></trkpt><trkpt lat="45.6483329" lon="10.2665471"><ele>480.8</ele><time>2026-04-16T05:09:31.202Z</time></trkpt><trkpt lat="45.6482741" lon="10.2664065"><ele>480.6</ele><time>2026-04-16T05:09:32.203Z</time></trkpt><trkpt lat="45.6482179" lon="10.2662648"><ele>480.4</ele><time>2026-04-16T05:09:33.202Z</time></trkpt><trkpt lat="45.6481639" lon="10.2661334"><ele>480.2</ele><time>2026-04-16T05:09:34.202Z</time></trkpt><trkpt lat="45.648137" lon="10.2659824"><ele>480.0</ele><time>2026-04-16T05:09:35.202Z</time></trkpt><trkpt lat="45.6481208" lon="10.2658451"><ele>480.0</ele><time>2026-04-16T05:09:36.203Z</time></trkpt><trkpt lat="45.6481212" lon="10.2657125"><ele>480.0</ele><time>2026-04-16T05:09:37.202Z</time></trkpt><trkpt lat="45.6481494" lon="10.2655614"><ele>480.0</ele><time>2026-04-16T05:09:38.203Z</time></trkpt><trkpt lat="45.6482005" lon="10.2654364"><ele>480.0</ele><time>2026-04-16T05:09:39.203Z</time></trkpt><trkpt lat="45.6482812" lon="10.2653039"><ele>480.0</ele><time>2026-04-16T05:09:40.202Z</time></trkpt><trkpt lat="45.6483837" lon="10.2651831"><ele>479.5</ele><time>2026-04-16T05:09:41.203Z</time></trkpt><trkpt lat="45.6484805" lon="10.2650684"><ele>479.0</ele><time>2026-04-16T05:09:42.203Z</time></trkpt><trkpt lat="45.6485679" lon="10.2649331"><ele>478.5</ele><time>2026-04-16T05:09:43.203Z</time></trkpt><trkpt lat="45.6486311" lon="10.2647952"><ele>478.0</ele><time>2026-04-16T05:09:44.202Z</time></trkpt><trkpt lat="45.6486761" lon="10.2646496"><ele>476.79999999999995</ele><time>2026-04-16T05:09:45.203Z</time></trkpt><trkpt lat="45.6487246" lon="10.2645051"><ele>475.59999999999997</ele><time>2026-04-16T05:09:46.202Z</time></trkpt><trkpt lat="45.6487656" lon="10.2643642"><ele>474.40000000000003</ele><time>2026-04-16T05:09:47.203Z</time></trkpt><trkpt lat="45.6487994" lon="10.2642293"><ele>473.20000000000005</ele><time>2026-04-16T05:09:48.202Z</time></trkpt><trkpt lat="45.6488342" lon="10.2641024"><ele>472.0</ele><time>2026-04-16T05:09:49.203Z</time></trkpt><trkpt lat="45.6488693" lon="10.2639798"><ele>470.83333333333337</ele><time>2026-04-16T05:09:50.203Z</time></trkpt><trkpt lat="45.6489009" lon="10.2638635"><ele>469.6666666666667</ele><time>2026-04-16T05:09:51.203Z</time></trkpt><trkpt lat="45.648928" lon="10.2637548"><ele>468.5</ele><time>2026-04-16T05:09:52.203Z</time></trkpt><trkpt lat="45.6489538" lon="10.2636454"><ele>467.33333333333337</ele><time>2026-04-16T05:09:53.202Z</time></trkpt><trkpt lat="45.6489795" lon="10.2635456"><ele>466.1666666666667</ele><time>2026-04-16T05:09:54.202Z</time></trkpt><trkpt lat="45.6489972" lon="10.263458"><ele>465.0</ele><time>2026-04-16T05:09:55.202Z</time></trkpt><trkpt lat="45.649038" lon="10.2632804"><ele>465.0</ele><time>2026-04-16T05:09:57.202Z</time></trkpt><trkpt lat="45.6490577" lon="10.2631793"><ele>465.0</ele><time>2026-04-16T05:09:58.202Z</time></trkpt><trkpt lat="45.6490772" lon="10.2630781"><ele>465.0</ele><time>2026-04-16T05:09:59.202Z</time></trkpt><trkpt lat="45.6491002" lon="10.2629544"><ele>465.0</ele><time>2026-04-16T05:10:00.202Z</time></trkpt><trkpt lat="45.6491288" lon="10.2628219"><ele>465.0</ele><time>2026-04-16T05:10:01.203Z</time></trkpt><trkpt lat="45.6491649" lon="10.2626925"><ele>465.0</ele><time>2026-04-16T05:10:02.202Z</time></trkpt><trkpt lat="45.6491906" lon="10.262579"><ele>464.2</ele><time>2026-04-16T05:10:03.202Z</time></trkpt><trkpt lat="45.649224" lon="10.2624836"><ele>463.4</ele><time>2026-04-16T05:10:04.202Z</time></trkpt><trkpt lat="45.649285" lon="10.2623647"><ele>462.6</ele><time>2026-04-16T05:10:06.202Z</time></trkpt><trkpt lat="45.6493325" lon="10.2622634"><ele>461.8</ele><time>2026-04-16T05:11:09.203Z</time></trkpt><trkpt lat="45.649412" lon="10.2621347"><ele>461.0</ele><time>2026-04-16T05:11:11.203Z</time></trkpt><trkpt lat="45.6495001" lon="10.2620283"><ele>461.0</ele><time>2026-04-16T05:11:13.202Z</time></trkpt><trkpt lat="45.6495665" lon="10.2619518"><ele>461.0</ele><time>2026-04-16T05:11:14.202Z</time></trkpt><trkpt lat="45.649655" lon="10.2618498"><ele>461.0</ele><time>2026-04-16T05:11:15.202Z</time></trkpt><trkpt lat="45.6497281" lon="10.261764"><ele>461.0</ele><time>2026-04-16T05:11:16.203Z</time></trkpt><trkpt lat="45.6497967" lon="10.2616662"><ele>461.0</ele><time>2026-04-16T05:11:17.203Z</time></trkpt><trkpt lat="45.6498551" lon="10.2615608"><ele>459.6</ele><time>2026-04-16T05:11:18.202Z</time></trkpt><trkpt lat="45.6499047" lon="10.2614467"><ele>458.20000000000005</ele><time>2026-04-16T05:11:19.202Z</time></trkpt><trkpt lat="45.6499469" lon="10.2613265"><ele>456.79999999999995</ele><time>2026-04-16T05:11:20.202Z</time></trkpt><trkpt lat="45.6499753" lon="10.2611921"><ele>455.4</ele><time>2026-04-16T05:11:21.202Z</time></trkpt><trkpt lat="45.6499855" lon="10.2610449"><ele>454.0</ele><time>2026-04-16T05:11:22.202Z</time></trkpt><trkpt lat="45.6499859" lon="10.2609021"><ele>454.0</ele><time>2026-04-16T05:11:23.202Z</time></trkpt><trkpt lat="45.649987" lon="10.2607543"><ele>454.0</ele><time>2026-04-16T05:11:24.203Z</time></trkpt><trkpt lat="45.6499889" lon="10.2605987"><ele>454.0</ele><time>2026-04-16T05:11:25.203Z</time></trkpt><trkpt lat="45.6499888" lon="10.2604469"><ele>454.0</ele><time>2026-04-16T05:11:26.203Z</time></trkpt><trkpt lat="45.6499948" lon="10.2603075"><ele>454.0</ele><time>2026-04-16T05:11:27.202Z</time></trkpt><trkpt lat="45.649994" lon="10.2601479"><ele>453.0</ele><time>2026-04-16T05:11:28.202Z</time></trkpt><trkpt lat="45.6499906" lon="10.2599853"><ele>452.0</ele><time>2026-04-16T05:11:29.203Z</time></trkpt><trkpt lat="45.6499976" lon="10.2598169"><ele>451.0</ele><time>2026-04-16T05:11:30.203Z</time></trkpt><trkpt lat="45.6500044" lon="10.2596409"><ele>450.0</ele><time>2026-04-16T05:11:31.203Z</time></trkpt><trkpt lat="45.6500096" lon="10.2594733"><ele>449.5</ele><time>2026-04-16T05:11:32.203Z</time></trkpt><trkpt lat="45.6500012" lon="10.259297"><ele>449.0</ele><time>2026-04-16T05:11:33.203Z</time></trkpt><trkpt lat="45.6499906" lon="10.2591215"><ele>448.5</ele><time>2026-04-16T05:11:34.202Z</time></trkpt><trkpt lat="45.6499751" lon="10.2589619"><ele>448.0</ele><time>2026-04-16T05:11:35.202Z</time></trkpt><trkpt lat="45.6499607" lon="10.2588157"><ele>447.79999999999995</ele><time>2026-04-16T05:11:36.203Z</time></trkpt><trkpt lat="45.6499426" lon="10.2586746"><ele>447.59999999999997</ele><time>2026-04-16T05:11:37.202Z</time></trkpt><trkpt lat="45.6499365" lon="10.2585315"><ele>447.40000000000003</ele><time>2026-04-16T05:11:38.203Z</time></trkpt><trkpt lat="45.6499306" lon="10.2583928"><ele>447.20000000000005</ele><time>2026-04-16T05:11:39.203Z</time></trkpt><trkpt lat="45.649933" lon="10.258255"><ele>447.0</ele><time>2026-04-16T05:11:40.202Z</time></trkpt><trkpt lat="45.6499434" lon="10.2581289"><ele>445.8333333333333</ele><time>2026-04-16T05:11:41.203Z</time></trkpt><trkpt lat="45.6499663" lon="10.2580133"><ele>444.66666666666663</ele><time>2026-04-16T05:11:42.202Z</time></trkpt><trkpt lat="45.6499759" lon="10.2578997"><ele>443.5</ele><time>2026-04-16T05:11:43.203Z</time></trkpt><trkpt lat="45.6499897" lon="10.2577892"><ele>442.3333333333333</ele><time>2026-04-16T05:11:44.202Z</time></trkpt><trkpt lat="45.6500587" lon="10.2576482"><ele>441.16666666666663</ele><time>2026-04-16T05:11:46.202Z</time></trkpt><trkpt lat="45.6500866" lon="10.2575672"><ele>440.0</ele><time>2026-04-16T05:11:48.203Z</time></trkpt><trkpt lat="45.6500661" lon="10.2574522"><ele>440.0</ele><time>2026-04-16T05:11:50.203Z</time></trkpt><trkpt lat="45.6500609" lon="10.2573604"><ele>440.0</ele><time>2026-04-16T05:11:53.203Z</time></trkpt><trkpt lat="45.6500372" lon="10.2572699"><ele>440.0</ele><time>2026-04-16T05:18:46.2Z</time></trkpt><trkpt lat="45.6500292" lon="10.2571201"><ele>440.0</ele><time>2026-04-16T05:18:50.201Z</time></trkpt><trkpt lat="45.6500442" lon="10.2569731"><ele>440.0</ele><time>2026-04-16T05:18:52.201Z</time></trkpt><trkpt lat="45.6500063" lon="10.2568099"><ele>440.0</ele><time>2026-04-16T05:18:54.201Z</time></trkpt><trkpt lat="45.6499546" lon="10.2567348"><ele>440.0</ele><time>2026-04-16T05:18:55.201Z</time></trkpt><trkpt lat="45.6498877" lon="10.2566589"><ele>440.0</ele><time>2026-04-16T05:18:56.2Z</time></trkpt><trkpt lat="45.6497961" lon="10.2566054"><ele>440.0</ele><time>2026-04-16T05:18:57.201Z</time></trkpt><trkpt lat="45.6497029" lon="10.2565558"><ele>440.0</ele><time>2026-04-16T05:18:58.201Z</time></trkpt><trkpt lat="45.6496101" lon="10.2564927"><ele>440.6</ele><time>2026-04-16T05:18:59.2Z</time></trkpt><trkpt lat="45.6495533" lon="10.256392"><ele>441.2</ele><time>2026-04-16T05:19:00.201Z</time></trkpt><trkpt lat="45.6495264" lon="10.2562597"><ele>441.79999999999995</ele><time>2026-04-16T05:19:01.201Z</time></trkpt><trkpt lat="45.6495157" lon="10.2561075"><ele>442.4</ele><time>2026-04-16T05:19:02.201Z</time></trkpt><trkpt lat="45.6495063" lon="10.2559365"><ele>443.0</ele><time>2026-04-16T05:19:03.2Z</time></trkpt><trkpt lat="45.6494848" lon="10.2557593"><ele>438.5</ele><time>2026-04-16T05:19:04.2Z</time></trkpt><trkpt lat="45.6494355" lon="10.2555973"><ele>434.0</ele><time>2026-04-16T05:19:05.201Z</time></trkpt><trkpt lat="45.6493721" lon="10.2554519"><ele>429.5</ele><time>2026-04-16T05:19:06.201Z</time></trkpt><trkpt lat="45.6492807" lon="10.2553082"><ele>425.0</ele><time>2026-04-16T05:19:07.201Z</time></trkpt><trkpt lat="45.6491684" lon="10.2551868"><ele>425.0</ele><time>2026-04-16T05:19:08.201Z</time></trkpt><trkpt lat="45.6490466" lon="10.2550802"><ele>425.0</ele><time>2026-04-16T05:19:09.2Z</time></trkpt><trkpt lat="45.6489277" lon="10.2549782"><ele>425.0</ele><time>2026-04-16T05:19:10.2Z</time></trkpt><trkpt lat="45.6488163" lon="10.2548857"><ele>425.0</ele><time>2026-04-16T05:19:11.201Z</time></trkpt><trkpt lat="45.6487253" lon="10.2547888"><ele>425.5</ele><time>2026-04-16T05:19:12.201Z</time></trkpt><trkpt lat="45.6486404" lon="10.2546762"><ele>426.0</ele><time>2026-04-16T05:19:13.201Z</time></trkpt><trkpt lat="45.6485983" lon="10.2545399"><ele>426.5</ele><time>2026-04-16T05:19:14.201Z</time></trkpt><trkpt lat="45.6485614" lon="10.254387"><ele>427.0</ele><time>2026-04-16T05:19:15.201Z</time></trkpt><trkpt lat="45.6485569" lon="10.2541959"><ele>425.6666666666667</ele><time>2026-04-16T05:19:16.201Z</time></trkpt><trkpt lat="45.6485842" lon="10.2540054"><ele>424.33333333333337</ele><time>2026-04-16T05:19:17.201Z</time></trkpt><trkpt lat="45.648638" lon="10.2538083"><ele>423.0</ele><time>2026-04-16T05:19:18.201Z</time></trkpt><trkpt lat="45.6487144" lon="10.2535942"><ele>423.0</ele><time>2026-04-16T05:19:19.2Z</time></trkpt><trkpt lat="45.6487817" lon="10.2533745"><ele>423.0</ele><time>2026-04-16T05:19:20.201Z</time></trkpt><trkpt lat="45.6488502" lon="10.2531578"><ele>423.0</ele><time>2026-04-16T05:19:21.201Z</time></trkpt><trkpt lat="45.6489279" lon="10.2529269"><ele>421.66666666666663</ele><time>2026-04-16T05:19:22.2Z</time></trkpt><trkpt lat="45.6489992" lon="10.2526803"><ele>420.3333333333333</ele><time>2026-04-16T05:19:23.201Z</time></trkpt><trkpt lat="45.6490648" lon="10.252433"><ele>419.0</ele><time>2026-04-16T05:19:24.201Z</time></trkpt><trkpt lat="45.6491315" lon="10.2521939"><ele>415.0</ele><time>2026-04-16T05:19:25.201Z</time></trkpt><trkpt lat="45.6491987" lon="10.2519569"><ele>411.0</ele><time>2026-04-16T05:19:26.201Z</time></trkpt><trkpt lat="45.6492662" lon="10.2517299"><ele>407.0</ele><time>2026-04-16T05:19:27.201Z</time></trkpt><trkpt lat="45.649331" lon="10.2515149"><ele>407.25</ele><time>2026-04-16T05:19:28.2Z</time></trkpt><trkpt lat="45.649385" lon="10.2513216"><ele>407.5</ele><time>2026-04-16T05:19:29.2Z</time></trkpt><trkpt lat="45.6494453" lon="10.2511415"><ele>407.75</ele><time>2026-04-16T05:19:30.2Z</time></trkpt><trkpt lat="45.6494855" lon="10.2509887"><ele>408.0</ele><time>2026-04-16T05:19:31.201Z</time></trkpt><trkpt lat="45.6495217" lon="10.2508329"><ele>408.0</ele><time>2026-04-16T05:19:32.201Z</time></trkpt><trkpt lat="45.6495572" lon="10.2507077"><ele>408.0</ele><time>2026-04-16T05:19:33.2Z</time></trkpt><trkpt lat="45.6495934" lon="10.2506093"><ele>408.0</ele><time>2026-04-16T05:19:34.201Z</time></trkpt><trkpt lat="45.6496343" lon="10.2505202"><ele>408.0</ele><time>2026-04-16T05:19:35.201Z</time></trkpt><trkpt lat="45.6496778" lon="10.25045"><ele>408.0</ele><time>2026-04-16T05:19:36.201Z</time></trkpt><trkpt lat="45.6497832" lon="10.2504461"><ele>408.0</ele><time>2026-04-16T05:19:38.2Z</time></trkpt><trkpt lat="45.6498374" lon="10.2504926"><ele>408.0</ele><time>2026-04-16T05:19:39.201Z</time></trkpt><trkpt lat="45.6499" lon="10.2505515"><ele>408.0</ele><time>2026-04-16T05:19:40.201Z</time></trkpt><trkpt lat="45.6499654" lon="10.2506128"><ele>408.0</ele><time>2026-04-16T05:19:41.201Z</time></trkpt><trkpt lat="45.6500469" lon="10.2506608"><ele>408.0</ele><time>2026-04-16T05:19:42.201Z</time></trkpt><trkpt lat="45.650131" lon="10.2506932"><ele>408.0</ele><time>2026-04-16T05:19:43.201Z</time></trkpt><trkpt lat="45.6502206" lon="10.25067"><ele>408.0</ele><time>2026-04-16T05:19:44.201Z</time></trkpt><trkpt lat="45.6503079" lon="10.2506124"><ele>411.0</ele><time>2026-04-16T05:19:45.201Z</time></trkpt><trkpt lat="45.6503753" lon="10.2505387"><ele>414.0</ele><time>2026-04-16T05:19:46.201Z</time></trkpt><trkpt lat="45.6504328" lon="10.2504282"><ele>417.0</ele><time>2026-04-16T05:19:47.201Z</time></trkpt><trkpt lat="45.650485" lon="10.2503185"><ele>420.0</ele><time>2026-04-16T05:19:48.201Z</time></trkpt><trkpt lat="45.6505334" lon="10.250213"><ele>423.0</ele><time>2026-04-16T05:19:49.2Z</time></trkpt><trkpt lat="45.6505738" lon="10.2501262"><ele>426.0</ele><time>2026-04-16T05:19:50.2Z</time></trkpt><trkpt lat="45.6506239" lon="10.2500014"><ele>426.0</ele><time>2026-04-16T05:19:52.201Z</time></trkpt><trkpt lat="45.6506235" lon="10.2498305"><ele>426.0</ele><time>2026-04-16T05:19:54.2Z</time></trkpt><trkpt lat="45.6505778" lon="10.2496938"><ele>426.0</ele><time>2026-04-16T05:19:55.2Z</time></trkpt><trkpt lat="45.6505134" lon="10.2495183"><ele>426.0</ele><time>2026-04-16T05:19:56.201Z</time></trkpt><trkpt lat="45.6504494" lon="10.2493365"><ele>426.8333333333333</ele><time>2026-04-16T05:19:57.2Z</time></trkpt><trkpt lat="45.6504006" lon="10.2491813"><ele>427.66666666666663</ele><time>2026-04-16T05:19:58.201Z</time></trkpt><trkpt lat="45.6503815" lon="10.2490556"><ele>428.5</ele><time>2026-04-16T05:19:59.201Z</time></trkpt><trkpt lat="45.6503622" lon="10.2489437"><ele>429.3333333333333</ele><time>2026-04-16T05:20:00.201Z</time></trkpt><trkpt lat="45.6503491" lon="10.2488546"><ele>430.16666666666663</ele><time>2026-04-16T05:20:01.201Z</time></trkpt><trkpt lat="45.6503709" lon="10.2487511"><ele>431.0</ele><time>2026-04-16T05:20:03.2Z</time></trkpt><trkpt lat="45.65044" lon="10.2487736"><ele>431.0</ele><time>2026-04-16T05:20:06.201Z</time></trkpt><trkpt lat="45.6504779" lon="10.2489641"><ele>431.0</ele><time>2026-04-16T05:20:08.201Z</time></trkpt><trkpt lat="45.6504954" lon="10.2490678"><ele>431.0</ele><time>2026-04-16T05:20:09.201Z</time></trkpt><trkpt lat="45.6505386" lon="10.2491516"><ele>431.0</ele><time>2026-04-16T05:20:10.201Z</time></trkpt><trkpt lat="45.6505999" lon="10.2491986"><ele>431.0</ele><time>2026-04-16T05:20:11.201Z</time></trkpt><trkpt lat="45.6506799" lon="10.2492738"><ele>431.0</ele><time>2026-04-16T05:20:12.2Z</time></trkpt><trkpt lat="45.6507775" lon="10.2493583"><ele>431.0</ele><time>2026-04-16T05:20:13.2Z</time></trkpt><trkpt lat="45.650855" lon="10.2494503"><ele>431.0</ele><time>2026-04-16T05:20:14.2Z</time></trkpt><trkpt lat="45.6509203" lon="10.2495365"><ele>431.0</ele><time>2026-04-16T05:20:15.2Z</time></trkpt><trkpt lat="45.6510021" lon="10.2496356"><ele>431.0</ele><time>2026-04-16T05:20:16.201Z</time></trkpt><trkpt lat="45.6511028" lon="10.249752"><ele>433.5</ele><time>2026-04-16T05:20:17.2Z</time></trkpt><trkpt lat="45.6512164" lon="10.249891"><ele>436.0</ele><time>2026-04-16T05:20:18.2Z</time></trkpt><trkpt lat="45.6513232" lon="10.2500221"><ele>438.5</ele><time>2026-04-16T05:20:19.2Z</time></trkpt><trkpt lat="45.6514103" lon="10.2501304"><ele>441.0</ele><time>2026-04-16T05:20:20.2Z</time></trkpt><trkpt lat="45.651491" lon="10.2502495"><ele>441.0</ele><time>2026-04-16T05:20:21.201Z</time></trkpt><trkpt lat="45.6515697" lon="10.2503638"><ele>441.0</ele><time>2026-04-16T05:20:22.2Z</time></trkpt><trkpt lat="45.6516462" lon="10.2504919"><ele>441.0</ele><time>2026-04-16T05:20:23.201Z</time></trkpt><trkpt lat="45.6517105" lon="10.2506141"><ele>441.0</ele><time>2026-04-16T05:20:24.2Z</time></trkpt><trkpt lat="45.6517691" lon="10.2507132"><ele>441.0</ele><time>2026-04-16T05:20:25.201Z</time></trkpt><trkpt lat="45.6518349" lon="10.250787"><ele>441.8333333333333</ele><time>2026-04-16T05:20:26.201Z</time></trkpt><trkpt lat="45.6518879" lon="10.2508542"><ele>442.66666666666663</ele><time>2026-04-16T05:20:27.2Z</time></trkpt><trkpt lat="45.6519551" lon="10.2508954"><ele>443.5</ele><time>2026-04-16T05:20:28.2Z</time></trkpt><trkpt lat="45.6520257" lon="10.2509461"><ele>444.3333333333333</ele><time>2026-04-16T05:20:29.201Z</time></trkpt><trkpt lat="45.6521012" lon="10.2510144"><ele>445.16666666666663</ele><time>2026-04-16T05:20:30.201Z</time></trkpt><trkpt lat="45.6521927" lon="10.251075"><ele>446.0</ele><time>2026-04-16T05:20:31.2Z</time></trkpt><trkpt lat="45.6522673" lon="10.2510993"><ele>448.0</ele><time>2026-04-16T05:20:32.2Z</time></trkpt><trkpt lat="45.652345" lon="10.2511128"><ele>450.0</ele><time>2026-04-16T05:20:33.2Z</time></trkpt><trkpt lat="45.6524289" lon="10.2509493"><ele>452.0</ele><time>2026-04-16T05:20:35.201Z</time></trkpt><trkpt lat="45.6524707" lon="10.2508814"><ele>454.0</ele><time>2026-04-16T05:20:36.2Z</time></trkpt><trkpt lat="45.6525605" lon="10.2509037"><ele>456.0</ele><time>2026-04-16T05:20:47.2Z</time></trkpt><trkpt lat="45.6526036" lon="10.2509992"><ele>456.0</ele><time>2026-04-16T05:20:49.201Z</time></trkpt><trkpt lat="45.6527025" lon="10.251052"><ele>456.0</ele><time>2026-04-16T05:20:51.2Z</time></trkpt><trkpt lat="45.6527737" lon="10.2510745"><ele>456.0</ele><time>2026-04-16T05:20:52.2Z</time></trkpt><trkpt lat="45.6528376" lon="10.2511314"><ele>456.0</ele><time>2026-04-16T05:20:53.201Z</time></trkpt><trkpt lat="45.6529178" lon="10.2512009"><ele>456.0</ele><time>2026-04-16T05:20:54.2Z</time></trkpt><trkpt lat="45.6529854" lon="10.2512983"><ele>456.0</ele><time>2026-04-16T05:20:55.201Z</time></trkpt><trkpt lat="45.6530687" lon="10.2514494"><ele>456.66666666666663</ele><time>2026-04-16T05:20:56.201Z</time></trkpt><trkpt lat="45.6531453" lon="10.2516406"><ele>457.3333333333333</ele><time>2026-04-16T05:20:57.201Z</time></trkpt><trkpt lat="45.6532284" lon="10.2518318"><ele>458.0</ele><time>2026-04-16T05:20:58.2Z</time></trkpt><trkpt lat="45.6533085" lon="10.2519986"><ele>457.99999999999994</ele><time>2026-04-16T05:20:59.201Z</time></trkpt><trkpt lat="45.6533757" lon="10.2521374"><ele>458.0</ele><time>2026-04-16T05:21:00.201Z</time></trkpt><trkpt lat="45.6534351" lon="10.2522264"><ele>458.0</ele><time>2026-04-16T05:21:01.201Z</time></trkpt><trkpt lat="45.6534834" lon="10.252298"><ele>458.0</ele><time>2026-04-16T05:21:02.2Z</time></trkpt><trkpt lat="45.6535535" lon="10.2523511"><ele>457.99999999999994</ele><time>2026-04-16T05:21:03.2Z</time></trkpt><trkpt lat="45.6536419" lon="10.252404"><ele>458.0</ele><time>2026-04-16T05:21:05.2Z</time></trkpt><trkpt lat="45.6537985" lon="10.2523122"><ele>457.0</ele><time>2026-04-16T05:21:07.2Z</time></trkpt><trkpt lat="45.6539175" lon="10.2522063"><ele>456.0</ele><time>2026-04-16T05:21:08.201Z</time></trkpt><trkpt lat="45.6540283" lon="10.2521331"><ele>455.0</ele><time>2026-04-16T05:21:09.2Z</time></trkpt><trkpt lat="45.654146" lon="10.2520736"><ele>454.0</ele><time>2026-04-16T05:21:10.201Z</time></trkpt><trkpt lat="45.6542646" lon="10.2520053"><ele>454.0</ele><time>2026-04-16T05:21:11.201Z</time></trkpt><trkpt lat="45.654371" lon="10.2519411"><ele>454.0</ele><time>2026-04-16T05:21:12.2Z</time></trkpt><trkpt lat="45.6544732" lon="10.2518833"><ele>454.0</ele><time>2026-04-16T05:21:13.201Z</time></trkpt><trkpt lat="45.6545566" lon="10.251817"><ele>454.0</ele><time>2026-04-16T05:21:14.201Z</time></trkpt><trkpt lat="45.6545829" lon="10.2517202"><ele>454.0</ele><time>2026-04-16T05:21:15.201Z</time></trkpt><trkpt lat="45.6546009" lon="10.2515882"><ele>458.0</ele><time>2026-04-16T05:21:16.2Z</time></trkpt><trkpt lat="45.6546101" lon="10.2514587"><ele>462.0</ele><time>2026-04-16T05:21:17.201Z</time></trkpt><trkpt lat="45.6546033" lon="10.251305"><ele>466.0</ele><time>2026-04-16T05:21:18.201Z</time></trkpt><trkpt lat="45.6545752" lon="10.2511411"><ele>470.0</ele><time>2026-04-16T05:21:19.201Z</time></trkpt><trkpt lat="45.6545388" lon="10.250957"><ele>470.0</ele><time>2026-04-16T05:21:20.2Z</time></trkpt><trkpt lat="45.6545036" lon="10.2507598"><ele>470.0</ele><time>2026-04-16T05:21:21.2Z</time></trkpt><trkpt lat="45.6544739" lon="10.2505493"><ele>470.0</ele><time>2026-04-16T05:21:22.2Z</time></trkpt><trkpt lat="45.6544365" lon="10.2503498"><ele>470.0</ele><time>2026-04-16T05:21:23.199Z</time></trkpt><trkpt lat="45.6544055" lon="10.2501529"><ele>464.25</ele><time>2026-04-16T05:21:24.199Z</time></trkpt><trkpt lat="45.6543706" lon="10.249954"><ele>458.5</ele><time>2026-04-16T05:21:25.2Z</time></trkpt><trkpt lat="45.6543352" lon="10.2497462"><ele>452.75</ele><time>2026-04-16T05:21:26.199Z</time></trkpt><trkpt lat="45.6542925" lon="10.2495385"><ele>447.0</ele><time>2026-04-16T05:21:27.199Z</time></trkpt><trkpt lat="45.6542512" lon="10.249351"><ele>447.0</ele><time>2026-04-16T05:21:28.2Z</time></trkpt><trkpt lat="45.6542151" lon="10.2491582"><ele>447.0</ele><time>2026-04-16T05:21:29.2Z</time></trkpt><trkpt lat="45.6541822" lon="10.2489695"><ele>447.0</ele><time>2026-04-16T05:21:30.2Z</time></trkpt><trkpt lat="45.6541466" lon="10.2487776"><ele>447.0</ele><time>2026-04-16T05:21:31.2Z</time></trkpt><trkpt lat="45.6541123" lon="10.2485702"><ele>446.25</ele><time>2026-04-16T05:21:32.2Z</time></trkpt><trkpt lat="45.6540823" lon="10.2483625"><ele>445.5</ele><time>2026-04-16T05:21:33.199Z</time></trkpt><trkpt lat="45.6540701" lon="10.2481554"><ele>444.75</ele><time>2026-04-16T05:21:34.2Z</time></trkpt><trkpt lat="45.654074" lon="10.2479388"><ele>444.0</ele><time>2026-04-16T05:21:35.2Z</time></trkpt><trkpt lat="45.6541036" lon="10.2477349"><ele>442.66666666666663</ele><time>2026-04-16T05:21:36.2Z</time></trkpt><trkpt lat="45.6541548" lon="10.2475304"><ele>441.3333333333333</ele><time>2026-04-16T05:21:37.199Z</time></trkpt><trkpt lat="45.6542261" lon="10.2473127"><ele>440.0</ele><time>2026-04-16T05:21:38.2Z</time></trkpt><trkpt lat="45.6542888" lon="10.2471188"><ele>439.25</ele><time>2026-04-16T05:21:39.2Z</time></trkpt><trkpt lat="45.6543349" lon="10.24693"><ele>438.5</ele><time>2026-04-16T05:21:40.2Z</time></trkpt><trkpt lat="45.6543815" lon="10.2467522"><ele>437.75</ele><time>2026-04-16T05:21:41.199Z</time></trkpt><trkpt lat="45.6544347" lon="10.2465798"><ele>437.0</ele><time>2026-04-16T05:21:42.2Z</time></trkpt><trkpt lat="45.6544826" lon="10.2464011"><ele>437.0</ele><time>2026-04-16T05:21:43.199Z</time></trkpt><trkpt lat="45.6545253" lon="10.2462239"><ele>437.0</ele><time>2026-04-16T05:21:44.199Z</time></trkpt><trkpt lat="45.6545776" lon="10.2460445"><ele>437.0</ele><time>2026-04-16T05:21:45.2Z</time></trkpt><trkpt lat="45.6546265" lon="10.2458661"><ele>437.0</ele><time>2026-04-16T05:21:46.199Z</time></trkpt><trkpt lat="45.6546732" lon="10.2456913"><ele>436.25</ele><time>2026-04-16T05:21:47.199Z</time></trkpt><trkpt lat="45.654719" lon="10.2455236"><ele>435.5</ele><time>2026-04-16T05:21:48.2Z</time></trkpt><trkpt lat="45.6547647" lon="10.2453562"><ele>434.75</ele><time>2026-04-16T05:21:49.2Z</time></trkpt><trkpt lat="45.6548097" lon="10.245188"><ele>434.0</ele><time>2026-04-16T05:21:50.199Z</time></trkpt><trkpt lat="45.6548564" lon="10.2450268"><ele>434.0</ele><time>2026-04-16T05:21:51.2Z</time></trkpt><trkpt lat="45.6548973" lon="10.2448708"><ele>434.0</ele><time>2026-04-16T05:21:52.2Z</time></trkpt><trkpt lat="45.6549449" lon="10.2446915"><ele>434.0</ele><time>2026-04-16T05:21:53.199Z</time></trkpt><trkpt lat="45.6549975" lon="10.2444914"><ele>434.0</ele><time>2026-04-16T05:21:54.199Z</time></trkpt><trkpt lat="45.6550511" lon="10.2442807"><ele>433.0</ele><time>2026-04-16T05:21:55.2Z</time></trkpt><trkpt lat="45.6550999" lon="10.244086"><ele>432.0</ele><time>2026-04-16T05:21:56.2Z</time></trkpt><trkpt lat="45.655144" lon="10.243911"><ele>431.0</ele><time>2026-04-16T05:21:57.199Z</time></trkpt><trkpt lat="45.6551827" lon="10.2437437"><ele>430.0</ele><time>2026-04-16T05:21:58.199Z</time></trkpt><trkpt lat="45.6552011" lon="10.2435816"><ele>429.25</ele><time>2026-04-16T05:21:59.2Z</time></trkpt><trkpt lat="45.6552057" lon="10.2434114"><ele>428.5</ele><time>2026-04-16T05:22:00.2Z</time></trkpt><trkpt lat="45.6551872" lon="10.2432201"><ele>427.75</ele><time>2026-04-16T05:22:01.199Z</time></trkpt><trkpt lat="45.6551714" lon="10.2430162"><ele>427.0</ele><time>2026-04-16T05:22:02.2Z</time></trkpt><trkpt lat="45.6551382" lon="10.2428148"><ele>427.0</ele><time>2026-04-16T05:22:03.199Z</time></trkpt><trkpt lat="45.6551011" lon="10.2426252"><ele>427.0</ele><time>2026-04-16T05:22:04.2Z</time></trkpt><trkpt lat="45.6550707" lon="10.2424448"><ele>427.0</ele><time>2026-04-16T05:22:05.199Z</time></trkpt><trkpt lat="45.6550573" lon="10.2422909"><ele>427.0</ele><time>2026-04-16T05:22:06.2Z</time></trkpt><trkpt lat="45.6550478" lon="10.242146"><ele>427.25</ele><time>2026-04-16T05:22:07.2Z</time></trkpt><trkpt lat="45.6550612" lon="10.2419886"><ele>427.5</ele><time>2026-04-16T05:22:08.199Z</time></trkpt><trkpt lat="45.6550793" lon="10.2418301"><ele>427.75</ele><time>2026-04-16T05:22:09.199Z</time></trkpt><trkpt lat="45.6551179" lon="10.2416456"><ele>428.0</ele><time>2026-04-16T05:22:10.2Z</time></trkpt><trkpt lat="45.6551721" lon="10.2414384"><ele>427.5</ele><time>2026-04-16T05:22:11.2Z</time></trkpt><trkpt lat="45.655229" lon="10.2412494"><ele>427.0</ele><time>2026-04-16T05:22:12.2Z</time></trkpt><trkpt lat="45.6552723" lon="10.2410675"><ele>426.5</ele><time>2026-04-16T05:22:13.2Z</time></trkpt><trkpt lat="45.6553148" lon="10.2408875"><ele>426.0</ele><time>2026-04-16T05:22:14.2Z</time></trkpt><trkpt lat="45.6553549" lon="10.2407235"><ele>428.0</ele><time>2026-04-16T05:22:15.199Z</time></trkpt><trkpt lat="45.6553884" lon="10.2405702"><ele>430.0</ele><time>2026-04-16T05:22:16.2Z</time></trkpt><trkpt lat="45.6554173" lon="10.2404334"><ele>432.0</ele><time>2026-04-16T05:22:17.199Z</time></trkpt><trkpt lat="45.6554359" lon="10.2403009"><ele>434.0</ele><time>2026-04-16T05:22:18.199Z</time></trkpt><trkpt lat="45.6554263" lon="10.2401684"><ele>436.0</ele><time>2026-04-16T05:22:19.2Z</time></trkpt><trkpt lat="45.6553913" lon="10.2400395"><ele>436.0</ele><time>2026-04-16T05:22:20.2Z</time></trkpt><trkpt lat="45.6553358" lon="10.2399296"><ele>436.0</ele><time>2026-04-16T05:22:21.2Z</time></trkpt><trkpt lat="45.6552611" lon="10.2398396"><ele>436.0</ele><time>2026-04-16T05:22:22.2Z</time></trkpt><trkpt lat="45.6551663" lon="10.2397793"><ele>436.0</ele><time>2026-04-16T05:22:23.2Z</time></trkpt><trkpt lat="45.655065" lon="10.2397362"><ele>436.0</ele><time>2026-04-16T05:22:24.2Z</time></trkpt><trkpt lat="45.6549732" lon="10.239699"><ele>433.8</ele><time>2026-04-16T05:22:25.2Z</time></trkpt><trkpt lat="45.6548877" lon="10.2396564"><ele>431.6</ele><time>2026-04-16T05:22:26.199Z</time></trkpt><trkpt lat="45.6548105" lon="10.2395994"><ele>429.4</ele><time>2026-04-16T05:22:27.2Z</time></trkpt><trkpt lat="45.6547539" lon="10.23954"><ele>427.2</ele><time>2026-04-16T05:22:28.2Z</time></trkpt><trkpt lat="45.6547231" lon="10.2393723"><ele>425.0</ele><time>2026-04-16T05:22:30.2Z</time></trkpt><trkpt lat="45.6547409" lon="10.2392586"><ele>425.0</ele><time>2026-04-16T05:22:31.2Z</time></trkpt><trkpt lat="45.6547719" lon="10.2391594"><ele>425.0</ele><time>2026-04-16T05:22:32.2Z</time></trkpt><trkpt lat="45.6548208" lon="10.2390532"><ele>425.0</ele><time>2026-04-16T05:22:33.2Z</time></trkpt><trkpt lat="45.6548573" lon="10.2389384"><ele>425.0</ele><time>2026-04-16T05:22:34.2Z</time></trkpt><trkpt lat="45.6548937" lon="10.2388118"><ele>425.0</ele><time>2026-04-16T05:22:35.2Z</time></trkpt><trkpt lat="45.6549433" lon="10.2386551"><ele>424.75</ele><time>2026-04-16T05:22:36.199Z</time></trkpt><trkpt lat="45.6549796" lon="10.2384765"><ele>424.5</ele><time>2026-04-16T05:22:37.199Z</time></trkpt><trkpt lat="45.6550148" lon="10.2382887"><ele>424.25</ele><time>2026-04-16T05:22:38.2Z</time></trkpt><trkpt lat="45.6550564" lon="10.2381106"><ele>424.0</ele><time>2026-04-16T05:22:39.2Z</time></trkpt><trkpt lat="45.6550985" lon="10.2379361"><ele>423.0</ele><time>2026-04-16T05:22:40.2Z</time></trkpt><trkpt lat="45.6551442" lon="10.2377669"><ele>422.0</ele><time>2026-04-16T05:22:41.199Z</time></trkpt><trkpt lat="45.6552074" lon="10.2376198"><ele>421.0</ele><time>2026-04-16T05:22:42.2Z</time></trkpt><trkpt lat="45.6552816" lon="10.2374895"><ele>420.0</ele><time>2026-04-16T05:22:43.2Z</time></trkpt><trkpt lat="45.6553562" lon="10.2373627"><ele>421.0</ele><time>2026-04-16T05:22:44.199Z</time></trkpt><trkpt lat="45.6554212" lon="10.2372441"><ele>422.0</ele><time>2026-04-16T05:22:45.199Z</time></trkpt><trkpt lat="45.6554808" lon="10.2371378"><ele>423.0</ele><time>2026-04-16T05:22:46.199Z</time></trkpt><trkpt lat="45.6555419" lon="10.2370373"><ele>424.0</ele><time>2026-04-16T05:22:47.2Z</time></trkpt><trkpt lat="45.6555933" lon="10.2369487"><ele>425.0</ele><time>2026-04-16T05:22:48.199Z</time></trkpt><trkpt lat="45.6556449" lon="10.2368565"><ele>424.99999999999994</ele><time>2026-04-16T05:22:49.2Z</time></trkpt><trkpt lat="45.6556981" lon="10.2367598"><ele>425.0</ele><time>2026-04-16T05:22:50.2Z</time></trkpt><trkpt lat="45.6557497" lon="10.2366662"><ele>425.0</ele><time>2026-04-16T05:22:51.2Z</time></trkpt><trkpt lat="45.6557999" lon="10.2365733"><ele>425.0</ele><time>2026-04-16T05:22:52.2Z</time></trkpt><trkpt lat="45.6558595" lon="10.2364659"><ele>424.99999999999994</ele><time>2026-04-16T05:22:53.199Z</time></trkpt><trkpt lat="45.6559208" lon="10.2363627"><ele>425.0</ele><time>2026-04-16T05:22:54.199Z</time></trkpt><trkpt lat="45.6559717" lon="10.2362702"><ele>423.66666666666663</ele><time>2026-04-16T05:22:55.2Z</time></trkpt><trkpt lat="45.6560108" lon="10.2361977"><ele>422.3333333333333</ele><time>2026-04-16T05:22:56.2Z</time></trkpt><trkpt lat="45.6560912" lon="10.2360931"><ele>421.0</ele><time>2026-04-16T05:22:58.2Z</time></trkpt><trkpt lat="45.6561451" lon="10.2360459"><ele>419.66666666666663</ele><time>2026-04-16T05:22:59.2Z</time></trkpt><trkpt lat="45.6562221" lon="10.2359984"><ele>418.3333333333333</ele><time>2026-04-16T05:23:00.199Z</time></trkpt><trkpt lat="45.6563208" lon="10.235935"><ele>417.0</ele><time>2026-04-16T05:23:01.199Z</time></trkpt><trkpt lat="45.6564276" lon="10.2358593"><ele>417.0</ele><time>2026-04-16T05:23:02.2Z</time></trkpt><trkpt lat="45.6565234" lon="10.2357587"><ele>417.0</ele><time>2026-04-16T05:23:03.2Z</time></trkpt><trkpt lat="45.656615" lon="10.2356295"><ele>417.0</ele><time>2026-04-16T05:23:04.199Z</time></trkpt><trkpt lat="45.6567032" lon="10.2354923"><ele>417.0</ele><time>2026-04-16T05:23:05.2Z</time></trkpt><trkpt lat="45.6567857" lon="10.2353508"><ele>416.75</ele><time>2026-04-16T05:23:06.199Z</time></trkpt><trkpt lat="45.6568794" lon="10.2351984"><ele>416.5</ele><time>2026-04-16T05:23:07.2Z</time></trkpt><trkpt lat="45.6569669" lon="10.235069"><ele>416.25</ele><time>2026-04-16T05:23:08.199Z</time></trkpt><trkpt lat="45.6570524" lon="10.2349401"><ele>416.0</ele><time>2026-04-16T05:23:09.2Z</time></trkpt><trkpt lat="45.6571284" lon="10.2348105"><ele>414.75</ele><time>2026-04-16T05:23:10.199Z</time></trkpt><trkpt lat="45.657199" lon="10.2346851"><ele>413.5</ele><time>2026-04-16T05:23:11.2Z</time></trkpt><trkpt lat="45.6572725" lon="10.2345584"><ele>412.25</ele><time>2026-04-16T05:23:12.2Z</time></trkpt><trkpt lat="45.6573583" lon="10.2344302"><ele>411.0</ele><time>2026-04-16T05:23:13.199Z</time></trkpt><trkpt lat="45.6574312" lon="10.2342887"><ele>411.0</ele><time>2026-04-16T05:23:14.199Z</time></trkpt><trkpt lat="45.6574984" lon="10.2341303"><ele>411.0</ele><time>2026-04-16T05:23:15.199Z</time></trkpt><trkpt lat="45.6575536" lon="10.2339537"><ele>411.0</ele><time>2026-04-16T05:23:16.199Z</time></trkpt><trkpt lat="45.6575969" lon="10.233762"><ele>411.0</ele><time>2026-04-16T05:23:17.2Z</time></trkpt><trkpt lat="45.6576239" lon="10.233562"><ele>409.5</ele><time>2026-04-16T05:23:18.199Z</time></trkpt><trkpt lat="45.6576498" lon="10.2333615"><ele>408.0</ele><time>2026-04-16T05:23:19.2Z</time></trkpt><trkpt lat="45.657663" lon="10.2331658"><ele>406.5</ele><time>2026-04-16T05:23:20.2Z</time></trkpt><trkpt lat="45.6576778" lon="10.2329653"><ele>405.0</ele><time>2026-04-16T05:23:21.199Z</time></trkpt><trkpt lat="45.6576908" lon="10.2327686"><ele>404.25</ele><time>2026-04-16T05:23:22.2Z</time></trkpt><trkpt lat="45.6576975" lon="10.232574"><ele>403.5</ele><time>2026-04-16T05:23:23.199Z</time></trkpt><trkpt lat="45.6576923" lon="10.2323848"><ele>402.75</ele><time>2026-04-16T05:23:24.199Z</time></trkpt><trkpt lat="45.6576805" lon="10.2322007"><ele>402.0</ele><time>2026-04-16T05:23:25.2Z</time></trkpt><trkpt lat="45.6576716" lon="10.2320241"><ele>402.40000000000003</ele><time>2026-04-16T05:23:26.2Z</time></trkpt><trkpt lat="45.6576596" lon="10.231866"><ele>402.8</ele><time>2026-04-16T05:23:27.199Z</time></trkpt><trkpt lat="45.6576544" lon="10.2317195"><ele>403.2</ele><time>2026-04-16T05:23:28.2Z</time></trkpt><trkpt lat="45.6576455" lon="10.2315807"><ele>403.6</ele><time>2026-04-16T05:23:29.2Z</time></trkpt><trkpt lat="45.6576364" lon="10.2314465"><ele>404.0</ele><time>2026-04-16T05:23:30.2Z</time></trkpt><trkpt lat="45.65763" lon="10.2313278"><ele>404.0</ele><time>2026-04-16T05:23:31.2Z</time></trkpt><trkpt lat="45.657629" lon="10.2312208"><ele>404.0</ele><time>2026-04-16T05:23:32.2Z</time></trkpt><trkpt lat="45.6576196" lon="10.2310844"><ele>404.0</ele><time>2026-04-16T05:23:34.2Z</time></trkpt><trkpt lat="45.6574943" lon="10.2309727"><ele>404.0</ele><time>2026-04-16T05:23:37.2Z</time></trkpt><trkpt lat="45.6573495" lon="10.23092"><ele>404.0</ele><time>2026-04-16T05:23:38.2Z</time></trkpt><trkpt lat="45.6572116" lon="10.230853"><ele>404.0</ele><time>2026-04-16T05:23:39.2Z</time></trkpt><trkpt lat="45.6570958" lon="10.2308207"><ele>404.0</ele><time>2026-04-16T05:23:40.199Z</time></trkpt><trkpt lat="45.6569885" lon="10.2307833"><ele>404.0</ele><time>2026-04-16T05:23:41.2Z</time></trkpt><trkpt lat="45.6568915" lon="10.2307444"><ele>403.6</ele><time>2026-04-16T05:23:42.199Z</time></trkpt><trkpt lat="45.6567916" lon="10.2307244"><ele>403.2</ele><time>2026-04-16T05:23:43.2Z</time></trkpt><trkpt lat="45.6567228" lon="10.2307027"><ele>402.8</ele><time>2026-04-16T05:23:44.2Z</time></trkpt><trkpt lat="45.6566286" lon="10.2306282"><ele>402.40000000000003</ele><time>2026-04-16T05:23:46.2Z</time></trkpt><trkpt lat="45.6566023" lon="10.2305129"><ele>402.0</ele><time>2026-04-16T05:23:48.199Z</time></trkpt><trkpt lat="45.6566888" lon="10.2303132"><ele>402.0</ele><time>2026-04-16T05:23:50.199Z</time></trkpt><trkpt lat="45.6567643" lon="10.2301982"><ele>402.0</ele><time>2026-04-16T05:23:51.2Z</time></trkpt><trkpt lat="45.6568082" lon="10.2300601"><ele>402.0</ele><time>2026-04-16T05:23:52.2Z</time></trkpt><trkpt lat="45.6568289" lon="10.2299354"><ele>402.0</ele><time>2026-04-16T05:23:53.2Z</time></trkpt><trkpt lat="45.656825" lon="10.2297779"><ele>402.0</ele><time>2026-04-16T05:23:54.2Z</time></trkpt><trkpt lat="45.6568315" lon="10.2296127"><ele>401.6</ele><time>2026-04-16T05:23:55.199Z</time></trkpt><trkpt lat="45.6568361" lon="10.2294448"><ele>401.20000000000005</ele><time>2026-04-16T05:23:56.199Z</time></trkpt><trkpt lat="45.65684" lon="10.229292"><ele>400.8</ele><time>2026-04-16T05:23:57.199Z</time></trkpt><trkpt lat="45.6568546" lon="10.229161"><ele>400.4</ele><time>2026-04-16T05:23:58.199Z</time></trkpt><trkpt lat="45.6568639" lon="10.2290492"><ele>400.0</ele><time>2026-04-16T05:23:59.199Z</time></trkpt><trkpt lat="45.6569074" lon="10.2289472"><ele>396.2</ele><time>2026-04-16T05:24:00.2Z</time></trkpt><trkpt lat="45.656971" lon="10.2288694"><ele>392.4</ele><time>2026-04-16T05:24:01.2Z</time></trkpt><trkpt lat="45.657068" lon="10.2288391"><ele>388.6</ele><time>2026-04-16T05:24:02.2Z</time></trkpt><trkpt lat="45.6571466" lon="10.2288462"><ele>384.8</ele><time>2026-04-16T05:24:03.2Z</time></trkpt><trkpt lat="45.6572484" lon="10.228897"><ele>381.0</ele><time>2026-04-16T05:24:04.2Z</time></trkpt><trkpt lat="45.657344" lon="10.228957"><ele>382.8</ele><time>2026-04-16T05:24:05.2Z</time></trkpt><trkpt lat="45.6574388" lon="10.2290458"><ele>384.6</ele><time>2026-04-16T05:24:06.2Z</time></trkpt><trkpt lat="45.6575377" lon="10.2291141"><ele>386.4</ele><time>2026-04-16T05:24:07.2Z</time></trkpt><trkpt lat="45.6576262" lon="10.2291361"><ele>388.2</ele><time>2026-04-16T05:24:08.2Z</time></trkpt><trkpt lat="45.6577373" lon="10.2290762"><ele>390.0</ele><time>2026-04-16T05:24:09.199Z</time></trkpt><trkpt lat="45.6578155" lon="10.2289758"><ele>390.0</ele><time>2026-04-16T05:24:10.2Z</time></trkpt><trkpt lat="45.6579117" lon="10.2288327"><ele>390.0</ele><time>2026-04-16T05:24:11.199Z</time></trkpt><trkpt lat="45.6580069" lon="10.2286863"><ele>390.0</ele><time>2026-04-16T05:24:12.199Z</time></trkpt><trkpt lat="45.6580998" lon="10.2285547"><ele>390.0</ele><time>2026-04-16T05:24:13.2Z</time></trkpt><trkpt lat="45.658191" lon="10.2284484"><ele>390.0</ele><time>2026-04-16T05:24:14.199Z</time></trkpt><trkpt lat="45.6582793" lon="10.2283565"><ele>390.0</ele><time>2026-04-16T05:24:15.2Z</time></trkpt><trkpt lat="45.6583687" lon="10.2282539"><ele>390.0</ele><time>2026-04-16T05:24:16.199Z</time></trkpt><trkpt lat="45.6584372" lon="10.2281438"><ele>390.0</ele><time>2026-04-16T05:24:17.2Z</time></trkpt><trkpt lat="45.6584744" lon="10.2280088"><ele>390.0</ele><time>2026-04-16T05:24:18.199Z</time></trkpt><trkpt lat="45.6584733" lon="10.2278824"><ele>390.2</ele><time>2026-04-16T05:24:19.199Z</time></trkpt><trkpt lat="45.6584513" lon="10.2277458"><ele>390.4</ele><time>2026-04-16T05:24:20.2Z</time></trkpt><trkpt lat="45.6584141" lon="10.2276002"><ele>390.6</ele><time>2026-04-16T05:24:21.199Z</time></trkpt><trkpt lat="45.6583693" lon="10.2274366"><ele>390.8</ele><time>2026-04-16T05:24:22.2Z</time></trkpt><trkpt lat="45.6583326" lon="10.227274"><ele>391.0</ele><time>2026-04-16T05:24:23.2Z</time></trkpt><trkpt lat="45.6583021" lon="10.2271093"><ele>391.0</ele><time>2026-04-16T05:24:24.199Z</time></trkpt><trkpt lat="45.6582724" lon="10.2269372"><ele>391.0</ele><time>2026-04-16T05:24:25.2Z</time></trkpt><trkpt lat="45.6582638" lon="10.22677"><ele>391.0</ele><time>2026-04-16T05:24:26.199Z</time></trkpt><trkpt lat="45.6582734" lon="10.2266149"><ele>391.0</ele><time>2026-04-16T05:24:27.2Z</time></trkpt><trkpt lat="45.6583169" lon="10.2264706"><ele>389.75</ele><time>2026-04-16T05:24:28.199Z</time></trkpt><trkpt lat="45.6583762" lon="10.2263215"><ele>388.5</ele><time>2026-04-16T05:24:29.199Z</time></trkpt><trkpt lat="45.6584369" lon="10.2261644"><ele>387.25</ele><time>2026-04-16T05:24:30.2Z</time></trkpt><trkpt lat="45.6585031" lon="10.2259951"><ele>386.0</ele><time>2026-04-16T05:24:31.2Z</time></trkpt><trkpt lat="45.6585729" lon="10.2258193"><ele>387.75</ele><time>2026-04-16T05:24:32.2Z</time></trkpt><trkpt lat="45.6586395" lon="10.2256471"><ele>389.5</ele><time>2026-04-16T05:24:33.199Z</time></trkpt><trkpt lat="45.658709" lon="10.2254827"><ele>391.25</ele><time>2026-04-16T05:24:34.2Z</time></trkpt><trkpt lat="45.6587771" lon="10.2253314"><ele>393.0</ele><time>2026-04-16T05:24:35.2Z</time></trkpt><trkpt lat="45.6588515" lon="10.2251926"><ele>393.0</ele><time>2026-04-16T05:24:36.2Z</time></trkpt><trkpt lat="45.6589301" lon="10.2250565"><ele>393.0</ele><time>2026-04-16T05:24:37.2Z</time></trkpt><trkpt lat="45.6590124" lon="10.224927"><ele>393.0</ele><time>2026-04-16T05:24:38.199Z</time></trkpt><trkpt lat="45.6590904" lon="10.2247995"><ele>393.0</ele><time>2026-04-16T05:24:39.2Z</time></trkpt><trkpt lat="45.6591633" lon="10.2247045"><ele>392.8333333333333</ele><time>2026-04-16T05:24:40.2Z</time></trkpt><trkpt lat="45.6592324" lon="10.2246171"><ele>392.66666666666663</ele><time>2026-04-16T05:24:41.199Z</time></trkpt><trkpt lat="45.6592947" lon="10.2245558"><ele>392.5</ele><time>2026-04-16T05:24:42.2Z</time></trkpt><trkpt lat="45.6593819" lon="10.2244636"><ele>392.3333333333333</ele><time>2026-04-16T05:24:44.2Z</time></trkpt><trkpt lat="45.659457" lon="10.2244239"><ele>392.16666666666663</ele><time>2026-04-16T05:24:47.199Z</time></trkpt><trkpt lat="45.6595251" lon="10.224384"><ele>392.0</ele><time>2026-04-16T05:26:03.2Z</time></trkpt><trkpt lat="45.65959" lon="10.2243394"><ele>394.5</ele><time>2026-04-16T05:26:04.2Z</time></trkpt><trkpt lat="45.6597026" lon="10.2243111"><ele>397.0</ele><time>2026-04-16T05:26:05.199Z</time></trkpt><trkpt lat="45.6598018" lon="10.2242994"><ele>399.5</ele><time>2026-04-16T05:26:06.2Z</time></trkpt><trkpt lat="45.6599187" lon="10.2243092"><ele>402.0</ele><time>2026-04-16T05:26:07.2Z</time></trkpt><trkpt lat="45.6600431" lon="10.2243115"><ele>402.0</ele><time>2026-04-16T05:26:08.2Z</time></trkpt><trkpt lat="45.6601598" lon="10.2243209"><ele>402.0</ele><time>2026-04-16T05:26:09.199Z</time></trkpt><trkpt lat="45.6602564" lon="10.2243188"><ele>402.0</ele><time>2026-04-16T05:26:10.199Z</time></trkpt><trkpt lat="45.6603349" lon="10.2242777"><ele>402.0</ele><time>2026-04-16T05:26:11.2Z</time></trkpt><trkpt lat="45.6604039" lon="10.2242264"><ele>402.0</ele><time>2026-04-16T05:26:12.199Z</time></trkpt><trkpt lat="45.6604808" lon="10.224136"><ele>404.20000000000005</ele><time>2026-04-16T05:26:13.199Z</time></trkpt><trkpt lat="45.6605506" lon="10.2240399"><ele>406.4</ele><time>2026-04-16T05:26:14.199Z</time></trkpt><trkpt lat="45.6606115" lon="10.2239635"><ele>408.6</ele><time>2026-04-16T05:26:15.198Z</time></trkpt><trkpt lat="45.6606803" lon="10.2238567"><ele>410.79999999999995</ele><time>2026-04-16T05:26:17.199Z</time></trkpt><trkpt lat="45.6607131" lon="10.2237012"><ele>413.0</ele><time>2026-04-16T05:26:19.198Z</time></trkpt><trkpt lat="45.6607117" lon="10.2236063"><ele>413.0</ele><time>2026-04-16T05:26:20.199Z</time></trkpt><trkpt lat="45.6607567" lon="10.2234659"><ele>413.0</ele><time>2026-04-16T05:26:22.198Z</time></trkpt><trkpt lat="45.6608253" lon="10.223403"><ele>413.0</ele><time>2026-04-16T05:26:23.199Z</time></trkpt><trkpt lat="45.6609183" lon="10.223336"><ele>413.0</ele><time>2026-04-16T05:26:24.198Z</time></trkpt><trkpt lat="45.6610403" lon="10.2232464"><ele>413.0</ele><time>2026-04-16T05:26:25.198Z</time></trkpt><trkpt lat="45.661154" lon="10.2231346"><ele>412.5</ele><time>2026-04-16T05:26:26.199Z</time></trkpt><trkpt lat="45.6612554" lon="10.223018"><ele>412.0</ele><time>2026-04-16T05:26:27.198Z</time></trkpt><trkpt lat="45.6613465" lon="10.2229123"><ele>411.5</ele><time>2026-04-16T05:26:28.199Z</time></trkpt><trkpt lat="45.6614342" lon="10.2228102"><ele>411.0</ele><time>2026-04-16T05:26:29.198Z</time></trkpt><trkpt lat="45.6615236" lon="10.2227095"><ele>411.0</ele><time>2026-04-16T05:26:30.199Z</time></trkpt><trkpt lat="45.6616207" lon="10.2226055"><ele>411.0</ele><time>2026-04-16T05:26:31.198Z</time></trkpt><trkpt lat="45.6617222" lon="10.2224855"><ele>411.0</ele><time>2026-04-16T05:26:32.198Z</time></trkpt><trkpt lat="45.6618265" lon="10.2223616"><ele>411.0</ele><time>2026-04-16T05:26:33.198Z</time></trkpt><trkpt lat="45.6619247" lon="10.222244"><ele>409.0</ele><time>2026-04-16T05:26:34.199Z</time></trkpt><trkpt lat="45.6620048" lon="10.2221213"><ele>407.0</ele><time>2026-04-16T05:26:35.199Z</time></trkpt><trkpt lat="45.6620713" lon="10.2219908"><ele>405.0</ele><time>2026-04-16T05:26:36.199Z</time></trkpt><trkpt lat="45.6621181" lon="10.2218566"><ele>403.0</ele><time>2026-04-16T05:26:37.199Z</time></trkpt><trkpt lat="45.6621633" lon="10.2217238"><ele>401.0</ele><time>2026-04-16T05:26:38.199Z</time></trkpt><trkpt lat="45.6622253" lon="10.2215913"><ele>397.75</ele><time>2026-04-16T05:26:39.199Z</time></trkpt><trkpt lat="45.6623106" lon="10.2214735"><ele>394.5</ele><time>2026-04-16T05:26:40.199Z</time></trkpt><trkpt lat="45.6624089" lon="10.2213961"><ele>391.25</ele><time>2026-04-16T05:26:41.198Z</time></trkpt><trkpt lat="45.6625481" lon="10.2213529"><ele>388.0</ele><time>2026-04-16T05:26:42.199Z</time></trkpt><trkpt lat="45.6627041" lon="10.2213463"><ele>387.33333333333337</ele><time>2026-04-16T05:26:43.198Z</time></trkpt><trkpt lat="45.6628729" lon="10.2213314"><ele>386.66666666666663</ele><time>2026-04-16T05:26:44.198Z</time></trkpt><trkpt lat="45.6630227" lon="10.2212745"><ele>386.0</ele><time>2026-04-16T05:26:45.199Z</time></trkpt><trkpt lat="45.6631552" lon="10.2212102"><ele>386.0</ele><time>2026-04-16T05:26:46.199Z</time></trkpt><trkpt lat="45.6632793" lon="10.2211233"><ele>386.0</ele><time>2026-04-16T05:26:47.198Z</time></trkpt><trkpt lat="45.6634036" lon="10.2210149"><ele>386.0</ele><time>2026-04-16T05:26:48.198Z</time></trkpt><trkpt lat="45.6635262" lon="10.2208926"><ele>386.0</ele><time>2026-04-16T05:26:49.199Z</time></trkpt><trkpt lat="45.6636539" lon="10.2207697"><ele>384.25</ele><time>2026-04-16T05:26:50.198Z</time></trkpt><trkpt lat="45.6637769" lon="10.2206422"><ele>382.5</ele><time>2026-04-16T05:26:51.199Z</time></trkpt><trkpt lat="45.6638914" lon="10.2205343"><ele>380.75</ele><time>2026-04-16T05:26:52.198Z</time></trkpt><trkpt lat="45.6640002" lon="10.2204502"><ele>379.0</ele><time>2026-04-16T05:26:53.199Z</time></trkpt><trkpt lat="45.6641025" lon="10.2203767"><ele>379.0</ele><time>2026-04-16T05:26:54.199Z</time></trkpt><trkpt lat="45.6642132" lon="10.2203188"><ele>379.0</ele><time>2026-04-16T05:26:55.198Z</time></trkpt><trkpt lat="45.664333" lon="10.2202544"><ele>379.0</ele><time>2026-04-16T05:26:56.199Z</time></trkpt><trkpt lat="45.6644684" lon="10.2201869"><ele>379.0</ele><time>2026-04-16T05:26:57.198Z</time></trkpt><trkpt lat="45.6646086" lon="10.2201094"><ele>379.66666666666663</ele><time>2026-04-16T05:26:58.199Z</time></trkpt><trkpt lat="45.6647126" lon="10.2200402"><ele>380.3333333333333</ele><time>2026-04-16T05:26:59.199Z</time></trkpt><trkpt lat="45.6648019" lon="10.2199825"><ele>381.0</ele><time>2026-04-16T05:27:00.198Z</time></trkpt><trkpt lat="45.6648554" lon="10.2199146"><ele>381.6666666666667</ele><time>2026-04-16T05:27:01.199Z</time></trkpt><trkpt lat="45.6648827" lon="10.2198238"><ele>382.33333333333337</ele><time>2026-04-16T05:27:02.199Z</time></trkpt><trkpt lat="45.6648863" lon="10.2197276"><ele>383.0</ele><time>2026-04-16T05:27:03.199Z</time></trkpt><trkpt lat="45.6648666" lon="10.2196106"><ele>383.0</ele><time>2026-04-16T05:27:04.199Z</time></trkpt><trkpt lat="45.6648351" lon="10.2194875"><ele>383.0</ele><time>2026-04-16T05:27:05.198Z</time></trkpt><trkpt lat="45.6648042" lon="10.2193862"><ele>383.0</ele><time>2026-04-16T05:27:06.198Z</time></trkpt><trkpt lat="45.6647653" lon="10.2192866"><ele>383.0</ele><time>2026-04-16T05:27:07.199Z</time></trkpt><trkpt lat="45.664713" lon="10.219164"><ele>383.0</ele><time>2026-04-16T05:27:08.198Z</time></trkpt><trkpt lat="45.6646137" lon="10.2190393"><ele>380.33333333333337</ele><time>2026-04-16T05:27:09.198Z</time></trkpt><trkpt lat="45.664489" lon="10.2189039"><ele>377.6666666666667</ele><time>2026-04-16T05:27:10.199Z</time></trkpt><trkpt lat="45.6643526" lon="10.2187501"><ele>375.0</ele><time>2026-04-16T05:27:11.199Z</time></trkpt><trkpt lat="45.6642265" lon="10.2186085"><ele>375.0</ele><time>2026-04-16T05:27:12.198Z</time></trkpt><trkpt lat="45.6640989" lon="10.2184725"><ele>375.0</ele><time>2026-04-16T05:27:13.199Z</time></trkpt><trkpt lat="45.6639803" lon="10.2183472"><ele>375.0</ele><time>2026-04-16T05:27:14.198Z</time></trkpt><trkpt lat="45.6638666" lon="10.2182284"><ele>375.0</ele><time>2026-04-16T05:27:15.199Z</time></trkpt><trkpt lat="45.6637578" lon="10.2181145"><ele>376.5</ele><time>2026-04-16T05:27:16.199Z</time></trkpt><trkpt lat="45.663655" lon="10.2180118"><ele>378.0</ele><time>2026-04-16T05:27:17.199Z</time></trkpt><trkpt lat="45.6635611" lon="10.217912"><ele>379.5</ele><time>2026-04-16T05:27:18.198Z</time></trkpt><trkpt lat="45.6634667" lon="10.2178099"><ele>381.0</ele><time>2026-04-16T05:27:19.199Z</time></trkpt><trkpt lat="45.663381" lon="10.2177168"><ele>378.0</ele><time>2026-04-16T05:27:20.199Z</time></trkpt><trkpt lat="45.6632934" lon="10.2176131"><ele>375.0</ele><time>2026-04-16T05:27:21.199Z</time></trkpt><trkpt lat="45.6631841" lon="10.2174914"><ele>372.0</ele><time>2026-04-16T05:27:22.199Z</time></trkpt><trkpt lat="45.6630753" lon="10.2173711"><ele>369.0</ele><time>2026-04-16T05:27:23.198Z</time></trkpt><trkpt lat="45.6629532" lon="10.21725"><ele>369.0</ele><time>2026-04-16T05:27:24.199Z</time></trkpt><trkpt lat="45.66281" lon="10.2171518"><ele>369.0</ele><time>2026-04-16T05:27:25.199Z</time></trkpt><trkpt lat="45.6626755" lon="10.2170707"><ele>369.0</ele><time>2026-04-16T05:27:26.199Z</time></trkpt><trkpt lat="45.6625499" lon="10.2169849"><ele>369.0</ele><time>2026-04-16T05:27:27.198Z</time></trkpt><trkpt lat="45.6624315" lon="10.2168977"><ele>367.0</ele><time>2026-04-16T05:27:28.199Z</time></trkpt><trkpt lat="45.6623364" lon="10.2167981"><ele>365.0</ele><time>2026-04-16T05:27:29.199Z</time></trkpt><trkpt lat="45.6622685" lon="10.2166755"><ele>363.0</ele><time>2026-04-16T05:27:30.198Z</time></trkpt><trkpt lat="45.6622174" lon="10.216549"><ele>361.0</ele><time>2026-04-16T05:27:31.199Z</time></trkpt><trkpt lat="45.6621775" lon="10.2164206"><ele>359.0</ele><time>2026-04-16T05:27:32.199Z</time></trkpt><trkpt lat="45.662133" lon="10.2162721"><ele>359.0</ele><time>2026-04-16T05:27:33.199Z</time></trkpt><trkpt lat="45.6620668" lon="10.216082"><ele>359.0</ele><time>2026-04-16T05:27:34.199Z</time></trkpt><trkpt lat="45.6619934" lon="10.215896"><ele>359.0</ele><time>2026-04-16T05:27:35.198Z</time></trkpt><trkpt lat="45.6619021" lon="10.2157312"><ele>359.0</ele><time>2026-04-16T05:27:36.199Z</time></trkpt><trkpt lat="45.6618121" lon="10.2155646"><ele>356.0</ele><time>2026-04-16T05:27:37.199Z</time></trkpt><trkpt lat="45.6617171" lon="10.2154235"><ele>353.0</ele><time>2026-04-16T05:27:38.199Z</time></trkpt><trkpt lat="45.6616323" lon="10.2153037"><ele>350.0</ele><time>2026-04-16T05:27:39.199Z</time></trkpt><trkpt lat="45.661555" lon="10.2151841"><ele>347.0</ele><time>2026-04-16T05:27:40.198Z</time></trkpt><trkpt lat="45.6614847" lon="10.2150641"><ele>347.0</ele><time>2026-04-16T05:27:41.199Z</time></trkpt><trkpt lat="45.6614064" lon="10.2149241"><ele>347.0</ele><time>2026-04-16T05:27:42.199Z</time></trkpt><trkpt lat="45.6613115" lon="10.214748"><ele>347.0</ele><time>2026-04-16T05:27:43.199Z</time></trkpt><trkpt lat="45.6612105" lon="10.2145673"><ele>347.0</ele><time>2026-04-16T05:27:44.199Z</time></trkpt><trkpt lat="45.6610999" lon="10.2143639"><ele>343.25</ele><time>2026-04-16T05:27:45.199Z</time></trkpt><trkpt lat="45.6610036" lon="10.2141687"><ele>339.5</ele><time>2026-04-16T05:27:46.198Z</time></trkpt><trkpt lat="45.6609125" lon="10.2140057"><ele>335.75</ele><time>2026-04-16T05:27:47.199Z</time></trkpt><trkpt lat="45.6608335" lon="10.2138575"><ele>332.0</ele><time>2026-04-16T05:27:48.199Z</time></trkpt><trkpt lat="45.6607586" lon="10.2137169"><ele>331.8</ele><time>2026-04-16T05:27:49.199Z</time></trkpt><trkpt lat="45.6607007" lon="10.2135824"><ele>331.6</ele><time>2026-04-16T05:27:50.199Z</time></trkpt><trkpt lat="45.6606374" lon="10.2134298"><ele>331.40000000000003</ele><time>2026-04-16T05:27:52.198Z</time></trkpt><trkpt lat="45.6606025" lon="10.2133364"><ele>331.20000000000005</ele><time>2026-04-16T05:27:53.199Z</time></trkpt><trkpt lat="45.6605615" lon="10.2131858"><ele>331.0</ele><time>2026-04-16T05:27:54.199Z</time></trkpt><trkpt lat="45.6605184" lon="10.2129998"><ele>331.66666666666663</ele><time>2026-04-16T05:27:55.198Z</time></trkpt><trkpt lat="45.6604721" lon="10.2127956"><ele>332.3333333333333</ele><time>2026-04-16T05:27:56.199Z</time></trkpt><trkpt lat="45.6604097" lon="10.2125691"><ele>333.0</ele><time>2026-04-16T05:27:57.198Z</time></trkpt><trkpt lat="45.660352" lon="10.2123438"><ele>335.0</ele><time>2026-04-16T05:27:58.199Z</time></trkpt><trkpt lat="45.6602846" lon="10.2121067"><ele>337.0</ele><time>2026-04-16T05:27:59.199Z</time></trkpt><trkpt lat="45.660221" lon="10.2118785"><ele>339.0</ele><time>2026-04-16T05:28:00.199Z</time></trkpt><trkpt lat="45.6601563" lon="10.2116577"><ele>334.75</ele><time>2026-04-16T05:28:01.199Z</time></trkpt><trkpt lat="45.6600883" lon="10.2114616"><ele>330.5</ele><time>2026-04-16T05:28:02.199Z</time></trkpt><trkpt lat="45.6600021" lon="10.2112888"><ele>326.25</ele><time>2026-04-16T05:28:03.198Z</time></trkpt><trkpt lat="45.6599173" lon="10.2111286"><ele>322.0</ele><time>2026-04-16T05:28:04.199Z</time></trkpt><trkpt lat="45.6598287" lon="10.2109774"><ele>322.0</ele><time>2026-04-16T05:28:05.199Z</time></trkpt><trkpt lat="45.6597415" lon="10.2108251"><ele>322.0</ele><time>2026-04-16T05:28:06.199Z</time></trkpt><trkpt lat="45.6596594" lon="10.2106795"><ele>322.0</ele><time>2026-04-16T05:28:07.198Z</time></trkpt><trkpt lat="45.659575" lon="10.2105362"><ele>322.0</ele><time>2026-04-16T05:28:08.199Z</time></trkpt><trkpt lat="45.6594844" lon="10.2103883"><ele>322.75</ele><time>2026-04-16T05:28:09.199Z</time></trkpt><trkpt lat="45.6593949" lon="10.2102353"><ele>323.5</ele><time>2026-04-16T05:28:10.198Z</time></trkpt><trkpt lat="45.6593131" lon="10.2100901"><ele>324.25</ele><time>2026-04-16T05:28:11.198Z</time></trkpt><trkpt lat="45.6592296" lon="10.2099471"><ele>325.0</ele><time>2026-04-16T05:28:12.199Z</time></trkpt><trkpt lat="45.6591353" lon="10.2098119"><ele>325.0</ele><time>2026-04-16T05:28:13.198Z</time></trkpt><trkpt lat="45.6590169" lon="10.2096912"><ele>325.0</ele><time>2026-04-16T05:28:14.199Z</time></trkpt><trkpt lat="45.6588888" lon="10.2095832"><ele>325.0</ele><time>2026-04-16T05:28:15.199Z</time></trkpt><trkpt lat="45.6587619" lon="10.2094679"><ele>325.0</ele><time>2026-04-16T05:28:16.199Z</time></trkpt><trkpt lat="45.6586474" lon="10.2093627"><ele>322.25</ele><time>2026-04-16T05:28:17.198Z</time></trkpt><trkpt lat="45.6585434" lon="10.2092501"><ele>319.5</ele><time>2026-04-16T05:28:18.199Z</time></trkpt><trkpt lat="45.6584581" lon="10.2091402"><ele>316.75</ele><time>2026-04-16T05:28:19.198Z</time></trkpt><trkpt lat="45.6583831" lon="10.2090329"><ele>314.0</ele><time>2026-04-16T05:28:20.198Z</time></trkpt><trkpt lat="45.658309" lon="10.2089236"><ele>314.0</ele><time>2026-04-16T05:28:21.199Z</time></trkpt><trkpt lat="45.6582298" lon="10.208799"><ele>314.0</ele><time>2026-04-16T05:28:22.199Z</time></trkpt><trkpt lat="45.6581482" lon="10.2086551"><ele>314.0</ele><time>2026-04-16T05:28:23.199Z</time></trkpt><trkpt lat="45.6580738" lon="10.2084779"><ele>314.0</ele><time>2026-04-16T05:28:24.199Z</time></trkpt><trkpt lat="45.6579927" lon="10.2082908"><ele>311.0</ele><time>2026-04-16T05:28:25.198Z</time></trkpt><trkpt lat="45.6579247" lon="10.2080865"><ele>308.0</ele><time>2026-04-16T05:28:26.199Z</time></trkpt><trkpt lat="45.6578603" lon="10.2078874"><ele>305.0</ele><time>2026-04-16T05:28:27.199Z</time></trkpt><trkpt lat="45.6577837" lon="10.2077087"><ele>305.0</ele><time>2026-04-16T05:28:28.198Z</time></trkpt><trkpt lat="45.657695" lon="10.2075496"><ele>305.0</ele><time>2026-04-16T05:28:29.199Z</time></trkpt><trkpt lat="45.6575994" lon="10.2074023"><ele>305.0</ele><time>2026-04-16T05:28:30.199Z</time></trkpt><trkpt lat="45.6574928" lon="10.2072596"><ele>305.0</ele><time>2026-04-16T05:28:31.199Z</time></trkpt><trkpt lat="45.6573806" lon="10.20711"><ele>306.5</ele><time>2026-04-16T05:28:32.199Z</time></trkpt><trkpt lat="45.6572655" lon="10.2069883"><ele>308.0</ele><time>2026-04-16T05:28:33.198Z</time></trkpt><trkpt lat="45.6571599" lon="10.2068679"><ele>309.5</ele><time>2026-04-16T05:28:34.198Z</time></trkpt><trkpt lat="45.6570586" lon="10.2067539"><ele>311.0</ele><time>2026-04-16T05:28:35.199Z</time></trkpt><trkpt lat="45.6569498" lon="10.2066532"><ele>309.6</ele><time>2026-04-16T05:28:36.199Z</time></trkpt><trkpt lat="45.6568475" lon="10.2065642"><ele>308.20000000000005</ele><time>2026-04-16T05:28:37.198Z</time></trkpt><trkpt lat="45.6567551" lon="10.2064825"><ele>306.79999999999995</ele><time>2026-04-16T05:28:38.198Z</time></trkpt><trkpt lat="45.6566692" lon="10.2064107"><ele>305.4</ele><time>2026-04-16T05:28:39.199Z</time></trkpt><trkpt lat="45.6565864" lon="10.2063412"><ele>304.0</ele><time>2026-04-16T05:28:40.199Z</time></trkpt><trkpt lat="45.6565022" lon="10.2062684"><ele>304.0</ele><time>2026-04-16T05:28:41.199Z</time></trkpt><trkpt lat="45.6564184" lon="10.2061936"><ele>304.0</ele><time>2026-04-16T05:28:42.198Z</time></trkpt><trkpt lat="45.6563143" lon="10.2061025"><ele>304.0</ele><time>2026-04-16T05:28:43.198Z</time></trkpt><trkpt lat="45.656214" lon="10.2060213"><ele>304.0</ele><time>2026-04-16T05:28:44.198Z</time></trkpt><trkpt lat="45.6561113" lon="10.2059242"><ele>302.0</ele><time>2026-04-16T05:28:45.199Z</time></trkpt><trkpt lat="45.6560139" lon="10.2057884"><ele>300.0</ele><time>2026-04-16T05:28:46.198Z</time></trkpt><trkpt lat="45.6559351" lon="10.2056345"><ele>298.0</ele><time>2026-04-16T05:28:47.199Z</time></trkpt><trkpt lat="45.6558648" lon="10.2054525"><ele>296.0</ele><time>2026-04-16T05:28:48.199Z</time></trkpt><trkpt lat="45.6558031" lon="10.2053038"><ele>296.0</ele><time>2026-04-16T05:28:49.199Z</time></trkpt><trkpt lat="45.6557411" lon="10.2051679"><ele>296.0</ele><time>2026-04-16T05:28:50.198Z</time></trkpt><trkpt lat="45.6556824" lon="10.2050333"><ele>296.0</ele><time>2026-04-16T05:28:51.199Z</time></trkpt><trkpt lat="45.6556239" lon="10.2048989"><ele>296.0</ele><time>2026-04-16T05:28:52.199Z</time></trkpt><trkpt lat="45.6555653" lon="10.2047534"><ele>297.2</ele><time>2026-04-16T05:28:53.198Z</time></trkpt><trkpt lat="45.6555147" lon="10.2046131"><ele>298.40000000000003</ele><time>2026-04-16T05:28:54.199Z</time></trkpt><trkpt lat="45.6554675" lon="10.2044807"><ele>299.6</ele><time>2026-04-16T05:28:55.198Z</time></trkpt><trkpt lat="45.6554263" lon="10.2043592"><ele>300.8</ele><time>2026-04-16T05:28:56.199Z</time></trkpt><trkpt lat="45.6553954" lon="10.2042329"><ele>302.0</ele><time>2026-04-16T05:28:57.198Z</time></trkpt><trkpt lat="45.6553734" lon="10.204087"><ele>302.33333333333337</ele><time>2026-04-16T05:28:58.198Z</time></trkpt><trkpt lat="45.6553584" lon="10.2039485"><ele>302.6666666666667</ele><time>2026-04-16T05:28:59.199Z</time></trkpt><trkpt lat="45.6553489" lon="10.2038215"><ele>303.0</ele><time>2026-04-16T05:29:00.198Z</time></trkpt><trkpt lat="45.6553352" lon="10.203706"><ele>303.3333333333333</ele><time>2026-04-16T05:29:01.198Z</time></trkpt><trkpt lat="45.6553201" lon="10.2035984"><ele>303.66666666666663</ele><time>2026-04-16T05:29:02.198Z</time></trkpt><trkpt lat="45.6553109" lon="10.2034901"><ele>304.0</ele><time>2026-04-16T05:29:03.198Z</time></trkpt><trkpt lat="45.6552956" lon="10.2033846"><ele>300.66666666666663</ele><time>2026-04-16T05:29:04.199Z</time></trkpt><trkpt lat="45.6552695" lon="10.2032764"><ele>297.3333333333333</ele><time>2026-04-16T05:29:05.198Z</time></trkpt><trkpt lat="45.6552232" lon="10.2031683"><ele>294.0</ele><time>2026-04-16T05:29:06.199Z</time></trkpt><trkpt lat="45.6551799" lon="10.2030648"><ele>290.6666666666667</ele><time>2026-04-16T05:29:07.199Z</time></trkpt><trkpt lat="45.6551518" lon="10.2029704"><ele>287.33333333333337</ele><time>2026-04-16T05:29:08.199Z</time></trkpt><trkpt lat="45.6551199" lon="10.2028845"><ele>284.0</ele><time>2026-04-16T05:29:09.199Z</time></trkpt><trkpt lat="45.6551151" lon="10.202739"><ele>283.0</ele><time>2026-04-16T05:29:11.198Z</time></trkpt><trkpt lat="45.6551513" lon="10.2026191"><ele>282.0</ele><time>2026-04-16T05:29:13.199Z</time></trkpt><trkpt lat="45.6550781" lon="10.2025268"><ele>281.0</ele><time>2026-04-16T05:29:15.199Z</time></trkpt><trkpt lat="45.6550083" lon="10.2024768"><ele>280.0</ele><time>2026-04-16T05:29:16.199Z</time></trkpt><trkpt lat="45.6549464" lon="10.202409"><ele>279.0</ele><time>2026-04-16T05:29:17.199Z</time></trkpt><trkpt lat="45.6549058" lon="10.2023342"><ele>278.0</ele><time>2026-04-16T05:29:18.198Z</time></trkpt><trkpt lat="45.6548802" lon="10.2022246"><ele>277.33333333333337</ele><time>2026-04-16T05:29:19.199Z</time></trkpt><trkpt lat="45.6548484" lon="10.2021326"><ele>276.6666666666667</ele><time>2026-04-16T05:29:20.199Z</time></trkpt><trkpt lat="45.6548113" lon="10.202041"><ele>276.0</ele><time>2026-04-16T05:29:21.199Z</time></trkpt><trkpt lat="45.6547836" lon="10.2019448"><ele>275.3333333333333</ele><time>2026-04-16T05:29:22.199Z</time></trkpt><trkpt lat="45.6547306" lon="10.2018074"><ele>274.66666666666663</ele><time>2026-04-16T05:29:24.199Z</time></trkpt><trkpt lat="45.6546847" lon="10.2016897"><ele>274.0</ele><time>2026-04-16T05:29:26.198Z</time></trkpt><trkpt lat="45.654632" lon="10.2015305"><ele>273.4</ele><time>2026-04-16T05:29:28.198Z</time></trkpt><trkpt lat="45.6546101" lon="10.2014377"><ele>272.79999999999995</ele><time>2026-04-16T05:29:29.199Z</time></trkpt><trkpt lat="45.6545577" lon="10.201273"><ele>272.20000000000005</ele><time>2026-04-16T05:29:31.199Z</time></trkpt><trkpt lat="45.654508" lon="10.2011295"><ele>271.6</ele><time>2026-04-16T05:29:33.199Z</time></trkpt><trkpt lat="45.6544588" lon="10.200958"><ele>271.0</ele><time>2026-04-16T05:29:35.199Z</time></trkpt><trkpt lat="45.6544272" lon="10.2008747"><ele>271.0</ele><time>2026-04-16T05:29:36.199Z</time></trkpt><trkpt lat="45.6543727" lon="10.200727"><ele>271.0</ele><time>2026-04-16T05:29:38.199Z</time></trkpt><trkpt lat="45.6543413" lon="10.2005975"><ele>271.0</ele><time>2026-04-16T05:29:40.198Z</time></trkpt><trkpt lat="45.6543005" lon="10.2004802"><ele>271.0</ele><time>2026-04-16T05:29:42.199Z</time></trkpt><trkpt lat="45.6542505" lon="10.2003571"><ele>271.0</ele><time>2026-04-16T05:29:44.199Z</time></trkpt><trkpt lat="45.6542173" lon="10.2002047"><ele>270.5</ele><time>2026-04-16T05:29:46.198Z</time></trkpt><trkpt lat="45.6542085" lon="10.2001013"><ele>270.0</ele><time>2026-04-16T05:29:47.198Z</time></trkpt><trkpt lat="45.6542098" lon="10.2000018"><ele>269.5</ele><time>2026-04-16T05:29:48.198Z</time></trkpt><trkpt lat="45.654225" lon="10.1999029"><ele>269.0</ele><time>2026-04-16T05:29:49.199Z</time></trkpt><trkpt lat="45.6542714" lon="10.1998135"><ele>268.5</ele><time>2026-04-16T05:29:50.199Z</time></trkpt><trkpt lat="45.6543599" lon="10.1997353"><ele>268.0</ele><time>2026-04-16T05:29:51.199Z</time></trkpt><trkpt lat="45.6544981" lon="10.1996621"><ele>267.66666666666663</ele><time>2026-04-16T05:29:52.198Z</time></trkpt><trkpt lat="45.6546592" lon="10.1995897"><ele>267.3333333333333</ele><time>2026-04-16T05:29:53.198Z</time></trkpt><trkpt lat="45.6548351" lon="10.1995201"><ele>267.0</ele><time>2026-04-16T05:29:54.198Z</time></trkpt><trkpt lat="45.6550332" lon="10.1994629"><ele>267.0</ele><time>2026-04-16T05:29:55.198Z</time></trkpt><trkpt lat="45.6552447" lon="10.1994071"><ele>267.0</ele><time>2026-04-16T05:29:56.199Z</time></trkpt><trkpt lat="45.6554741" lon="10.1993472"><ele>267.0</ele><time>2026-04-16T05:29:57.198Z</time></trkpt><trkpt lat="45.6557166" lon="10.1992829"><ele>269.0</ele><time>2026-04-16T05:29:58.198Z</time></trkpt><trkpt lat="45.655968" lon="10.1992097"><ele>271.0</ele><time>2026-04-16T05:29:59.198Z</time></trkpt><trkpt lat="45.6562229" lon="10.1991265"><ele>271.0</ele><time>2026-04-16T05:30:00.199Z</time></trkpt><trkpt lat="45.6564871" lon="10.1990282"><ele>271.0</ele><time>2026-04-16T05:30:01.199Z</time></trkpt><trkpt lat="45.656761" lon="10.1989222"><ele>271.0</ele><time>2026-04-16T05:30:02.198Z</time></trkpt><trkpt lat="45.6570272" lon="10.19881"><ele>271.0</ele><time>2026-04-16T05:30:03.198Z</time></trkpt><trkpt lat="45.6572836" lon="10.1987083"><ele>271.0</ele><time>2026-04-16T05:30:04.198Z</time></trkpt><trkpt lat="45.6575261" lon="10.1986113"><ele>271.0</ele><time>2026-04-16T05:30:05.199Z</time></trkpt><trkpt lat="45.6577487" lon="10.1985177"><ele>271.3333333333333</ele><time>2026-04-16T05:30:06.199Z</time></trkpt><trkpt lat="45.6579509" lon="10.1984369"><ele>271.6666666666667</ele><time>2026-04-16T05:30:07.198Z</time></trkpt><trkpt lat="45.6581491" lon="10.1983633"><ele>272.0</ele><time>2026-04-16T05:30:08.198Z</time></trkpt><trkpt lat="45.6583334" lon="10.1982919"><ele>272.0</ele><time>2026-04-16T05:30:09.198Z</time></trkpt><trkpt lat="45.6585031" lon="10.1982269"><ele>272.0</ele><time>2026-04-16T05:30:10.199Z</time></trkpt><trkpt lat="45.6586746" lon="10.1981605"><ele>272.0</ele><time>2026-04-16T05:30:11.198Z</time></trkpt><trkpt lat="45.6588355" lon="10.1980997"><ele>272.0</ele><time>2026-04-16T05:30:12.198Z</time></trkpt><trkpt lat="45.6589745" lon="10.1980447"><ele>272.0</ele><time>2026-04-16T05:30:13.198Z</time></trkpt><trkpt lat="45.6591096" lon="10.1979902"><ele>272.0</ele><time>2026-04-16T05:30:14.199Z</time></trkpt><trkpt lat="45.6592353" lon="10.1979417"><ele>272.0</ele><time>2026-04-16T05:30:15.198Z</time></trkpt><trkpt lat="45.659347" lon="10.1979033"><ele>272.2</ele><time>2026-04-16T05:30:16.198Z</time></trkpt><trkpt lat="45.6594524" lon="10.1978893"><ele>272.4</ele><time>2026-04-16T05:30:17.199Z</time></trkpt><trkpt lat="45.659544" lon="10.1979084"><ele>272.6</ele><time>2026-04-16T05:30:18.199Z</time></trkpt><trkpt lat="45.659636" lon="10.1979427"><ele>272.8</ele><time>2026-04-16T05:30:19.199Z</time></trkpt><trkpt lat="45.659771" lon="10.1979565"><ele>273.0</ele><time>2026-04-16T05:30:21.199Z</time></trkpt><trkpt lat="45.6598307" lon="10.1979168"><ele>273.0</ele><time>2026-04-16T05:30:22.199Z</time></trkpt><trkpt lat="45.6598689" lon="10.1978171"><ele>273.0</ele><time>2026-04-16T05:30:23.198Z</time></trkpt><trkpt lat="45.659848" lon="10.1976482"><ele>273.0</ele><time>2026-04-16T05:30:25.199Z</time></trkpt><trkpt lat="45.6597857" lon="10.1975792"><ele>273.0</ele><time>2026-04-16T05:30:26.199Z</time></trkpt><trkpt lat="45.6597054" lon="10.197548"><ele>273.0</ele><time>2026-04-16T05:30:27.199Z</time></trkpt><trkpt lat="45.6596386" lon="10.197592"><ele>273.0</ele><time>2026-04-16T05:30:28.198Z</time></trkpt><trkpt lat="45.6595775" lon="10.197653"><ele>273.0</ele><time>2026-04-16T05:30:29.199Z</time></trkpt><trkpt lat="45.6595027" lon="10.1977237"><ele>273.0</ele><time>2026-04-16T05:30:30.199Z</time></trkpt><trkpt lat="45.6594074" lon="10.1977971"><ele>273.0</ele><time>2026-04-16T05:30:31.198Z</time></trkpt><trkpt lat="45.6592774" lon="10.1978515"><ele>273.0</ele><time>2026-04-16T05:30:32.199Z</time></trkpt><trkpt lat="45.6591229" lon="10.1979137"><ele>272.6666666666667</ele><time>2026-04-16T05:30:33.198Z</time></trkpt><trkpt lat="45.6589414" lon="10.1979809"><ele>272.33333333333337</ele><time>2026-04-16T05:30:34.198Z</time></trkpt><trkpt lat="45.6587491" lon="10.1980479"><ele>272.0</ele><time>2026-04-16T05:30:35.199Z</time></trkpt><trkpt lat="45.6585546" lon="10.1981135"><ele>272.0</ele><time>2026-04-16T05:30:36.198Z</time></trkpt><trkpt lat="45.6583521" lon="10.1981835"><ele>272.0</ele><time>2026-04-16T05:30:37.198Z</time></trkpt><trkpt lat="45.6581524" lon="10.1982614"><ele>272.0</ele><time>2026-04-16T05:30:38.199Z</time></trkpt><trkpt lat="45.6579696" lon="10.1983385"><ele>272.0</ele><time>2026-04-16T05:30:39.198Z</time></trkpt><trkpt lat="45.6578002" lon="10.1984107"><ele>272.0</ele><time>2026-04-16T05:30:40.199Z</time></trkpt><trkpt lat="45.6576366" lon="10.1984695"><ele>272.0</ele><time>2026-04-16T05:30:41.199Z</time></trkpt><trkpt lat="45.6574844" lon="10.198527"><ele>271.6666666666667</ele><time>2026-04-16T05:30:42.198Z</time></trkpt><trkpt lat="45.6573352" lon="10.1985875"><ele>271.3333333333333</ele><time>2026-04-16T05:30:43.198Z</time></trkpt><trkpt lat="45.6571892" lon="10.1986464"><ele>271.0</ele><time>2026-04-16T05:30:44.198Z</time></trkpt><trkpt lat="45.6570444" lon="10.1987124"><ele>270.3333333333333</ele><time>2026-04-16T05:30:45.199Z</time></trkpt><trkpt lat="45.6568941" lon="10.1987731"><ele>269.6666666666667</ele><time>2026-04-16T05:30:46.199Z</time></trkpt><trkpt lat="45.6567394" lon="10.1988356"><ele>269.0</ele><time>2026-04-16T05:30:47.199Z</time></trkpt><trkpt lat="45.6565826" lon="10.1988941"><ele>269.0</ele><time>2026-04-16T05:30:48.199Z</time></trkpt><trkpt lat="45.6564281" lon="10.1989528"><ele>269.0</ele><time>2026-04-16T05:30:49.199Z</time></trkpt><trkpt lat="45.6562816" lon="10.1990098"><ele>269.0</ele><time>2026-04-16T05:30:50.198Z</time></trkpt><trkpt lat="45.656151" lon="10.1990624"><ele>269.0</ele><time>2026-04-16T05:30:51.199Z</time></trkpt><trkpt lat="45.6560269" lon="10.199108"><ele>269.4</ele><time>2026-04-16T05:30:52.198Z</time></trkpt><trkpt lat="45.6559068" lon="10.1991449"><ele>269.79999999999995</ele><time>2026-04-16T05:30:53.198Z</time></trkpt><trkpt lat="45.6558006" lon="10.199178"><ele>270.20000000000005</ele><time>2026-04-16T05:30:54.198Z</time></trkpt><trkpt lat="45.6556963" lon="10.1992057"><ele>270.6</ele><time>2026-04-16T05:30:55.198Z</time></trkpt><trkpt lat="45.6556008" lon="10.199235"><ele>271.0</ele><time>2026-04-16T05:30:56.198Z</time></trkpt><trkpt lat="45.6555103" lon="10.1992552"><ele>271.0</ele><time>2026-04-16T05:30:57.199Z</time></trkpt><trkpt lat="45.6554245" lon="10.1992729"><ele>271.0</ele><time>2026-04-16T05:30:58.199Z</time></trkpt><trkpt lat="45.6553567" lon="10.1992643"><ele>271.0</ele><time>2026-04-16T05:30:59.198Z</time></trkpt><trkpt lat="45.6553005" lon="10.1991552"><ele>271.0</ele><time>2026-04-16T05:31:01.198Z</time></trkpt><trkpt lat="45.6553115" lon="10.1990643"><ele>271.0</ele><time>2026-04-16T05:31:02.199Z</time></trkpt><trkpt lat="45.6553403" lon="10.1989526"><ele>271.0</ele><time>2026-04-16T05:31:03.198Z</time></trkpt><trkpt lat="45.6553355" lon="10.1987758"><ele>270.0</ele><time>2026-04-16T05:31:04.199Z</time></trkpt><trkpt lat="45.6553042" lon="10.1985707"><ele>269.0</ele><time>2026-04-16T05:31:05.198Z</time></trkpt><trkpt lat="45.6552755" lon="10.1983379"><ele>268.0</ele><time>2026-04-16T05:31:06.199Z</time></trkpt><trkpt lat="45.6552508" lon="10.1981173"><ele>267.25</ele><time>2026-04-16T05:31:07.199Z</time></trkpt><trkpt lat="45.6552253" lon="10.1978976"><ele>266.5</ele><time>2026-04-16T05:31:08.198Z</time></trkpt><trkpt lat="45.6552" lon="10.1976977"><ele>265.75</ele><time>2026-04-16T05:31:09.198Z</time></trkpt><trkpt lat="45.6551821" lon="10.1975246"><ele>265.0</ele><time>2026-04-16T05:31:10.199Z</time></trkpt><trkpt lat="45.6551594" lon="10.1973524"><ele>265.2</ele><time>2026-04-16T05:31:11.199Z</time></trkpt><trkpt lat="45.6551303" lon="10.1971927"><ele>265.4</ele><time>2026-04-16T05:31:12.199Z</time></trkpt><trkpt lat="45.6551099" lon="10.1970476"><ele>265.6</ele><time>2026-04-16T05:31:13.199Z</time></trkpt><trkpt lat="45.6550845" lon="10.196891"><ele>265.8</ele><time>2026-04-16T05:31:14.198Z</time></trkpt><trkpt lat="45.655062" lon="10.1967401"><ele>266.0</ele><time>2026-04-16T05:31:15.199Z</time></trkpt><trkpt lat="45.6550441" lon="10.1966086"><ele>270.0</ele><time>2026-04-16T05:31:16.199Z</time></trkpt><trkpt lat="45.6550268" lon="10.1964973"><ele>274.0</ele><time>2026-04-16T05:31:17.198Z</time></trkpt><trkpt lat="45.6549833" lon="10.1963588"><ele>278.0</ele><time>2026-04-16T05:31:19.198Z</time></trkpt><trkpt lat="45.6549339" lon="10.196259"><ele>282.0</ele><time>2026-04-16T05:31:21.197Z</time></trkpt><trkpt lat="45.654875" lon="10.1961999"><ele>286.0</ele><time>2026-04-16T05:31:23.197Z</time></trkpt><trkpt lat="45.6548098" lon="10.1962181"><ele>290.0</ele><time>2026-04-16T05:31:27.197Z</time></trkpt><trkpt lat="45.6547377" lon="10.1963219"><ele>290.0</ele><time>2026-04-16T05:31:40.198Z</time></trkpt><trkpt lat="45.6546591" lon="10.196423"><ele>290.0</ele><time>2026-04-16T05:31:42.198Z</time></trkpt><trkpt lat="45.6545967" lon="10.1965164"><ele>290.0</ele><time>2026-04-16T05:31:44.198Z</time></trkpt><trkpt lat="45.6545146" lon="10.1966214"><ele>290.0</ele><time>2026-04-16T05:31:46.198Z</time></trkpt><trkpt lat="45.6544131" lon="10.1967306"><ele>290.0</ele><time>2026-04-16T05:31:48.198Z</time></trkpt><trkpt lat="45.6543564" lon="10.1967834"><ele>286.2</ele><time>2026-04-16T05:31:49.198Z</time></trkpt><trkpt lat="45.6542301" lon="10.1968535"><ele>282.4</ele><time>2026-04-16T05:31:51.198Z</time></trkpt><trkpt lat="45.6541593" lon="10.1968794"><ele>278.6</ele><time>2026-04-16T05:31:52.197Z</time></trkpt><trkpt lat="45.6540931" lon="10.1969393"><ele>274.8</ele><time>2026-04-16T05:31:53.198Z</time></trkpt><trkpt lat="45.6540213" lon="10.1970026"><ele>271.0</ele><time>2026-04-16T05:31:54.198Z</time></trkpt><trkpt lat="45.6539442" lon="10.1970481"><ele>271.0</ele><time>2026-04-16T05:31:55.197Z</time></trkpt><trkpt lat="45.6538547" lon="10.1970847"><ele>271.0</ele><time>2026-04-16T05:31:56.198Z</time></trkpt><trkpt lat="45.6537623" lon="10.1971057"><ele>271.0</ele><time>2026-04-16T05:31:57.197Z</time></trkpt><trkpt lat="45.6536792" lon="10.1971221"><ele>271.0</ele><time>2026-04-16T05:31:58.197Z</time></trkpt><trkpt lat="45.6535845" lon="10.1971257"><ele>271.0</ele><time>2026-04-16T05:31:59.197Z</time></trkpt><trkpt lat="45.653497" lon="10.1971289"><ele>269.8333333333333</ele><time>2026-04-16T05:32:00.198Z</time></trkpt><trkpt lat="45.6534088" lon="10.1971399"><ele>268.66666666666663</ele><time>2026-04-16T05:32:01.198Z</time></trkpt><trkpt lat="45.6533197" lon="10.1971533"><ele>267.5</ele><time>2026-04-16T05:32:02.197Z</time></trkpt><trkpt lat="45.6532467" lon="10.1971513"><ele>266.3333333333333</ele><time>2026-04-16T05:32:03.197Z</time></trkpt><trkpt lat="45.6531451" lon="10.197185"><ele>265.1666666666667</ele><time>2026-04-16T05:32:05.198Z</time></trkpt><trkpt lat="45.653119" lon="10.1972847"><ele>264.0</ele><time>2026-04-16T05:32:08.197Z</time></trkpt><trkpt lat="45.6530921" lon="10.1973872"><ele>264.0</ele><time>2026-04-16T05:32:11.198Z</time></trkpt><trkpt lat="45.6530422" lon="10.1974712"><ele>264.0</ele><time>2026-04-16T05:33:24.198Z</time></trkpt><trkpt lat="45.6530885" lon="10.1975374"><ele>264.0</ele><time>2026-04-16T05:33:35.198Z</time></trkpt><trkpt lat="45.6530896" lon="10.1976837"><ele>264.0</ele><time>2026-04-16T05:33:37.198Z</time></trkpt><trkpt lat="45.6530519" lon="10.1978002"><ele>264.0</ele><time>2026-04-16T05:33:39.198Z</time></trkpt><trkpt lat="45.6529912" lon="10.1978472"><ele>264.0</ele><time>2026-04-16T05:33:40.198Z</time></trkpt><trkpt lat="45.6529242" lon="10.1978823"><ele>264.0</ele><time>2026-04-16T05:33:41.197Z</time></trkpt><trkpt lat="45.6528429" lon="10.1979171"><ele>264.0</ele><time>2026-04-16T05:33:42.197Z</time></trkpt><trkpt lat="45.6527737" lon="10.1979665"><ele>268.0</ele><time>2026-04-16T05:33:43.198Z</time></trkpt><trkpt lat="45.6526958" lon="10.1980598"><ele>268.0</ele><time>2026-04-16T05:33:45.198Z</time></trkpt><trkpt lat="45.6526865" lon="10.198153"><ele>268.0</ele><time>2026-04-16T05:33:47.197Z</time></trkpt><trkpt lat="45.652633" lon="10.198203"><ele>263.0</ele><time>2026-04-16T05:34:11.197Z</time></trkpt></trkseg><trkseg><trkpt lat="45.6524619" lon="10.198178"><ele>263.83333333333337</ele><time>2026-04-16T14:58:28.195Z</time></trkpt><trkpt lat="45.6525106" lon="10.1980465"><ele>264.6666666666667</ele><time>2026-04-16T14:58:35.722Z</time></trkpt><trkpt lat="45.6525716" lon="10.1979908"><ele>265.5</ele><time>2026-04-16T14:58:40.782Z</time></trkpt><trkpt lat="45.6525017" lon="10.1980897"><ele>266.3333333333333</ele><time>2026-04-16T14:58:48.076Z</time></trkpt><trkpt lat="45.6525453" lon="10.1980043"><ele>267.16666666666663</ele><time>2026-04-16T14:59:31.232Z</time></trkpt><trkpt lat="45.6525699" lon="10.1979204"><ele>268.0</ele><time>2026-04-16T14:59:34.109Z</time></trkpt><trkpt lat="45.6526356" lon="10.1978952"><ele>268.0</ele><time>2026-04-16T14:59:38.928Z</time></trkpt><trkpt lat="45.6526006" lon="10.1978115"><ele>268.0</ele><time>2026-04-16T14:59:48.577Z</time></trkpt><trkpt lat="45.652607" lon="10.1979054"><ele>268.0</ele><time>2026-04-16T15:00:19.166Z</time></trkpt><trkpt lat="45.6526037" lon="10.1980037"><ele>268.0</ele><time>2026-04-16T15:00:21.938Z</time></trkpt><trkpt lat="45.6525628" lon="10.1980854"><ele>268.0</ele><time>2026-04-16T15:00:25.861Z</time></trkpt><trkpt lat="45.6526162" lon="10.1981893"><ele>268.0</ele><time>2026-04-16T15:02:04.194Z</time></trkpt><trkpt lat="45.6526304" lon="10.1980807"><ele>268.0</ele><time>2026-04-16T15:02:10.194Z</time></trkpt><trkpt lat="45.6527134" lon="10.1979765"><ele>267.3333333333333</ele><time>2026-04-16T15:02:12.194Z</time></trkpt><trkpt lat="45.6527897" lon="10.1979246"><ele>266.66666666666663</ele><time>2026-04-16T15:02:13.193Z</time></trkpt><trkpt lat="45.6528787" lon="10.1978918"><ele>266.0</ele><time>2026-04-16T15:02:14.193Z</time></trkpt><trkpt lat="45.6529654" lon="10.1978635"><ele>265.3333333333333</ele><time>2026-04-16T15:02:15.194Z</time></trkpt><trkpt lat="45.6530308" lon="10.1978075"><ele>264.6666666666667</ele><time>2026-04-16T15:02:16.193Z</time></trkpt><trkpt lat="45.6530791" lon="10.1977346"><ele>264.0</ele><time>2026-04-16T15:02:17.193Z</time></trkpt><trkpt lat="45.6531044" lon="10.1976486"><ele>264.0</ele><time>2026-04-16T15:02:18.192Z</time></trkpt><trkpt lat="45.6531056" lon="10.1974791"><ele>264.0</ele><time>2026-04-16T15:02:20.192Z</time></trkpt><trkpt lat="45.6530886" lon="10.1973894"><ele>264.0</ele><time>2026-04-16T15:02:21.192Z</time></trkpt><trkpt lat="45.6530711" lon="10.1972609"><ele>264.0</ele><time>2026-04-16T15:02:23.193Z</time></trkpt><trkpt lat="45.6531399" lon="10.1971571"><ele>264.0</ele><time>2026-04-16T15:02:26.192Z</time></trkpt><trkpt lat="45.6532419" lon="10.1971376"><ele>266.3333333333333</ele><time>2026-04-16T15:02:27.193Z</time></trkpt><trkpt lat="45.6533968" lon="10.1971232"><ele>268.66666666666663</ele><time>2026-04-16T15:02:28.192Z</time></trkpt><trkpt lat="45.6535777" lon="10.197127"><ele>271.0</ele><time>2026-04-16T15:02:29.192Z</time></trkpt><trkpt lat="45.6537064" lon="10.1971133"><ele>271.0</ele><time>2026-04-16T15:02:30.192Z</time></trkpt><trkpt lat="45.6538188" lon="10.1970885"><ele>271.0</ele><time>2026-04-16T15:02:31.193Z</time></trkpt><trkpt lat="45.6539323" lon="10.1970209"><ele>271.0</ele><time>2026-04-16T15:02:32.193Z</time></trkpt><trkpt lat="45.6540635" lon="10.1969207"><ele>271.0</ele><time>2026-04-16T15:02:33.193Z</time></trkpt><trkpt lat="45.6542137" lon="10.1968267"><ele>271.0</ele><time>2026-04-16T15:02:34.193Z</time></trkpt><trkpt lat="45.6543419" lon="10.1967706"><ele>271.0</ele><time>2026-04-16T15:02:35.193Z</time></trkpt><trkpt lat="45.6544333" lon="10.1967028"><ele>271.0</ele><time>2026-04-16T15:02:36.193Z</time></trkpt><trkpt lat="45.6545028" lon="10.1966026"><ele>271.0</ele><time>2026-04-16T15:02:37.192Z</time></trkpt><trkpt lat="45.6545903" lon="10.1964856"><ele>274.8</ele><time>2026-04-16T15:02:38.193Z</time></trkpt><trkpt lat="45.6546889" lon="10.1963779"><ele>278.6</ele><time>2026-04-16T15:02:39.192Z</time></trkpt><trkpt lat="45.6547704" lon="10.1962907"><ele>282.4</ele><time>2026-04-16T15:02:40.193Z</time></trkpt><trkpt lat="45.6548258" lon="10.1962397"><ele>286.2</ele><time>2026-04-16T15:02:41.192Z</time></trkpt><trkpt lat="45.654909" lon="10.196253"><ele>290.0</ele><time>2026-04-16T15:02:43.193Z</time></trkpt><trkpt lat="45.6549708" lon="10.1963533"><ele>282.0</ele><time>2026-04-16T15:02:44.192Z</time></trkpt><trkpt lat="45.6550216" lon="10.1965097"><ele>274.0</ele><time>2026-04-16T15:02:45.192Z</time></trkpt><trkpt lat="45.6550612" lon="10.1967582"><ele>266.0</ele><time>2026-04-16T15:02:46.193Z</time></trkpt><trkpt lat="45.6550948" lon="10.1970452"><ele>265.6666666666667</ele><time>2026-04-16T15:02:47.192Z</time></trkpt><trkpt lat="45.6551293" lon="10.1973371"><ele>265.3333333333333</ele><time>2026-04-16T15:02:48.192Z</time></trkpt><trkpt lat="45.6551515" lon="10.1976081"><ele>265.0</ele><time>2026-04-16T15:02:49.193Z</time></trkpt><trkpt lat="45.6551838" lon="10.197857"><ele>265.0</ele><time>2026-04-16T15:02:50.192Z</time></trkpt><trkpt lat="45.655222" lon="10.1980759"><ele>265.0</ele><time>2026-04-16T15:02:51.192Z</time></trkpt><trkpt lat="45.6552501" lon="10.1982775"><ele>265.0</ele><time>2026-04-16T15:02:52.193Z</time></trkpt><trkpt lat="45.6552754" lon="10.1984426"><ele>265.0</ele><time>2026-04-16T15:02:53.192Z</time></trkpt><trkpt lat="45.6552943" lon="10.1985872"><ele>265.3333333333333</ele><time>2026-04-16T15:02:54.193Z</time></trkpt><trkpt lat="45.6553073" lon="10.1987106"><ele>265.66666666666663</ele><time>2026-04-16T15:02:55.192Z</time></trkpt><trkpt lat="45.6553228" lon="10.1988208"><ele>266.0</ele><time>2026-04-16T15:02:56.193Z</time></trkpt><trkpt lat="45.6553238" lon="10.1989187"><ele>266.3333333333333</ele><time>2026-04-16T15:02:57.193Z</time></trkpt><trkpt lat="45.6553201" lon="10.1990094"><ele>266.6666666666667</ele><time>2026-04-16T15:02:58.193Z</time></trkpt><trkpt lat="45.6552872" lon="10.1991688"><ele>267.0</ele><time>2026-04-16T15:03:00.193Z</time></trkpt><trkpt lat="45.6552414" lon="10.1992637"><ele>267.0</ele><time>2026-04-16T15:03:02.193Z</time></trkpt><trkpt lat="45.6551556" lon="10.1993686"><ele>267.0</ele><time>2026-04-16T15:03:15.193Z</time></trkpt><trkpt lat="45.6550409" lon="10.1994129"><ele>267.0</ele><time>2026-04-16T15:03:16.193Z</time></trkpt><trkpt lat="45.6549348" lon="10.1994486"><ele>267.0</ele><time>2026-04-16T15:03:17.193Z</time></trkpt><trkpt lat="45.6548357" lon="10.1994784"><ele>267.0</ele><time>2026-04-16T15:03:18.193Z</time></trkpt><trkpt lat="45.6547425" lon="10.1995128"><ele>267.0</ele><time>2026-04-16T15:03:19.192Z</time></trkpt><trkpt lat="45.6546514" lon="10.1995507"><ele>267.0</ele><time>2026-04-16T15:03:20.193Z</time></trkpt><trkpt lat="45.6545627" lon="10.1995927"><ele>267.0</ele><time>2026-04-16T15:03:21.193Z</time></trkpt><trkpt lat="45.6544872" lon="10.1996321"><ele>267.0</ele><time>2026-04-16T15:03:22.192Z</time></trkpt><trkpt lat="45.6543958" lon="10.199688"><ele>267.0</ele><time>2026-04-16T15:03:24.192Z</time></trkpt><trkpt lat="45.6543279" lon="10.1997207"><ele>267.0</ele><time>2026-04-16T15:03:32.193Z</time></trkpt><trkpt lat="45.6542572" lon="10.1997656"><ele>266.8333333333333</ele><time>2026-04-16T15:03:35.193Z</time></trkpt><trkpt lat="45.6541929" lon="10.199799"><ele>266.6666666666667</ele><time>2026-04-16T15:03:38.193Z</time></trkpt><trkpt lat="45.6541327" lon="10.1998538"><ele>266.5</ele><time>2026-04-16T15:03:43.192Z</time></trkpt><trkpt lat="45.6540335" lon="10.1998536"><ele>266.33333333333337</ele><time>2026-04-16T15:03:45.192Z</time></trkpt><trkpt lat="45.653964" lon="10.1998707"><ele>266.1666666666667</ele><time>2026-04-16T15:03:46.192Z</time></trkpt><trkpt lat="45.6539091" lon="10.2000265"><ele>266.0</ele><time>2026-04-16T15:03:48.193Z</time></trkpt><trkpt lat="45.6539581" lon="10.2001872"><ele>266.40000000000003</ele><time>2026-04-16T15:03:50.192Z</time></trkpt><trkpt lat="45.6540154" lon="10.2002557"><ele>266.8</ele><time>2026-04-16T15:03:51.192Z</time></trkpt><trkpt lat="45.6541008" lon="10.2003118"><ele>267.20000000000005</ele><time>2026-04-16T15:03:52.192Z</time></trkpt><trkpt lat="45.6541905" lon="10.2003884"><ele>267.6</ele><time>2026-04-16T15:03:53.193Z</time></trkpt><trkpt lat="45.6542681" lon="10.2005279"><ele>268.0</ele><time>2026-04-16T15:03:54.193Z</time></trkpt><trkpt lat="45.6543298" lon="10.2007188"><ele>268.5</ele><time>2026-04-16T15:03:55.193Z</time></trkpt><trkpt lat="45.6543763" lon="10.2008959"><ele>269.0</ele><time>2026-04-16T15:03:56.192Z</time></trkpt><trkpt lat="45.6544227" lon="10.2010758"><ele>269.5</ele><time>2026-04-16T15:03:57.193Z</time></trkpt><trkpt lat="45.6544745" lon="10.2012445"><ele>270.0</ele><time>2026-04-16T15:03:58.192Z</time></trkpt><trkpt lat="45.6545405" lon="10.2014169"><ele>271.0</ele><time>2026-04-16T15:03:59.193Z</time></trkpt><trkpt lat="45.6546061" lon="10.2015889"><ele>272.0</ele><time>2026-04-16T15:04:00.193Z</time></trkpt><trkpt lat="45.6546568" lon="10.2017418"><ele>273.0</ele><time>2026-04-16T15:04:01.193Z</time></trkpt><trkpt lat="45.6547019" lon="10.2018844"><ele>274.0</ele><time>2026-04-16T15:04:02.193Z</time></trkpt><trkpt lat="45.6547498" lon="10.2020199"><ele>274.0</ele><time>2026-04-16T15:04:03.192Z</time></trkpt><trkpt lat="45.6547956" lon="10.2021381"><ele>274.0</ele><time>2026-04-16T15:04:04.192Z</time></trkpt><trkpt lat="45.6548345" lon="10.20224"><ele>274.0</ele><time>2026-04-16T15:04:05.193Z</time></trkpt><trkpt lat="45.6548607" lon="10.2023302"><ele>274.0</ele><time>2026-04-16T15:04:06.193Z</time></trkpt><trkpt lat="45.654908" lon="10.2024825"><ele>274.0</ele><time>2026-04-16T15:04:08.192Z</time></trkpt><trkpt lat="45.654959" lon="10.2026025"><ele>274.8</ele><time>2026-04-16T15:04:10.193Z</time></trkpt><trkpt lat="45.6549998" lon="10.2026867"><ele>275.59999999999997</ele><time>2026-04-16T15:04:11.192Z</time></trkpt><trkpt lat="45.6550443" lon="10.2027958"><ele>276.4</ele><time>2026-04-16T15:04:12.192Z</time></trkpt><trkpt lat="45.6550843" lon="10.2029044"><ele>277.2</ele><time>2026-04-16T15:04:13.193Z</time></trkpt><trkpt lat="45.6551243" lon="10.2030336"><ele>278.0</ele><time>2026-04-16T15:04:14.193Z</time></trkpt><trkpt lat="45.6551752" lon="10.2031713"><ele>279.5</ele><time>2026-04-16T15:04:15.193Z</time></trkpt><trkpt lat="45.6552377" lon="10.2033201"><ele>281.0</ele><time>2026-04-16T15:04:16.193Z</time></trkpt><trkpt lat="45.6552808" lon="10.203473"><ele>282.5</ele><time>2026-04-16T15:04:17.193Z</time></trkpt><trkpt lat="45.6553041" lon="10.2036331"><ele>284.0</ele><time>2026-04-16T15:04:18.193Z</time></trkpt><trkpt lat="45.6553173" lon="10.2038008"><ele>288.5</ele><time>2026-04-16T15:04:19.192Z</time></trkpt><trkpt lat="45.6553393" lon="10.2039823"><ele>293.0</ele><time>2026-04-16T15:04:20.192Z</time></trkpt><trkpt lat="45.655364" lon="10.2041784"><ele>297.5</ele><time>2026-04-16T15:04:21.193Z</time></trkpt><trkpt lat="45.6553873" lon="10.2043756"><ele>302.0</ele><time>2026-04-16T15:04:22.193Z</time></trkpt><trkpt lat="45.6554418" lon="10.2045969"><ele>302.0</ele><time>2026-04-16T15:04:23.192Z</time></trkpt><trkpt lat="45.6555334" lon="10.2048189"><ele>302.0</ele><time>2026-04-16T15:04:24.193Z</time></trkpt><trkpt lat="45.6556393" lon="10.2050611"><ele>302.0</ele><time>2026-04-16T15:04:25.193Z</time></trkpt><trkpt lat="45.6557423" lon="10.2053199"><ele>300.0</ele><time>2026-04-16T15:04:26.192Z</time></trkpt><trkpt lat="45.6558401" lon="10.2055597"><ele>298.0</ele><time>2026-04-16T15:04:27.192Z</time></trkpt><trkpt lat="45.6559413" lon="10.2057735"><ele>296.0</ele><time>2026-04-16T15:04:28.193Z</time></trkpt><trkpt lat="45.6560454" lon="10.2059281"><ele>298.6666666666667</ele><time>2026-04-16T15:04:29.193Z</time></trkpt><trkpt lat="45.6561529" lon="10.2060634"><ele>301.3333333333333</ele><time>2026-04-16T15:04:30.193Z</time></trkpt><trkpt lat="45.6562797" lon="10.2061947"><ele>304.0</ele><time>2026-04-16T15:04:31.192Z</time></trkpt><trkpt lat="45.6564178" lon="10.2063112"><ele>304.0</ele><time>2026-04-16T15:04:32.193Z</time></trkpt><trkpt lat="45.6565598" lon="10.2064145"><ele>304.0</ele><time>2026-04-16T15:04:33.192Z</time></trkpt><trkpt lat="45.656704" lon="10.2065196"><ele>304.0</ele><time>2026-04-16T15:04:34.193Z</time></trkpt><trkpt lat="45.656854" lon="10.2066376"><ele>306.3333333333333</ele><time>2026-04-16T15:04:35.192Z</time></trkpt><trkpt lat="45.6570014" lon="10.2067725"><ele>308.6666666666667</ele><time>2026-04-16T15:04:36.193Z</time></trkpt><trkpt lat="45.657158" lon="10.2069415"><ele>311.0</ele><time>2026-04-16T15:04:37.192Z</time></trkpt><trkpt lat="45.6573043" lon="10.2071231"><ele>311.0</ele><time>2026-04-16T15:04:38.193Z</time></trkpt><trkpt lat="45.6574262" lon="10.2072734"><ele>311.0</ele><time>2026-04-16T15:04:39.193Z</time></trkpt><trkpt lat="45.6575334" lon="10.2074166"><ele>311.0</ele><time>2026-04-16T15:04:40.193Z</time></trkpt><trkpt lat="45.6576295" lon="10.2075498"><ele>311.0</ele><time>2026-04-16T15:04:41.192Z</time></trkpt><trkpt lat="45.6577217" lon="10.2077025"><ele>312.0</ele><time>2026-04-16T15:04:42.193Z</time></trkpt><trkpt lat="45.6578093" lon="10.2078842"><ele>313.0</ele><time>2026-04-16T15:04:43.192Z</time></trkpt><trkpt lat="45.65788" lon="10.2080877"><ele>314.0</ele><time>2026-04-16T15:04:44.192Z</time></trkpt><trkpt lat="45.6579486" lon="10.2082957"><ele>314.0</ele><time>2026-04-16T15:04:45.192Z</time></trkpt><trkpt lat="45.6580169" lon="10.2084859"><ele>314.0</ele><time>2026-04-16T15:04:46.193Z</time></trkpt><trkpt lat="45.6580984" lon="10.2086608"><ele>314.0</ele><time>2026-04-16T15:04:47.192Z</time></trkpt><trkpt lat="45.6581842" lon="10.2088287"><ele>314.0</ele><time>2026-04-16T15:04:48.192Z</time></trkpt><trkpt lat="45.6582654" lon="10.2089648"><ele>313.4</ele><time>2026-04-16T15:04:49.193Z</time></trkpt><trkpt lat="45.6583427" lon="10.2090654"><ele>312.79999999999995</ele><time>2026-04-16T15:04:50.193Z</time></trkpt><trkpt lat="45.6584047" lon="10.209154"><ele>312.20000000000005</ele><time>2026-04-16T15:04:51.192Z</time></trkpt><trkpt lat="45.6584645" lon="10.2092286"><ele>311.6</ele><time>2026-04-16T15:04:52.192Z</time></trkpt><trkpt lat="45.6585391" lon="10.2093072"><ele>311.0</ele><time>2026-04-16T15:04:53.193Z</time></trkpt><trkpt lat="45.6586233" lon="10.2093985"><ele>314.5</ele><time>2026-04-16T15:04:54.193Z</time></trkpt><trkpt lat="45.6587162" lon="10.2094972"><ele>318.0</ele><time>2026-04-16T15:04:55.193Z</time></trkpt><trkpt lat="45.6588098" lon="10.2095849"><ele>321.5</ele><time>2026-04-16T15:04:56.192Z</time></trkpt><trkpt lat="45.6589105" lon="10.2096531"><ele>325.0</ele><time>2026-04-16T15:04:57.192Z</time></trkpt><trkpt lat="45.6590136" lon="10.2097439"><ele>323.0</ele><time>2026-04-16T15:04:58.193Z</time></trkpt><trkpt lat="45.6591075" lon="10.209845"><ele>321.0</ele><time>2026-04-16T15:04:59.193Z</time></trkpt><trkpt lat="45.6591864" lon="10.2099504"><ele>319.0</ele><time>2026-04-16T15:05:00.193Z</time></trkpt><trkpt lat="45.6592561" lon="10.2100672"><ele>317.0</ele><time>2026-04-16T15:05:01.192Z</time></trkpt><trkpt lat="45.6593247" lon="10.2101905"><ele>315.0</ele><time>2026-04-16T15:05:02.193Z</time></trkpt><trkpt lat="45.6593928" lon="10.2103195"><ele>316.75</ele><time>2026-04-16T15:05:03.193Z</time></trkpt><trkpt lat="45.6594709" lon="10.2104547"><ele>318.5</ele><time>2026-04-16T15:05:04.193Z</time></trkpt><trkpt lat="45.6595559" lon="10.2105999"><ele>320.25</ele><time>2026-04-16T15:05:05.193Z</time></trkpt><trkpt lat="45.6596483" lon="10.2107671"><ele>322.0</ele><time>2026-04-16T15:05:06.192Z</time></trkpt><trkpt lat="45.6597409" lon="10.2109345"><ele>322.0</ele><time>2026-04-16T15:05:07.193Z</time></trkpt><trkpt lat="45.659832" lon="10.2110895"><ele>322.0</ele><time>2026-04-16T15:05:08.193Z</time></trkpt><trkpt lat="45.6599225" lon="10.2112454"><ele>322.0</ele><time>2026-04-16T15:05:09.192Z</time></trkpt><trkpt lat="45.6600082" lon="10.2114011"><ele>322.0</ele><time>2026-04-16T15:05:10.193Z</time></trkpt><trkpt lat="45.660084" lon="10.2115771"><ele>323.3333333333333</ele><time>2026-04-16T15:05:11.193Z</time></trkpt><trkpt lat="45.6601523" lon="10.2117819"><ele>324.6666666666667</ele><time>2026-04-16T15:05:12.192Z</time></trkpt><trkpt lat="45.6602115" lon="10.2119941"><ele>326.0</ele><time>2026-04-16T15:05:13.193Z</time></trkpt><trkpt lat="45.6602644" lon="10.2122149"><ele>328.33333333333337</ele><time>2026-04-16T15:05:14.193Z</time></trkpt><trkpt lat="45.6603195" lon="10.212438"><ele>330.6666666666667</ele><time>2026-04-16T15:05:15.192Z</time></trkpt><trkpt lat="45.6603696" lon="10.2126491"><ele>333.0</ele><time>2026-04-16T15:05:16.193Z</time></trkpt><trkpt lat="45.660413" lon="10.2128486"><ele>333.0</ele><time>2026-04-16T15:05:17.191Z</time></trkpt><trkpt lat="45.6604532" lon="10.2130075"><ele>333.0</ele><time>2026-04-16T15:05:18.192Z</time></trkpt><trkpt lat="45.6604956" lon="10.2131603"><ele>333.0</ele><time>2026-04-16T15:05:19.191Z</time></trkpt><trkpt lat="45.6605344" lon="10.2133006"><ele>333.0</ele><time>2026-04-16T15:05:20.192Z</time></trkpt><trkpt lat="45.6605607" lon="10.2134109"><ele>333.0</ele><time>2026-04-16T15:05:21.192Z</time></trkpt><trkpt lat="45.6605863" lon="10.213497"><ele>332.8333333333333</ele><time>2026-04-16T15:05:22.192Z</time></trkpt><trkpt lat="45.6606297" lon="10.2136317"><ele>332.6666666666667</ele><time>2026-04-16T15:05:24.191Z</time></trkpt><trkpt lat="45.6607151" lon="10.2137381"><ele>332.5</ele><time>2026-04-16T15:05:26.191Z</time></trkpt><trkpt lat="45.6607615" lon="10.2138145"><ele>332.33333333333337</ele><time>2026-04-16T15:05:27.192Z</time></trkpt><trkpt lat="45.660808" lon="10.2139041"><ele>332.1666666666667</ele><time>2026-04-16T15:05:28.191Z</time></trkpt><trkpt lat="45.6608545" lon="10.2139988"><ele>332.0</ele><time>2026-04-16T15:05:29.192Z</time></trkpt><trkpt lat="45.6609052" lon="10.214086"><ele>332.0</ele><time>2026-04-16T15:05:30.191Z</time></trkpt><trkpt lat="45.6609657" lon="10.214193"><ele>332.0</ele><time>2026-04-16T15:05:31.191Z</time></trkpt><trkpt lat="45.6610393" lon="10.2143213"><ele>332.0</ele><time>2026-04-16T15:05:32.192Z</time></trkpt><trkpt lat="45.6611172" lon="10.2144707"><ele>332.0</ele><time>2026-04-16T15:05:33.191Z</time></trkpt><trkpt lat="45.6611999" lon="10.2146358"><ele>337.0</ele><time>2026-04-16T15:05:34.192Z</time></trkpt><trkpt lat="45.6612962" lon="10.2148127"><ele>342.0</ele><time>2026-04-16T15:05:35.192Z</time></trkpt><trkpt lat="45.6613999" lon="10.2149901"><ele>347.0</ele><time>2026-04-16T15:05:36.192Z</time></trkpt><trkpt lat="45.6614949" lon="10.2151719"><ele>347.0</ele><time>2026-04-16T15:05:37.192Z</time></trkpt><trkpt lat="45.6615814" lon="10.2153312"><ele>347.0</ele><time>2026-04-16T15:05:38.191Z</time></trkpt><trkpt lat="45.661665" lon="10.2154608"><ele>347.0</ele><time>2026-04-16T15:05:39.191Z</time></trkpt><trkpt lat="45.6617496" lon="10.2155762"><ele>347.0</ele><time>2026-04-16T15:05:40.191Z</time></trkpt><trkpt lat="45.6618505" lon="10.2157312"><ele>351.0</ele><time>2026-04-16T15:05:41.192Z</time></trkpt><trkpt lat="45.6619492" lon="10.2159058"><ele>355.0</ele><time>2026-04-16T15:05:42.191Z</time></trkpt><trkpt lat="45.6620484" lon="10.2161159"><ele>359.0</ele><time>2026-04-16T15:05:43.191Z</time></trkpt><trkpt lat="45.6621243" lon="10.2163377"><ele>357.5</ele><time>2026-04-16T15:05:44.192Z</time></trkpt><trkpt lat="45.6621778" lon="10.216531"><ele>356.0</ele><time>2026-04-16T15:05:45.191Z</time></trkpt><trkpt lat="45.6622434" lon="10.2166799"><ele>354.5</ele><time>2026-04-16T15:05:46.192Z</time></trkpt><trkpt lat="45.6623104" lon="10.2168013"><ele>353.0</ele><time>2026-04-16T15:05:47.191Z</time></trkpt><trkpt lat="45.6623887" lon="10.2169143"><ele>353.0</ele><time>2026-04-16T15:05:48.191Z</time></trkpt><trkpt lat="45.6625115" lon="10.2170214"><ele>353.0</ele><time>2026-04-16T15:05:49.191Z</time></trkpt><trkpt lat="45.662656" lon="10.2171033"><ele>353.0</ele><time>2026-04-16T15:05:50.191Z</time></trkpt><trkpt lat="45.6628131" lon="10.217204"><ele>357.33333333333337</ele><time>2026-04-16T15:05:51.192Z</time></trkpt><trkpt lat="45.6629658" lon="10.2173304"><ele>361.6666666666667</ele><time>2026-04-16T15:05:52.191Z</time></trkpt><trkpt lat="45.6631145" lon="10.2174873"><ele>366.0</ele><time>2026-04-16T15:05:53.192Z</time></trkpt><trkpt lat="45.6632679" lon="10.2176328"><ele>366.0</ele><time>2026-04-16T15:05:54.191Z</time></trkpt><trkpt lat="45.6633927" lon="10.2177732"><ele>366.0</ele><time>2026-04-16T15:05:55.191Z</time></trkpt><trkpt lat="45.6634981" lon="10.2178909"><ele>366.0</ele><time>2026-04-16T15:05:56.192Z</time></trkpt><trkpt lat="45.6635935" lon="10.2179906"><ele>366.0</ele><time>2026-04-16T15:05:57.192Z</time></trkpt><trkpt lat="45.663697" lon="10.2181063"><ele>369.0</ele><time>2026-04-16T15:05:58.191Z</time></trkpt><trkpt lat="45.6638319" lon="10.2182425"><ele>372.0</ele><time>2026-04-16T15:05:59.191Z</time></trkpt><trkpt lat="45.663974" lon="10.2183933"><ele>375.0</ele><time>2026-04-16T15:06:00.192Z</time></trkpt><trkpt lat="45.664124" lon="10.2185414"><ele>375.0</ele><time>2026-04-16T15:06:01.192Z</time></trkpt><trkpt lat="45.6642758" lon="10.2187082"><ele>375.0</ele><time>2026-04-16T15:06:02.191Z</time></trkpt><trkpt lat="45.6644163" lon="10.2188693"><ele>375.0</ele><time>2026-04-16T15:06:03.192Z</time></trkpt><trkpt lat="45.6645296" lon="10.2190121"><ele>376.6</ele><time>2026-04-16T15:06:04.192Z</time></trkpt><trkpt lat="45.6646229" lon="10.2191309"><ele>378.2</ele><time>2026-04-16T15:06:05.191Z</time></trkpt><trkpt lat="45.6646989" lon="10.2192463"><ele>379.79999999999995</ele><time>2026-04-16T15:06:06.191Z</time></trkpt><trkpt lat="45.6647548" lon="10.2193733"><ele>381.4</ele><time>2026-04-16T15:06:07.191Z</time></trkpt><trkpt lat="45.6647918" lon="10.2194884"><ele>383.0</ele><time>2026-04-16T15:06:08.192Z</time></trkpt><trkpt lat="45.6648204" lon="10.2196042"><ele>383.0</ele><time>2026-04-16T15:06:09.191Z</time></trkpt><trkpt lat="45.6648476" lon="10.2197214"><ele>383.0</ele><time>2026-04-16T15:06:10.192Z</time></trkpt><trkpt lat="45.6648599" lon="10.2198333"><ele>383.0</ele><time>2026-04-16T15:06:11.192Z</time></trkpt><trkpt lat="45.6648306" lon="10.2199146"><ele>383.0</ele><time>2026-04-16T15:06:12.191Z</time></trkpt><trkpt lat="45.6647449" lon="10.2199861"><ele>383.0</ele><time>2026-04-16T15:06:13.191Z</time></trkpt><trkpt lat="45.6646478" lon="10.2200391"><ele>383.0</ele><time>2026-04-16T15:06:14.192Z</time></trkpt><trkpt lat="45.6645099" lon="10.2201007"><ele>381.6666666666667</ele><time>2026-04-16T15:06:15.191Z</time></trkpt><trkpt lat="45.6643605" lon="10.2201911"><ele>380.3333333333333</ele><time>2026-04-16T15:06:16.192Z</time></trkpt><trkpt lat="45.6642232" lon="10.2202887"><ele>379.0</ele><time>2026-04-16T15:06:17.192Z</time></trkpt><trkpt lat="45.6641023" lon="10.2203741"><ele>379.0</ele><time>2026-04-16T15:06:18.192Z</time></trkpt><trkpt lat="45.6639734" lon="10.2204788"><ele>379.0</ele><time>2026-04-16T15:06:19.192Z</time></trkpt><trkpt lat="45.6638325" lon="10.2205916"><ele>379.0</ele><time>2026-04-16T15:06:20.192Z</time></trkpt><trkpt lat="45.6636761" lon="10.2207246"><ele>381.3333333333333</ele><time>2026-04-16T15:06:21.192Z</time></trkpt><trkpt lat="45.6635112" lon="10.2208889"><ele>383.66666666666663</ele><time>2026-04-16T15:06:22.192Z</time></trkpt><trkpt lat="45.6633403" lon="10.2210468"><ele>386.0</ele><time>2026-04-16T15:06:23.191Z</time></trkpt><trkpt lat="45.6631705" lon="10.2211678"><ele>386.0</ele><time>2026-04-16T15:06:24.192Z</time></trkpt><trkpt lat="45.66299" lon="10.2212526"><ele>386.0</ele><time>2026-04-16T15:06:25.192Z</time></trkpt><trkpt lat="45.6628052" lon="10.2212892"><ele>386.0</ele><time>2026-04-16T15:06:26.191Z</time></trkpt><trkpt lat="45.6626253" lon="10.2213216"><ele>386.5</ele><time>2026-04-16T15:06:27.191Z</time></trkpt><trkpt lat="45.6624579" lon="10.2213583"><ele>387.0</ele><time>2026-04-16T15:06:28.192Z</time></trkpt><trkpt lat="45.6623323" lon="10.2214278"><ele>387.5</ele><time>2026-04-16T15:06:29.192Z</time></trkpt><trkpt lat="45.6622313" lon="10.2215252"><ele>388.0</ele><time>2026-04-16T15:06:30.192Z</time></trkpt><trkpt lat="45.6621487" lon="10.2216723"><ele>392.33333333333337</ele><time>2026-04-16T15:06:31.192Z</time></trkpt><trkpt lat="45.6620688" lon="10.2218654"><ele>396.66666666666663</ele><time>2026-04-16T15:06:32.192Z</time></trkpt><trkpt lat="45.6619858" lon="10.2220667"><ele>401.0</ele><time>2026-04-16T15:06:33.192Z</time></trkpt><trkpt lat="45.6618785" lon="10.2222442"><ele>404.3333333333333</ele><time>2026-04-16T15:06:34.192Z</time></trkpt><trkpt lat="45.6617486" lon="10.2224068"><ele>407.66666666666663</ele><time>2026-04-16T15:06:35.192Z</time></trkpt><trkpt lat="45.661599" lon="10.2225668"><ele>411.0</ele><time>2026-04-16T15:06:36.192Z</time></trkpt><trkpt lat="45.66146" lon="10.2227165"><ele>411.0</ele><time>2026-04-16T15:06:37.192Z</time></trkpt><trkpt lat="45.6613362" lon="10.2228569"><ele>411.0</ele><time>2026-04-16T15:06:38.191Z</time></trkpt><trkpt lat="45.6612354" lon="10.2229662"><ele>411.0</ele><time>2026-04-16T15:06:39.192Z</time></trkpt><trkpt lat="45.6611455" lon="10.2230612"><ele>411.0</ele><time>2026-04-16T15:06:40.192Z</time></trkpt><trkpt lat="45.6610669" lon="10.2231653"><ele>411.3333333333333</ele><time>2026-04-16T15:06:41.192Z</time></trkpt><trkpt lat="45.6609939" lon="10.2232484"><ele>411.66666666666663</ele><time>2026-04-16T15:06:42.192Z</time></trkpt><trkpt lat="45.6609313" lon="10.2233158"><ele>412.0</ele><time>2026-04-16T15:06:43.192Z</time></trkpt><trkpt lat="45.6608627" lon="10.2233555"><ele>412.3333333333333</ele><time>2026-04-16T15:06:44.192Z</time></trkpt><trkpt lat="45.6607792" lon="10.2233841"><ele>412.66666666666663</ele><time>2026-04-16T15:06:46.191Z</time></trkpt><trkpt lat="45.6606999" lon="10.2234278"><ele>413.0</ele><time>2026-04-16T15:06:49.192Z</time></trkpt><trkpt lat="45.6606755" lon="10.2235135"><ele>412.99999999999994</ele><time>2026-04-16T15:08:01.191Z</time></trkpt><trkpt lat="45.6606606" lon="10.2236606"><ele>413.0</ele><time>2026-04-16T15:08:03.191Z</time></trkpt><trkpt lat="45.6606599" lon="10.2237618"><ele>413.0</ele><time>2026-04-16T15:08:04.191Z</time></trkpt><trkpt lat="45.6606439" lon="10.2238559"><ele>413.0</ele><time>2026-04-16T15:08:05.191Z</time></trkpt><trkpt lat="45.6606073" lon="10.2239395"><ele>412.99999999999994</ele><time>2026-04-16T15:08:06.192Z</time></trkpt><trkpt lat="45.6605532" lon="10.22401"><ele>413.0</ele><time>2026-04-16T15:08:07.192Z</time></trkpt><trkpt lat="45.6605046" lon="10.2240745"><ele>412.99999999999994</ele><time>2026-04-16T15:08:08.192Z</time></trkpt><trkpt lat="45.6604555" lon="10.2241431"><ele>413.0</ele><time>2026-04-16T15:08:09.191Z</time></trkpt><trkpt lat="45.6603954" lon="10.2242145"><ele>413.0</ele><time>2026-04-16T15:08:10.192Z</time></trkpt><trkpt lat="45.6603203" lon="10.2242762"><ele>413.0</ele><time>2026-04-16T15:08:11.192Z</time></trkpt><trkpt lat="45.660241" lon="10.2243172"><ele>412.99999999999994</ele><time>2026-04-16T15:08:12.192Z</time></trkpt><trkpt lat="45.6601486" lon="10.2243404"><ele>413.0</ele><time>2026-04-16T15:08:13.192Z</time></trkpt><trkpt lat="45.6600521" lon="10.2243407"><ele>410.79999999999995</ele><time>2026-04-16T15:08:14.192Z</time></trkpt><trkpt lat="45.6599513" lon="10.224326"><ele>408.6</ele><time>2026-04-16T15:08:15.191Z</time></trkpt><trkpt lat="45.6598608" lon="10.2243287"><ele>406.4</ele><time>2026-04-16T15:08:16.191Z</time></trkpt><trkpt lat="45.659765" lon="10.2243258"><ele>404.20000000000005</ele><time>2026-04-16T15:08:17.192Z</time></trkpt><trkpt lat="45.6596684" lon="10.2243261"><ele>402.0</ele><time>2026-04-16T15:08:18.19Z</time></trkpt><trkpt lat="45.6595705" lon="10.2243399"><ele>402.0</ele><time>2026-04-16T15:08:19.19Z</time></trkpt><trkpt lat="45.6594786" lon="10.22437"><ele>402.0</ele><time>2026-04-16T15:08:20.191Z</time></trkpt><trkpt lat="45.6593882" lon="10.22441"><ele>402.0</ele><time>2026-04-16T15:08:21.19Z</time></trkpt><trkpt lat="45.6593071" lon="10.2244651"><ele>402.0</ele><time>2026-04-16T15:08:22.19Z</time></trkpt><trkpt lat="45.6592293" lon="10.2245591"><ele>402.0</ele><time>2026-04-16T15:08:23.19Z</time></trkpt><trkpt lat="45.6591307" lon="10.2246848"><ele>399.0</ele><time>2026-04-16T15:08:24.19Z</time></trkpt><trkpt lat="45.6590117" lon="10.2248347"><ele>396.0</ele><time>2026-04-16T15:08:25.191Z</time></trkpt><trkpt lat="45.6588905" lon="10.2250189"><ele>393.0</ele><time>2026-04-16T15:08:26.191Z</time></trkpt><trkpt lat="45.6587808" lon="10.2251977"><ele>393.0</ele><time>2026-04-16T15:08:27.19Z</time></trkpt><trkpt lat="45.6586964" lon="10.2253677"><ele>393.0</ele><time>2026-04-16T15:08:28.191Z</time></trkpt><trkpt lat="45.658627" lon="10.2255432"><ele>393.0</ele><time>2026-04-16T15:08:29.191Z</time></trkpt><trkpt lat="45.6585543" lon="10.2257245"><ele>393.0</ele><time>2026-04-16T15:08:30.19Z</time></trkpt><trkpt lat="45.6584736" lon="10.2259192"><ele>392.5</ele><time>2026-04-16T15:08:31.191Z</time></trkpt><trkpt lat="45.6584085" lon="10.2261054"><ele>392.0</ele><time>2026-04-16T15:08:32.191Z</time></trkpt><trkpt lat="45.6583528" lon="10.226274"><ele>391.5</ele><time>2026-04-16T15:08:33.191Z</time></trkpt><trkpt lat="45.6582993" lon="10.2264229"><ele>391.0</ele><time>2026-04-16T15:08:34.191Z</time></trkpt><trkpt lat="45.6582486" lon="10.2265692"><ele>391.0</ele><time>2026-04-16T15:08:35.191Z</time></trkpt><trkpt lat="45.6582115" lon="10.2267052"><ele>391.0</ele><time>2026-04-16T15:08:36.191Z</time></trkpt><trkpt lat="45.6582077" lon="10.226859"><ele>391.0</ele><time>2026-04-16T15:08:37.191Z</time></trkpt><trkpt lat="45.6582284" lon="10.2270427"><ele>391.0</ele><time>2026-04-16T15:08:38.191Z</time></trkpt><trkpt lat="45.6582659" lon="10.2272346"><ele>389.5</ele><time>2026-04-16T15:08:39.191Z</time></trkpt><trkpt lat="45.6583142" lon="10.2274369"><ele>388.0</ele><time>2026-04-16T15:08:40.191Z</time></trkpt><trkpt lat="45.6583663" lon="10.2276156"><ele>386.5</ele><time>2026-04-16T15:08:41.191Z</time></trkpt><trkpt lat="45.6583967" lon="10.2277756"><ele>385.0</ele><time>2026-04-16T15:08:42.19Z</time></trkpt><trkpt lat="45.6584079" lon="10.2279149"><ele>385.0</ele><time>2026-04-16T15:08:43.19Z</time></trkpt><trkpt lat="45.658395" lon="10.2280484"><ele>385.0</ele><time>2026-04-16T15:08:44.191Z</time></trkpt><trkpt lat="45.6583541" lon="10.2281628"><ele>385.0</ele><time>2026-04-16T15:08:45.191Z</time></trkpt><trkpt lat="45.6582827" lon="10.2282727"><ele>385.0</ele><time>2026-04-16T15:08:46.19Z</time></trkpt><trkpt lat="45.6581932" lon="10.228395"><ele>385.0</ele><time>2026-04-16T15:08:47.191Z</time></trkpt><trkpt lat="45.6580578" lon="10.2285389"><ele>386.6666666666667</ele><time>2026-04-16T15:08:48.191Z</time></trkpt><trkpt lat="45.6579193" lon="10.2287141"><ele>388.33333333333337</ele><time>2026-04-16T15:08:49.191Z</time></trkpt><trkpt lat="45.6578079" lon="10.2288906"><ele>390.0</ele><time>2026-04-16T15:08:50.191Z</time></trkpt><trkpt lat="45.6577096" lon="10.229004"><ele>391.6</ele><time>2026-04-16T15:08:51.19Z</time></trkpt><trkpt lat="45.6576167" lon="10.2290528"><ele>393.2</ele><time>2026-04-16T15:08:52.191Z</time></trkpt><trkpt lat="45.6575241" lon="10.2290414"><ele>394.79999999999995</ele><time>2026-04-16T15:08:53.191Z</time></trkpt><trkpt lat="45.6574266" lon="10.2290142"><ele>396.4</ele><time>2026-04-16T15:08:54.191Z</time></trkpt><trkpt lat="45.6573181" lon="10.2289499"><ele>398.0</ele><time>2026-04-16T15:08:55.19Z</time></trkpt><trkpt lat="45.6571975" lon="10.2288692"><ele>398.4</ele><time>2026-04-16T15:08:56.19Z</time></trkpt><trkpt lat="45.6570817" lon="10.2288183"><ele>398.79999999999995</ele><time>2026-04-16T15:08:57.19Z</time></trkpt><trkpt lat="45.6569982" lon="10.2288248"><ele>399.2</ele><time>2026-04-16T15:08:58.19Z</time></trkpt><trkpt lat="45.6569033" lon="10.2288669"><ele>399.6</ele><time>2026-04-16T15:08:59.19Z</time></trkpt><trkpt lat="45.6568339" lon="10.2289449"><ele>400.0</ele><time>2026-04-16T15:09:00.191Z</time></trkpt><trkpt lat="45.6567662" lon="10.2290211"><ele>400.0</ele><time>2026-04-16T15:09:01.19Z</time></trkpt><trkpt lat="45.6567261" lon="10.2291371"><ele>400.0</ele><time>2026-04-16T15:09:02.191Z</time></trkpt><trkpt lat="45.6567158" lon="10.2293071"><ele>400.0</ele><time>2026-04-16T15:09:03.191Z</time></trkpt><trkpt lat="45.6567319" lon="10.2295429"><ele>400.0</ele><time>2026-04-16T15:09:04.191Z</time></trkpt><trkpt lat="45.6567468" lon="10.2297471"><ele>400.4</ele><time>2026-04-16T15:09:05.191Z</time></trkpt><trkpt lat="45.6567544" lon="10.2299174"><ele>400.8</ele><time>2026-04-16T15:09:06.191Z</time></trkpt><trkpt lat="45.656754" lon="10.2300438"><ele>401.20000000000005</ele><time>2026-04-16T15:09:07.191Z</time></trkpt><trkpt lat="45.6567121" lon="10.2301816"><ele>401.6</ele><time>2026-04-16T15:09:09.19Z</time></trkpt><trkpt lat="45.6566662" lon="10.2302825"><ele>402.0</ele><time>2026-04-16T15:09:12.19Z</time></trkpt><trkpt lat="45.6566185" lon="10.2303675"><ele>402.0</ele><time>2026-04-16T15:09:33.19Z</time></trkpt><trkpt lat="45.6565992" lon="10.2304551"><ele>402.0</ele><time>2026-04-16T15:09:47.191Z</time></trkpt><trkpt lat="45.6565766" lon="10.2305434"><ele>402.0</ele><time>2026-04-16T15:10:20.19Z</time></trkpt><trkpt lat="45.6565923" lon="10.2306331"><ele>402.0</ele><time>2026-04-16T15:10:35.191Z</time></trkpt><trkpt lat="45.6566889" lon="10.2307063"><ele>402.0</ele><time>2026-04-16T15:10:37.191Z</time></trkpt><trkpt lat="45.6567941" lon="10.2307495"><ele>402.0</ele><time>2026-04-16T15:10:38.191Z</time></trkpt><trkpt lat="45.6569025" lon="10.2307814"><ele>402.5</ele><time>2026-04-16T15:10:39.19Z</time></trkpt><trkpt lat="45.6570109" lon="10.2308093"><ele>403.0</ele><time>2026-04-16T15:10:40.191Z</time></trkpt><trkpt lat="45.6571396" lon="10.2308654"><ele>403.5</ele><time>2026-04-16T15:10:41.19Z</time></trkpt><trkpt lat="45.6572727" lon="10.230917"><ele>404.0</ele><time>2026-04-16T15:10:42.191Z</time></trkpt><trkpt lat="45.6573776" lon="10.2309635"><ele>404.0</ele><time>2026-04-16T15:10:43.191Z</time></trkpt><trkpt lat="45.6574615" lon="10.2310165"><ele>404.0</ele><time>2026-04-16T15:10:44.191Z</time></trkpt><trkpt lat="45.6575334" lon="10.2310937"><ele>404.0</ele><time>2026-04-16T15:10:45.19Z</time></trkpt><trkpt lat="45.6575778" lon="10.2312101"><ele>404.0</ele><time>2026-04-16T15:10:46.19Z</time></trkpt><trkpt lat="45.657594" lon="10.2313456"><ele>404.0</ele><time>2026-04-16T15:10:47.19Z</time></trkpt><trkpt lat="45.6576025" lon="10.2315408"><ele>401.66666666666663</ele><time>2026-04-16T15:10:48.19Z</time></trkpt><trkpt lat="45.6576117" lon="10.2317644"><ele>399.33333333333337</ele><time>2026-04-16T15:10:49.191Z</time></trkpt><trkpt lat="45.6576186" lon="10.2320112"><ele>397.0</ele><time>2026-04-16T15:10:50.191Z</time></trkpt><trkpt lat="45.6576313" lon="10.2322682"><ele>398.6666666666667</ele><time>2026-04-16T15:10:51.191Z</time></trkpt><trkpt lat="45.657631" lon="10.2325273"><ele>400.33333333333337</ele><time>2026-04-16T15:10:52.19Z</time></trkpt><trkpt lat="45.6576311" lon="10.2327843"><ele>402.0</ele><time>2026-04-16T15:10:53.19Z</time></trkpt><trkpt lat="45.6576252" lon="10.2330341"><ele>403.0</ele><time>2026-04-16T15:10:54.191Z</time></trkpt><trkpt lat="45.6575918" lon="10.2333244"><ele>404.0</ele><time>2026-04-16T15:10:55.191Z</time></trkpt><trkpt lat="45.6575527" lon="10.2336372"><ele>405.0</ele><time>2026-04-16T15:10:56.19Z</time></trkpt><trkpt lat="45.6575143" lon="10.233891"><ele>407.0</ele><time>2026-04-16T15:10:57.19Z</time></trkpt><trkpt lat="45.6574653" lon="10.234106"><ele>409.0</ele><time>2026-04-16T15:10:58.191Z</time></trkpt><trkpt lat="45.6573831" lon="10.2342829"><ele>411.0</ele><time>2026-04-16T15:10:59.191Z</time></trkpt><trkpt lat="45.6572874" lon="10.2344416"><ele>411.0</ele><time>2026-04-16T15:11:00.191Z</time></trkpt><trkpt lat="45.6571845" lon="10.2346288"><ele>411.0</ele><time>2026-04-16T15:11:01.191Z</time></trkpt><trkpt lat="45.6570638" lon="10.2348634"><ele>411.0</ele><time>2026-04-16T15:11:02.191Z</time></trkpt><trkpt lat="45.6569359" lon="10.2351011"><ele>411.33333333333337</ele><time>2026-04-16T15:11:03.191Z</time></trkpt><trkpt lat="45.6567999" lon="10.2353348"><ele>411.6666666666667</ele><time>2026-04-16T15:11:04.19Z</time></trkpt><trkpt lat="45.6566889" lon="10.2355358"><ele>412.0</ele><time>2026-04-16T15:11:05.191Z</time></trkpt><trkpt lat="45.6565815" lon="10.2356954"><ele>413.0</ele><time>2026-04-16T15:11:06.19Z</time></trkpt><trkpt lat="45.6564705" lon="10.2358185"><ele>414.0</ele><time>2026-04-16T15:11:07.19Z</time></trkpt><trkpt lat="45.6563721" lon="10.2358924"><ele>415.0</ele><time>2026-04-16T15:11:08.191Z</time></trkpt><trkpt lat="45.6562723" lon="10.2359429"><ele>416.0</ele><time>2026-04-16T15:11:09.19Z</time></trkpt><trkpt lat="45.6561976" lon="10.2359396"><ele>417.0</ele><time>2026-04-16T15:11:10.19Z</time></trkpt><trkpt lat="45.6561241" lon="10.2359002"><ele>416.75</ele><time>2026-04-16T15:11:11.19Z</time></trkpt><trkpt lat="45.65604" lon="10.2357818"><ele>416.5</ele><time>2026-04-16T15:11:12.19Z</time></trkpt><trkpt lat="45.6559444" lon="10.2356298"><ele>416.25</ele><time>2026-04-16T15:11:13.19Z</time></trkpt><trkpt lat="45.6558544" lon="10.2354741"><ele>416.0</ele><time>2026-04-16T15:11:14.191Z</time></trkpt><trkpt lat="45.6557579" lon="10.2353243"><ele>414.5</ele><time>2026-04-16T15:11:15.19Z</time></trkpt><trkpt lat="45.6556685" lon="10.2352127"><ele>413.0</ele><time>2026-04-16T15:11:16.191Z</time></trkpt><trkpt lat="45.6555671" lon="10.2351193"><ele>411.5</ele><time>2026-04-16T15:11:17.19Z</time></trkpt><trkpt lat="45.6554534" lon="10.2350797"><ele>410.0</ele><time>2026-04-16T15:11:18.19Z</time></trkpt><trkpt lat="45.6553236" lon="10.2350443"><ele>408.5</ele><time>2026-04-16T15:11:19.189Z</time></trkpt><trkpt lat="45.6551904" lon="10.2350305"><ele>407.0</ele><time>2026-04-16T15:11:20.19Z</time></trkpt><trkpt lat="45.6550601" lon="10.2350369"><ele>405.5</ele><time>2026-04-16T15:11:21.189Z</time></trkpt><trkpt lat="45.6549356" lon="10.2350346"><ele>404.0</ele><time>2026-04-16T15:11:22.189Z</time></trkpt><trkpt lat="45.6548115" lon="10.2350353"><ele>404.0</ele><time>2026-04-16T15:11:23.189Z</time></trkpt><trkpt lat="45.6546933" lon="10.2350284"><ele>404.0</ele><time>2026-04-16T15:11:24.19Z</time></trkpt><trkpt lat="45.6545888" lon="10.2350142"><ele>404.0</ele><time>2026-04-16T15:11:25.19Z</time></trkpt><trkpt lat="45.6545085" lon="10.2350067"><ele>404.0</ele><time>2026-04-16T15:11:26.189Z</time></trkpt><trkpt lat="45.6544326" lon="10.2349944"><ele>404.0</ele><time>2026-04-16T15:11:27.189Z</time></trkpt><trkpt lat="45.6543627" lon="10.234985"><ele>402.8333333333333</ele><time>2026-04-16T15:11:28.19Z</time></trkpt><trkpt lat="45.6542958" lon="10.2349752"><ele>401.66666666666663</ele><time>2026-04-16T15:11:29.19Z</time></trkpt><trkpt lat="45.6542116" lon="10.2349489"><ele>400.5</ele><time>2026-04-16T15:11:31.189Z</time></trkpt><trkpt lat="45.6541183" lon="10.2349254"><ele>399.33333333333337</ele><time>2026-04-16T15:11:34.189Z</time></trkpt><trkpt lat="45.6540425" lon="10.2349064"><ele>398.1666666666667</ele><time>2026-04-16T15:11:36.189Z</time></trkpt><trkpt lat="45.6539749" lon="10.2349095"><ele>397.0</ele><time>2026-04-16T15:11:41.19Z</time></trkpt><trkpt lat="45.6539385" lon="10.2350144"><ele>397.0</ele><time>2026-04-16T15:11:43.189Z</time></trkpt><trkpt lat="45.6539258" lon="10.2351108"><ele>397.0</ele><time>2026-04-16T15:11:44.19Z</time></trkpt><trkpt lat="45.6539062" lon="10.2352479"><ele>397.0</ele><time>2026-04-16T15:11:45.19Z</time></trkpt><trkpt lat="45.6538903" lon="10.2354486"><ele>397.0</ele><time>2026-04-16T15:11:46.19Z</time></trkpt><trkpt lat="45.6538799" lon="10.2356481"><ele>397.0</ele><time>2026-04-16T15:11:47.189Z</time></trkpt><trkpt lat="45.6538609" lon="10.2358398"><ele>398.0</ele><time>2026-04-16T15:11:48.19Z</time></trkpt><trkpt lat="45.6538408" lon="10.2360259"><ele>399.0</ele><time>2026-04-16T15:11:49.19Z</time></trkpt><trkpt lat="45.6538227" lon="10.2362359"><ele>400.0</ele><time>2026-04-16T15:11:50.19Z</time></trkpt><trkpt lat="45.653803" lon="10.2364428"><ele>401.0</ele><time>2026-04-16T15:11:51.19Z</time></trkpt><trkpt lat="45.6537882" lon="10.2366472"><ele>402.3333333333333</ele><time>2026-04-16T15:11:52.19Z</time></trkpt><trkpt lat="45.6537725" lon="10.2368578"><ele>403.66666666666663</ele><time>2026-04-16T15:11:53.19Z</time></trkpt><trkpt lat="45.6537481" lon="10.2370838"><ele>405.0</ele><time>2026-04-16T15:11:54.189Z</time></trkpt><trkpt lat="45.6537147" lon="10.2373011"><ele>406.0</ele><time>2026-04-16T15:11:55.19Z</time></trkpt><trkpt lat="45.6536683" lon="10.2375132"><ele>407.0</ele><time>2026-04-16T15:11:56.19Z</time></trkpt><trkpt lat="45.6536058" lon="10.2376931"><ele>408.0</ele><time>2026-04-16T15:11:57.189Z</time></trkpt><trkpt lat="45.6535445" lon="10.2378549"><ele>409.0</ele><time>2026-04-16T15:11:58.19Z</time></trkpt><trkpt lat="45.6534984" lon="10.2380041"><ele>408.4</ele><time>2026-04-16T15:11:59.19Z</time></trkpt><trkpt lat="45.6534788" lon="10.2381613"><ele>407.79999999999995</ele><time>2026-04-16T15:12:00.19Z</time></trkpt><trkpt lat="45.6534745" lon="10.23832"><ele>407.20000000000005</ele><time>2026-04-16T15:12:01.189Z</time></trkpt><trkpt lat="45.6534987" lon="10.2384716"><ele>406.6</ele><time>2026-04-16T15:12:02.19Z</time></trkpt><trkpt lat="45.6535273" lon="10.2385915"><ele>406.0</ele><time>2026-04-16T15:12:03.19Z</time></trkpt><trkpt lat="45.6535528" lon="10.2386876"><ele>406.00000000000006</ele><time>2026-04-16T15:12:04.19Z</time></trkpt><trkpt lat="45.6535849" lon="10.2387868"><ele>406.0</ele><time>2026-04-16T15:12:05.189Z</time></trkpt><trkpt lat="45.6536193" lon="10.2389416"><ele>406.0</ele><time>2026-04-16T15:12:07.189Z</time></trkpt><trkpt lat="45.6536464" lon="10.239023"><ele>406.0</ele><time>2026-04-16T15:12:08.189Z</time></trkpt><trkpt lat="45.6536924" lon="10.2391206"><ele>406.00000000000006</ele><time>2026-04-16T15:12:09.19Z</time></trkpt><trkpt lat="45.6537508" lon="10.2392445"><ele>406.0</ele><time>2026-04-16T15:12:10.19Z</time></trkpt><trkpt lat="45.6538262" lon="10.2393687"><ele>408.20000000000005</ele><time>2026-04-16T15:12:11.19Z</time></trkpt><trkpt lat="45.6539068" lon="10.2394943"><ele>410.40000000000003</ele><time>2026-04-16T15:12:12.19Z</time></trkpt><trkpt lat="45.6539891" lon="10.2396099"><ele>412.6</ele><time>2026-04-16T15:12:13.19Z</time></trkpt><trkpt lat="45.6540621" lon="10.2397062"><ele>414.8</ele><time>2026-04-16T15:12:14.19Z</time></trkpt><trkpt lat="45.6541453" lon="10.2398036"><ele>417.0</ele><time>2026-04-16T15:12:15.19Z</time></trkpt><trkpt lat="45.6542283" lon="10.2399024"><ele>417.0</ele><time>2026-04-16T15:12:16.19Z</time></trkpt><trkpt lat="45.6543112" lon="10.2399906"><ele>417.0</ele><time>2026-04-16T15:12:17.19Z</time></trkpt><trkpt lat="45.6544261" lon="10.2400371"><ele>417.0</ele><time>2026-04-16T15:12:18.19Z</time></trkpt><trkpt lat="45.6545346" lon="10.2400444"><ele>417.0</ele><time>2026-04-16T15:12:19.189Z</time></trkpt><trkpt lat="45.6546338" lon="10.2400059"><ele>417.0</ele><time>2026-04-16T15:12:20.19Z</time></trkpt><trkpt lat="45.6547381" lon="10.2399379"><ele>418.75</ele><time>2026-04-16T15:12:21.189Z</time></trkpt><trkpt lat="45.6548447" lon="10.2398566"><ele>420.5</ele><time>2026-04-16T15:12:22.19Z</time></trkpt><trkpt lat="45.6549593" lon="10.2397943"><ele>422.25</ele><time>2026-04-16T15:12:23.19Z</time></trkpt><trkpt lat="45.655069" lon="10.2397962"><ele>424.0</ele><time>2026-04-16T15:12:24.19Z</time></trkpt><trkpt lat="45.6551669" lon="10.239831"><ele>424.0</ele><time>2026-04-16T15:12:25.189Z</time></trkpt><trkpt lat="45.6552529" lon="10.2398986"><ele>424.0</ele><time>2026-04-16T15:12:26.19Z</time></trkpt><trkpt lat="45.6553219" lon="10.2400049"><ele>424.0</ele><time>2026-04-16T15:12:27.19Z</time></trkpt><trkpt lat="45.6553645" lon="10.2401395"><ele>424.0</ele><time>2026-04-16T15:12:28.19Z</time></trkpt><trkpt lat="45.6553739" lon="10.2402876"><ele>424.0</ele><time>2026-04-16T15:12:29.19Z</time></trkpt><trkpt lat="45.6553673" lon="10.2404225"><ele>424.4</ele><time>2026-04-16T15:12:30.189Z</time></trkpt><trkpt lat="45.6553363" lon="10.2405686"><ele>424.79999999999995</ele><time>2026-04-16T15:12:31.189Z</time></trkpt><trkpt lat="45.6553052" lon="10.2407197"><ele>425.20000000000005</ele><time>2026-04-16T15:12:32.19Z</time></trkpt><trkpt lat="45.655265" lon="10.2408689"><ele>425.6</ele><time>2026-04-16T15:12:33.19Z</time></trkpt><trkpt lat="45.6552311" lon="10.2409866"><ele>426.0</ele><time>2026-04-16T15:12:34.189Z</time></trkpt><trkpt lat="45.6552087" lon="10.2410727"><ele>426.0</ele><time>2026-04-16T15:12:35.189Z</time></trkpt><trkpt lat="45.6551833" lon="10.2412328"><ele>426.0</ele><time>2026-04-16T15:12:37.189Z</time></trkpt><trkpt lat="45.6551462" lon="10.2413819"><ele>426.0</ele><time>2026-04-16T15:12:39.189Z</time></trkpt><trkpt lat="45.6551146" lon="10.2415509"><ele>426.0</ele><time>2026-04-16T15:12:41.189Z</time></trkpt><trkpt lat="45.6550955" lon="10.241652"><ele>426.0</ele><time>2026-04-16T15:12:42.189Z</time></trkpt><trkpt lat="45.6550695" lon="10.2417627"><ele>426.20000000000005</ele><time>2026-04-16T15:12:43.189Z</time></trkpt><trkpt lat="45.6550496" lon="10.241898"><ele>426.40000000000003</ele><time>2026-04-16T15:12:44.189Z</time></trkpt><trkpt lat="45.6550252" lon="10.2420409"><ele>426.6</ele><time>2026-04-16T15:12:45.19Z</time></trkpt><trkpt lat="45.6550306" lon="10.2422007"><ele>426.8</ele><time>2026-04-16T15:12:46.19Z</time></trkpt><trkpt lat="45.6550464" lon="10.2423549"><ele>427.0</ele><time>2026-04-16T15:12:47.19Z</time></trkpt><trkpt lat="45.6550653" lon="10.2425164"><ele>427.0</ele><time>2026-04-16T15:12:48.19Z</time></trkpt><trkpt lat="45.6550834" lon="10.2426694"><ele>427.00000000000006</ele><time>2026-04-16T15:12:49.19Z</time></trkpt><trkpt lat="45.6551032" lon="10.2427985"><ele>427.00000000000006</ele><time>2026-04-16T15:12:50.19Z</time></trkpt><trkpt lat="45.6551212" lon="10.2429311"><ele>427.0</ele><time>2026-04-16T15:12:51.189Z</time></trkpt><trkpt lat="45.655143" lon="10.243072"><ele>427.0</ele><time>2026-04-16T15:12:52.189Z</time></trkpt><trkpt lat="45.6551627" lon="10.2432279"><ele>426.40000000000003</ele><time>2026-04-16T15:12:53.19Z</time></trkpt><trkpt lat="45.6551719" lon="10.2433846"><ele>425.80000000000007</ele><time>2026-04-16T15:12:54.189Z</time></trkpt><trkpt lat="45.6551628" lon="10.2435369"><ele>425.2</ele><time>2026-04-16T15:12:55.189Z</time></trkpt><trkpt lat="45.6551489" lon="10.2436852"><ele>424.6</ele><time>2026-04-16T15:12:56.19Z</time></trkpt><trkpt lat="45.6551239" lon="10.2438282"><ele>424.0</ele><time>2026-04-16T15:12:57.189Z</time></trkpt><trkpt lat="45.6550985" lon="10.2439691"><ele>425.2</ele><time>2026-04-16T15:12:58.189Z</time></trkpt><trkpt lat="45.6550617" lon="10.2441108"><ele>426.4</ele><time>2026-04-16T15:12:59.19Z</time></trkpt><trkpt lat="45.6550224" lon="10.2442409"><ele>427.6</ele><time>2026-04-16T15:13:00.19Z</time></trkpt><trkpt lat="45.6549918" lon="10.2443656"><ele>428.8</ele><time>2026-04-16T15:13:01.19Z</time></trkpt><trkpt lat="45.6549565" lon="10.2444929"><ele>430.0</ele><time>2026-04-16T15:13:02.19Z</time></trkpt><trkpt lat="45.6549194" lon="10.2446107"><ele>430.0</ele><time>2026-04-16T15:13:03.19Z</time></trkpt><trkpt lat="45.6548814" lon="10.2447342"><ele>430.0</ele><time>2026-04-16T15:13:04.189Z</time></trkpt><trkpt lat="45.6548431" lon="10.2448739"><ele>430.0</ele><time>2026-04-16T15:13:05.189Z</time></trkpt><trkpt lat="45.6548105" lon="10.2450117"><ele>430.0</ele><time>2026-04-16T15:13:06.19Z</time></trkpt><trkpt lat="45.6547725" lon="10.2451438"><ele>430.0</ele><time>2026-04-16T15:13:07.189Z</time></trkpt><trkpt lat="45.6547388" lon="10.2452813"><ele>430.8</ele><time>2026-04-16T15:13:08.19Z</time></trkpt><trkpt lat="45.6547071" lon="10.2454167"><ele>431.6</ele><time>2026-04-16T15:13:09.189Z</time></trkpt><trkpt lat="45.6546667" lon="10.2455444"><ele>432.4</ele><time>2026-04-16T15:13:10.189Z</time></trkpt><trkpt lat="45.6546335" lon="10.2456669"><ele>433.2</ele><time>2026-04-16T15:13:11.19Z</time></trkpt><trkpt lat="45.6546059" lon="10.2457813"><ele>434.0</ele><time>2026-04-16T15:13:12.19Z</time></trkpt><trkpt lat="45.6545807" lon="10.2458866"><ele>433.8333333333333</ele><time>2026-04-16T15:13:13.19Z</time></trkpt><trkpt lat="45.6545486" lon="10.2460029"><ele>433.66666666666663</ele><time>2026-04-16T15:13:14.189Z</time></trkpt><trkpt lat="45.6545162" lon="10.2461384"><ele>433.5</ele><time>2026-04-16T15:13:15.19Z</time></trkpt><trkpt lat="45.6544805" lon="10.2462523"><ele>433.33333333333337</ele><time>2026-04-16T15:13:16.19Z</time></trkpt><trkpt lat="45.654451" lon="10.2463606"><ele>433.1666666666667</ele><time>2026-04-16T15:13:17.19Z</time></trkpt><trkpt lat="45.654422" lon="10.2464416"><ele>433.0</ele><time>2026-04-16T15:13:18.19Z</time></trkpt><trkpt lat="45.654383" lon="10.2465237"><ele>433.0</ele><time>2026-04-16T15:13:19.19Z</time></trkpt><trkpt lat="45.6543492" lon="10.2466305"><ele>432.99999999999994</ele><time>2026-04-16T15:13:20.19Z</time></trkpt><trkpt lat="45.6543279" lon="10.2467517"><ele>432.99999999999994</ele><time>2026-04-16T15:13:21.189Z</time></trkpt><trkpt lat="45.654301" lon="10.246874"><ele>433.0</ele><time>2026-04-16T15:13:22.19Z</time></trkpt><trkpt lat="45.6542724" lon="10.2470048"><ele>433.0</ele><time>2026-04-16T15:13:23.19Z</time></trkpt><trkpt lat="45.6542382" lon="10.247136"><ele>433.00000000000006</ele><time>2026-04-16T15:13:24.189Z</time></trkpt><trkpt lat="45.6542091" lon="10.2472614"><ele>433.0</ele><time>2026-04-16T15:13:25.19Z</time></trkpt><trkpt lat="45.6541804" lon="10.2473893"><ele>433.0</ele><time>2026-04-16T15:13:26.19Z</time></trkpt><trkpt lat="45.654148" lon="10.2475066"><ele>433.0</ele><time>2026-04-16T15:13:27.19Z</time></trkpt><trkpt lat="45.654118" lon="10.2476157"><ele>433.00000000000006</ele><time>2026-04-16T15:13:28.189Z</time></trkpt><trkpt lat="45.6540793" lon="10.2477024"><ele>433.0</ele><time>2026-04-16T15:13:29.189Z</time></trkpt><trkpt lat="45.6540507" lon="10.2478394"><ele>434.4</ele><time>2026-04-16T15:13:30.19Z</time></trkpt><trkpt lat="45.6540302" lon="10.2479706"><ele>435.79999999999995</ele><time>2026-04-16T15:13:31.19Z</time></trkpt><trkpt lat="45.6540261" lon="10.2481117"><ele>437.2</ele><time>2026-04-16T15:13:32.189Z</time></trkpt><trkpt lat="45.654035" lon="10.2482634"><ele>438.6</ele><time>2026-04-16T15:13:33.19Z</time></trkpt><trkpt lat="45.6540454" lon="10.2484155"><ele>440.0</ele><time>2026-04-16T15:13:34.19Z</time></trkpt><trkpt lat="45.6540679" lon="10.248563"><ele>440.8</ele><time>2026-04-16T15:13:35.189Z</time></trkpt><trkpt lat="45.654087" lon="10.2487082"><ele>441.6</ele><time>2026-04-16T15:13:36.19Z</time></trkpt><trkpt lat="45.6541117" lon="10.2488444"><ele>442.4</ele><time>2026-04-16T15:13:37.19Z</time></trkpt><trkpt lat="45.6541477" lon="10.2489715"><ele>443.2</ele><time>2026-04-16T15:13:38.19Z</time></trkpt><trkpt lat="45.6541677" lon="10.249106"><ele>444.0</ele><time>2026-04-16T15:13:39.189Z</time></trkpt><trkpt lat="45.6541929" lon="10.249233"><ele>444.2</ele><time>2026-04-16T15:13:40.19Z</time></trkpt><trkpt lat="45.6542101" lon="10.2493605"><ele>444.4</ele><time>2026-04-16T15:13:41.19Z</time></trkpt><trkpt lat="45.6542368" lon="10.2494798"><ele>444.6</ele><time>2026-04-16T15:13:42.19Z</time></trkpt><trkpt lat="45.6542561" lon="10.2496134"><ele>444.8</ele><time>2026-04-16T15:13:43.19Z</time></trkpt><trkpt lat="45.6542755" lon="10.2497591"><ele>445.0</ele><time>2026-04-16T15:13:44.189Z</time></trkpt><trkpt lat="45.6542991" lon="10.2499104"><ele>445.0</ele><time>2026-04-16T15:13:45.19Z</time></trkpt><trkpt lat="45.6543273" lon="10.2500653"><ele>445.0</ele><time>2026-04-16T15:13:46.19Z</time></trkpt><trkpt lat="45.6543539" lon="10.2502151"><ele>445.0</ele><time>2026-04-16T15:13:47.189Z</time></trkpt><trkpt lat="45.6543793" lon="10.2503601"><ele>445.0</ele><time>2026-04-16T15:13:48.19Z</time></trkpt><trkpt lat="45.6544073" lon="10.2505123"><ele>445.0</ele><time>2026-04-16T15:13:49.189Z</time></trkpt><trkpt lat="45.6544315" lon="10.2506587"><ele>445.33333333333337</ele><time>2026-04-16T15:13:50.19Z</time></trkpt><trkpt lat="45.6544453" lon="10.2507912"><ele>445.6666666666667</ele><time>2026-04-16T15:13:51.19Z</time></trkpt><trkpt lat="45.6544603" lon="10.250906"><ele>446.0</ele><time>2026-04-16T15:13:52.189Z</time></trkpt><trkpt lat="45.6544822" lon="10.2510078"><ele>446.33333333333337</ele><time>2026-04-16T15:13:53.19Z</time></trkpt><trkpt lat="45.6545109" lon="10.2511249"><ele>446.6666666666667</ele><time>2026-04-16T15:13:54.189Z</time></trkpt><trkpt lat="45.6545392" lon="10.2512619"><ele>447.0</ele><time>2026-04-16T15:13:55.19Z</time></trkpt><trkpt lat="45.6545693" lon="10.2513897"><ele>448.40000000000003</ele><time>2026-04-16T15:13:56.19Z</time></trkpt><trkpt lat="45.6545863" lon="10.2515222"><ele>449.80000000000007</ele><time>2026-04-16T15:13:57.19Z</time></trkpt><trkpt lat="45.654575" lon="10.2516516"><ele>451.2</ele><time>2026-04-16T15:13:58.19Z</time></trkpt><trkpt lat="45.6545261" lon="10.2517603"><ele>452.6</ele><time>2026-04-16T15:13:59.19Z</time></trkpt><trkpt lat="45.6544472" lon="10.2518358"><ele>454.0</ele><time>2026-04-16T15:14:00.189Z</time></trkpt><trkpt lat="45.6543591" lon="10.2519084"><ele>454.00000000000006</ele><time>2026-04-16T15:14:01.19Z</time></trkpt><trkpt lat="45.6542562" lon="10.2519726"><ele>454.0</ele><time>2026-04-16T15:14:02.189Z</time></trkpt><trkpt lat="45.654167" lon="10.2520416"><ele>454.0</ele><time>2026-04-16T15:14:03.189Z</time></trkpt><trkpt lat="45.654101" lon="10.2520851"><ele>454.0</ele><time>2026-04-16T15:14:04.189Z</time></trkpt><trkpt lat="45.6540213" lon="10.2521208"><ele>454.00000000000006</ele><time>2026-04-16T15:14:05.19Z</time></trkpt><trkpt lat="45.653955" lon="10.2521625"><ele>454.0</ele><time>2026-04-16T15:14:06.19Z</time></trkpt><trkpt lat="45.6538628" lon="10.2521864"><ele>454.00000000000006</ele><time>2026-04-16T15:14:08.19Z</time></trkpt><trkpt lat="45.6537901" lon="10.2522094"><ele>454.0</ele><time>2026-04-16T15:14:15.19Z</time></trkpt><trkpt lat="45.6536747" lon="10.2522289"><ele>454.0</ele><time>2026-04-16T15:14:17.188Z</time></trkpt><trkpt lat="45.6536025" lon="10.2522317"><ele>454.0</ele><time>2026-04-16T15:14:18.189Z</time></trkpt><trkpt lat="45.6535256" lon="10.2522312"><ele>454.00000000000006</ele><time>2026-04-16T15:14:19.188Z</time></trkpt><trkpt lat="45.653452" lon="10.2521854"><ele>454.0</ele><time>2026-04-16T15:14:20.188Z</time></trkpt><trkpt lat="45.6533805" lon="10.2521085"><ele>454.6666666666667</ele><time>2026-04-16T15:14:21.188Z</time></trkpt><trkpt lat="45.6533378" lon="10.2520155"><ele>455.33333333333337</ele><time>2026-04-16T15:14:22.189Z</time></trkpt><trkpt lat="45.6532711" lon="10.2519505"><ele>456.0</ele><time>2026-04-16T15:14:23.188Z</time></trkpt><trkpt lat="45.6532082" lon="10.2518541"><ele>456.66666666666663</ele><time>2026-04-16T15:14:24.189Z</time></trkpt><trkpt lat="45.6531515" lon="10.2517529"><ele>457.3333333333333</ele><time>2026-04-16T15:14:25.189Z</time></trkpt><trkpt lat="45.6531043" lon="10.2516593"><ele>458.0</ele><time>2026-04-16T15:14:26.189Z</time></trkpt><trkpt lat="45.6530709" lon="10.2515679"><ele>457.99999999999994</ele><time>2026-04-16T15:14:27.189Z</time></trkpt><trkpt lat="45.6530378" lon="10.2514818"><ele>458.0</ele><time>2026-04-16T15:14:28.189Z</time></trkpt><trkpt lat="45.652999" lon="10.2513944"><ele>458.0</ele><time>2026-04-16T15:14:29.188Z</time></trkpt><trkpt lat="45.6529589" lon="10.2513112"><ele>458.0</ele><time>2026-04-16T15:14:30.188Z</time></trkpt><trkpt lat="45.6529145" lon="10.251231"><ele>457.99999999999994</ele><time>2026-04-16T15:14:31.189Z</time></trkpt><trkpt lat="45.6528675" lon="10.2511659"><ele>458.0</ele><time>2026-04-16T15:14:32.188Z</time></trkpt><trkpt lat="45.65277" lon="10.2510813"><ele>457.66666666666663</ele><time>2026-04-16T15:14:34.189Z</time></trkpt><trkpt lat="45.6526467" lon="10.2510433"><ele>457.3333333333333</ele><time>2026-04-16T15:14:36.189Z</time></trkpt><trkpt lat="45.6525739" lon="10.2510563"><ele>457.0</ele><time>2026-04-16T15:14:37.189Z</time></trkpt><trkpt lat="45.6524907" lon="10.2510922"><ele>456.66666666666663</ele><time>2026-04-16T15:14:38.188Z</time></trkpt><trkpt lat="45.6524215" lon="10.2511642"><ele>456.3333333333333</ele><time>2026-04-16T15:14:39.188Z</time></trkpt><trkpt lat="45.6523634" lon="10.2512337"><ele>456.0</ele><time>2026-04-16T15:14:40.188Z</time></trkpt><trkpt lat="45.6523115" lon="10.2513104"><ele>456.0</ele><time>2026-04-16T15:14:41.188Z</time></trkpt><trkpt lat="45.6522614" lon="10.2513791"><ele>456.0</ele><time>2026-04-16T15:14:42.188Z</time></trkpt><trkpt lat="45.6522067" lon="10.2514496"><ele>456.0</ele><time>2026-04-16T15:14:43.189Z</time></trkpt><trkpt lat="45.6521474" lon="10.2515374"><ele>456.0</ele><time>2026-04-16T15:14:44.189Z</time></trkpt><trkpt lat="45.6520877" lon="10.2516484"><ele>456.0</ele><time>2026-04-16T15:14:45.189Z</time></trkpt><trkpt lat="45.6520389" lon="10.2517692"><ele>456.0</ele><time>2026-04-16T15:14:46.189Z</time></trkpt><trkpt lat="45.6520006" lon="10.2518943"><ele>456.1666666666667</ele><time>2026-04-16T15:14:47.189Z</time></trkpt><trkpt lat="45.6519662" lon="10.2520172"><ele>456.33333333333337</ele><time>2026-04-16T15:14:48.188Z</time></trkpt><trkpt lat="45.6519306" lon="10.2521403"><ele>456.5</ele><time>2026-04-16T15:14:49.189Z</time></trkpt><trkpt lat="45.6518949" lon="10.2522565"><ele>456.6666666666667</ele><time>2026-04-16T15:14:50.188Z</time></trkpt><trkpt lat="45.6518639" lon="10.2523685"><ele>456.83333333333337</ele><time>2026-04-16T15:14:51.189Z</time></trkpt><trkpt lat="45.6518434" lon="10.2524821"><ele>457.0</ele><time>2026-04-16T15:14:52.189Z</time></trkpt><trkpt lat="45.651822" lon="10.2525886"><ele>457.00000000000006</ele><time>2026-04-16T15:14:53.189Z</time></trkpt><trkpt lat="45.6518045" lon="10.2526756"><ele>457.0</ele><time>2026-04-16T15:14:54.188Z</time></trkpt><trkpt lat="45.6517949" lon="10.2527704"><ele>457.00000000000006</ele><time>2026-04-16T15:14:55.189Z</time></trkpt><trkpt lat="45.651785" lon="10.2528647"><ele>457.00000000000006</ele><time>2026-04-16T15:14:56.189Z</time></trkpt><trkpt lat="45.6517748" lon="10.2529626"><ele>457.0</ele><time>2026-04-16T15:14:57.188Z</time></trkpt><trkpt lat="45.6517727" lon="10.2530601"><ele>457.00000000000006</ele><time>2026-04-16T15:14:58.189Z</time></trkpt><trkpt lat="45.6517781" lon="10.2531718"><ele>457.00000000000006</ele><time>2026-04-16T15:14:59.189Z</time></trkpt><trkpt lat="45.6517746" lon="10.25329"><ele>458.0</ele><time>2026-04-16T15:15:00.188Z</time></trkpt><trkpt lat="45.6517679" lon="10.2534004"><ele>459.00000000000006</ele><time>2026-04-16T15:15:01.188Z</time></trkpt><trkpt lat="45.6517528" lon="10.2535181"><ele>460.00000000000006</ele><time>2026-04-16T15:15:02.189Z</time></trkpt><trkpt lat="45.6517477" lon="10.2536531"><ele>461.0</ele><time>2026-04-16T15:15:03.189Z</time></trkpt><trkpt lat="45.6517363" lon="10.2537978"><ele>462.0</ele><time>2026-04-16T15:15:04.189Z</time></trkpt><trkpt lat="45.6517224" lon="10.2539418"><ele>463.20000000000005</ele><time>2026-04-16T15:15:05.188Z</time></trkpt><trkpt lat="45.6517114" lon="10.2540882"><ele>464.40000000000003</ele><time>2026-04-16T15:15:06.188Z</time></trkpt><trkpt lat="45.6516991" lon="10.2542105"><ele>465.59999999999997</ele><time>2026-04-16T15:15:07.189Z</time></trkpt><trkpt lat="45.6516908" lon="10.2543239"><ele>466.79999999999995</ele><time>2026-04-16T15:15:08.189Z</time></trkpt><trkpt lat="45.6516758" lon="10.2544244"><ele>468.0</ele><time>2026-04-16T15:15:09.189Z</time></trkpt><trkpt lat="45.6516702" lon="10.25461"><ele>468.0</ele><time>2026-04-16T15:15:11.189Z</time></trkpt><trkpt lat="45.6516649" lon="10.2547352"><ele>468.0</ele><time>2026-04-16T15:15:12.188Z</time></trkpt><trkpt lat="45.6516543" lon="10.2548404"><ele>468.0</ele><time>2026-04-16T15:15:13.188Z</time></trkpt><trkpt lat="45.6516474" lon="10.2549349"><ele>468.0</ele><time>2026-04-16T15:15:14.188Z</time></trkpt><trkpt lat="45.6516388" lon="10.2550617"><ele>468.0</ele><time>2026-04-16T15:15:15.189Z</time></trkpt><trkpt lat="45.6516211" lon="10.2551972"><ele>468.0</ele><time>2026-04-16T15:15:16.189Z</time></trkpt><trkpt lat="45.6516077" lon="10.2553175"><ele>468.4</ele><time>2026-04-16T15:15:17.188Z</time></trkpt><trkpt lat="45.6516011" lon="10.2554426"><ele>468.79999999999995</ele><time>2026-04-16T15:15:18.188Z</time></trkpt><trkpt lat="45.6515924" lon="10.2555698"><ele>469.2</ele><time>2026-04-16T15:15:19.189Z</time></trkpt><trkpt lat="45.6515822" lon="10.2557195"><ele>469.6</ele><time>2026-04-16T15:15:20.188Z</time></trkpt><trkpt lat="45.6515841" lon="10.2558605"><ele>470.0</ele><time>2026-04-16T15:15:21.189Z</time></trkpt><trkpt lat="45.6515794" lon="10.2559873"><ele>470.8</ele><time>2026-04-16T15:15:22.188Z</time></trkpt><trkpt lat="45.6515721" lon="10.2561185"><ele>471.6</ele><time>2026-04-16T15:15:23.189Z</time></trkpt><trkpt lat="45.6515677" lon="10.2562483"><ele>472.4</ele><time>2026-04-16T15:15:24.188Z</time></trkpt><trkpt lat="45.6515691" lon="10.2563804"><ele>473.2</ele><time>2026-04-16T15:15:25.189Z</time></trkpt><trkpt lat="45.6515654" lon="10.2565167"><ele>474.0</ele><time>2026-04-16T15:15:26.189Z</time></trkpt><trkpt lat="45.651567" lon="10.2566531"><ele>474.3333333333333</ele><time>2026-04-16T15:15:27.189Z</time></trkpt><trkpt lat="45.6515752" lon="10.2567817"><ele>474.66666666666663</ele><time>2026-04-16T15:15:28.188Z</time></trkpt><trkpt lat="45.6515763" lon="10.256896"><ele>475.0</ele><time>2026-04-16T15:15:29.189Z</time></trkpt><trkpt lat="45.6515801" lon="10.2570123"><ele>475.3333333333333</ele><time>2026-04-16T15:15:30.188Z</time></trkpt><trkpt lat="45.6515855" lon="10.2571353"><ele>475.66666666666663</ele><time>2026-04-16T15:15:31.189Z</time></trkpt><trkpt lat="45.6515913" lon="10.2572494"><ele>476.0</ele><time>2026-04-16T15:15:32.189Z</time></trkpt><trkpt lat="45.6515981" lon="10.2573678"><ele>476.3333333333333</ele><time>2026-04-16T15:15:33.188Z</time></trkpt><trkpt lat="45.6516058" lon="10.2574936"><ele>476.66666666666663</ele><time>2026-04-16T15:15:34.189Z</time></trkpt><trkpt lat="45.651615" lon="10.257624"><ele>477.0</ele><time>2026-04-16T15:15:35.189Z</time></trkpt><trkpt lat="45.6516186" lon="10.2577357"><ele>477.33333333333337</ele><time>2026-04-16T15:15:36.188Z</time></trkpt><trkpt lat="45.6516137" lon="10.2578478"><ele>477.6666666666667</ele><time>2026-04-16T15:15:37.189Z</time></trkpt><trkpt lat="45.6515941" lon="10.2579445"><ele>478.0</ele><time>2026-04-16T15:15:38.188Z</time></trkpt><trkpt lat="45.651568" lon="10.258035"><ele>479.4</ele><time>2026-04-16T15:15:39.188Z</time></trkpt><trkpt lat="45.6514984" lon="10.2581641"><ele>480.79999999999995</ele><time>2026-04-16T15:15:41.188Z</time></trkpt><trkpt lat="45.6513935" lon="10.2582377"><ele>482.2</ele><time>2026-04-16T15:15:43.189Z</time></trkpt><trkpt lat="45.6512926" lon="10.2582743"><ele>483.6</ele><time>2026-04-16T15:15:45.189Z</time></trkpt><trkpt lat="45.6512278" lon="10.2582965"><ele>485.0</ele><time>2026-04-16T15:15:46.189Z</time></trkpt><trkpt lat="45.6511319" lon="10.2583651"><ele>483.0</ele><time>2026-04-16T15:15:48.188Z</time></trkpt><trkpt lat="45.6510775" lon="10.2585434"><ele>481.0</ele><time>2026-04-16T15:15:50.188Z</time></trkpt><trkpt lat="45.6510284" lon="10.2587557"><ele>479.0</ele><time>2026-04-16T15:15:51.188Z</time></trkpt><trkpt lat="45.6509686" lon="10.2589758"><ele>479.0</ele><time>2026-04-16T15:15:52.188Z</time></trkpt><trkpt lat="45.6509038" lon="10.2591942"><ele>479.0</ele><time>2026-04-16T15:15:53.188Z</time></trkpt><trkpt lat="45.6508567" lon="10.2594094"><ele>479.0</ele><time>2026-04-16T15:15:54.188Z</time></trkpt><trkpt lat="45.6508184" lon="10.2596011"><ele>479.0</ele><time>2026-04-16T15:15:55.189Z</time></trkpt><trkpt lat="45.6508016" lon="10.259762"><ele>479.0</ele><time>2026-04-16T15:15:56.188Z</time></trkpt><trkpt lat="45.6507917" lon="10.2598888"><ele>479.0</ele><time>2026-04-16T15:15:57.189Z</time></trkpt><trkpt lat="45.6507888" lon="10.2599962"><ele>479.0</ele><time>2026-04-16T15:15:58.188Z</time></trkpt><trkpt lat="45.6508027" lon="10.2601341"><ele>479.0</ele><time>2026-04-16T15:16:00.188Z</time></trkpt><trkpt lat="45.6508024" lon="10.2602476"><ele>479.66666666666663</ele><time>2026-04-16T15:16:02.189Z</time></trkpt><trkpt lat="45.6508443" lon="10.2604194"><ele>480.3333333333333</ele><time>2026-04-16T15:16:04.189Z</time></trkpt><trkpt lat="45.6508556" lon="10.2605099"><ele>481.0</ele><time>2026-04-16T15:16:05.189Z</time></trkpt><trkpt lat="45.6508716" lon="10.260608"><ele>481.66666666666663</ele><time>2026-04-16T15:16:06.189Z</time></trkpt><trkpt lat="45.6508972" lon="10.2607098"><ele>482.3333333333333</ele><time>2026-04-16T15:16:07.189Z</time></trkpt><trkpt lat="45.6509124" lon="10.2608103"><ele>483.0</ele><time>2026-04-16T15:16:08.189Z</time></trkpt><trkpt lat="45.6509324" lon="10.2609223"><ele>483.0</ele><time>2026-04-16T15:16:09.189Z</time></trkpt><trkpt lat="45.6509459" lon="10.2610342"><ele>483.0</ele><time>2026-04-16T15:16:10.189Z</time></trkpt><trkpt lat="45.6509627" lon="10.2611529"><ele>483.0</ele><time>2026-04-16T15:16:11.189Z</time></trkpt><trkpt lat="45.6509796" lon="10.2612645"><ele>483.0</ele><time>2026-04-16T15:16:12.188Z</time></trkpt><trkpt lat="45.6509837" lon="10.2613818"><ele>483.0</ele><time>2026-04-16T15:16:13.189Z</time></trkpt><trkpt lat="45.6509993" lon="10.2614828"><ele>483.0</ele><time>2026-04-16T15:16:14.189Z</time></trkpt><trkpt lat="45.6510172" lon="10.2615819"><ele>483.3333333333333</ele><time>2026-04-16T15:16:15.188Z</time></trkpt><trkpt lat="45.651038" lon="10.2616854"><ele>483.66666666666663</ele><time>2026-04-16T15:16:16.189Z</time></trkpt><trkpt lat="45.6510556" lon="10.2617887"><ele>484.0</ele><time>2026-04-16T15:16:17.188Z</time></trkpt><trkpt lat="45.6510716" lon="10.2618954"><ele>484.3333333333333</ele><time>2026-04-16T15:16:18.189Z</time></trkpt><trkpt lat="45.6510893" lon="10.2619971"><ele>484.66666666666663</ele><time>2026-04-16T15:16:19.189Z</time></trkpt><trkpt lat="45.6510963" lon="10.2621003"><ele>485.0</ele><time>2026-04-16T15:16:20.188Z</time></trkpt><trkpt lat="45.6510943" lon="10.2622673"><ele>484.66666666666663</ele><time>2026-04-16T15:16:22.188Z</time></trkpt><trkpt lat="45.6510926" lon="10.2623707"><ele>484.3333333333333</ele><time>2026-04-16T15:16:24.188Z</time></trkpt><trkpt lat="45.651099" lon="10.2624931"><ele>484.0</ele><time>2026-04-16T15:16:27.189Z</time></trkpt><trkpt lat="45.6510798" lon="10.2626517"><ele>483.66666666666663</ele><time>2026-04-16T15:16:29.189Z</time></trkpt><trkpt lat="45.6510825" lon="10.2627564"><ele>483.3333333333333</ele><time>2026-04-16T15:16:30.188Z</time></trkpt><trkpt lat="45.651093" lon="10.2628645"><ele>483.0</ele><time>2026-04-16T15:16:31.189Z</time></trkpt><trkpt lat="45.6510852" lon="10.2629623"><ele>483.0</ele><time>2026-04-16T15:16:32.189Z</time></trkpt><trkpt lat="45.6510855" lon="10.2630675"><ele>483.0</ele><time>2026-04-16T15:16:33.189Z</time></trkpt><trkpt lat="45.6510906" lon="10.2631779"><ele>483.0</ele><time>2026-04-16T15:16:34.189Z</time></trkpt><trkpt lat="45.6510978" lon="10.2632866"><ele>483.0</ele><time>2026-04-16T15:16:35.189Z</time></trkpt><trkpt lat="45.6511027" lon="10.2633983"><ele>483.0</ele><time>2026-04-16T15:16:36.189Z</time></trkpt><trkpt lat="45.6511083" lon="10.2635502"><ele>483.0</ele><time>2026-04-16T15:16:38.189Z</time></trkpt><trkpt lat="45.65113" lon="10.263688"><ele>488.3333333333333</ele><time>2026-04-16T15:16:40.188Z</time></trkpt><trkpt lat="45.6511498" lon="10.2638148"><ele>493.66666666666663</ele><time>2026-04-16T15:16:42.189Z</time></trkpt><trkpt lat="45.6511777" lon="10.2639092"><ele>499.0</ele><time>2026-04-16T15:16:43.193Z</time></trkpt><trkpt lat="45.651208" lon="10.2640116"><ele>504.3333333333333</ele><time>2026-04-16T15:16:44.193Z</time></trkpt><trkpt lat="45.6512353" lon="10.264104"><ele>509.66666666666663</ele><time>2026-04-16T15:16:45.193Z</time></trkpt><trkpt lat="45.6512798" lon="10.2642602"><ele>515.0</ele><time>2026-04-16T15:16:47.192Z</time></trkpt><trkpt lat="45.6513078" lon="10.2644041"><ele>515.0</ele><time>2026-04-16T15:16:49.193Z</time></trkpt><trkpt lat="45.6513108" lon="10.2645445"><ele>515.0</ele><time>2026-04-16T15:16:51.192Z</time></trkpt><trkpt lat="45.6512903" lon="10.2646686"><ele>515.0</ele><time>2026-04-16T15:16:53.193Z</time></trkpt><trkpt lat="45.6512321" lon="10.2647458"><ele>515.0</ele><time>2026-04-16T15:16:55.193Z</time></trkpt><trkpt lat="45.6511751" lon="10.2648054"><ele>515.0</ele><time>2026-04-16T15:16:57.193Z</time></trkpt><trkpt lat="45.6511139" lon="10.2648825"><ele>515.0</ele><time>2026-04-16T15:17:00.193Z</time></trkpt><trkpt lat="45.6510655" lon="10.2649667"><ele>514.6666666666666</ele><time>2026-04-16T15:17:02.192Z</time></trkpt><trkpt lat="45.6510595" lon="10.2650815"><ele>514.3333333333333</ele><time>2026-04-16T15:17:04.193Z</time></trkpt><trkpt lat="45.6510879" lon="10.2652138"><ele>514.0</ele><time>2026-04-16T15:17:06.192Z</time></trkpt><trkpt lat="45.6511594" lon="10.265289"><ele>513.6666666666666</ele><time>2026-04-16T15:17:09.192Z</time></trkpt><trkpt lat="45.6512045" lon="10.2653658"><ele>513.3333333333334</ele><time>2026-04-16T15:17:12.193Z</time></trkpt><trkpt lat="45.6512106" lon="10.2654767"><ele>513.0</ele><time>2026-04-16T15:17:15.193Z</time></trkpt><trkpt lat="45.651236" lon="10.2655673"><ele>513.3333333333334</ele><time>2026-04-16T15:17:20.193Z</time></trkpt><trkpt lat="45.6512773" lon="10.2657369"><ele>513.6666666666666</ele><time>2026-04-16T15:17:22.193Z</time></trkpt><trkpt lat="45.651305" lon="10.2658295"><ele>514.0</ele><time>2026-04-16T15:17:23.193Z</time></trkpt><trkpt lat="45.6513225" lon="10.2659362"><ele>514.3333333333333</ele><time>2026-04-16T15:17:24.193Z</time></trkpt><trkpt lat="45.6513494" lon="10.2660275"><ele>514.6666666666666</ele><time>2026-04-16T15:17:25.193Z</time></trkpt><trkpt lat="45.6513846" lon="10.2661067"><ele>515.0</ele><time>2026-04-16T15:17:26.193Z</time></trkpt><trkpt lat="45.6513971" lon="10.2662079"><ele>515.0</ele><time>2026-04-16T15:17:27.193Z</time></trkpt><trkpt lat="45.6514385" lon="10.2663626"><ele>515.0</ele><time>2026-04-16T15:17:29.192Z</time></trkpt><trkpt lat="45.6514561" lon="10.2665122"><ele>515.0</ele><time>2026-04-16T15:17:31.193Z</time></trkpt><trkpt lat="45.6514518" lon="10.2666913"><ele>515.0</ele><time>2026-04-16T15:17:33.192Z</time></trkpt><trkpt lat="45.6514564" lon="10.2668541"><ele>515.8333333333333</ele><time>2026-04-16T15:17:35.193Z</time></trkpt><trkpt lat="45.651472" lon="10.2670349"><ele>516.6666666666666</ele><time>2026-04-16T15:17:37.192Z</time></trkpt><trkpt lat="45.6514762" lon="10.2671387"><ele>517.5</ele><time>2026-04-16T15:17:38.192Z</time></trkpt><trkpt lat="45.6514776" lon="10.2672414"><ele>518.3333333333334</ele><time>2026-04-16T15:17:39.192Z</time></trkpt><trkpt lat="45.6514828" lon="10.267348"><ele>519.1666666666667</ele><time>2026-04-16T15:17:40.193Z</time></trkpt><trkpt lat="45.6514896" lon="10.2674517"><ele>520.0</ele><time>2026-04-16T15:17:41.193Z</time></trkpt><trkpt lat="45.6514932" lon="10.2675544"><ele>521.1666666666667</ele><time>2026-04-16T15:17:42.193Z</time></trkpt><trkpt lat="45.6515026" lon="10.2676626"><ele>522.3333333333334</ele><time>2026-04-16T15:17:43.193Z</time></trkpt><trkpt lat="45.651504" lon="10.2677846"><ele>523.5</ele><time>2026-04-16T15:17:44.193Z</time></trkpt><trkpt lat="45.651496" lon="10.2679092"><ele>524.6666666666666</ele><time>2026-04-16T15:17:45.193Z</time></trkpt><trkpt lat="45.651479" lon="10.2680334"><ele>525.8333333333333</ele><time>2026-04-16T15:17:46.192Z</time></trkpt><trkpt lat="45.6514542" lon="10.2681722"><ele>527.0</ele><time>2026-04-16T15:17:47.192Z</time></trkpt><trkpt lat="45.651414" lon="10.2683264"><ele>528.8000000000001</ele><time>2026-04-16T15:17:48.193Z</time></trkpt><trkpt lat="45.6513687" lon="10.2684608"><ele>530.6</ele><time>2026-04-16T15:17:49.193Z</time></trkpt><trkpt lat="45.6513275" lon="10.2685903"><ele>532.4000000000001</ele><time>2026-04-16T15:17:50.193Z</time></trkpt><trkpt lat="45.6512971" lon="10.2687205"><ele>534.2</ele><time>2026-04-16T15:17:51.192Z</time></trkpt><trkpt lat="45.6512758" lon="10.2688371"><ele>536.0</ele><time>2026-04-16T15:17:52.192Z</time></trkpt><trkpt lat="45.6512723" lon="10.2689478"><ele>536.5</ele><time>2026-04-16T15:17:53.192Z</time></trkpt><trkpt lat="45.6512879" lon="10.2690613"><ele>537.0</ele><time>2026-04-16T15:17:54.193Z</time></trkpt><trkpt lat="45.6513164" lon="10.269168"><ele>537.5</ele><time>2026-04-16T15:17:55.193Z</time></trkpt><trkpt lat="45.6513544" lon="10.2692782"><ele>538.0</ele><time>2026-04-16T15:17:56.192Z</time></trkpt><trkpt lat="45.6513847" lon="10.2693687"><ele>538.5</ele><time>2026-04-16T15:17:57.193Z</time></trkpt><trkpt lat="45.6514645" lon="10.2694835"><ele>539.0</ele><time>2026-04-16T15:17:59.191Z</time></trkpt><trkpt lat="45.6515021" lon="10.2696092"><ele>539.0</ele><time>2026-04-16T15:18:01.192Z</time></trkpt><trkpt lat="45.6514698" lon="10.269726"><ele>539.0</ele><time>2026-04-16T15:18:07.191Z</time></trkpt><trkpt lat="45.6514372" lon="10.269851"><ele>539.0</ele><time>2026-04-16T15:18:08.192Z</time></trkpt><trkpt lat="45.6513703" lon="10.270022"><ele>539.0</ele><time>2026-04-16T15:18:09.192Z</time></trkpt><trkpt lat="45.6512919" lon="10.2702206"><ele>540.0</ele><time>2026-04-16T15:18:10.192Z</time></trkpt><trkpt lat="45.6512209" lon="10.2704647"><ele>541.0</ele><time>2026-04-16T15:18:11.191Z</time></trkpt><trkpt lat="45.6511246" lon="10.2706986"><ele>542.0</ele><time>2026-04-16T15:18:12.192Z</time></trkpt><trkpt lat="45.6510393" lon="10.2709232"><ele>542.0</ele><time>2026-04-16T15:18:13.191Z</time></trkpt><trkpt lat="45.650986" lon="10.2711469"><ele>542.0</ele><time>2026-04-16T15:18:14.192Z</time></trkpt><trkpt lat="45.6509545" lon="10.2713433"><ele>542.0</ele><time>2026-04-16T15:18:15.192Z</time></trkpt><trkpt lat="45.6509433" lon="10.2715453"><ele>542.0</ele><time>2026-04-16T15:18:16.192Z</time></trkpt><trkpt lat="45.6509556" lon="10.2717633"><ele>542.6666666666666</ele><time>2026-04-16T15:18:17.192Z</time></trkpt><trkpt lat="45.6509883" lon="10.2719957"><ele>543.3333333333334</ele><time>2026-04-16T15:18:18.192Z</time></trkpt><trkpt lat="45.6510281" lon="10.2722305"><ele>544.0</ele><time>2026-04-16T15:18:19.192Z</time></trkpt><trkpt lat="45.6510568" lon="10.2724904"><ele>544.0</ele><time>2026-04-16T15:18:20.192Z</time></trkpt><trkpt lat="45.6510896" lon="10.2727724"><ele>544.0</ele><time>2026-04-16T15:18:21.191Z</time></trkpt><trkpt lat="45.6511157" lon="10.2730298"><ele>544.0</ele><time>2026-04-16T15:18:22.191Z</time></trkpt><trkpt lat="45.6511331" lon="10.2732551"><ele>547.2</ele><time>2026-04-16T15:18:23.191Z</time></trkpt><trkpt lat="45.6511423" lon="10.2733953"><ele>550.4</ele><time>2026-04-16T15:18:24.192Z</time></trkpt><trkpt lat="45.6511461" lon="10.273501"><ele>553.6</ele><time>2026-04-16T15:18:25.191Z</time></trkpt><trkpt lat="45.6512005" lon="10.2736619"><ele>556.8</ele><time>2026-04-16T15:18:27.192Z</time></trkpt><trkpt lat="45.6513018" lon="10.2736781"><ele>560.0</ele><time>2026-04-16T15:18:29.191Z</time></trkpt><trkpt lat="45.6513572" lon="10.2736226"><ele>560.0</ele><time>2026-04-16T15:18:30.191Z</time></trkpt><trkpt lat="45.651404" lon="10.2735164"><ele>560.0</ele><time>2026-04-16T15:18:31.191Z</time></trkpt><trkpt lat="45.6514519" lon="10.2733238"><ele>560.0</ele><time>2026-04-16T15:18:32.191Z</time></trkpt><trkpt lat="45.6514996" lon="10.2731298"><ele>560.0</ele><time>2026-04-16T15:18:33.192Z</time></trkpt><trkpt lat="45.6515425" lon="10.272954"><ele>560.0</ele><time>2026-04-16T15:18:34.191Z</time></trkpt><trkpt lat="45.6515754" lon="10.2728411"><ele>560.0</ele><time>2026-04-16T15:18:35.191Z</time></trkpt><trkpt lat="45.6516254" lon="10.2727775"><ele>560.0</ele><time>2026-04-16T15:18:36.191Z</time></trkpt><trkpt lat="45.6517302" lon="10.2728074"><ele>560.0</ele><time>2026-04-16T15:18:38.192Z</time></trkpt><trkpt lat="45.6517695" lon="10.2728921"><ele>560.0</ele><time>2026-04-16T15:18:39.191Z</time></trkpt><trkpt lat="45.6517898" lon="10.2730267"><ele>560.0</ele><time>2026-04-16T15:18:40.192Z</time></trkpt><trkpt lat="45.6518343" lon="10.2732251"><ele>560.0</ele><time>2026-04-16T15:18:41.192Z</time></trkpt><trkpt lat="45.6518692" lon="10.273417"><ele>560.0</ele><time>2026-04-16T15:18:42.191Z</time></trkpt><trkpt lat="45.6518932" lon="10.2735918"><ele>560.0</ele><time>2026-04-16T15:18:43.192Z</time></trkpt><trkpt lat="45.6518924" lon="10.2737614"><ele>560.0</ele><time>2026-04-16T15:18:44.192Z</time></trkpt><trkpt lat="45.6519015" lon="10.2738876"><ele>559.6666666666666</ele><time>2026-04-16T15:18:45.191Z</time></trkpt><trkpt lat="45.6519454" lon="10.2740045"><ele>559.3333333333333</ele><time>2026-04-16T15:18:47.191Z</time></trkpt><trkpt lat="45.6519611" lon="10.2741047"><ele>559.0</ele><time>2026-04-16T15:18:49.191Z</time></trkpt><trkpt lat="45.6519837" lon="10.2741953"><ele>558.6666666666666</ele><time>2026-04-16T15:19:04.191Z</time></trkpt><trkpt lat="45.6520657" lon="10.2742988"><ele>558.3333333333334</ele><time>2026-04-16T15:19:06.191Z</time></trkpt><trkpt lat="45.6521367" lon="10.2743555"><ele>558.0</ele><time>2026-04-16T15:19:07.192Z</time></trkpt><trkpt lat="45.6522045" lon="10.2745453"><ele>563.3333333333334</ele><time>2026-04-16T15:19:09.192Z</time></trkpt><trkpt lat="45.6522383" lon="10.2747648"><ele>568.6666666666667</ele><time>2026-04-16T15:19:10.192Z</time></trkpt><trkpt lat="45.6522688" lon="10.275032"><ele>574.0</ele><time>2026-04-16T15:19:11.192Z</time></trkpt><trkpt lat="45.6522974" lon="10.2752761"><ele>574.75</ele><time>2026-04-16T15:19:12.191Z</time></trkpt><trkpt lat="45.6523228" lon="10.2755121"><ele>575.5</ele><time>2026-04-16T15:19:13.192Z</time></trkpt><trkpt lat="45.6523449" lon="10.2757137"><ele>576.25</ele><time>2026-04-16T15:19:14.191Z</time></trkpt><trkpt lat="45.6523597" lon="10.2758734"><ele>577.0</ele><time>2026-04-16T15:19:15.192Z</time></trkpt><trkpt lat="45.6523699" lon="10.2760165"><ele>577.5714285714286</ele><time>2026-04-16T15:19:16.191Z</time></trkpt><trkpt lat="45.6523952" lon="10.2761265"><ele>578.1428571428571</ele><time>2026-04-16T15:19:17.192Z</time></trkpt><trkpt lat="45.6524379" lon="10.2761988"><ele>578.7142857142858</ele><time>2026-04-16T15:19:18.192Z</time></trkpt><trkpt lat="45.6524931" lon="10.2762544"><ele>579.2857142857142</ele><time>2026-04-16T15:19:19.192Z</time></trkpt><trkpt lat="45.6525606" lon="10.2762754"><ele>579.8571428571429</ele><time>2026-04-16T15:19:20.192Z</time></trkpt><trkpt lat="45.6526393" lon="10.2762534"><ele>580.4285714285714</ele><time>2026-04-16T15:19:21.192Z</time></trkpt><trkpt lat="45.6527108" lon="10.2762067"><ele>581.0</ele><time>2026-04-16T15:19:22.192Z</time></trkpt><trkpt lat="45.6527494" lon="10.2761174"><ele>581.0</ele><time>2026-04-16T15:19:23.192Z</time></trkpt><trkpt lat="45.6527721" lon="10.2760058"><ele>581.0</ele><time>2026-04-16T15:19:24.192Z</time></trkpt><trkpt lat="45.6527844" lon="10.2758615"><ele>581.0</ele><time>2026-04-16T15:19:25.192Z</time></trkpt><trkpt lat="45.6527868" lon="10.2757248"><ele>581.0</ele><time>2026-04-16T15:19:26.192Z</time></trkpt><trkpt lat="45.6527996" lon="10.2755903"><ele>581.0</ele><time>2026-04-16T15:19:27.191Z</time></trkpt><trkpt lat="45.652819" lon="10.2754619"><ele>583.5</ele><time>2026-04-16T15:19:28.191Z</time></trkpt><trkpt lat="45.6528361" lon="10.275353"><ele>586.0</ele><time>2026-04-16T15:19:29.192Z</time></trkpt><trkpt lat="45.6528574" lon="10.2752013"><ele>588.5</ele><time>2026-04-16T15:19:31.191Z</time></trkpt><trkpt lat="45.6528788" lon="10.2750938"><ele>591.0</ele><time>2026-04-16T15:19:33.191Z</time></trkpt><trkpt lat="45.6528854" lon="10.2750041"><ele>593.5</ele><time>2026-04-16T15:19:35.191Z</time></trkpt><trkpt lat="45.6529157" lon="10.2748837"><ele>596.0</ele><time>2026-04-16T15:19:37.192Z</time></trkpt><trkpt lat="45.6529681" lon="10.2747881"><ele>596.0</ele><time>2026-04-16T15:19:39.192Z</time></trkpt><trkpt lat="45.6530463" lon="10.2748217"><ele>596.0</ele><time>2026-04-16T15:19:41.191Z</time></trkpt><trkpt lat="45.653084" lon="10.2749812"><ele>596.0</ele><time>2026-04-16T15:19:43.192Z</time></trkpt><trkpt lat="45.6530969" lon="10.2751104"><ele>596.0</ele><time>2026-04-16T15:19:44.192Z</time></trkpt><trkpt lat="45.6531098" lon="10.275231"><ele>596.0</ele><time>2026-04-16T15:19:45.192Z</time></trkpt><trkpt lat="45.6531215" lon="10.2753657"><ele>596.0</ele><time>2026-04-16T15:19:46.191Z</time></trkpt><trkpt lat="45.653144" lon="10.2755134"><ele>596.0</ele><time>2026-04-16T15:19:47.191Z</time></trkpt><trkpt lat="45.6531528" lon="10.2756754"><ele>596.0</ele><time>2026-04-16T15:19:48.191Z</time></trkpt><trkpt lat="45.6531592" lon="10.275827"><ele>596.0</ele><time>2026-04-16T15:19:49.192Z</time></trkpt><trkpt lat="45.6531806" lon="10.2759448"><ele>596.0</ele><time>2026-04-16T15:19:50.191Z</time></trkpt><trkpt lat="45.6532212" lon="10.2760586"><ele>596.1666666666666</ele><time>2026-04-16T15:19:51.191Z</time></trkpt><trkpt lat="45.6532865" lon="10.2761339"><ele>596.3333333333333</ele><time>2026-04-16T15:19:52.192Z</time></trkpt><trkpt lat="45.6533668" lon="10.2761818"><ele>596.5</ele><time>2026-04-16T15:19:53.191Z</time></trkpt><trkpt lat="45.6534486" lon="10.2761783"><ele>596.6666666666666</ele><time>2026-04-16T15:19:54.191Z</time></trkpt><trkpt lat="45.6535276" lon="10.2761438"><ele>596.8333333333334</ele><time>2026-04-16T15:19:55.192Z</time></trkpt><trkpt lat="45.6536035" lon="10.2760884"><ele>597.0</ele><time>2026-04-16T15:19:56.192Z</time></trkpt><trkpt lat="45.6536522" lon="10.2759985"><ele>596.8000000000001</ele><time>2026-04-16T15:19:57.192Z</time></trkpt><trkpt lat="45.6536741" lon="10.2758726"><ele>596.6</ele><time>2026-04-16T15:19:58.192Z</time></trkpt><trkpt lat="45.6536623" lon="10.2757268"><ele>596.4000000000001</ele><time>2026-04-16T15:19:59.192Z</time></trkpt><trkpt lat="45.6536347" lon="10.2755907"><ele>596.2</ele><time>2026-04-16T15:20:00.192Z</time></trkpt><trkpt lat="45.6536167" lon="10.2754409"><ele>596.0</ele><time>2026-04-16T15:20:01.192Z</time></trkpt><trkpt lat="45.6536085" lon="10.2753006"><ele>596.0</ele><time>2026-04-16T15:20:02.191Z</time></trkpt><trkpt lat="45.6535996" lon="10.2751474"><ele>596.0</ele><time>2026-04-16T15:20:03.191Z</time></trkpt><trkpt lat="45.6535807" lon="10.2749912"><ele>596.0</ele><time>2026-04-16T15:20:04.191Z</time></trkpt><trkpt lat="45.6535862" lon="10.2748269"><ele>596.0</ele><time>2026-04-16T15:20:05.192Z</time></trkpt><trkpt lat="45.6536088" lon="10.2746518"><ele>603.3333333333333</ele><time>2026-04-16T15:20:06.192Z</time></trkpt><trkpt lat="45.6536461" lon="10.2744505"><ele>610.6666666666666</ele><time>2026-04-16T15:20:07.192Z</time></trkpt><trkpt lat="45.6536907" lon="10.2742349"><ele>618.0</ele><time>2026-04-16T15:20:08.192Z</time></trkpt><trkpt lat="45.6537431" lon="10.2740151"><ele>617.0</ele><time>2026-04-16T15:20:09.192Z</time></trkpt><trkpt lat="45.6537851" lon="10.2737954"><ele>616.0</ele><time>2026-04-16T15:20:10.191Z</time></trkpt><trkpt lat="45.6538312" lon="10.2735818"><ele>615.0</ele><time>2026-04-16T15:20:11.191Z</time></trkpt><trkpt lat="45.653874" lon="10.2733514"><ele>615.0</ele><time>2026-04-16T15:20:12.192Z</time></trkpt><trkpt lat="45.653928" lon="10.2731256"><ele>615.0</ele><time>2026-04-16T15:20:13.192Z</time></trkpt><trkpt lat="45.6539911" lon="10.2729025"><ele>615.0</ele><time>2026-04-16T15:20:14.191Z</time></trkpt><trkpt lat="45.6540718" lon="10.2727293"><ele>613.75</ele><time>2026-04-16T15:20:15.192Z</time></trkpt><trkpt lat="45.6541607" lon="10.2725722"><ele>612.5</ele><time>2026-04-16T15:20:16.192Z</time></trkpt><trkpt lat="45.6542528" lon="10.2724135"><ele>611.25</ele><time>2026-04-16T15:20:17.191Z</time></trkpt><trkpt lat="45.6543516" lon="10.2722517"><ele>610.0</ele><time>2026-04-16T15:20:18.192Z</time></trkpt><trkpt lat="45.654453" lon="10.2721039"><ele>612.8</ele><time>2026-04-16T15:20:19.192Z</time></trkpt><trkpt lat="45.6545447" lon="10.2719833"><ele>615.6</ele><time>2026-04-16T15:20:20.191Z</time></trkpt><trkpt lat="45.6546298" lon="10.2718759"><ele>618.4</ele><time>2026-04-16T15:20:21.192Z</time></trkpt><trkpt lat="45.6547169" lon="10.2718213"><ele>621.2</ele><time>2026-04-16T15:20:22.192Z</time></trkpt><trkpt lat="45.654804" lon="10.2718052"><ele>624.0</ele><time>2026-04-16T15:20:23.192Z</time></trkpt><trkpt lat="45.654874" lon="10.2718575"><ele>624.0</ele><time>2026-04-16T15:20:24.192Z</time></trkpt><trkpt lat="45.6549161" lon="10.2719584"><ele>624.0</ele><time>2026-04-16T15:20:25.192Z</time></trkpt><trkpt lat="45.6549457" lon="10.2720588"><ele>624.0</ele><time>2026-04-16T15:20:26.192Z</time></trkpt><trkpt lat="45.6549336" lon="10.2721683"><ele>624.0</ele><time>2026-04-16T15:20:27.191Z</time></trkpt><trkpt lat="45.6549006" lon="10.2722908"><ele>624.0</ele><time>2026-04-16T15:20:28.191Z</time></trkpt><trkpt lat="45.6548648" lon="10.2724169"><ele>624.0</ele><time>2026-04-16T15:20:29.192Z</time></trkpt><trkpt lat="45.6548281" lon="10.2725591"><ele>624.5</ele><time>2026-04-16T15:20:30.192Z</time></trkpt><trkpt lat="45.6547891" lon="10.2727046"><ele>625.0</ele><time>2026-04-16T15:20:31.191Z</time></trkpt><trkpt lat="45.6547411" lon="10.2728625"><ele>625.5</ele><time>2026-04-16T15:20:32.191Z</time></trkpt><trkpt lat="45.654692" lon="10.2730376"><ele>626.0</ele><time>2026-04-16T15:20:33.192Z</time></trkpt><trkpt lat="45.6546705" lon="10.2732123"><ele>627.5</ele><time>2026-04-16T15:20:34.191Z</time></trkpt><trkpt lat="45.6546594" lon="10.2733789"><ele>629.0</ele><time>2026-04-16T15:20:35.192Z</time></trkpt><trkpt lat="45.6546569" lon="10.2735415"><ele>630.5</ele><time>2026-04-16T15:20:36.192Z</time></trkpt><trkpt lat="45.6546607" lon="10.2737157"><ele>632.0</ele><time>2026-04-16T15:20:37.191Z</time></trkpt><trkpt lat="45.6546664" lon="10.2738959"><ele>633.25</ele><time>2026-04-16T15:20:38.192Z</time></trkpt><trkpt lat="45.6546729" lon="10.2740916"><ele>634.5</ele><time>2026-04-16T15:20:39.192Z</time></trkpt><trkpt lat="45.6546822" lon="10.2742948"><ele>635.75</ele><time>2026-04-16T15:20:40.192Z</time></trkpt><trkpt lat="45.6546869" lon="10.2745362"><ele>637.0</ele><time>2026-04-16T15:20:41.191Z</time></trkpt><trkpt lat="45.6546859" lon="10.2747772"><ele>639.3333333333334</ele><time>2026-04-16T15:20:42.192Z</time></trkpt><trkpt lat="45.6546811" lon="10.2750288"><ele>641.6666666666666</ele><time>2026-04-16T15:20:43.191Z</time></trkpt><trkpt lat="45.6546864" lon="10.275251"><ele>644.0</ele><time>2026-04-16T15:20:44.191Z</time></trkpt><trkpt lat="45.6546876" lon="10.275454"><ele>644.0</ele><time>2026-04-16T15:20:45.192Z</time></trkpt><trkpt lat="45.6546828" lon="10.2756248"><ele>644.0</ele><time>2026-04-16T15:20:46.191Z</time></trkpt><trkpt lat="45.654655" lon="10.2757771"><ele>644.0</ele><time>2026-04-16T15:20:47.192Z</time></trkpt><trkpt lat="45.654629" lon="10.2759063"><ele>644.0</ele><time>2026-04-16T15:20:48.191Z</time></trkpt><trkpt lat="45.6546055" lon="10.2760122"><ele>644.0</ele><time>2026-04-16T15:20:49.192Z</time></trkpt><trkpt lat="45.6545896" lon="10.2761118"><ele>644.0</ele><time>2026-04-16T15:20:50.192Z</time></trkpt><trkpt lat="45.6545967" lon="10.2762161"><ele>644.0</ele><time>2026-04-16T15:20:51.192Z</time></trkpt><trkpt lat="45.6546157" lon="10.2763176"><ele>644.0</ele><time>2026-04-16T15:20:52.192Z</time></trkpt><trkpt lat="45.6546576" lon="10.2763943"><ele>644.0</ele><time>2026-04-16T15:20:53.191Z</time></trkpt><trkpt lat="45.6547824" lon="10.2764299"><ele>644.0</ele><time>2026-04-16T15:20:55.192Z</time></trkpt><trkpt lat="45.6548498" lon="10.2763975"><ele>644.0</ele><time>2026-04-16T15:20:56.192Z</time></trkpt><trkpt lat="45.6549168" lon="10.2763212"><ele>644.0</ele><time>2026-04-16T15:20:57.192Z</time></trkpt><trkpt lat="45.6549509" lon="10.2762152"><ele>644.0</ele><time>2026-04-16T15:20:58.192Z</time></trkpt><trkpt lat="45.6549423" lon="10.27609"><ele>644.0</ele><time>2026-04-16T15:20:59.192Z</time></trkpt><trkpt lat="45.6549134" lon="10.2759406"><ele>644.0</ele><time>2026-04-16T15:21:00.191Z</time></trkpt><trkpt lat="45.6548794" lon="10.2757846"><ele>644.0</ele><time>2026-04-16T15:21:01.19Z</time></trkpt><trkpt lat="45.6548487" lon="10.2756104"><ele>644.0</ele><time>2026-04-16T15:21:02.191Z</time></trkpt><trkpt lat="45.6548582" lon="10.2754313"><ele>644.0</ele><time>2026-04-16T15:21:03.19Z</time></trkpt><trkpt lat="45.6548763" lon="10.2752699"><ele>644.0</ele><time>2026-04-16T15:21:04.19Z</time></trkpt><trkpt lat="45.6549222" lon="10.2751109"><ele>644.0</ele><time>2026-04-16T15:21:05.191Z</time></trkpt><trkpt lat="45.6549863" lon="10.2749411"><ele>641.6666666666666</ele><time>2026-04-16T15:21:06.191Z</time></trkpt><trkpt lat="45.6550692" lon="10.2747595"><ele>639.3333333333334</ele><time>2026-04-16T15:21:07.191Z</time></trkpt><trkpt lat="45.6551546" lon="10.2745759"><ele>637.0</ele><time>2026-04-16T15:21:08.191Z</time></trkpt><trkpt lat="45.6552444" lon="10.2743762"><ele>641.3333333333334</ele><time>2026-04-16T15:21:09.19Z</time></trkpt><trkpt lat="45.6553386" lon="10.2741616"><ele>645.6666666666666</ele><time>2026-04-16T15:21:10.191Z</time></trkpt><trkpt lat="45.6554382" lon="10.2739348"><ele>650.0</ele><time>2026-04-16T15:21:11.19Z</time></trkpt><trkpt lat="45.6555367" lon="10.2737081"><ele>650.0</ele><time>2026-04-16T15:21:12.191Z</time></trkpt><trkpt lat="45.6556248" lon="10.2735079"><ele>650.0</ele><time>2026-04-16T15:21:13.191Z</time></trkpt><trkpt lat="45.6557084" lon="10.2733292"><ele>650.0</ele><time>2026-04-16T15:21:14.19Z</time></trkpt><trkpt lat="45.6557812" lon="10.2731671"><ele>648.8</ele><time>2026-04-16T15:21:15.191Z</time></trkpt><trkpt lat="45.6558597" lon="10.2730322"><ele>647.6</ele><time>2026-04-16T15:21:16.19Z</time></trkpt><trkpt lat="45.6559404" lon="10.2729367"><ele>646.4000000000001</ele><time>2026-04-16T15:21:17.191Z</time></trkpt><trkpt lat="45.65604" lon="10.2729011"><ele>645.2</ele><time>2026-04-16T15:21:18.191Z</time></trkpt><trkpt lat="45.656123" lon="10.2729143"><ele>644.0</ele><time>2026-04-16T15:21:19.19Z</time></trkpt><trkpt lat="45.6561994" lon="10.2729923"><ele>645.2</ele><time>2026-04-16T15:21:20.19Z</time></trkpt><trkpt lat="45.6562548" lon="10.2731039"><ele>646.4000000000001</ele><time>2026-04-16T15:21:21.191Z</time></trkpt><trkpt lat="45.6562659" lon="10.2732267"><ele>647.6</ele><time>2026-04-16T15:21:22.191Z</time></trkpt><trkpt lat="45.6562491" lon="10.2733778"><ele>648.8</ele><time>2026-04-16T15:21:23.191Z</time></trkpt><trkpt lat="45.6561927" lon="10.2735658"><ele>650.0</ele><time>2026-04-16T15:21:24.191Z</time></trkpt><trkpt lat="45.6561029" lon="10.2737923"><ele>652.0</ele><time>2026-04-16T15:21:25.19Z</time></trkpt><trkpt lat="45.6560228" lon="10.2740353"><ele>654.0</ele><time>2026-04-16T15:21:26.19Z</time></trkpt><trkpt lat="45.6559331" lon="10.2743012"><ele>656.0</ele><time>2026-04-16T15:21:27.191Z</time></trkpt><trkpt lat="45.6558308" lon="10.2745936"><ele>658.0</ele><time>2026-04-16T15:21:28.191Z</time></trkpt><trkpt lat="45.6557369" lon="10.2748868"><ele>660.0</ele><time>2026-04-16T15:21:29.191Z</time></trkpt><trkpt lat="45.6556354" lon="10.2751754"><ele>660.0</ele><time>2026-04-16T15:21:30.191Z</time></trkpt><trkpt lat="45.6555367" lon="10.27547"><ele>660.0</ele><time>2026-04-16T15:21:31.191Z</time></trkpt><trkpt lat="45.6554406" lon="10.2757654"><ele>655.3333333333334</ele><time>2026-04-16T15:21:32.191Z</time></trkpt><trkpt lat="45.6553591" lon="10.2760516"><ele>650.6666666666667</ele><time>2026-04-16T15:21:33.19Z</time></trkpt><trkpt lat="45.6553075" lon="10.2763421"><ele>646.0</ele><time>2026-04-16T15:21:34.191Z</time></trkpt><trkpt lat="45.655277" lon="10.2766306"><ele>646.0</ele><time>2026-04-16T15:21:35.19Z</time></trkpt><trkpt lat="45.6552806" lon="10.2769167"><ele>646.0</ele><time>2026-04-16T15:21:36.19Z</time></trkpt><trkpt lat="45.6552976" lon="10.277205"><ele>646.0</ele><time>2026-04-16T15:21:37.191Z</time></trkpt><trkpt lat="45.6553297" lon="10.2775149"><ele>659.0</ele><time>2026-04-16T15:21:38.191Z</time></trkpt><trkpt lat="45.6553617" lon="10.2778366"><ele>672.0</ele><time>2026-04-16T15:21:39.191Z</time></trkpt><trkpt lat="45.6553873" lon="10.2781784"><ele>672.0</ele><time>2026-04-16T15:21:40.191Z</time></trkpt><trkpt lat="45.6553984" lon="10.2785383"><ele>672.0</ele><time>2026-04-16T15:21:41.191Z</time></trkpt><trkpt lat="45.6553885" lon="10.2789169"><ele>673.0</ele><time>2026-04-16T15:21:42.191Z</time></trkpt><trkpt lat="45.6553808" lon="10.2792928"><ele>674.0</ele><time>2026-04-16T15:21:43.191Z</time></trkpt><trkpt lat="45.6553776" lon="10.279635"><ele>676.6666666666666</ele><time>2026-04-16T15:21:44.19Z</time></trkpt><trkpt lat="45.6553746" lon="10.2799529"><ele>679.3333333333334</ele><time>2026-04-16T15:21:45.191Z</time></trkpt><trkpt lat="45.6553822" lon="10.2802294"><ele>682.0</ele><time>2026-04-16T15:21:46.191Z</time></trkpt><trkpt lat="45.6554054" lon="10.2804922"><ele>683.3333333333334</ele><time>2026-04-16T15:21:47.191Z</time></trkpt><trkpt lat="45.6554538" lon="10.2807316"><ele>684.6666666666666</ele><time>2026-04-16T15:21:48.191Z</time></trkpt><trkpt lat="45.6555085" lon="10.2809294"><ele>686.0</ele><time>2026-04-16T15:21:49.191Z</time></trkpt><trkpt lat="45.6555642" lon="10.2811176"><ele>686.0</ele><time>2026-04-16T15:21:50.191Z</time></trkpt><trkpt lat="45.6556155" lon="10.2812976"><ele>686.0</ele><time>2026-04-16T15:21:51.19Z</time></trkpt><trkpt lat="45.6556466" lon="10.281475"><ele>686.0</ele><time>2026-04-16T15:21:52.191Z</time></trkpt><trkpt lat="45.6556341" lon="10.281648"><ele>686.0</ele><time>2026-04-16T15:21:53.191Z</time></trkpt><trkpt lat="45.655592" lon="10.2818027"><ele>686.25</ele><time>2026-04-16T15:21:54.19Z</time></trkpt><trkpt lat="45.6555155" lon="10.281932"><ele>686.5</ele><time>2026-04-16T15:21:55.191Z</time></trkpt><trkpt lat="45.6554168" lon="10.2820087"><ele>686.75</ele><time>2026-04-16T15:21:56.19Z</time></trkpt><trkpt lat="45.6552879" lon="10.2820463"><ele>687.0</ele><time>2026-04-16T15:21:57.191Z</time></trkpt><trkpt lat="45.6551635" lon="10.2820348"><ele>682.75</ele><time>2026-04-16T15:21:58.19Z</time></trkpt><trkpt lat="45.6550194" lon="10.2820028"><ele>678.5</ele><time>2026-04-16T15:21:59.191Z</time></trkpt><trkpt lat="45.65488" lon="10.2819644"><ele>674.25</ele><time>2026-04-16T15:22:00.191Z</time></trkpt><trkpt lat="45.6547502" lon="10.2819524"><ele>670.0</ele><time>2026-04-16T15:22:01.191Z</time></trkpt><trkpt lat="45.6546333" lon="10.2819756"><ele>670.0</ele><time>2026-04-16T15:22:02.191Z</time></trkpt><trkpt lat="45.6545302" lon="10.2820476"><ele>670.0</ele><time>2026-04-16T15:22:03.191Z</time></trkpt><trkpt lat="45.6544375" lon="10.282166"><ele>670.0</ele><time>2026-04-16T15:22:04.191Z</time></trkpt><trkpt lat="45.6543688" lon="10.2823176"><ele>670.0</ele><time>2026-04-16T15:22:05.19Z</time></trkpt><trkpt lat="45.6543516" lon="10.282506"><ele>668.6666666666667</ele><time>2026-04-16T15:22:06.19Z</time></trkpt><trkpt lat="45.6543454" lon="10.2827204"><ele>667.3333333333334</ele><time>2026-04-16T15:22:07.19Z</time></trkpt><trkpt lat="45.6543449" lon="10.2829621"><ele>666.0</ele><time>2026-04-16T15:22:08.191Z</time></trkpt><trkpt lat="45.654347" lon="10.2832242"><ele>666.0</ele><time>2026-04-16T15:22:09.19Z</time></trkpt><trkpt lat="45.6543534" lon="10.2835007"><ele>666.0</ele><time>2026-04-16T15:22:10.19Z</time></trkpt><trkpt lat="45.6543552" lon="10.2837535"><ele>666.0</ele><time>2026-04-16T15:22:11.191Z</time></trkpt><trkpt lat="45.6543392" lon="10.2839931"><ele>668.3333333333334</ele><time>2026-04-16T15:22:12.191Z</time></trkpt><trkpt lat="45.6542944" lon="10.2841955"><ele>670.6666666666667</ele><time>2026-04-16T15:22:13.191Z</time></trkpt><trkpt lat="45.6542168" lon="10.2843923"><ele>673.0</ele><time>2026-04-16T15:22:14.19Z</time></trkpt><trkpt lat="45.6541137" lon="10.2845962"><ele>678.0</ele><time>2026-04-16T15:22:15.191Z</time></trkpt><trkpt lat="45.6539958" lon="10.2847913"><ele>683.0</ele><time>2026-04-16T15:22:16.191Z</time></trkpt><trkpt lat="45.6538497" lon="10.2850015"><ele>688.0</ele><time>2026-04-16T15:22:17.191Z</time></trkpt><trkpt lat="45.6537137" lon="10.2852212"><ele>684.6666666666667</ele><time>2026-04-16T15:22:18.191Z</time></trkpt><trkpt lat="45.6535832" lon="10.2854353"><ele>681.3333333333334</ele><time>2026-04-16T15:22:19.19Z</time></trkpt><trkpt lat="45.6534551" lon="10.2856365"><ele>678.0</ele><time>2026-04-16T15:22:20.191Z</time></trkpt><trkpt lat="45.6533468" lon="10.2858355"><ele>678.0</ele><time>2026-04-16T15:22:21.191Z</time></trkpt><trkpt lat="45.6532694" lon="10.2860479"><ele>678.0</ele><time>2026-04-16T15:22:22.19Z</time></trkpt><trkpt lat="45.6532165" lon="10.2862831"><ele>678.0</ele><time>2026-04-16T15:22:23.191Z</time></trkpt><trkpt lat="45.65317" lon="10.2865358"><ele>681.3333333333334</ele><time>2026-04-16T15:22:24.191Z</time></trkpt><trkpt lat="45.6531203" lon="10.2868014"><ele>684.6666666666667</ele><time>2026-04-16T15:22:25.19Z</time></trkpt><trkpt lat="45.6530653" lon="10.2870807"><ele>688.0</ele><time>2026-04-16T15:22:26.19Z</time></trkpt><trkpt lat="45.6530082" lon="10.2873735"><ele>691.6666666666667</ele><time>2026-04-16T15:22:27.19Z</time></trkpt><trkpt lat="45.6529559" lon="10.2876791"><ele>695.3333333333334</ele><time>2026-04-16T15:22:28.191Z</time></trkpt><trkpt lat="45.6529036" lon="10.2879812"><ele>699.0</ele><time>2026-04-16T15:22:29.191Z</time></trkpt><trkpt lat="45.6528398" lon="10.2882674"><ele>690.3333333333334</ele><time>2026-04-16T15:22:30.191Z</time></trkpt><trkpt lat="45.6527537" lon="10.288543"><ele>681.6666666666667</ele><time>2026-04-16T15:22:31.191Z</time></trkpt><trkpt lat="45.6526365" lon="10.2888028"><ele>673.0</ele><time>2026-04-16T15:22:32.191Z</time></trkpt><trkpt lat="45.6524995" lon="10.2890398"><ele>673.0</ele><time>2026-04-16T15:22:33.191Z</time></trkpt><trkpt lat="45.652334" lon="10.2892437"><ele>673.0</ele><time>2026-04-16T15:22:34.191Z</time></trkpt><trkpt lat="45.652156" lon="10.2894414"><ele>673.0</ele><time>2026-04-16T15:22:35.19Z</time></trkpt><trkpt lat="45.6519544" lon="10.2896555"><ele>676.0</ele><time>2026-04-16T15:22:36.19Z</time></trkpt><trkpt lat="45.651716" lon="10.2899028"><ele>679.0</ele><time>2026-04-16T15:22:37.191Z</time></trkpt><trkpt lat="45.6514728" lon="10.2901616"><ele>679.0</ele><time>2026-04-16T15:22:38.191Z</time></trkpt><trkpt lat="45.6512207" lon="10.2904246"><ele>679.0</ele><time>2026-04-16T15:22:39.191Z</time></trkpt><trkpt lat="45.6509668" lon="10.2907042"><ele>679.5</ele><time>2026-04-16T15:22:40.191Z</time></trkpt><trkpt lat="45.6507272" lon="10.2909762"><ele>680.0</ele><time>2026-04-16T15:22:41.191Z</time></trkpt><trkpt lat="45.6505072" lon="10.2912396"><ele>676.5</ele><time>2026-04-16T15:22:42.191Z</time></trkpt><trkpt lat="45.6503057" lon="10.2914963"><ele>673.0</ele><time>2026-04-16T15:22:43.191Z</time></trkpt><trkpt lat="45.6501167" lon="10.2917363"><ele>673.0</ele><time>2026-04-16T15:22:44.19Z</time></trkpt><trkpt lat="45.649946" lon="10.2919705"><ele>673.0</ele><time>2026-04-16T15:22:45.19Z</time></trkpt><trkpt lat="45.6497876" lon="10.2922138"><ele>689.0</ele><time>2026-04-16T15:22:46.191Z</time></trkpt><trkpt lat="45.6496478" lon="10.292467"><ele>705.0</ele><time>2026-04-16T15:22:47.19Z</time></trkpt><trkpt lat="45.6495308" lon="10.2927827"><ele>693.0</ele><time>2026-04-16T15:22:48.191Z</time></trkpt><trkpt lat="45.6494289" lon="10.2931152"><ele>681.0</ele><time>2026-04-16T15:22:49.19Z</time></trkpt><trkpt lat="45.6493165" lon="10.2934793"><ele>681.0</ele><time>2026-04-16T15:22:50.19Z</time></trkpt><trkpt lat="45.6492012" lon="10.2938472"><ele>681.0</ele><time>2026-04-16T15:22:51.191Z</time></trkpt><trkpt lat="45.6490995" lon="10.2941992"><ele>688.5</ele><time>2026-04-16T15:22:52.191Z</time></trkpt><trkpt lat="45.6489896" lon="10.294541"><ele>696.0</ele><time>2026-04-16T15:22:53.19Z</time></trkpt><trkpt lat="45.6488856" lon="10.2948648"><ele>696.0</ele><time>2026-04-16T15:22:54.191Z</time></trkpt><trkpt lat="45.6487763" lon="10.295184"><ele>696.0</ele><time>2026-04-16T15:22:55.191Z</time></trkpt><trkpt lat="45.6486715" lon="10.2955096"><ele>694.5</ele><time>2026-04-16T15:22:56.19Z</time></trkpt><trkpt lat="45.6485672" lon="10.2958285"><ele>693.0</ele><time>2026-04-16T15:22:57.191Z</time></trkpt><trkpt lat="45.6484637" lon="10.2961443"><ele>752.0</ele><time>2026-04-16T15:22:58.19Z</time></trkpt><trkpt lat="45.6479076" lon="10.2980922"><ele>752.0</ele><time>2026-04-16T15:23:05.191Z</time></trkpt><trkpt lat="45.6478105" lon="10.298349"><ele>752.0</ele><time>2026-04-16T15:23:06.19Z</time></trkpt><trkpt lat="45.6477756" lon="10.2985935"><ele>752.0</ele><time>2026-04-16T15:23:07.191Z</time></trkpt><trkpt lat="45.6477539" lon="10.298829"><ele>752.3333333333333</ele><time>2026-04-16T15:23:08.19Z</time></trkpt><trkpt lat="45.647778" lon="10.299087"><ele>752.6666666666666</ele><time>2026-04-16T15:23:09.191Z</time></trkpt><trkpt lat="45.647824" lon="10.2993514"><ele>753.0</ele><time>2026-04-16T15:23:10.19Z</time></trkpt><trkpt lat="45.647874" lon="10.2996298"><ele>750.3333333333334</ele><time>2026-04-16T15:23:11.19Z</time></trkpt><trkpt lat="45.6479159" lon="10.2998966"><ele>747.6666666666667</ele><time>2026-04-16T15:23:12.191Z</time></trkpt><trkpt lat="45.647952" lon="10.3001571"><ele>745.0</ele><time>2026-04-16T15:23:13.191Z</time></trkpt><trkpt lat="45.6479657" lon="10.3003994"><ele>744.6666666666667</ele><time>2026-04-16T15:23:14.19Z</time></trkpt><trkpt lat="45.6479509" lon="10.300646"><ele>744.3333333333334</ele><time>2026-04-16T15:23:15.19Z</time></trkpt><trkpt lat="45.6479114" lon="10.3008866"><ele>744.0</ele><time>2026-04-16T15:23:16.19Z</time></trkpt><trkpt lat="45.6478562" lon="10.3011292"><ele>744.0</ele><time>2026-04-16T15:23:17.19Z</time></trkpt><trkpt lat="45.6478067" lon="10.3013572"><ele>744.0</ele><time>2026-04-16T15:23:18.191Z</time></trkpt><trkpt lat="45.6477552" lon="10.3015626"><ele>744.0</ele><time>2026-04-16T15:23:19.191Z</time></trkpt><trkpt lat="45.6477073" lon="10.3017409"><ele>740.75</ele><time>2026-04-16T15:23:20.191Z</time></trkpt><trkpt lat="45.6476621" lon="10.3019011"><ele>737.5</ele><time>2026-04-16T15:23:21.19Z</time></trkpt><trkpt lat="45.6476219" lon="10.3020588"><ele>734.25</ele><time>2026-04-16T15:23:22.191Z</time></trkpt><trkpt lat="45.6475745" lon="10.3022311"><ele>731.0</ele><time>2026-04-16T15:23:23.19Z</time></trkpt><trkpt lat="45.6475301" lon="10.302414"><ele>731.0</ele><time>2026-04-16T15:23:24.19Z</time></trkpt><trkpt lat="45.6474788" lon="10.3026039"><ele>731.0</ele><time>2026-04-16T15:23:25.19Z</time></trkpt><trkpt lat="45.6474333" lon="10.3027911"><ele>731.0</ele><time>2026-04-16T15:23:26.191Z</time></trkpt><trkpt lat="45.6473888" lon="10.3029744"><ele>731.0</ele><time>2026-04-16T15:23:27.191Z</time></trkpt><trkpt lat="45.6473478" lon="10.3031509"><ele>734.4</ele><time>2026-04-16T15:23:28.191Z</time></trkpt><trkpt lat="45.6473111" lon="10.3033049"><ele>737.8</ele><time>2026-04-16T15:23:29.191Z</time></trkpt><trkpt lat="45.6472773" lon="10.3034407"><ele>741.1999999999999</ele><time>2026-04-16T15:23:30.191Z</time></trkpt><trkpt lat="45.6472436" lon="10.3035724"><ele>744.5999999999999</ele><time>2026-04-16T15:23:31.19Z</time></trkpt><trkpt lat="45.6472119" lon="10.3036865"><ele>748.0</ele><time>2026-04-16T15:23:32.19Z</time></trkpt><trkpt lat="45.6471846" lon="10.303797"><ele>748.0</ele><time>2026-04-16T15:23:33.191Z</time></trkpt><trkpt lat="45.647168" lon="10.3038977"><ele>748.0</ele><time>2026-04-16T15:23:34.19Z</time></trkpt><trkpt lat="45.6471483" lon="10.3039891"><ele>748.0</ele><time>2026-04-16T15:23:35.19Z</time></trkpt><trkpt lat="45.6471029" lon="10.3041047"><ele>748.0</ele><time>2026-04-16T15:23:37.19Z</time></trkpt><trkpt lat="45.6470341" lon="10.3040673"><ele>748.0</ele><time>2026-04-16T15:23:40.191Z</time></trkpt><trkpt lat="45.6470763" lon="10.3039813"><ele>748.0</ele><time>2026-04-16T15:23:43.19Z</time></trkpt><trkpt lat="45.6471188" lon="10.3039012"><ele>748.0</ele><time>2026-04-16T15:23:46.191Z</time></trkpt><trkpt lat="45.6471374" lon="10.3037999"><ele>748.2</ele><time>2026-04-16T15:23:49.19Z</time></trkpt><trkpt lat="45.6470905" lon="10.3039201"><ele>748.4</ele><time>2026-04-16T15:24:34.189Z</time></trkpt><trkpt lat="45.6470839" lon="10.3040112"><ele>748.6</ele><time>2026-04-16T15:24:35.19Z</time></trkpt><trkpt lat="45.6470826" lon="10.304192"><ele>748.8000000000001</ele><time>2026-04-16T15:24:37.19Z</time></trkpt><trkpt lat="45.6470957" lon="10.3043166"><ele>749.0</ele><time>2026-04-16T15:24:38.19Z</time></trkpt><trkpt lat="45.6470884" lon="10.3044743"><ele>749.0</ele><time>2026-04-16T15:24:39.189Z</time></trkpt><trkpt lat="45.6470797" lon="10.304667"><ele>749.0</ele><time>2026-04-16T15:24:40.189Z</time></trkpt><trkpt lat="45.6470796" lon="10.3049049"><ele>749.0</ele><time>2026-04-16T15:24:41.19Z</time></trkpt><trkpt lat="45.6470983" lon="10.3051784"><ele>746.3333333333333</ele><time>2026-04-16T15:24:42.189Z</time></trkpt><trkpt lat="45.6471211" lon="10.3054747"><ele>743.6666666666666</ele><time>2026-04-16T15:24:43.19Z</time></trkpt><trkpt lat="45.6471551" lon="10.3058054"><ele>741.0</ele><time>2026-04-16T15:24:44.189Z</time></trkpt><trkpt lat="45.647186" lon="10.3061492"><ele>730.6666666666666</ele><time>2026-04-16T15:24:45.189Z</time></trkpt><trkpt lat="45.647226" lon="10.3064541"><ele>720.3333333333333</ele><time>2026-04-16T15:24:46.189Z</time></trkpt><trkpt lat="45.6472478" lon="10.3067544"><ele>710.0</ele><time>2026-04-16T15:24:47.19Z</time></trkpt><trkpt lat="45.6472778" lon="10.3070497"><ele>704.6666666666666</ele><time>2026-04-16T15:24:48.19Z</time></trkpt><trkpt lat="45.6472988" lon="10.3073638"><ele>699.3333333333334</ele><time>2026-04-16T15:24:49.19Z</time></trkpt><trkpt lat="45.6473238" lon="10.3076622"><ele>694.0</ele><time>2026-04-16T15:24:50.189Z</time></trkpt><trkpt lat="45.6473504" lon="10.307945"><ele>696.0</ele><time>2026-04-16T15:24:51.189Z</time></trkpt><trkpt lat="45.6473765" lon="10.3082227"><ele>698.0</ele><time>2026-04-16T15:24:52.19Z</time></trkpt><trkpt lat="45.6474032" lon="10.3085088"><ele>700.0</ele><time>2026-04-16T15:24:53.19Z</time></trkpt><trkpt lat="45.6474326" lon="10.308801"><ele>704.6666666666667</ele><time>2026-04-16T15:24:54.19Z</time></trkpt><trkpt lat="45.6474549" lon="10.309101"><ele>709.3333333333334</ele><time>2026-04-16T15:24:55.19Z</time></trkpt><trkpt lat="45.6474816" lon="10.3094076"><ele>714.0</ele><time>2026-04-16T15:24:56.19Z</time></trkpt><trkpt lat="45.6475127" lon="10.3097268"><ele>719.5</ele><time>2026-04-16T15:24:57.189Z</time></trkpt><trkpt lat="45.6475452" lon="10.3100608"><ele>725.0</ele><time>2026-04-16T15:24:58.189Z</time></trkpt><trkpt lat="45.6475679" lon="10.3103855"><ele>728.6666666666666</ele><time>2026-04-16T15:24:59.19Z</time></trkpt><trkpt lat="45.6475921" lon="10.3106968"><ele>732.3333333333334</ele><time>2026-04-16T15:25:00.19Z</time></trkpt><trkpt lat="45.647613" lon="10.3110056"><ele>736.0</ele><time>2026-04-16T15:25:01.19Z</time></trkpt><trkpt lat="45.6479649" lon="10.3138505"><ele>715.0</ele><time>2026-04-16T15:25:10.189Z</time></trkpt><trkpt lat="45.6480421" lon="10.3142672"><ele>694.0</ele><time>2026-04-16T15:25:11.19Z</time></trkpt><trkpt lat="45.6481001" lon="10.3146223"><ele>682.0</ele><time>2026-04-16T15:25:12.19Z</time></trkpt><trkpt lat="45.6481496" lon="10.3149651"><ele>670.0</ele><time>2026-04-16T15:25:13.189Z</time></trkpt><trkpt lat="45.6482017" lon="10.3152854"><ele>675.3333333333334</ele><time>2026-04-16T15:25:14.19Z</time></trkpt><trkpt lat="45.648253" lon="10.3156088"><ele>680.6666666666666</ele><time>2026-04-16T15:25:15.19Z</time></trkpt><trkpt lat="45.6483053" lon="10.3159046"><ele>686.0</ele><time>2026-04-16T15:25:16.189Z</time></trkpt><trkpt lat="45.6483524" lon="10.3161927"><ele>691.6666666666666</ele><time>2026-04-16T15:25:17.19Z</time></trkpt><trkpt lat="45.6483909" lon="10.3164618"><ele>697.3333333333334</ele><time>2026-04-16T15:25:18.19Z</time></trkpt><trkpt lat="45.648429" lon="10.3167167"><ele>703.0</ele><time>2026-04-16T15:25:19.189Z</time></trkpt><trkpt lat="45.6484336" lon="10.316983"><ele>707.0</ele><time>2026-04-16T15:25:20.189Z</time></trkpt><trkpt lat="45.6484086" lon="10.3172572"><ele>711.0</ele><time>2026-04-16T15:25:21.19Z</time></trkpt><trkpt lat="45.6483594" lon="10.3175396"><ele>715.0</ele><time>2026-04-16T15:25:22.19Z</time></trkpt><trkpt lat="45.6482947" lon="10.3178194"><ele>725.5</ele><time>2026-04-16T15:25:23.189Z</time></trkpt><trkpt lat="45.6482267" lon="10.3181119"><ele>736.0</ele><time>2026-04-16T15:25:24.19Z</time></trkpt><trkpt lat="45.6481398" lon="10.3184335"><ele>715.0</ele><time>2026-04-16T15:25:25.19Z</time></trkpt><trkpt lat="45.6461489" lon="10.3240377"><ele>715.0</ele><time>2026-04-16T15:25:47.19Z</time></trkpt><trkpt lat="45.6462169" lon="10.3241039"><ele>715.0</ele><time>2026-04-16T15:25:48.19Z</time></trkpt><trkpt lat="45.646188" lon="10.3243035"><ele>715.0</ele><time>2026-04-16T15:25:49.19Z</time></trkpt><trkpt lat="45.6461063" lon="10.3245322"><ele>715.0</ele><time>2026-04-16T15:25:50.19Z</time></trkpt><trkpt lat="45.6459361" lon="10.3249733"><ele>681.0</ele><time>2026-04-16T15:25:52.189Z</time></trkpt><trkpt lat="45.647203" lon="10.3339652"><ele>681.0</ele><time>2026-04-16T15:26:18.189Z</time></trkpt><trkpt lat="45.647134" lon="10.3340225"><ele>681.0</ele><time>2026-04-16T15:26:19.189Z</time></trkpt><trkpt lat="45.6471442" lon="10.3342732"><ele>681.0</ele><time>2026-04-16T15:26:20.19Z</time></trkpt><trkpt lat="45.6471537" lon="10.3345678"><ele>680.6666666666666</ele><time>2026-04-16T15:26:21.189Z</time></trkpt><trkpt lat="45.647145" lon="10.3348561"><ele>680.3333333333333</ele><time>2026-04-16T15:26:22.19Z</time></trkpt><trkpt lat="45.6471333" lon="10.3351308"><ele>680.0</ele><time>2026-04-16T15:26:23.189Z</time></trkpt><trkpt lat="45.6471131" lon="10.3353884"><ele>681.0</ele><time>2026-04-16T15:26:24.189Z</time></trkpt><trkpt lat="45.6470965" lon="10.3356405"><ele>682.0</ele><time>2026-04-16T15:26:25.19Z</time></trkpt><trkpt lat="45.6470869" lon="10.3358972"><ele>683.0</ele><time>2026-04-16T15:26:26.19Z</time></trkpt><trkpt lat="45.6470747" lon="10.3361452"><ele>683.0</ele><time>2026-04-16T15:26:27.19Z</time></trkpt><trkpt lat="45.6470763" lon="10.3363857"><ele>683.0</ele><time>2026-04-16T15:26:28.19Z</time></trkpt><trkpt lat="45.6470973" lon="10.3366285"><ele>683.0</ele><time>2026-04-16T15:26:29.189Z</time></trkpt><trkpt lat="45.6471376" lon="10.3368732"><ele>682.3333333333333</ele><time>2026-04-16T15:26:30.19Z</time></trkpt><trkpt lat="45.6471946" lon="10.3371095"><ele>681.6666666666666</ele><time>2026-04-16T15:26:31.189Z</time></trkpt><trkpt lat="45.6472811" lon="10.3373443"><ele>681.0</ele><time>2026-04-16T15:26:32.19Z</time></trkpt><trkpt lat="45.6473792" lon="10.3375644"><ele>673.6666666666666</ele><time>2026-04-16T15:26:33.19Z</time></trkpt><trkpt lat="45.6475045" lon="10.3377679"><ele>666.3333333333333</ele><time>2026-04-16T15:26:34.19Z</time></trkpt><trkpt lat="45.6476451" lon="10.3379478"><ele>659.0</ele><time>2026-04-16T15:26:35.19Z</time></trkpt><trkpt lat="45.6477961" lon="10.3381004"><ele>657.0</ele><time>2026-04-16T15:26:36.19Z</time></trkpt><trkpt lat="45.6479609" lon="10.3382277"><ele>655.0</ele><time>2026-04-16T15:26:37.19Z</time></trkpt><trkpt lat="45.6481407" lon="10.338336"><ele>653.0</ele><time>2026-04-16T15:26:38.19Z</time></trkpt><trkpt lat="45.6483159" lon="10.3384359"><ele>653.0</ele><time>2026-04-16T15:26:39.19Z</time></trkpt><trkpt lat="45.6484876" lon="10.3385168"><ele>653.0</ele><time>2026-04-16T15:26:40.19Z</time></trkpt><trkpt lat="45.6486543" lon="10.3386"><ele>653.0</ele><time>2026-04-16T15:26:41.189Z</time></trkpt><trkpt lat="45.6488091" lon="10.3386907"><ele>651.3333333333333</ele><time>2026-04-16T15:26:42.189Z</time></trkpt><trkpt lat="45.6489494" lon="10.3388017"><ele>649.6666666666666</ele><time>2026-04-16T15:26:43.19Z</time></trkpt><trkpt lat="45.64907" lon="10.3389536"><ele>648.0</ele><time>2026-04-16T15:26:44.19Z</time></trkpt><trkpt lat="45.6491782" lon="10.3391216"><ele>645.0</ele><time>2026-04-16T15:26:45.19Z</time></trkpt><trkpt lat="45.6492652" lon="10.3392973"><ele>642.0</ele><time>2026-04-16T15:26:46.189Z</time></trkpt><trkpt lat="45.6493174" lon="10.3395014"><ele>639.0</ele><time>2026-04-16T15:26:47.19Z</time></trkpt><trkpt lat="45.6493386" lon="10.3397291"><ele>637.3333333333334</ele><time>2026-04-16T15:26:48.19Z</time></trkpt><trkpt lat="45.6493307" lon="10.3399801"><ele>635.6666666666667</ele><time>2026-04-16T15:26:49.19Z</time></trkpt><trkpt lat="45.6492845" lon="10.3402046"><ele>634.0</ele><time>2026-04-16T15:26:50.19Z</time></trkpt><trkpt lat="45.6492215" lon="10.3404177"><ele>636.3333333333334</ele><time>2026-04-16T15:26:51.19Z</time></trkpt><trkpt lat="45.6491206" lon="10.3406367"><ele>638.6666666666666</ele><time>2026-04-16T15:26:52.189Z</time></trkpt><trkpt lat="45.6489992" lon="10.340857"><ele>641.0</ele><time>2026-04-16T15:26:53.19Z</time></trkpt><trkpt lat="45.6488674" lon="10.3410696"><ele>641.0</ele><time>2026-04-16T15:26:54.19Z</time></trkpt><trkpt lat="45.6487308" lon="10.3412673"><ele>641.0</ele><time>2026-04-16T15:26:55.19Z</time></trkpt><trkpt lat="45.6486037" lon="10.3414565"><ele>641.0</ele><time>2026-04-16T15:26:56.19Z</time></trkpt><trkpt lat="45.6484772" lon="10.3416378"><ele>636.0</ele><time>2026-04-16T15:26:57.19Z</time></trkpt><trkpt lat="45.6483549" lon="10.3418148"><ele>631.0</ele><time>2026-04-16T15:26:58.19Z</time></trkpt><trkpt lat="45.6482423" lon="10.3419938"><ele>626.0</ele><time>2026-04-16T15:26:59.189Z</time></trkpt><trkpt lat="45.6481309" lon="10.3421833"><ele>630.3333333333333</ele><time>2026-04-16T15:27:00.19Z</time></trkpt><trkpt lat="45.6480309" lon="10.3423856"><ele>634.6666666666666</ele><time>2026-04-16T15:27:01.19Z</time></trkpt><trkpt lat="45.6479469" lon="10.3426026"><ele>639.0</ele><time>2026-04-16T15:27:02.189Z</time></trkpt><trkpt lat="45.6478728" lon="10.3428275"><ele>641.6666666666666</ele><time>2026-04-16T15:27:03.189Z</time></trkpt><trkpt lat="45.6478208" lon="10.3430683"><ele>644.3333333333333</ele><time>2026-04-16T15:27:04.19Z</time></trkpt><trkpt lat="45.647804" lon="10.3433219"><ele>647.0</ele><time>2026-04-16T15:27:05.19Z</time></trkpt><trkpt lat="45.6477946" lon="10.3435731"><ele>647.0</ele><time>2026-04-16T15:27:06.189Z</time></trkpt><trkpt lat="45.6478089" lon="10.3438187"><ele>647.0</ele><time>2026-04-16T15:27:07.189Z</time></trkpt><trkpt lat="45.6478321" lon="10.3440459"><ele>647.0</ele><time>2026-04-16T15:27:08.19Z</time></trkpt><trkpt lat="45.6478681" lon="10.3442702"><ele>644.6666666666666</ele><time>2026-04-16T15:27:09.19Z</time></trkpt><trkpt lat="45.647912" lon="10.3444857"><ele>642.3333333333334</ele><time>2026-04-16T15:27:10.19Z</time></trkpt><trkpt lat="45.6479529" lon="10.3446923"><ele>640.0</ele><time>2026-04-16T15:27:11.19Z</time></trkpt><trkpt lat="45.6479987" lon="10.3448949"><ele>637.0</ele><time>2026-04-16T15:27:12.19Z</time></trkpt><trkpt lat="45.6480437" lon="10.3450886"><ele>634.0</ele><time>2026-04-16T15:27:13.189Z</time></trkpt><trkpt lat="45.6480857" lon="10.3452756"><ele>631.0</ele><time>2026-04-16T15:27:14.189Z</time></trkpt><trkpt lat="45.6481222" lon="10.3454339"><ele>628.0</ele><time>2026-04-16T15:27:15.189Z</time></trkpt><trkpt lat="45.648149" lon="10.3455731"><ele>627.3333333333334</ele><time>2026-04-16T15:27:16.19Z</time></trkpt><trkpt lat="45.6481711" lon="10.345691"><ele>626.6666666666667</ele><time>2026-04-16T15:27:17.19Z</time></trkpt><trkpt lat="45.6481814" lon="10.3457967"><ele>626.0</ele><time>2026-04-16T15:27:18.189Z</time></trkpt><trkpt lat="45.6481745" lon="10.3458955"><ele>625.3333333333334</ele><time>2026-04-16T15:27:19.189Z</time></trkpt><trkpt lat="45.6480575" lon="10.3459682"><ele>624.6666666666666</ele><time>2026-04-16T15:27:21.19Z</time></trkpt><trkpt lat="45.6479828" lon="10.3459349"><ele>624.0</ele><time>2026-04-16T15:27:22.19Z</time></trkpt><trkpt lat="45.647913" lon="10.3458565"><ele>624.0</ele><time>2026-04-16T15:27:23.19Z</time></trkpt><trkpt lat="45.6478576" lon="10.3457537"><ele>624.0</ele><time>2026-04-16T15:27:24.188Z</time></trkpt><trkpt lat="45.647802" lon="10.3456115"><ele>624.0</ele><time>2026-04-16T15:27:25.189Z</time></trkpt><trkpt lat="45.6477306" lon="10.3454559"><ele>624.0</ele><time>2026-04-16T15:27:26.189Z</time></trkpt><trkpt lat="45.6476464" lon="10.3452943"><ele>614.3333333333334</ele><time>2026-04-16T15:27:27.189Z</time></trkpt><trkpt lat="45.6475627" lon="10.3451145"><ele>604.6666666666667</ele><time>2026-04-16T15:27:28.188Z</time></trkpt><trkpt lat="45.647467" lon="10.3449228"><ele>595.0</ele><time>2026-04-16T15:27:29.189Z</time></trkpt><trkpt lat="45.6473747" lon="10.3447276"><ele>598.3333333333334</ele><time>2026-04-16T15:27:30.189Z</time></trkpt><trkpt lat="45.6472841" lon="10.3445291"><ele>601.6666666666666</ele><time>2026-04-16T15:27:31.189Z</time></trkpt><trkpt lat="45.6471952" lon="10.3443158"><ele>605.0</ele><time>2026-04-16T15:27:32.188Z</time></trkpt><trkpt lat="45.6471017" lon="10.3441001"><ele>605.3333333333333</ele><time>2026-04-16T15:27:33.188Z</time></trkpt><trkpt lat="45.6470166" lon="10.3438614"><ele>605.6666666666666</ele><time>2026-04-16T15:27:34.189Z</time></trkpt><trkpt lat="45.6469372" lon="10.3435945"><ele>606.0</ele><time>2026-04-16T15:27:35.189Z</time></trkpt><trkpt lat="45.646873" lon="10.3433201"><ele>598.0</ele><time>2026-04-16T15:27:36.189Z</time></trkpt><trkpt lat="45.6468218" lon="10.3430534"><ele>590.0</ele><time>2026-04-16T15:27:37.188Z</time></trkpt><trkpt lat="45.646758" lon="10.3428114"><ele>582.0</ele><time>2026-04-16T15:27:38.189Z</time></trkpt><trkpt lat="45.6466971" lon="10.3425912"><ele>582.0</ele><time>2026-04-16T15:27:39.189Z</time></trkpt><trkpt lat="45.6466637" lon="10.342411"><ele>582.0</ele><time>2026-04-16T15:27:40.189Z</time></trkpt><trkpt lat="45.6466355" lon="10.3422646"><ele>582.0</ele><time>2026-04-16T15:27:41.188Z</time></trkpt><trkpt lat="45.6466035" lon="10.3421168"><ele>582.0</ele><time>2026-04-16T15:27:42.188Z</time></trkpt><trkpt lat="45.6465555" lon="10.3419877"><ele>582.0</ele><time>2026-04-16T15:27:43.189Z</time></trkpt><trkpt lat="45.6464836" lon="10.3418982"><ele>582.4</ele><time>2026-04-16T15:27:44.188Z</time></trkpt><trkpt lat="45.6463973" lon="10.3418492"><ele>582.8000000000001</ele><time>2026-04-16T15:27:45.189Z</time></trkpt><trkpt lat="45.6463144" lon="10.3418661"><ele>583.2</ele><time>2026-04-16T15:27:46.188Z</time></trkpt><trkpt lat="45.6462279" lon="10.3419234"><ele>583.6</ele><time>2026-04-16T15:27:47.189Z</time></trkpt><trkpt lat="45.6461566" lon="10.3420187"><ele>584.0</ele><time>2026-04-16T15:27:48.189Z</time></trkpt><trkpt lat="45.6461225" lon="10.3421427"><ele>583.5</ele><time>2026-04-16T15:27:49.189Z</time></trkpt><trkpt lat="45.646123" lon="10.3422748"><ele>583.0</ele><time>2026-04-16T15:27:50.189Z</time></trkpt><trkpt lat="45.6461497" lon="10.3424249"><ele>582.5</ele><time>2026-04-16T15:27:51.188Z</time></trkpt><trkpt lat="45.6461996" lon="10.3426073"><ele>582.0</ele><time>2026-04-16T15:27:52.189Z</time></trkpt><trkpt lat="45.6462567" lon="10.3427985"><ele>582.0</ele><time>2026-04-16T15:27:53.189Z</time></trkpt><trkpt lat="45.646303" lon="10.3430238"><ele>582.0</ele><time>2026-04-16T15:27:54.188Z</time></trkpt><trkpt lat="45.6463708" lon="10.3433124"><ele>582.0</ele><time>2026-04-16T15:27:55.189Z</time></trkpt><trkpt lat="45.6464475" lon="10.3436212"><ele>580.0</ele><time>2026-04-16T15:27:56.188Z</time></trkpt><trkpt lat="45.6465271" lon="10.3439505"><ele>578.0</ele><time>2026-04-16T15:27:57.189Z</time></trkpt><trkpt lat="45.6466171" lon="10.3443033"><ele>578.0</ele><time>2026-04-16T15:27:58.188Z</time></trkpt><trkpt lat="45.6467044" lon="10.3446587"><ele>578.0</ele><time>2026-04-16T15:27:59.189Z</time></trkpt><trkpt lat="45.6467828" lon="10.3449561"><ele>580.3333333333333</ele><time>2026-04-16T15:28:00.188Z</time></trkpt><trkpt lat="45.6468435" lon="10.3452274"><ele>582.6666666666666</ele><time>2026-04-16T15:28:01.189Z</time></trkpt><trkpt lat="45.6469126" lon="10.3454826"><ele>585.0</ele><time>2026-04-16T15:28:02.188Z</time></trkpt><trkpt lat="45.6469725" lon="10.3457394"><ele>585.0</ele><time>2026-04-16T15:28:03.188Z</time></trkpt><trkpt lat="45.6470362" lon="10.3460096"><ele>585.0</ele><time>2026-04-16T15:28:04.189Z</time></trkpt><trkpt lat="45.647097" lon="10.3462772"><ele>585.0</ele><time>2026-04-16T15:28:05.189Z</time></trkpt><trkpt lat="45.6471465" lon="10.3465266"><ele>583.0</ele><time>2026-04-16T15:28:06.189Z</time></trkpt><trkpt lat="45.6471952" lon="10.3467619"><ele>581.0</ele><time>2026-04-16T15:28:07.188Z</time></trkpt><trkpt lat="45.647233" lon="10.346987"><ele>579.0</ele><time>2026-04-16T15:28:08.189Z</time></trkpt><trkpt lat="45.6472548" lon="10.347209"><ele>578.25</ele><time>2026-04-16T15:28:09.189Z</time></trkpt><trkpt lat="45.6472792" lon="10.347425"><ele>577.5</ele><time>2026-04-16T15:28:10.189Z</time></trkpt><trkpt lat="45.6473004" lon="10.3476312"><ele>576.75</ele><time>2026-04-16T15:28:11.189Z</time></trkpt><trkpt lat="45.6473386" lon="10.3478318"><ele>576.0</ele><time>2026-04-16T15:28:12.189Z</time></trkpt><trkpt lat="45.6474061" lon="10.3480313"><ele>571.25</ele><time>2026-04-16T15:28:13.188Z</time></trkpt><trkpt lat="45.6474945" lon="10.3482104"><ele>566.5</ele><time>2026-04-16T15:28:14.189Z</time></trkpt><trkpt lat="45.6475953" lon="10.3483651"><ele>561.75</ele><time>2026-04-16T15:28:15.189Z</time></trkpt><trkpt lat="45.6477047" lon="10.3484982"><ele>557.0</ele><time>2026-04-16T15:28:16.189Z</time></trkpt><trkpt lat="45.6478295" lon="10.3486343"><ele>556.3333333333333</ele><time>2026-04-16T15:28:17.189Z</time></trkpt><trkpt lat="45.6479636" lon="10.3487805"><ele>555.6666666666666</ele><time>2026-04-16T15:28:18.189Z</time></trkpt><trkpt lat="45.6480774" lon="10.3489353"><ele>555.0</ele><time>2026-04-16T15:28:19.189Z</time></trkpt><trkpt lat="45.6481884" lon="10.3490724"><ele>555.0</ele><time>2026-04-16T15:28:20.188Z</time></trkpt><trkpt lat="45.6482953" lon="10.3492115"><ele>555.0</ele><time>2026-04-16T15:28:21.189Z</time></trkpt><trkpt lat="45.6483937" lon="10.3493307"><ele>555.0</ele><time>2026-04-16T15:28:22.188Z</time></trkpt><trkpt lat="45.6484944" lon="10.3494153"><ele>555.0</ele><time>2026-04-16T15:28:23.188Z</time></trkpt><trkpt lat="45.6485999" lon="10.3494741"><ele>555.0</ele><time>2026-04-16T15:28:24.189Z</time></trkpt><trkpt lat="45.6487182" lon="10.3494962"><ele>555.0</ele><time>2026-04-16T15:28:25.188Z</time></trkpt><trkpt lat="45.64884" lon="10.3494931"><ele>555.0</ele><time>2026-04-16T15:28:26.189Z</time></trkpt><trkpt lat="45.648959" lon="10.3494456"><ele>555.0</ele><time>2026-04-16T15:28:27.188Z</time></trkpt><trkpt lat="45.6490626" lon="10.3493606"><ele>555.0</ele><time>2026-04-16T15:28:28.189Z</time></trkpt><trkpt lat="45.6491734" lon="10.3492652"><ele>555.0</ele><time>2026-04-16T15:28:29.189Z</time></trkpt><trkpt lat="45.6492983" lon="10.3491386"><ele>555.0</ele><time>2026-04-16T15:28:30.188Z</time></trkpt><trkpt lat="45.6494344" lon="10.3489701"><ele>552.6666666666666</ele><time>2026-04-16T15:28:31.189Z</time></trkpt><trkpt lat="45.6495604" lon="10.3488097"><ele>550.3333333333333</ele><time>2026-04-16T15:28:32.189Z</time></trkpt><trkpt lat="45.6496863" lon="10.3486684"><ele>548.0</ele><time>2026-04-16T15:28:33.189Z</time></trkpt><trkpt lat="45.6498093" lon="10.3485261"><ele>548.0</ele><time>2026-04-16T15:28:34.189Z</time></trkpt><trkpt lat="45.6499207" lon="10.3483821"><ele>548.0</ele><time>2026-04-16T15:28:35.188Z</time></trkpt><trkpt lat="45.6500114" lon="10.3482245"><ele>548.0</ele><time>2026-04-16T15:28:36.188Z</time></trkpt><trkpt lat="45.6500866" lon="10.34806"><ele>548.0</ele><time>2026-04-16T15:28:37.189Z</time></trkpt><trkpt lat="45.6501482" lon="10.3478942"><ele>542.75</ele><time>2026-04-16T15:28:38.189Z</time></trkpt><trkpt lat="45.6502033" lon="10.3477265"><ele>537.5</ele><time>2026-04-16T15:28:39.188Z</time></trkpt><trkpt lat="45.6502736" lon="10.347554"><ele>532.25</ele><time>2026-04-16T15:28:40.189Z</time></trkpt><trkpt lat="45.6503595" lon="10.3473845"><ele>527.0</ele><time>2026-04-16T15:28:41.188Z</time></trkpt><trkpt lat="45.6504797" lon="10.3472493"><ele>534.3333333333333</ele><time>2026-04-16T15:28:42.188Z</time></trkpt><trkpt lat="45.6506096" lon="10.3471387"><ele>541.6666666666666</ele><time>2026-04-16T15:28:43.188Z</time></trkpt><trkpt lat="45.6507547" lon="10.3470506"><ele>549.0</ele><time>2026-04-16T15:28:44.188Z</time></trkpt><trkpt lat="45.6509117" lon="10.3469641"><ele>549.0</ele><time>2026-04-16T15:28:45.189Z</time></trkpt><trkpt lat="45.6510824" lon="10.3468898"><ele>549.0</ele><time>2026-04-16T15:28:46.188Z</time></trkpt><trkpt lat="45.651246" lon="10.3468125"><ele>549.0</ele><time>2026-04-16T15:28:47.188Z</time></trkpt><trkpt lat="45.6514048" lon="10.3467238"><ele>542.3333333333334</ele><time>2026-04-16T15:28:48.189Z</time></trkpt><trkpt lat="45.6515614" lon="10.3466332"><ele>535.6666666666667</ele><time>2026-04-16T15:28:49.189Z</time></trkpt><trkpt lat="45.6517108" lon="10.3465547"><ele>529.0</ele><time>2026-04-16T15:28:50.189Z</time></trkpt><trkpt lat="45.6518633" lon="10.3464644"><ele>528.0</ele><time>2026-04-16T15:28:51.188Z</time></trkpt><trkpt lat="45.6520116" lon="10.3463836"><ele>527.0</ele><time>2026-04-16T15:28:52.188Z</time></trkpt><trkpt lat="45.6521663" lon="10.3462981"><ele>526.0</ele><time>2026-04-16T15:28:53.188Z</time></trkpt><trkpt lat="45.6523273" lon="10.3462137"><ele>526.0</ele><time>2026-04-16T15:28:54.188Z</time></trkpt><trkpt lat="45.6524833" lon="10.3461247"><ele>526.0</ele><time>2026-04-16T15:28:55.189Z</time></trkpt><trkpt lat="45.6526446" lon="10.3460484"><ele>526.0</ele><time>2026-04-16T15:28:56.189Z</time></trkpt><trkpt lat="45.6528028" lon="10.3459678"><ele>521.3333333333334</ele><time>2026-04-16T15:28:57.188Z</time></trkpt><trkpt lat="45.6529677" lon="10.3458825"><ele>516.6666666666666</ele><time>2026-04-16T15:28:58.189Z</time></trkpt><trkpt lat="45.6531331" lon="10.3457943"><ele>512.0</ele><time>2026-04-16T15:28:59.189Z</time></trkpt><trkpt lat="45.6532978" lon="10.345709"><ele>512.0</ele><time>2026-04-16T15:29:00.189Z</time></trkpt><trkpt lat="45.6534606" lon="10.3456361"><ele>512.0</ele><time>2026-04-16T15:29:01.189Z</time></trkpt><trkpt lat="45.653615" lon="10.3455523"><ele>512.0</ele><time>2026-04-16T15:29:02.189Z</time></trkpt><trkpt lat="45.653775" lon="10.3454697"><ele>514.0</ele><time>2026-04-16T15:29:03.189Z</time></trkpt><trkpt lat="45.6539378" lon="10.3453796"><ele>516.0</ele><time>2026-04-16T15:29:04.188Z</time></trkpt><trkpt lat="45.6540939" lon="10.3452948"><ele>518.0</ele><time>2026-04-16T15:29:05.188Z</time></trkpt><trkpt lat="45.6542549" lon="10.3452252"><ele>518.0</ele><time>2026-04-16T15:29:06.189Z</time></trkpt><trkpt lat="45.6544183" lon="10.3451725"><ele>518.0</ele><time>2026-04-16T15:29:07.188Z</time></trkpt><trkpt lat="45.6545864" lon="10.3451401"><ele>518.0</ele><time>2026-04-16T15:29:08.189Z</time></trkpt><trkpt lat="45.6547556" lon="10.3451083"><ele>514.6666666666666</ele><time>2026-04-16T15:29:09.189Z</time></trkpt><trkpt lat="45.6549246" lon="10.345087"><ele>511.33333333333337</ele><time>2026-04-16T15:29:10.188Z</time></trkpt><trkpt lat="45.6550951" lon="10.3450802"><ele>508.0</ele><time>2026-04-16T15:29:11.188Z</time></trkpt><trkpt lat="45.6552734" lon="10.3450825"><ele>506.6666666666667</ele><time>2026-04-16T15:29:12.189Z</time></trkpt><trkpt lat="45.6554506" lon="10.345096"><ele>505.33333333333337</ele><time>2026-04-16T15:29:13.188Z</time></trkpt><trkpt lat="45.6556273" lon="10.3451032"><ele>504.0</ele><time>2026-04-16T15:29:14.188Z</time></trkpt><trkpt lat="45.6557971" lon="10.345113"><ele>504.0</ele><time>2026-04-16T15:29:15.189Z</time></trkpt><trkpt lat="45.6559628" lon="10.3451123"><ele>504.0</ele><time>2026-04-16T15:29:16.189Z</time></trkpt><trkpt lat="45.656127" lon="10.3450968"><ele>504.0</ele><time>2026-04-16T15:29:17.189Z</time></trkpt><trkpt lat="45.6562942" lon="10.3450669"><ele>500.66666666666663</ele><time>2026-04-16T15:29:18.188Z</time></trkpt><trkpt lat="45.6564552" lon="10.3450235"><ele>497.3333333333333</ele><time>2026-04-16T15:29:19.189Z</time></trkpt><trkpt lat="45.6566078" lon="10.3449601"><ele>494.0</ele><time>2026-04-16T15:29:20.189Z</time></trkpt><trkpt lat="45.6567502" lon="10.3448782"><ele>494.0</ele><time>2026-04-16T15:29:21.189Z</time></trkpt><trkpt lat="45.6568925" lon="10.3447747"><ele>494.0</ele><time>2026-04-16T15:29:22.189Z</time></trkpt><trkpt lat="45.6570263" lon="10.3446738"><ele>494.0</ele><time>2026-04-16T15:29:23.189Z</time></trkpt><trkpt lat="45.6571644" lon="10.344581"><ele>495.25</ele><time>2026-04-16T15:29:24.189Z</time></trkpt><trkpt lat="45.6572994" lon="10.3444819"><ele>496.5</ele><time>2026-04-16T15:29:25.189Z</time></trkpt><trkpt lat="45.6574293" lon="10.3443886"><ele>497.75</ele><time>2026-04-16T15:29:26.188Z</time></trkpt><trkpt lat="45.657559" lon="10.344312"><ele>499.0</ele><time>2026-04-16T15:29:27.189Z</time></trkpt><trkpt lat="45.6576797" lon="10.344231"><ele>496.75</ele><time>2026-04-16T15:29:28.188Z</time></trkpt><trkpt lat="45.6577969" lon="10.3441588"><ele>494.5</ele><time>2026-04-16T15:29:29.189Z</time></trkpt><trkpt lat="45.6579115" lon="10.3440914"><ele>492.25</ele><time>2026-04-16T15:29:30.189Z</time></trkpt><trkpt lat="45.6580261" lon="10.3440405"><ele>490.0</ele><time>2026-04-16T15:29:31.189Z</time></trkpt><trkpt lat="45.6581306" lon="10.344003"><ele>490.0</ele><time>2026-04-16T15:29:32.189Z</time></trkpt><trkpt lat="45.6582396" lon="10.3439771"><ele>490.0</ele><time>2026-04-16T15:29:33.189Z</time></trkpt><trkpt lat="45.6583413" lon="10.3439591"><ele>490.0</ele><time>2026-04-16T15:29:34.189Z</time></trkpt><trkpt lat="45.6584287" lon="10.3439449"><ele>490.0</ele><time>2026-04-16T15:29:35.188Z</time></trkpt><trkpt lat="45.658499" lon="10.3439266"><ele>490.0</ele><time>2026-04-16T15:29:36.188Z</time></trkpt><trkpt lat="45.6586254" lon="10.3439386"><ele>488.33333333333337</ele><time>2026-04-16T15:29:38.189Z</time></trkpt><trkpt lat="45.6586871" lon="10.3439744"><ele>486.6666666666667</ele><time>2026-04-16T15:29:39.189Z</time></trkpt><trkpt lat="45.6587431" lon="10.3440157"><ele>485.0</ele><time>2026-04-16T15:29:40.189Z</time></trkpt><trkpt lat="45.6588028" lon="10.3440506"><ele>483.33333333333337</ele><time>2026-04-16T15:29:41.188Z</time></trkpt><trkpt lat="45.6589269" lon="10.3440898"><ele>481.6666666666667</ele><time>2026-04-16T15:29:43.189Z</time></trkpt><trkpt lat="45.6589994" lon="10.3440576"><ele>480.0</ele><time>2026-04-16T15:29:44.189Z</time></trkpt><trkpt lat="45.6590747" lon="10.3440205"><ele>480.0</ele><time>2026-04-16T15:29:45.188Z</time></trkpt><trkpt lat="45.6591526" lon="10.3439814"><ele>480.0</ele><time>2026-04-16T15:29:46.188Z</time></trkpt><trkpt lat="45.659231" lon="10.3439497"><ele>480.0</ele><time>2026-04-16T15:29:47.188Z</time></trkpt><trkpt lat="45.65933" lon="10.3439401"><ele>480.0</ele><time>2026-04-16T15:29:48.189Z</time></trkpt><trkpt lat="45.6594514" lon="10.3439283"><ele>480.0</ele><time>2026-04-16T15:29:49.189Z</time></trkpt><trkpt lat="45.6595749" lon="10.3439241"><ele>481.33333333333337</ele><time>2026-04-16T15:29:50.188Z</time></trkpt><trkpt lat="45.6597173" lon="10.3439131"><ele>482.6666666666667</ele><time>2026-04-16T15:29:51.188Z</time></trkpt><trkpt lat="45.6598709" lon="10.3439086"><ele>484.0</ele><time>2026-04-16T15:29:52.189Z</time></trkpt><trkpt lat="45.6600301" lon="10.3438743"><ele>484.0</ele><time>2026-04-16T15:29:53.188Z</time></trkpt><trkpt lat="45.6601926" lon="10.3438221"><ele>484.0</ele><time>2026-04-16T15:29:54.189Z</time></trkpt><trkpt lat="45.6603546" lon="10.3437501"><ele>484.0</ele><time>2026-04-16T15:29:55.189Z</time></trkpt><trkpt lat="45.6605124" lon="10.3436589"><ele>481.0</ele><time>2026-04-16T15:29:56.188Z</time></trkpt><trkpt lat="45.6606584" lon="10.3435405"><ele>478.0</ele><time>2026-04-16T15:29:57.188Z</time></trkpt><trkpt lat="45.6608006" lon="10.3433934"><ele>475.0</ele><time>2026-04-16T15:29:58.189Z</time></trkpt><trkpt lat="45.6609508" lon="10.343217"><ele>472.33333333333337</ele><time>2026-04-16T15:29:59.189Z</time></trkpt><trkpt lat="45.6611015" lon="10.3430233"><ele>469.66666666666663</ele><time>2026-04-16T15:30:00.189Z</time></trkpt><trkpt lat="45.6612646" lon="10.3428306"><ele>467.0</ele><time>2026-04-16T15:30:01.189Z</time></trkpt><trkpt lat="45.6614257" lon="10.3426446"><ele>467.0</ele><time>2026-04-16T15:30:02.188Z</time></trkpt><trkpt lat="45.6615962" lon="10.342451"><ele>467.0</ele><time>2026-04-16T15:30:03.188Z</time></trkpt><trkpt lat="45.6617793" lon="10.3422665"><ele>467.0</ele><time>2026-04-16T15:30:04.189Z</time></trkpt><trkpt lat="45.6619577" lon="10.3420909"><ele>466.3333333333333</ele><time>2026-04-16T15:30:05.189Z</time></trkpt><trkpt lat="45.6621354" lon="10.3419412"><ele>465.66666666666663</ele><time>2026-04-16T15:30:06.189Z</time></trkpt><trkpt lat="45.6623074" lon="10.3417966"><ele>465.0</ele><time>2026-04-16T15:30:07.188Z</time></trkpt><trkpt lat="45.6624733" lon="10.3416578"><ele>465.0</ele><time>2026-04-16T15:30:08.188Z</time></trkpt><trkpt lat="45.6626267" lon="10.3415144"><ele>465.0</ele><time>2026-04-16T15:30:09.188Z</time></trkpt><trkpt lat="45.6627689" lon="10.3413918"><ele>465.0</ele><time>2026-04-16T15:30:10.189Z</time></trkpt><trkpt lat="45.6629011" lon="10.3412707"><ele>463.0</ele><time>2026-04-16T15:30:11.189Z</time></trkpt><trkpt lat="45.6630247" lon="10.3411684"><ele>461.0</ele><time>2026-04-16T15:30:12.189Z</time></trkpt><trkpt lat="45.663133" lon="10.3410725"><ele>459.0</ele><time>2026-04-16T15:30:13.189Z</time></trkpt><trkpt lat="45.6632405" lon="10.3409829"><ele>457.0</ele><time>2026-04-16T15:30:14.188Z</time></trkpt><trkpt lat="45.6633407" lon="10.3409059"><ele>457.0</ele><time>2026-04-16T15:30:15.188Z</time></trkpt><trkpt lat="45.6634328" lon="10.3408589"><ele>457.00000000000006</ele><time>2026-04-16T15:30:16.189Z</time></trkpt><trkpt lat="45.6635366" lon="10.3408501"><ele>457.00000000000006</ele><time>2026-04-16T15:30:17.189Z</time></trkpt><trkpt lat="45.6636385" lon="10.3408788"><ele>457.0</ele><time>2026-04-16T15:30:18.188Z</time></trkpt><trkpt lat="45.6637363" lon="10.3409508"><ele>457.0</ele><time>2026-04-16T15:30:19.188Z</time></trkpt><trkpt lat="45.6638296" lon="10.3410699"><ele>458.0</ele><time>2026-04-16T15:30:20.189Z</time></trkpt><trkpt lat="45.6639118" lon="10.3412319"><ele>459.0</ele><time>2026-04-16T15:30:21.188Z</time></trkpt><trkpt lat="45.6639642" lon="10.3414326"><ele>460.0</ele><time>2026-04-16T15:30:22.189Z</time></trkpt><trkpt lat="45.6639925" lon="10.3416697"><ele>455.6666666666667</ele><time>2026-04-16T15:30:23.189Z</time></trkpt><trkpt lat="45.6640213" lon="10.3419258"><ele>451.33333333333337</ele><time>2026-04-16T15:30:24.189Z</time></trkpt><trkpt lat="45.6640521" lon="10.3421878"><ele>447.0</ele><time>2026-04-16T15:30:25.189Z</time></trkpt><trkpt lat="45.664067" lon="10.342469"><ele>445.66666666666663</ele><time>2026-04-16T15:30:26.189Z</time></trkpt><trkpt lat="45.6640509" lon="10.3427561"><ele>444.3333333333333</ele><time>2026-04-16T15:30:27.188Z</time></trkpt><trkpt lat="45.6640208" lon="10.3430479"><ele>443.0</ele><time>2026-04-16T15:30:28.189Z</time></trkpt><trkpt lat="45.6639706" lon="10.3433433"><ele>443.0</ele><time>2026-04-16T15:30:29.189Z</time></trkpt><trkpt lat="45.6639111" lon="10.3436542"><ele>443.0</ele><time>2026-04-16T15:30:30.188Z</time></trkpt><trkpt lat="45.6638518" lon="10.3439708"><ele>445.0</ele><time>2026-04-16T15:30:31.188Z</time></trkpt><trkpt lat="45.6637804" lon="10.3442992"><ele>447.0</ele><time>2026-04-16T15:30:32.189Z</time></trkpt><trkpt lat="45.6637052" lon="10.3446263"><ele>446.5</ele><time>2026-04-16T15:30:33.189Z</time></trkpt><trkpt lat="45.6636302" lon="10.3449484"><ele>446.0</ele><time>2026-04-16T15:30:34.189Z</time></trkpt><trkpt lat="45.6635612" lon="10.3452671"><ele>436.66666666666663</ele><time>2026-04-16T15:30:35.188Z</time></trkpt><trkpt lat="45.6634898" lon="10.3455678"><ele>427.33333333333337</ele><time>2026-04-16T15:30:36.188Z</time></trkpt><trkpt lat="45.6634093" lon="10.3458564"><ele>418.0</ele><time>2026-04-16T15:30:37.188Z</time></trkpt><trkpt lat="45.6633231" lon="10.3461283"><ele>419.6666666666667</ele><time>2026-04-16T15:30:38.189Z</time></trkpt><trkpt lat="45.663224" lon="10.3463829"><ele>421.33333333333337</ele><time>2026-04-16T15:30:39.189Z</time></trkpt><trkpt lat="45.6631247" lon="10.3466231"><ele>423.0</ele><time>2026-04-16T15:30:40.189Z</time></trkpt><trkpt lat="45.6630193" lon="10.3468504"><ele>423.0</ele><time>2026-04-16T15:30:41.189Z</time></trkpt><trkpt lat="45.6629217" lon="10.3470638"><ele>423.0</ele><time>2026-04-16T15:30:42.189Z</time></trkpt><trkpt lat="45.6628254" lon="10.3472591"><ele>423.0</ele><time>2026-04-16T15:30:43.189Z</time></trkpt><trkpt lat="45.6627362" lon="10.3474446"><ele>419.25</ele><time>2026-04-16T15:30:44.189Z</time></trkpt><trkpt lat="45.66265" lon="10.3476083"><ele>415.5</ele><time>2026-04-16T15:30:45.189Z</time></trkpt><trkpt lat="45.6625697" lon="10.3477606"><ele>411.75</ele><time>2026-04-16T15:30:46.189Z</time></trkpt><trkpt lat="45.6625081" lon="10.3479046"><ele>408.0</ele><time>2026-04-16T15:30:47.188Z</time></trkpt><trkpt lat="45.662461" lon="10.3480371"><ele>407.0</ele><time>2026-04-16T15:30:48.188Z</time></trkpt><trkpt lat="45.6624537" lon="10.3481774"><ele>406.0</ele><time>2026-04-16T15:30:49.187Z</time></trkpt><trkpt lat="45.66247" lon="10.3482951"><ele>405.0</ele><time>2026-04-16T15:30:50.187Z</time></trkpt><trkpt lat="45.6625227" lon="10.3484012"><ele>404.0</ele><time>2026-04-16T15:30:51.188Z</time></trkpt><trkpt lat="45.6625978" lon="10.348487"><ele>403.0</ele><time>2026-04-16T15:30:52.187Z</time></trkpt><trkpt lat="45.662688" lon="10.3485393"><ele>403.75</ele><time>2026-04-16T15:30:53.187Z</time></trkpt><trkpt lat="45.6627886" lon="10.3485479"><ele>404.5</ele><time>2026-04-16T15:30:54.187Z</time></trkpt><trkpt lat="45.6629098" lon="10.3485049"><ele>405.25</ele><time>2026-04-16T15:30:55.187Z</time></trkpt><trkpt lat="45.6630572" lon="10.3484622"><ele>406.0</ele><time>2026-04-16T15:30:56.188Z</time></trkpt><trkpt lat="45.6632007" lon="10.3484042"><ele>406.0</ele><time>2026-04-16T15:30:57.187Z</time></trkpt><trkpt lat="45.6633718" lon="10.3483588"><ele>406.0</ele><time>2026-04-16T15:30:58.188Z</time></trkpt><trkpt lat="45.6635494" lon="10.3483017"><ele>406.0</ele><time>2026-04-16T15:30:59.188Z</time></trkpt><trkpt lat="45.6637175" lon="10.3482471"><ele>405.75</ele><time>2026-04-16T15:31:00.187Z</time></trkpt><trkpt lat="45.663875" lon="10.3481935"><ele>405.5</ele><time>2026-04-16T15:31:01.187Z</time></trkpt><trkpt lat="45.6640218" lon="10.3481494"><ele>405.25</ele><time>2026-04-16T15:31:02.188Z</time></trkpt><trkpt lat="45.6641537" lon="10.3481076"><ele>405.0</ele><time>2026-04-16T15:31:03.187Z</time></trkpt><trkpt lat="45.6642763" lon="10.3480653"><ele>407.8</ele><time>2026-04-16T15:31:04.187Z</time></trkpt><trkpt lat="45.6643868" lon="10.3480173"><ele>410.6</ele><time>2026-04-16T15:31:05.187Z</time></trkpt><trkpt lat="45.6644895" lon="10.3479722"><ele>413.4</ele><time>2026-04-16T15:31:06.187Z</time></trkpt><trkpt lat="45.6645826" lon="10.3479507"><ele>416.2</ele><time>2026-04-16T15:31:07.187Z</time></trkpt><trkpt lat="45.6646814" lon="10.3479403"><ele>419.0</ele><time>2026-04-16T15:31:08.188Z</time></trkpt><trkpt lat="45.6647761" lon="10.3479751"><ele>417.4</ele><time>2026-04-16T15:31:09.187Z</time></trkpt><trkpt lat="45.6648487" lon="10.3480698"><ele>415.79999999999995</ele><time>2026-04-16T15:31:10.187Z</time></trkpt><trkpt lat="45.6648931" lon="10.3481968"><ele>414.20000000000005</ele><time>2026-04-16T15:31:11.187Z</time></trkpt><trkpt lat="45.664912" lon="10.348332"><ele>412.6</ele><time>2026-04-16T15:31:12.188Z</time></trkpt><trkpt lat="45.664906" lon="10.3484764"><ele>411.0</ele><time>2026-04-16T15:31:13.188Z</time></trkpt><trkpt lat="45.664866" lon="10.3486154"><ele>411.0</ele><time>2026-04-16T15:31:14.188Z</time></trkpt><trkpt lat="45.664764" lon="10.3487458"><ele>411.0</ele><time>2026-04-16T15:31:15.187Z</time></trkpt><trkpt lat="45.6646399" lon="10.3488794"><ele>411.0</ele><time>2026-04-16T15:31:16.188Z</time></trkpt><trkpt lat="45.664512" lon="10.3490219"><ele>406.66666666666663</ele><time>2026-04-16T15:31:17.188Z</time></trkpt><trkpt lat="45.6643911" lon="10.3491752"><ele>402.3333333333333</ele><time>2026-04-16T15:31:18.187Z</time></trkpt><trkpt lat="45.6642754" lon="10.3493343"><ele>398.0</ele><time>2026-04-16T15:31:19.188Z</time></trkpt><trkpt lat="45.6641605" lon="10.3494896"><ele>398.0</ele><time>2026-04-16T15:31:20.188Z</time></trkpt><trkpt lat="45.6640526" lon="10.3496497"><ele>398.0</ele><time>2026-04-16T15:31:21.188Z</time></trkpt><trkpt lat="45.6639403" lon="10.3498118"><ele>398.0</ele><time>2026-04-16T15:31:22.188Z</time></trkpt><trkpt lat="45.6638275" lon="10.3499625"><ele>399.3333333333333</ele><time>2026-04-16T15:31:23.188Z</time></trkpt><trkpt lat="45.6637171" lon="10.3501208"><ele>400.66666666666663</ele><time>2026-04-16T15:31:24.187Z</time></trkpt><trkpt lat="45.6635978" lon="10.3502782"><ele>402.0</ele><time>2026-04-16T15:31:25.188Z</time></trkpt><trkpt lat="45.6634726" lon="10.3504526"><ele>400.0</ele><time>2026-04-16T15:31:26.188Z</time></trkpt><trkpt lat="45.6633273" lon="10.3506181"><ele>398.0</ele><time>2026-04-16T15:31:27.188Z</time></trkpt><trkpt lat="45.6631774" lon="10.3507937"><ele>396.0</ele><time>2026-04-16T15:31:28.188Z</time></trkpt><trkpt lat="45.6630098" lon="10.3509611"><ele>396.0</ele><time>2026-04-16T15:31:29.188Z</time></trkpt><trkpt lat="45.6628263" lon="10.3511156"><ele>396.0</ele><time>2026-04-16T15:31:30.187Z</time></trkpt><trkpt lat="45.6626436" lon="10.3512771"><ele>396.0</ele><time>2026-04-16T15:31:31.188Z</time></trkpt><trkpt lat="45.662455" lon="10.3514439"><ele>393.0</ele><time>2026-04-16T15:31:32.187Z</time></trkpt><trkpt lat="45.6622657" lon="10.3516197"><ele>390.0</ele><time>2026-04-16T15:31:33.188Z</time></trkpt><trkpt lat="45.6620828" lon="10.3518318"><ele>384.5</ele><time>2026-04-16T15:31:34.187Z</time></trkpt><trkpt lat="45.6619129" lon="10.3520579"><ele>379.0</ele><time>2026-04-16T15:31:35.188Z</time></trkpt><trkpt lat="45.6617558" lon="10.3523078"><ele>379.0</ele><time>2026-04-16T15:31:36.188Z</time></trkpt><trkpt lat="45.6616041" lon="10.352577"><ele>379.0</ele><time>2026-04-16T15:31:37.188Z</time></trkpt><trkpt lat="45.6614612" lon="10.3528642"><ele>380.5</ele><time>2026-04-16T15:31:38.188Z</time></trkpt><trkpt lat="45.661325" lon="10.35315"><ele>382.0</ele><time>2026-04-16T15:31:39.188Z</time></trkpt><trkpt lat="45.6611978" lon="10.3534328"><ele>376.5</ele><time>2026-04-16T15:31:40.188Z</time></trkpt><trkpt lat="45.6610753" lon="10.3537123"><ele>371.0</ele><time>2026-04-16T15:31:41.188Z</time></trkpt><trkpt lat="45.6609476" lon="10.3539852"><ele>371.0</ele><time>2026-04-16T15:31:42.188Z</time></trkpt><trkpt lat="45.660819" lon="10.3542619"><ele>371.0</ele><time>2026-04-16T15:31:43.187Z</time></trkpt><trkpt lat="45.6606886" lon="10.3545451"><ele>372.0</ele><time>2026-04-16T15:31:44.187Z</time></trkpt><trkpt lat="45.6605551" lon="10.3548427"><ele>373.0</ele><time>2026-04-16T15:31:45.187Z</time></trkpt><trkpt lat="45.6604184" lon="10.3551331"><ele>367.0</ele><time>2026-04-16T15:31:46.188Z</time></trkpt><trkpt lat="45.6602744" lon="10.3554287"><ele>361.0</ele><time>2026-04-16T15:31:47.187Z</time></trkpt><trkpt lat="45.6601348" lon="10.3557258"><ele>361.0</ele><time>2026-04-16T15:31:48.187Z</time></trkpt><trkpt lat="45.6599963" lon="10.3560325"><ele>361.0</ele><time>2026-04-16T15:31:49.188Z</time></trkpt><trkpt lat="45.659851" lon="10.3563409"><ele>360.5</ele><time>2026-04-16T15:31:50.187Z</time></trkpt><trkpt lat="45.6597043" lon="10.3566496"><ele>360.0</ele><time>2026-04-16T15:31:51.188Z</time></trkpt><trkpt lat="45.6595664" lon="10.3569669"><ele>357.5</ele><time>2026-04-16T15:31:52.188Z</time></trkpt><trkpt lat="45.6594228" lon="10.3572828"><ele>355.0</ele><time>2026-04-16T15:31:53.187Z</time></trkpt><trkpt lat="45.6592806" lon="10.3575985"><ele>355.0</ele><time>2026-04-16T15:31:54.188Z</time></trkpt><trkpt lat="45.6591335" lon="10.3579145"><ele>355.0</ele><time>2026-04-16T15:31:55.188Z</time></trkpt><trkpt lat="45.6589906" lon="10.358233"><ele>354.0</ele><time>2026-04-16T15:31:56.188Z</time></trkpt><trkpt lat="45.6588463" lon="10.358557"><ele>353.0</ele><time>2026-04-16T15:31:57.187Z</time></trkpt><trkpt lat="45.6586981" lon="10.3588726"><ele>350.5</ele><time>2026-04-16T15:31:58.187Z</time></trkpt><trkpt lat="45.6585466" lon="10.359195"><ele>348.0</ele><time>2026-04-16T15:31:59.188Z</time></trkpt><trkpt lat="45.6583942" lon="10.3595235"><ele>347.0</ele><time>2026-04-16T15:32:00.187Z</time></trkpt><trkpt lat="45.6582399" lon="10.3598535"><ele>346.0</ele><time>2026-04-16T15:32:01.188Z</time></trkpt><trkpt lat="45.6580862" lon="10.3601878"><ele>346.0</ele><time>2026-04-16T15:32:02.187Z</time></trkpt><trkpt lat="45.6579316" lon="10.3605275"><ele>346.0</ele><time>2026-04-16T15:32:03.188Z</time></trkpt><trkpt lat="45.657779" lon="10.3608726"><ele>344.0</ele><time>2026-04-16T15:32:04.187Z</time></trkpt><trkpt lat="45.6576294" lon="10.361221"><ele>342.0</ele><time>2026-04-16T15:32:05.187Z</time></trkpt><trkpt lat="45.6574903" lon="10.3615756"><ele>342.0</ele><time>2026-04-16T15:32:06.188Z</time></trkpt><trkpt lat="45.6573505" lon="10.3619379"><ele>342.0</ele><time>2026-04-16T15:32:07.187Z</time></trkpt><trkpt lat="45.6572117" lon="10.3623026"><ele>342.0</ele><time>2026-04-16T15:32:08.187Z</time></trkpt><trkpt lat="45.6570817" lon="10.3626665"><ele>342.0</ele><time>2026-04-16T15:32:09.188Z</time></trkpt><trkpt lat="45.6569457" lon="10.3630316"><ele>338.0</ele><time>2026-04-16T15:32:10.188Z</time></trkpt><trkpt lat="45.6568103" lon="10.3633957"><ele>334.0</ele><time>2026-04-16T15:32:11.188Z</time></trkpt><trkpt lat="45.6566774" lon="10.3637598"><ele>333.5</ele><time>2026-04-16T15:32:12.188Z</time></trkpt><trkpt lat="45.6565437" lon="10.3641121"><ele>333.0</ele><time>2026-04-16T15:32:13.187Z</time></trkpt><trkpt lat="45.6564189" lon="10.3644462"><ele>332.5</ele><time>2026-04-16T15:32:14.188Z</time></trkpt><trkpt lat="45.6563002" lon="10.3647671"><ele>332.0</ele><time>2026-04-16T15:32:15.187Z</time></trkpt><trkpt lat="45.656187" lon="10.3650747"><ele>330.0</ele><time>2026-04-16T15:32:16.187Z</time></trkpt><trkpt lat="45.6560785" lon="10.3653677"><ele>328.0</ele><time>2026-04-16T15:32:17.188Z</time></trkpt><trkpt lat="45.6559822" lon="10.365651"><ele>327.0</ele><time>2026-04-16T15:32:18.188Z</time></trkpt><trkpt lat="45.6558997" lon="10.3659337"><ele>326.0</ele><time>2026-04-16T15:32:19.188Z</time></trkpt><trkpt lat="45.6558251" lon="10.3662136"><ele>325.0</ele><time>2026-04-16T15:32:20.187Z</time></trkpt><trkpt lat="45.6557668" lon="10.3665021"><ele>325.0</ele><time>2026-04-16T15:32:21.188Z</time></trkpt><trkpt lat="45.6557269" lon="10.3667892"><ele>325.0</ele><time>2026-04-16T15:32:22.188Z</time></trkpt><trkpt lat="45.6557039" lon="10.3670728"><ele>325.0</ele><time>2026-04-16T15:32:23.187Z</time></trkpt><trkpt lat="45.6556882" lon="10.3673675"><ele>325.3333333333333</ele><time>2026-04-16T15:32:24.187Z</time></trkpt><trkpt lat="45.6556812" lon="10.3676625"><ele>325.6666666666667</ele><time>2026-04-16T15:32:25.188Z</time></trkpt><trkpt lat="45.6556784" lon="10.3679753"><ele>326.0</ele><time>2026-04-16T15:32:26.188Z</time></trkpt><trkpt lat="45.6556952" lon="10.3682897"><ele>326.0</ele><time>2026-04-16T15:32:27.188Z</time></trkpt><trkpt lat="45.6557126" lon="10.3686068"><ele>326.0</ele><time>2026-04-16T15:32:28.188Z</time></trkpt><trkpt lat="45.6557372" lon="10.3689313"><ele>324.5</ele><time>2026-04-16T15:32:29.188Z</time></trkpt><trkpt lat="45.655766" lon="10.3692665"><ele>323.0</ele><time>2026-04-16T15:32:30.188Z</time></trkpt><trkpt lat="45.6557999" lon="10.3696054"><ele>322.5</ele><time>2026-04-16T15:32:31.188Z</time></trkpt><trkpt lat="45.6558352" lon="10.369944"><ele>322.0</ele><time>2026-04-16T15:32:32.188Z</time></trkpt><trkpt lat="45.6558675" lon="10.3702789"><ele>321.5</ele><time>2026-04-16T15:32:33.188Z</time></trkpt><trkpt lat="45.6558957" lon="10.3706123"><ele>321.0</ele><time>2026-04-16T15:32:34.187Z</time></trkpt><trkpt lat="45.6559171" lon="10.3709404"><ele>321.0</ele><time>2026-04-16T15:32:35.188Z</time></trkpt><trkpt lat="45.6559263" lon="10.3712683"><ele>321.0</ele><time>2026-04-16T15:32:36.188Z</time></trkpt><trkpt lat="45.6559159" lon="10.3715895"><ele>320.0</ele><time>2026-04-16T15:32:37.188Z</time></trkpt><trkpt lat="45.6558859" lon="10.3719135"><ele>319.0</ele><time>2026-04-16T15:32:38.187Z</time></trkpt><trkpt lat="45.6558376" lon="10.3722342"><ele>318.0</ele><time>2026-04-16T15:32:39.187Z</time></trkpt><trkpt lat="45.6557825" lon="10.3725642"><ele>317.0</ele><time>2026-04-16T15:32:40.187Z</time></trkpt><trkpt lat="45.6557225" lon="10.3728905"><ele>316.5</ele><time>2026-04-16T15:32:41.188Z</time></trkpt><trkpt lat="45.65565" lon="10.3732215"><ele>316.0</ele><time>2026-04-16T15:32:42.187Z</time></trkpt><trkpt lat="45.6555753" lon="10.3735426"><ele>316.0</ele><time>2026-04-16T15:32:43.188Z</time></trkpt><trkpt lat="45.6555014" lon="10.3738537"><ele>316.0</ele><time>2026-04-16T15:32:44.188Z</time></trkpt><trkpt lat="45.6554341" lon="10.3741661"><ele>316.0</ele><time>2026-04-16T15:32:45.188Z</time></trkpt><trkpt lat="45.6553644" lon="10.3744904"><ele>316.0</ele><time>2026-04-16T15:32:46.188Z</time></trkpt><trkpt lat="45.6552932" lon="10.3748267"><ele>314.5</ele><time>2026-04-16T15:32:47.188Z</time></trkpt><trkpt lat="45.6552212" lon="10.3751488"><ele>313.0</ele><time>2026-04-16T15:32:48.187Z</time></trkpt><trkpt lat="45.6551496" lon="10.3754484"><ele>313.0</ele><time>2026-04-16T15:32:49.187Z</time></trkpt><trkpt lat="45.6550762" lon="10.3757364"><ele>313.0</ele><time>2026-04-16T15:32:50.187Z</time></trkpt><trkpt lat="45.6550226" lon="10.3760091"><ele>313.0</ele><time>2026-04-16T15:32:51.187Z</time></trkpt><trkpt lat="45.6549952" lon="10.3762761"><ele>312.66666666666663</ele><time>2026-04-16T15:32:52.187Z</time></trkpt><trkpt lat="45.6549897" lon="10.3765314"><ele>312.3333333333333</ele><time>2026-04-16T15:32:53.188Z</time></trkpt><trkpt lat="45.655006" lon="10.3767985"><ele>312.0</ele><time>2026-04-16T15:32:54.188Z</time></trkpt><trkpt lat="45.6550359" lon="10.3770742"><ele>312.0</ele><time>2026-04-16T15:32:55.188Z</time></trkpt><trkpt lat="45.6550783" lon="10.3773311"><ele>312.0</ele><time>2026-04-16T15:32:56.188Z</time></trkpt><trkpt lat="45.6551247" lon="10.3775701"><ele>312.0</ele><time>2026-04-16T15:32:57.187Z</time></trkpt><trkpt lat="45.655171" lon="10.3777956"><ele>312.0</ele><time>2026-04-16T15:32:58.188Z</time></trkpt><trkpt lat="45.6552159" lon="10.3780123"><ele>312.0</ele><time>2026-04-16T15:32:59.187Z</time></trkpt><trkpt lat="45.6552509" lon="10.3782219"><ele>312.0</ele><time>2026-04-16T15:33:00.187Z</time></trkpt><trkpt lat="45.6552872" lon="10.3784182"><ele>313.0</ele><time>2026-04-16T15:33:01.187Z</time></trkpt><trkpt lat="45.6553178" lon="10.378612"><ele>314.0</ele><time>2026-04-16T15:33:02.188Z</time></trkpt><trkpt lat="45.6553321" lon="10.3787922"><ele>315.0</ele><time>2026-04-16T15:33:03.188Z</time></trkpt><trkpt lat="45.6553284" lon="10.3789628"><ele>316.0</ele><time>2026-04-16T15:33:04.187Z</time></trkpt><trkpt lat="45.6553029" lon="10.3791324"><ele>315.5</ele><time>2026-04-16T15:33:05.188Z</time></trkpt><trkpt lat="45.6552692" lon="10.3793094"><ele>315.0</ele><time>2026-04-16T15:33:06.188Z</time></trkpt><trkpt lat="45.6552227" lon="10.3794973"><ele>314.5</ele><time>2026-04-16T15:33:07.188Z</time></trkpt><trkpt lat="45.6551718" lon="10.3796891"><ele>314.0</ele><time>2026-04-16T15:33:08.188Z</time></trkpt><trkpt lat="45.6551249" lon="10.3798775"><ele>313.75</ele><time>2026-04-16T15:33:09.187Z</time></trkpt><trkpt lat="45.655077" lon="10.3800685"><ele>313.5</ele><time>2026-04-16T15:33:10.187Z</time></trkpt><trkpt lat="45.655023" lon="10.3802644"><ele>313.25</ele><time>2026-04-16T15:33:11.188Z</time></trkpt><trkpt lat="45.654983" lon="10.3804702"><ele>313.0</ele><time>2026-04-16T15:33:12.188Z</time></trkpt><trkpt lat="45.654949" lon="10.3806728"><ele>312.5</ele><time>2026-04-16T15:33:13.188Z</time></trkpt><trkpt lat="45.6549216" lon="10.3808832"><ele>312.0</ele><time>2026-04-16T15:33:14.188Z</time></trkpt><trkpt lat="45.6548938" lon="10.3810919"><ele>311.5</ele><time>2026-04-16T15:33:15.187Z</time></trkpt><trkpt lat="45.6548716" lon="10.3812978"><ele>311.0</ele><time>2026-04-16T15:33:16.187Z</time></trkpt><trkpt lat="45.654854" lon="10.3815019"><ele>311.0</ele><time>2026-04-16T15:33:17.188Z</time></trkpt><trkpt lat="45.6548419" lon="10.3817213"><ele>311.0</ele><time>2026-04-16T15:33:18.188Z</time></trkpt><trkpt lat="45.6548297" lon="10.3819442"><ele>311.0</ele><time>2026-04-16T15:33:19.188Z</time></trkpt><trkpt lat="45.6548265" lon="10.3821595"><ele>311.25</ele><time>2026-04-16T15:33:20.188Z</time></trkpt><trkpt lat="45.6548307" lon="10.3823635"><ele>311.5</ele><time>2026-04-16T15:33:21.188Z</time></trkpt><trkpt lat="45.6548332" lon="10.3825533"><ele>311.75</ele><time>2026-04-16T15:33:22.187Z</time></trkpt><trkpt lat="45.654835" lon="10.3827333"><ele>312.0</ele><time>2026-04-16T15:33:23.188Z</time></trkpt><trkpt lat="45.6548381" lon="10.3829082"><ele>311.25</ele><time>2026-04-16T15:33:24.187Z</time></trkpt><trkpt lat="45.6548383" lon="10.3830803"><ele>310.5</ele><time>2026-04-16T15:33:25.188Z</time></trkpt><trkpt lat="45.654843" lon="10.3832525"><ele>309.75</ele><time>2026-04-16T15:33:26.188Z</time></trkpt><trkpt lat="45.6548454" lon="10.3834195"><ele>309.0</ele><time>2026-04-16T15:33:27.188Z</time></trkpt><trkpt lat="45.6548472" lon="10.3835768"><ele>309.0</ele><time>2026-04-16T15:33:28.188Z</time></trkpt><trkpt lat="45.6548545" lon="10.3837373"><ele>309.0</ele><time>2026-04-16T15:33:29.187Z</time></trkpt><trkpt lat="45.6548582" lon="10.3838793"><ele>309.0</ele><time>2026-04-16T15:33:30.187Z</time></trkpt><trkpt lat="45.6548594" lon="10.3840176"><ele>309.0</ele><time>2026-04-16T15:33:31.188Z</time></trkpt><trkpt lat="45.6548641" lon="10.3841467"><ele>309.0</ele><time>2026-04-16T15:33:32.187Z</time></trkpt><trkpt lat="45.6548705" lon="10.3843235"><ele>308.8</ele><time>2026-04-16T15:33:34.187Z</time></trkpt><trkpt lat="45.6548589" lon="10.3844908"><ele>308.59999999999997</ele><time>2026-04-16T15:33:36.188Z</time></trkpt><trkpt lat="45.6548413" lon="10.3845971"><ele>308.4</ele><time>2026-04-16T15:33:38.187Z</time></trkpt><trkpt lat="45.654783" lon="10.384734"><ele>308.2</ele><time>2026-04-16T15:33:40.187Z</time></trkpt><trkpt lat="45.6547257" lon="10.3848837"><ele>308.0</ele><time>2026-04-16T15:33:42.187Z</time></trkpt><trkpt lat="45.6547178" lon="10.384996"><ele>308.0</ele><time>2026-04-16T15:33:43.187Z</time></trkpt><trkpt lat="45.6547352" lon="10.3851303"><ele>308.0</ele><time>2026-04-16T15:33:44.188Z</time></trkpt><trkpt lat="45.6547577" lon="10.3852815"><ele>308.0</ele><time>2026-04-16T15:33:45.187Z</time></trkpt><trkpt lat="45.654789" lon="10.3854752"><ele>308.0</ele><time>2026-04-16T15:33:46.187Z</time></trkpt><trkpt lat="45.6548364" lon="10.3857212"><ele>308.33333333333337</ele><time>2026-04-16T15:33:47.188Z</time></trkpt><trkpt lat="45.6548588" lon="10.3859955"><ele>308.6666666666667</ele><time>2026-04-16T15:33:48.188Z</time></trkpt><trkpt lat="45.6548714" lon="10.3862805"><ele>309.0</ele><time>2026-04-16T15:33:49.188Z</time></trkpt><trkpt lat="45.654867" lon="10.386596"><ele>309.0</ele><time>2026-04-16T15:33:50.187Z</time></trkpt><trkpt lat="45.6548597" lon="10.386907"><ele>309.0</ele><time>2026-04-16T15:33:51.188Z</time></trkpt><trkpt lat="45.6548647" lon="10.3872197"><ele>309.0</ele><time>2026-04-16T15:33:52.188Z</time></trkpt><trkpt lat="45.654868" lon="10.3875344"><ele>308.6666666666667</ele><time>2026-04-16T15:33:53.187Z</time></trkpt><trkpt lat="45.65487" lon="10.3878401"><ele>308.33333333333337</ele><time>2026-04-16T15:33:54.188Z</time></trkpt><trkpt lat="45.6548701" lon="10.3881371"><ele>308.0</ele><time>2026-04-16T15:33:55.188Z</time></trkpt><trkpt lat="45.6548726" lon="10.3884269"><ele>308.0</ele><time>2026-04-16T15:33:56.188Z</time></trkpt><trkpt lat="45.6548744" lon="10.3887103"><ele>308.0</ele><time>2026-04-16T15:33:57.187Z</time></trkpt><trkpt lat="45.6548798" lon="10.3889889"><ele>308.0</ele><time>2026-04-16T15:33:58.188Z</time></trkpt><trkpt lat="45.654885" lon="10.3892724"><ele>308.0</ele><time>2026-04-16T15:33:59.187Z</time></trkpt><trkpt lat="45.6548899" lon="10.3895694"><ele>308.0</ele><time>2026-04-16T15:34:00.188Z</time></trkpt><trkpt lat="45.6548975" lon="10.3898685"><ele>308.0</ele><time>2026-04-16T15:34:01.187Z</time></trkpt><trkpt lat="45.6548977" lon="10.390173"><ele>308.33333333333337</ele><time>2026-04-16T15:34:02.188Z</time></trkpt><trkpt lat="45.6549043" lon="10.3904821"><ele>308.6666666666667</ele><time>2026-04-16T15:34:03.188Z</time></trkpt><trkpt lat="45.6549127" lon="10.3907932"><ele>309.0</ele><time>2026-04-16T15:34:04.188Z</time></trkpt><trkpt lat="45.6549121" lon="10.3911109"><ele>310.5</ele><time>2026-04-16T15:34:05.187Z</time></trkpt><trkpt lat="45.6549085" lon="10.3914334"><ele>312.0</ele><time>2026-04-16T15:34:06.186Z</time></trkpt><trkpt lat="45.6549068" lon="10.3917636"><ele>312.0</ele><time>2026-04-16T15:34:07.187Z</time></trkpt><trkpt lat="45.6549058" lon="10.3920992"><ele>312.0</ele><time>2026-04-16T15:34:08.186Z</time></trkpt><trkpt lat="45.6549051" lon="10.3924366"><ele>312.5</ele><time>2026-04-16T15:34:09.186Z</time></trkpt><trkpt lat="45.6549089" lon="10.3927769"><ele>313.0</ele><time>2026-04-16T15:34:10.187Z</time></trkpt><trkpt lat="45.6549124" lon="10.3931206"><ele>311.5</ele><time>2026-04-16T15:34:11.187Z</time></trkpt><trkpt lat="45.6549132" lon="10.3934661"><ele>310.0</ele><time>2026-04-16T15:34:12.186Z</time></trkpt><trkpt lat="45.6549047" lon="10.3938058"><ele>309.0</ele><time>2026-04-16T15:34:13.187Z</time></trkpt><trkpt lat="45.6548887" lon="10.3941416"><ele>308.0</ele><time>2026-04-16T15:34:14.187Z</time></trkpt><trkpt lat="45.654866" lon="10.3944563"><ele>308.0</ele><time>2026-04-16T15:34:15.187Z</time></trkpt><trkpt lat="45.6548359" lon="10.3947548"><ele>308.0</ele><time>2026-04-16T15:34:16.186Z</time></trkpt><trkpt lat="45.6548032" lon="10.395036"><ele>308.0</ele><time>2026-04-16T15:34:17.186Z</time></trkpt><trkpt lat="45.6547636" lon="10.3953035"><ele>308.33333333333337</ele><time>2026-04-16T15:34:18.186Z</time></trkpt><trkpt lat="45.6547265" lon="10.3955661"><ele>308.6666666666667</ele><time>2026-04-16T15:34:19.187Z</time></trkpt><trkpt lat="45.6546812" lon="10.3958356"><ele>309.0</ele><time>2026-04-16T15:34:20.186Z</time></trkpt><trkpt lat="45.6546269" lon="10.3961187"><ele>309.3333333333333</ele><time>2026-04-16T15:34:21.186Z</time></trkpt><trkpt lat="45.654567" lon="10.3964052"><ele>309.66666666666663</ele><time>2026-04-16T15:34:22.186Z</time></trkpt><trkpt lat="45.654501" lon="10.3967"><ele>310.0</ele><time>2026-04-16T15:34:23.186Z</time></trkpt><trkpt lat="45.6544222" lon="10.3970031"><ele>307.5</ele><time>2026-04-16T15:34:24.187Z</time></trkpt><trkpt lat="45.6543313" lon="10.3973088"><ele>305.0</ele><time>2026-04-16T15:34:25.186Z</time></trkpt><trkpt lat="45.6542308" lon="10.3976159"><ele>305.0</ele><time>2026-04-16T15:34:26.187Z</time></trkpt><trkpt lat="45.6541281" lon="10.3979252"><ele>305.0</ele><time>2026-04-16T15:34:27.187Z</time></trkpt><trkpt lat="45.6540226" lon="10.398248"><ele>306.0</ele><time>2026-04-16T15:34:28.187Z</time></trkpt><trkpt lat="45.6539131" lon="10.3985648"><ele>307.0</ele><time>2026-04-16T15:34:29.186Z</time></trkpt><trkpt lat="45.6538131" lon="10.3988822"><ele>306.0</ele><time>2026-04-16T15:34:30.186Z</time></trkpt><trkpt lat="45.6537055" lon="10.3991969"><ele>305.0</ele><time>2026-04-16T15:34:31.187Z</time></trkpt><trkpt lat="45.6535951" lon="10.3995124"><ele>304.5</ele><time>2026-04-16T15:34:32.187Z</time></trkpt><trkpt lat="45.6534873" lon="10.3998251"><ele>304.0</ele><time>2026-04-16T15:34:33.187Z</time></trkpt><trkpt lat="45.6533856" lon="10.400135"><ele>304.0</ele><time>2026-04-16T15:34:34.186Z</time></trkpt><trkpt lat="45.6532811" lon="10.4004481"><ele>304.0</ele><time>2026-04-16T15:34:35.187Z</time></trkpt><trkpt lat="45.6531775" lon="10.4007624"><ele>305.0</ele><time>2026-04-16T15:34:36.187Z</time></trkpt><trkpt lat="45.6530722" lon="10.4010804"><ele>306.0</ele><time>2026-04-16T15:34:37.186Z</time></trkpt><trkpt lat="45.6529662" lon="10.4013982"><ele>305.5</ele><time>2026-04-16T15:34:38.187Z</time></trkpt><trkpt lat="45.6528614" lon="10.4017128"><ele>305.0</ele><time>2026-04-16T15:34:39.187Z</time></trkpt><trkpt lat="45.6527514" lon="10.4020297"><ele>304.5</ele><time>2026-04-16T15:34:40.187Z</time></trkpt><trkpt lat="45.6526458" lon="10.4023477"><ele>304.0</ele><time>2026-04-16T15:34:41.187Z</time></trkpt><trkpt lat="45.6525402" lon="10.4026706"><ele>304.0</ele><time>2026-04-16T15:34:42.187Z</time></trkpt><trkpt lat="45.6524336" lon="10.402994"><ele>304.0</ele><time>2026-04-16T15:34:43.186Z</time></trkpt><trkpt lat="45.6523286" lon="10.4033186"><ele>305.0</ele><time>2026-04-16T15:34:44.187Z</time></trkpt><trkpt lat="45.6522252" lon="10.4036353"><ele>306.0</ele><time>2026-04-16T15:34:45.186Z</time></trkpt><trkpt lat="45.65212" lon="10.4039421"><ele>307.3333333333333</ele><time>2026-04-16T15:34:46.187Z</time></trkpt><trkpt lat="45.6520246" lon="10.4042319"><ele>308.66666666666663</ele><time>2026-04-16T15:34:47.186Z</time></trkpt><trkpt lat="45.6519311" lon="10.4045063"><ele>310.0</ele><time>2026-04-16T15:34:48.186Z</time></trkpt><trkpt lat="45.6518412" lon="10.4047692"><ele>307.0</ele><time>2026-04-16T15:34:49.186Z</time></trkpt><trkpt lat="45.6517542" lon="10.4050297"><ele>304.0</ele><time>2026-04-16T15:34:50.187Z</time></trkpt><trkpt lat="45.6516657" lon="10.4052945"><ele>301.0</ele><time>2026-04-16T15:34:51.187Z</time></trkpt><trkpt lat="45.6515774" lon="10.4055571"><ele>300.66666666666663</ele><time>2026-04-16T15:34:52.186Z</time></trkpt><trkpt lat="45.6514885" lon="10.4058201"><ele>300.3333333333333</ele><time>2026-04-16T15:34:53.187Z</time></trkpt><trkpt lat="45.6514036" lon="10.4060765"><ele>300.0</ele><time>2026-04-16T15:34:54.187Z</time></trkpt><trkpt lat="45.651324" lon="10.4063262"><ele>300.6666666666667</ele><time>2026-04-16T15:34:55.187Z</time></trkpt><trkpt lat="45.6512391" lon="10.4065806"><ele>301.33333333333337</ele><time>2026-04-16T15:34:56.187Z</time></trkpt><trkpt lat="45.651156" lon="10.406835"><ele>302.0</ele><time>2026-04-16T15:34:57.187Z</time></trkpt><trkpt lat="45.6510715" lon="10.4070904"><ele>300.33333333333337</ele><time>2026-04-16T15:34:58.187Z</time></trkpt><trkpt lat="45.6509888" lon="10.4073439"><ele>298.6666666666667</ele><time>2026-04-16T15:34:59.186Z</time></trkpt><trkpt lat="45.6509042" lon="10.4075973"><ele>297.0</ele><time>2026-04-16T15:35:00.187Z</time></trkpt><trkpt lat="45.6508201" lon="10.4078516"><ele>298.0</ele><time>2026-04-16T15:35:01.187Z</time></trkpt><trkpt lat="45.6507367" lon="10.4081068"><ele>299.0</ele><time>2026-04-16T15:35:02.187Z</time></trkpt><trkpt lat="45.6506545" lon="10.4083586"><ele>300.0</ele><time>2026-04-16T15:35:03.186Z</time></trkpt><trkpt lat="45.6505698" lon="10.4086166"><ele>301.3333333333333</ele><time>2026-04-16T15:35:04.186Z</time></trkpt><trkpt lat="45.6504812" lon="10.4088742"><ele>302.66666666666663</ele><time>2026-04-16T15:35:05.186Z</time></trkpt><trkpt lat="45.650397" lon="10.4091314"><ele>304.0</ele><time>2026-04-16T15:35:06.187Z</time></trkpt><trkpt lat="45.6503096" lon="10.4093865"><ele>301.3333333333333</ele><time>2026-04-16T15:35:07.187Z</time></trkpt><trkpt lat="45.650218" lon="10.40964"><ele>298.6666666666667</ele><time>2026-04-16T15:35:08.186Z</time></trkpt><trkpt lat="45.6501311" lon="10.4098955"><ele>296.0</ele><time>2026-04-16T15:35:09.187Z</time></trkpt><trkpt lat="45.650046" lon="10.4101569"><ele>296.0</ele><time>2026-04-16T15:35:10.187Z</time></trkpt><trkpt lat="45.6499648" lon="10.4104208"><ele>296.0</ele><time>2026-04-16T15:35:11.187Z</time></trkpt><trkpt lat="45.6498871" lon="10.4106956"><ele>296.0</ele><time>2026-04-16T15:35:12.187Z</time></trkpt><trkpt lat="45.6498163" lon="10.4109785"><ele>296.0</ele><time>2026-04-16T15:35:13.187Z</time></trkpt><trkpt lat="45.649749" lon="10.4112748"><ele>296.0</ele><time>2026-04-16T15:35:14.186Z</time></trkpt><trkpt lat="45.6496902" lon="10.4115786"><ele>296.0</ele><time>2026-04-16T15:35:15.187Z</time></trkpt><trkpt lat="45.6496418" lon="10.4118984"><ele>297.5</ele><time>2026-04-16T15:35:16.187Z</time></trkpt><trkpt lat="45.6496039" lon="10.4122204"><ele>299.0</ele><time>2026-04-16T15:35:17.186Z</time></trkpt><trkpt lat="45.6495767" lon="10.4125513"><ele>299.0</ele><time>2026-04-16T15:35:18.186Z</time></trkpt><trkpt lat="45.6495608" lon="10.4128873"><ele>299.0</ele><time>2026-04-16T15:35:19.186Z</time></trkpt><trkpt lat="45.6495563" lon="10.4132321"><ele>299.0</ele><time>2026-04-16T15:35:20.187Z</time></trkpt><trkpt lat="45.649563" lon="10.413573"><ele>299.0</ele><time>2026-04-16T15:35:21.187Z</time></trkpt><trkpt lat="45.6495885" lon="10.4139077"><ele>297.0</ele><time>2026-04-16T15:35:22.186Z</time></trkpt><trkpt lat="45.6496201" lon="10.4142404"><ele>295.0</ele><time>2026-04-16T15:35:23.186Z</time></trkpt><trkpt lat="45.6496711" lon="10.4145759"><ele>291.0</ele><time>2026-04-16T15:35:24.187Z</time></trkpt><trkpt lat="45.6497294" lon="10.4149072"><ele>287.0</ele><time>2026-04-16T15:35:25.186Z</time></trkpt><trkpt lat="45.6498029" lon="10.4152398"><ele>287.0</ele><time>2026-04-16T15:35:26.187Z</time></trkpt><trkpt lat="45.6498911" lon="10.4155641"><ele>287.0</ele><time>2026-04-16T15:35:27.187Z</time></trkpt><trkpt lat="45.6499866" lon="10.4158822"><ele>287.0</ele><time>2026-04-16T15:35:28.187Z</time></trkpt><trkpt lat="45.650085" lon="10.4161902"><ele>287.0</ele><time>2026-04-16T15:35:29.187Z</time></trkpt><trkpt lat="45.6501878" lon="10.4164965"><ele>287.0</ele><time>2026-04-16T15:35:30.187Z</time></trkpt><trkpt lat="45.6502947" lon="10.4167973"><ele>287.0</ele><time>2026-04-16T15:35:31.187Z</time></trkpt><trkpt lat="45.6503951" lon="10.4170914"><ele>290.0</ele><time>2026-04-16T15:35:32.187Z</time></trkpt><trkpt lat="45.6504965" lon="10.4173902"><ele>293.0</ele><time>2026-04-16T15:35:33.187Z</time></trkpt><trkpt lat="45.6505941" lon="10.4176907"><ele>293.0</ele><time>2026-04-16T15:35:34.186Z</time></trkpt><trkpt lat="45.6506951" lon="10.4179768"><ele>293.0</ele><time>2026-04-16T15:35:35.187Z</time></trkpt><trkpt lat="45.6509059" lon="10.4185458"><ele>301.0</ele><time>2026-04-16T15:35:37.187Z</time></trkpt><trkpt lat="45.6510054" lon="10.4188186"><ele>309.0</ele><time>2026-04-16T15:35:38.187Z</time></trkpt><trkpt lat="45.6511916" lon="10.4193434"><ele>295.0</ele><time>2026-04-16T15:35:40.186Z</time></trkpt><trkpt lat="45.6514206" lon="10.420012"><ele>295.0</ele><time>2026-04-16T15:35:42.186Z</time></trkpt><trkpt lat="45.6515048" lon="10.4203723"><ele>295.0</ele><time>2026-04-16T15:35:43.186Z</time></trkpt><trkpt lat="45.6515874" lon="10.4206015"><ele>295.0</ele><time>2026-04-16T15:35:44.187Z</time></trkpt><trkpt lat="45.6516599" lon="10.4208913"><ele>291.0</ele><time>2026-04-16T15:35:45.187Z</time></trkpt><trkpt lat="45.6517576" lon="10.4211511"><ele>287.0</ele><time>2026-04-16T15:35:46.186Z</time></trkpt><trkpt lat="45.6518411" lon="10.4214033"><ele>283.0</ele><time>2026-04-16T15:35:47.186Z</time></trkpt><trkpt lat="45.651924" lon="10.4216396"><ele>283.3333333333333</ele><time>2026-04-16T15:35:48.187Z</time></trkpt><trkpt lat="45.6520015" lon="10.4218635"><ele>283.6666666666667</ele><time>2026-04-16T15:35:49.187Z</time></trkpt><trkpt lat="45.6520803" lon="10.4220829"><ele>284.0</ele><time>2026-04-16T15:35:50.186Z</time></trkpt><trkpt lat="45.6521498" lon="10.4223056"><ele>285.33333333333337</ele><time>2026-04-16T15:35:51.186Z</time></trkpt><trkpt lat="45.6522226" lon="10.4225239"><ele>286.6666666666667</ele><time>2026-04-16T15:35:52.187Z</time></trkpt><trkpt lat="45.6523012" lon="10.4227473"><ele>288.0</ele><time>2026-04-16T15:35:53.187Z</time></trkpt><trkpt lat="45.6523763" lon="10.4229665"><ele>289.3333333333333</ele><time>2026-04-16T15:35:54.186Z</time></trkpt><trkpt lat="45.6524393" lon="10.423182"><ele>290.66666666666663</ele><time>2026-04-16T15:35:55.187Z</time></trkpt><trkpt lat="45.6525063" lon="10.4233988"><ele>292.0</ele><time>2026-04-16T15:35:56.187Z</time></trkpt><trkpt lat="45.6525762" lon="10.4236067"><ele>292.0</ele><time>2026-04-16T15:35:57.187Z</time></trkpt><trkpt lat="45.6526428" lon="10.4238127"><ele>292.0</ele><time>2026-04-16T15:35:58.187Z</time></trkpt><trkpt lat="45.6527099" lon="10.4240174"><ele>292.0</ele><time>2026-04-16T15:35:59.186Z</time></trkpt><trkpt lat="45.6527764" lon="10.4242234"><ele>290.75</ele><time>2026-04-16T15:36:00.187Z</time></trkpt><trkpt lat="45.6528424" lon="10.4244134"><ele>289.5</ele><time>2026-04-16T15:36:01.186Z</time></trkpt><trkpt lat="45.6529029" lon="10.4246048"><ele>288.25</ele><time>2026-04-16T15:36:02.187Z</time></trkpt><trkpt lat="45.652958" lon="10.4247824"><ele>287.0</ele><time>2026-04-16T15:36:03.186Z</time></trkpt><trkpt lat="45.6530151" lon="10.4249435"><ele>286.0</ele><time>2026-04-16T15:36:04.186Z</time></trkpt><trkpt lat="45.6530777" lon="10.4251129"><ele>285.0</ele><time>2026-04-16T15:36:05.187Z</time></trkpt><trkpt lat="45.6531342" lon="10.4252628"><ele>284.0</ele><time>2026-04-16T15:36:06.187Z</time></trkpt><trkpt lat="45.6531906" lon="10.4254057"><ele>283.0</ele><time>2026-04-16T15:36:07.187Z</time></trkpt><trkpt lat="45.6532454" lon="10.4255427"><ele>282.2</ele><time>2026-04-16T15:36:08.186Z</time></trkpt><trkpt lat="45.6532985" lon="10.4256777"><ele>281.4</ele><time>2026-04-16T15:36:09.186Z</time></trkpt><trkpt lat="45.6533538" lon="10.4258113"><ele>280.59999999999997</ele><time>2026-04-16T15:36:10.187Z</time></trkpt><trkpt lat="45.6534067" lon="10.4259438"><ele>279.8</ele><time>2026-04-16T15:36:11.186Z</time></trkpt><trkpt lat="45.6534588" lon="10.4260707"><ele>279.0</ele><time>2026-04-16T15:36:12.186Z</time></trkpt><trkpt lat="45.6535131" lon="10.4261887"><ele>279.0</ele><time>2026-04-16T15:36:13.187Z</time></trkpt><trkpt lat="45.6535659" lon="10.42631"><ele>279.0</ele><time>2026-04-16T15:36:14.187Z</time></trkpt><trkpt lat="45.6536289" lon="10.4264408"><ele>279.0</ele><time>2026-04-16T15:36:15.187Z</time></trkpt><trkpt lat="45.6537003" lon="10.4266021"><ele>279.0</ele><time>2026-04-16T15:36:16.186Z</time></trkpt><trkpt lat="45.6537743" lon="10.4267676"><ele>276.75</ele><time>2026-04-16T15:36:17.187Z</time></trkpt><trkpt lat="45.6538379" lon="10.4269245"><ele>274.5</ele><time>2026-04-16T15:36:18.186Z</time></trkpt><trkpt lat="45.6538981" lon="10.4270724"><ele>272.25</ele><time>2026-04-16T15:36:19.187Z</time></trkpt><trkpt lat="45.6539539" lon="10.4272132"><ele>270.0</ele><time>2026-04-16T15:36:20.186Z</time></trkpt><trkpt lat="45.6540116" lon="10.4273454"><ele>269.4</ele><time>2026-04-16T15:36:21.186Z</time></trkpt><trkpt lat="45.6540696" lon="10.4274698"><ele>268.8</ele><time>2026-04-16T15:36:22.187Z</time></trkpt><trkpt lat="45.6541237" lon="10.4275874"><ele>268.2</ele><time>2026-04-16T15:36:23.187Z</time></trkpt><trkpt lat="45.6541755" lon="10.4277013"><ele>267.6</ele><time>2026-04-16T15:36:24.187Z</time></trkpt><trkpt lat="45.6542182" lon="10.4278179"><ele>267.0</ele><time>2026-04-16T15:36:25.186Z</time></trkpt><trkpt lat="45.654245" lon="10.4279295"><ele>267.3333333333333</ele><time>2026-04-16T15:36:26.187Z</time></trkpt><trkpt lat="45.6542525" lon="10.4280422"><ele>267.6666666666667</ele><time>2026-04-16T15:36:27.187Z</time></trkpt><trkpt lat="45.6542422" lon="10.4281608"><ele>268.0</ele><time>2026-04-16T15:36:28.187Z</time></trkpt><trkpt lat="45.654214" lon="10.4282657"><ele>268.33333333333337</ele><time>2026-04-16T15:36:29.186Z</time></trkpt><trkpt lat="45.6541677" lon="10.4283639"><ele>268.6666666666667</ele><time>2026-04-16T15:36:30.186Z</time></trkpt><trkpt lat="45.6540944" lon="10.4284554"><ele>269.0</ele><time>2026-04-16T15:36:31.187Z</time></trkpt><trkpt lat="45.653995" lon="10.4285593"><ele>269.0</ele><time>2026-04-16T15:36:32.186Z</time></trkpt><trkpt lat="45.6538835" lon="10.4286974"><ele>269.0</ele><time>2026-04-16T15:36:33.187Z</time></trkpt><trkpt lat="45.6537577" lon="10.4288661"><ele>269.0</ele><time>2026-04-16T15:36:34.187Z</time></trkpt><trkpt lat="45.6536274" lon="10.4290538"><ele>268.6666666666667</ele><time>2026-04-16T15:36:35.187Z</time></trkpt><trkpt lat="45.6535055" lon="10.4292426"><ele>268.3333333333333</ele><time>2026-04-16T15:36:36.186Z</time></trkpt><trkpt lat="45.653389" lon="10.4294378"><ele>268.0</ele><time>2026-04-16T15:36:37.186Z</time></trkpt><trkpt lat="45.6532816" lon="10.4296243"><ele>270.0</ele><time>2026-04-16T15:36:38.187Z</time></trkpt><trkpt lat="45.6531802" lon="10.4298032"><ele>272.0</ele><time>2026-04-16T15:36:39.187Z</time></trkpt><trkpt lat="45.6530832" lon="10.4299792"><ele>274.0</ele><time>2026-04-16T15:36:40.187Z</time></trkpt><trkpt lat="45.6529907" lon="10.4301493"><ele>274.0</ele><time>2026-04-16T15:36:41.187Z</time></trkpt><trkpt lat="45.6528956" lon="10.4303301"><ele>274.0</ele><time>2026-04-16T15:36:42.187Z</time></trkpt><trkpt lat="45.6528037" lon="10.4305174"><ele>274.0</ele><time>2026-04-16T15:36:43.187Z</time></trkpt><trkpt lat="45.6527135" lon="10.4307004"><ele>272.75</ele><time>2026-04-16T15:36:44.187Z</time></trkpt><trkpt lat="45.6526351" lon="10.4308727"><ele>271.5</ele><time>2026-04-16T15:36:45.186Z</time></trkpt><trkpt lat="45.6525644" lon="10.4310269"><ele>270.25</ele><time>2026-04-16T15:36:46.187Z</time></trkpt><trkpt lat="45.652503" lon="10.4311534"><ele>269.0</ele><time>2026-04-16T15:36:47.186Z</time></trkpt><trkpt lat="45.6524236" lon="10.4313052"><ele>270.33333333333337</ele><time>2026-04-16T15:36:48.187Z</time></trkpt><trkpt lat="45.6523305" lon="10.4314808"><ele>271.6666666666667</ele><time>2026-04-16T15:36:49.186Z</time></trkpt><trkpt lat="45.6522321" lon="10.4316865"><ele>273.0</ele><time>2026-04-16T15:36:50.187Z</time></trkpt><trkpt lat="45.6521322" lon="10.4318932"><ele>273.0</ele><time>2026-04-16T15:36:51.187Z</time></trkpt><trkpt lat="45.6520286" lon="10.4321068"><ele>273.0</ele><time>2026-04-16T15:36:52.187Z</time></trkpt><trkpt lat="45.6519256" lon="10.4323241"><ele>273.0</ele><time>2026-04-16T15:36:53.186Z</time></trkpt><trkpt lat="45.6518215" lon="10.4325307"><ele>272.6666666666667</ele><time>2026-04-16T15:36:54.186Z</time></trkpt><trkpt lat="45.6517189" lon="10.4327338"><ele>272.33333333333337</ele><time>2026-04-16T15:36:55.187Z</time></trkpt><trkpt lat="45.65162" lon="10.4329392"><ele>272.0</ele><time>2026-04-16T15:36:56.187Z</time></trkpt><trkpt lat="45.651517" lon="10.433138"><ele>273.33333333333337</ele><time>2026-04-16T15:36:57.187Z</time></trkpt><trkpt lat="45.6514171" lon="10.4333368"><ele>274.6666666666667</ele><time>2026-04-16T15:36:58.187Z</time></trkpt><trkpt lat="45.651322" lon="10.433525"><ele>276.0</ele><time>2026-04-16T15:36:59.186Z</time></trkpt><trkpt lat="45.6512212" lon="10.4337184"><ele>273.0</ele><time>2026-04-16T15:37:00.186Z</time></trkpt><trkpt lat="45.651122" lon="10.4339247"><ele>270.0</ele><time>2026-04-16T15:37:01.186Z</time></trkpt><trkpt lat="45.6510141" lon="10.4341423"><ele>267.0</ele><time>2026-04-16T15:37:02.186Z</time></trkpt><trkpt lat="45.6509037" lon="10.4343578"><ele>267.0</ele><time>2026-04-16T15:37:03.187Z</time></trkpt><trkpt lat="45.6507929" lon="10.434573"><ele>267.0</ele><time>2026-04-16T15:37:04.187Z</time></trkpt><trkpt lat="45.6506905" lon="10.434786"><ele>267.0</ele><time>2026-04-16T15:37:05.186Z</time></trkpt><trkpt lat="45.6505928" lon="10.435011"><ele>268.6666666666667</ele><time>2026-04-16T15:37:06.187Z</time></trkpt><trkpt lat="45.6505008" lon="10.4352439"><ele>270.33333333333337</ele><time>2026-04-16T15:37:07.186Z</time></trkpt><trkpt lat="45.6504135" lon="10.4354874"><ele>272.0</ele><time>2026-04-16T15:37:08.186Z</time></trkpt><trkpt lat="45.6503374" lon="10.4357404"><ele>271.0</ele><time>2026-04-16T15:37:09.186Z</time></trkpt><trkpt lat="45.6502755" lon="10.4359984"><ele>270.0</ele><time>2026-04-16T15:37:10.186Z</time></trkpt><trkpt lat="45.6502276" lon="10.436267"><ele>269.0</ele><time>2026-04-16T15:37:11.187Z</time></trkpt><trkpt lat="45.6501918" lon="10.4365485"><ele>268.0</ele><time>2026-04-16T15:37:12.187Z</time></trkpt><trkpt lat="45.6501758" lon="10.4368369"><ele>267.0</ele><time>2026-04-16T15:37:13.186Z</time></trkpt><trkpt lat="45.6501666" lon="10.4371463"><ele>266.0</ele><time>2026-04-16T15:37:14.186Z</time></trkpt><trkpt lat="45.6501753" lon="10.4374638"><ele>265.0</ele><time>2026-04-16T15:37:15.187Z</time></trkpt><trkpt lat="45.6502003" lon="10.4377842"><ele>264.0</ele><time>2026-04-16T15:37:16.186Z</time></trkpt><trkpt lat="45.6502457" lon="10.4381124"><ele>269.0</ele><time>2026-04-16T15:37:17.186Z</time></trkpt><trkpt lat="45.650305" lon="10.4384458"><ele>274.0</ele><time>2026-04-16T15:37:18.187Z</time></trkpt><trkpt lat="45.6503714" lon="10.4387922"><ele>273.5</ele><time>2026-04-16T15:37:19.187Z</time></trkpt><trkpt lat="45.6504369" lon="10.4391491"><ele>273.0</ele><time>2026-04-16T15:37:20.187Z</time></trkpt><trkpt lat="45.6505006" lon="10.4395173"><ele>273.5</ele><time>2026-04-16T15:37:21.185Z</time></trkpt><trkpt lat="45.6505573" lon="10.439887"><ele>274.0</ele><time>2026-04-16T15:37:22.185Z</time></trkpt><trkpt lat="45.6506119" lon="10.4402559"><ele>273.0</ele><time>2026-04-16T15:37:23.186Z</time></trkpt><trkpt lat="45.6506668" lon="10.4406098"><ele>272.0</ele><time>2026-04-16T15:37:24.185Z</time></trkpt><trkpt lat="45.6507206" lon="10.4409605"><ele>270.0</ele><time>2026-04-16T15:37:25.185Z</time></trkpt><trkpt lat="45.6507739" lon="10.4412997"><ele>268.0</ele><time>2026-04-16T15:37:26.186Z</time></trkpt><trkpt lat="45.6508205" lon="10.4416342"><ele>268.0</ele><time>2026-04-16T15:37:27.186Z</time></trkpt><trkpt lat="45.6508539" lon="10.4419679"><ele>268.0</ele><time>2026-04-16T15:37:28.185Z</time></trkpt><trkpt lat="45.6508744" lon="10.4422972"><ele>267.0</ele><time>2026-04-16T15:37:29.186Z</time></trkpt><trkpt lat="45.6508848" lon="10.4426294"><ele>266.0</ele><time>2026-04-16T15:37:30.185Z</time></trkpt><trkpt lat="45.6508927" lon="10.4429581"><ele>264.0</ele><time>2026-04-16T15:37:31.186Z</time></trkpt><trkpt lat="45.6508831" lon="10.443294"><ele>262.0</ele><time>2026-04-16T15:37:32.186Z</time></trkpt><trkpt lat="45.6508611" lon="10.443622"><ele>262.5</ele><time>2026-04-16T15:37:33.185Z</time></trkpt><trkpt lat="45.6508346" lon="10.4439414"><ele>263.0</ele><time>2026-04-16T15:37:34.186Z</time></trkpt><trkpt lat="45.6507995" lon="10.4442608"><ele>263.0</ele><time>2026-04-16T15:37:35.185Z</time></trkpt><trkpt lat="45.6507558" lon="10.4445745"><ele>263.0</ele><time>2026-04-16T15:37:36.185Z</time></trkpt><trkpt lat="45.6507137" lon="10.4448854"><ele>263.0</ele><time>2026-04-16T15:37:37.186Z</time></trkpt><trkpt lat="45.6506695" lon="10.4451827"><ele>263.6666666666667</ele><time>2026-04-16T15:37:38.186Z</time></trkpt><trkpt lat="45.650628" lon="10.4454541"><ele>264.3333333333333</ele><time>2026-04-16T15:37:39.186Z</time></trkpt><trkpt lat="45.6505853" lon="10.4457161"><ele>265.0</ele><time>2026-04-16T15:37:40.186Z</time></trkpt><trkpt lat="45.6505452" lon="10.4459532"><ele>266.3333333333333</ele><time>2026-04-16T15:37:41.185Z</time></trkpt><trkpt lat="45.6505018" lon="10.4461969"><ele>267.6666666666667</ele><time>2026-04-16T15:37:42.186Z</time></trkpt><trkpt lat="45.6504602" lon="10.4464445"><ele>269.0</ele><time>2026-04-16T15:37:43.185Z</time></trkpt><trkpt lat="45.650416" lon="10.4466874"><ele>270.0</ele><time>2026-04-16T15:37:44.185Z</time></trkpt><trkpt lat="45.6503604" lon="10.4469211"><ele>271.0</ele><time>2026-04-16T15:37:45.186Z</time></trkpt><trkpt lat="45.6502885" lon="10.4471443"><ele>272.0</ele><time>2026-04-16T15:37:46.185Z</time></trkpt><trkpt lat="45.6502081" lon="10.4473576"><ele>269.33333333333337</ele><time>2026-04-16T15:37:47.185Z</time></trkpt><trkpt lat="45.6500998" lon="10.4475474"><ele>266.6666666666667</ele><time>2026-04-16T15:37:48.186Z</time></trkpt><trkpt lat="45.6499595" lon="10.4477128"><ele>264.0</ele><time>2026-04-16T15:37:49.186Z</time></trkpt><trkpt lat="45.6498041" lon="10.4478691"><ele>269.6666666666667</ele><time>2026-04-16T15:37:50.186Z</time></trkpt><trkpt lat="45.6496484" lon="10.4480161"><ele>275.33333333333337</ele><time>2026-04-16T15:37:51.185Z</time></trkpt><trkpt lat="45.6494964" lon="10.448142"><ele>281.0</ele><time>2026-04-16T15:37:52.185Z</time></trkpt><trkpt lat="45.6493401" lon="10.4482519"><ele>281.0</ele><time>2026-04-16T15:37:53.186Z</time></trkpt><trkpt lat="45.6491785" lon="10.448343"><ele>281.0</ele><time>2026-04-16T15:37:54.186Z</time></trkpt><trkpt lat="45.6490182" lon="10.4484122"><ele>281.0</ele><time>2026-04-16T15:37:55.186Z</time></trkpt><trkpt lat="45.6488574" lon="10.4484828"><ele>281.0</ele><time>2026-04-16T15:37:56.186Z</time></trkpt><trkpt lat="45.6487014" lon="10.4485576"><ele>281.0</ele><time>2026-04-16T15:37:57.186Z</time></trkpt><trkpt lat="45.6485497" lon="10.4486435"><ele>281.0</ele><time>2026-04-16T15:37:58.185Z</time></trkpt><trkpt lat="45.6483997" lon="10.4487357"><ele>281.0</ele><time>2026-04-16T15:37:59.186Z</time></trkpt><trkpt lat="45.6482583" lon="10.4488313"><ele>281.0</ele><time>2026-04-16T15:38:00.186Z</time></trkpt><trkpt lat="45.6481105" lon="10.4489429"><ele>281.0</ele><time>2026-04-16T15:38:01.186Z</time></trkpt><trkpt lat="45.647973" lon="10.4490768"><ele>281.0</ele><time>2026-04-16T15:38:02.185Z</time></trkpt><trkpt lat="45.6478445" lon="10.4492428"><ele>281.0</ele><time>2026-04-16T15:38:03.186Z</time></trkpt><trkpt lat="45.6477404" lon="10.4494291"><ele>281.0</ele><time>2026-04-16T15:38:04.186Z</time></trkpt><trkpt lat="45.6476474" lon="10.4496375"><ele>277.6666666666667</ele><time>2026-04-16T15:38:05.186Z</time></trkpt><trkpt lat="45.6475661" lon="10.449851"><ele>274.3333333333333</ele><time>2026-04-16T15:38:06.185Z</time></trkpt><trkpt lat="45.6474874" lon="10.4500724"><ele>271.0</ele><time>2026-04-16T15:38:07.186Z</time></trkpt><trkpt lat="45.6474157" lon="10.4502973"><ele>273.3333333333333</ele><time>2026-04-16T15:38:08.186Z</time></trkpt><trkpt lat="45.6473527" lon="10.4505259"><ele>275.6666666666667</ele><time>2026-04-16T15:38:09.186Z</time></trkpt><trkpt lat="45.647293" lon="10.4507657"><ele>278.0</ele><time>2026-04-16T15:38:10.186Z</time></trkpt><trkpt lat="45.6472302" lon="10.4510098"><ele>278.0</ele><time>2026-04-16T15:38:11.186Z</time></trkpt><trkpt lat="45.6471675" lon="10.4512527"><ele>278.0</ele><time>2026-04-16T15:38:12.186Z</time></trkpt><trkpt lat="45.6471066" lon="10.4514994"><ele>278.0</ele><time>2026-04-16T15:38:13.185Z</time></trkpt><trkpt lat="45.6470447" lon="10.4517445"><ele>279.0</ele><time>2026-04-16T15:38:14.186Z</time></trkpt><trkpt lat="45.6469784" lon="10.4519883"><ele>280.0</ele><time>2026-04-16T15:38:15.186Z</time></trkpt><trkpt lat="45.6469054" lon="10.4522315"><ele>281.0</ele><time>2026-04-16T15:38:16.185Z</time></trkpt><trkpt lat="45.6468355" lon="10.4524708"><ele>276.33333333333337</ele><time>2026-04-16T15:38:17.185Z</time></trkpt><trkpt lat="45.6467575" lon="10.4527042"><ele>271.6666666666667</ele><time>2026-04-16T15:38:18.185Z</time></trkpt><trkpt lat="45.6466787" lon="10.4529299"><ele>267.0</ele><time>2026-04-16T15:38:19.185Z</time></trkpt><trkpt lat="45.6466021" lon="10.4531527"><ele>267.0</ele><time>2026-04-16T15:38:20.186Z</time></trkpt><trkpt lat="45.6465253" lon="10.4533784"><ele>267.0</ele><time>2026-04-16T15:38:21.186Z</time></trkpt><trkpt lat="45.6464534" lon="10.4535993"><ele>267.0</ele><time>2026-04-16T15:38:22.186Z</time></trkpt><trkpt lat="45.6463866" lon="10.4538086"><ele>269.3333333333333</ele><time>2026-04-16T15:38:23.185Z</time></trkpt><trkpt lat="45.6463251" lon="10.4540147"><ele>271.66666666666663</ele><time>2026-04-16T15:38:24.186Z</time></trkpt><trkpt lat="45.6462579" lon="10.4542167"><ele>274.0</ele><time>2026-04-16T15:38:25.186Z</time></trkpt><trkpt lat="45.646192" lon="10.4544172"><ele>271.3333333333333</ele><time>2026-04-16T15:38:26.185Z</time></trkpt><trkpt lat="45.6461253" lon="10.4546151"><ele>268.6666666666667</ele><time>2026-04-16T15:38:27.186Z</time></trkpt><trkpt lat="45.6460589" lon="10.4548198"><ele>266.0</ele><time>2026-04-16T15:38:28.186Z</time></trkpt><trkpt lat="45.6459895" lon="10.4550176"><ele>266.0</ele><time>2026-04-16T15:38:29.185Z</time></trkpt><trkpt lat="45.6459243" lon="10.455217"><ele>266.0</ele><time>2026-04-16T15:38:30.185Z</time></trkpt><trkpt lat="45.6458591" lon="10.4554159"><ele>266.0</ele><time>2026-04-16T15:38:31.186Z</time></trkpt><trkpt lat="45.6457983" lon="10.4556105"><ele>266.25</ele><time>2026-04-16T15:38:32.186Z</time></trkpt><trkpt lat="45.6457368" lon="10.4557993"><ele>266.5</ele><time>2026-04-16T15:38:33.186Z</time></trkpt><trkpt lat="45.6456766" lon="10.4559925"><ele>266.75</ele><time>2026-04-16T15:38:34.186Z</time></trkpt><trkpt lat="45.6456098" lon="10.4561849"><ele>267.0</ele><time>2026-04-16T15:38:35.185Z</time></trkpt><trkpt lat="45.6455412" lon="10.4563772"><ele>267.6666666666667</ele><time>2026-04-16T15:38:36.186Z</time></trkpt><trkpt lat="45.6454658" lon="10.4565722"><ele>268.33333333333337</ele><time>2026-04-16T15:38:37.185Z</time></trkpt><trkpt lat="45.6453874" lon="10.4567662"><ele>269.0</ele><time>2026-04-16T15:38:38.186Z</time></trkpt><trkpt lat="45.6453073" lon="10.4569612"><ele>267.0</ele><time>2026-04-16T15:38:39.185Z</time></trkpt><trkpt lat="45.6452228" lon="10.4571526"><ele>265.0</ele><time>2026-04-16T15:38:40.186Z</time></trkpt><trkpt lat="45.6451302" lon="10.4573385"><ele>263.0</ele><time>2026-04-16T15:38:41.185Z</time></trkpt><trkpt lat="45.6450327" lon="10.457527"><ele>263.0</ele><time>2026-04-16T15:38:42.186Z</time></trkpt><trkpt lat="45.6449309" lon="10.4577165"><ele>263.0</ele><time>2026-04-16T15:38:43.185Z</time></trkpt><trkpt lat="45.6448287" lon="10.4579045"><ele>263.0</ele><time>2026-04-16T15:38:44.186Z</time></trkpt><trkpt lat="45.6447263" lon="10.4580853"><ele>262.5</ele><time>2026-04-16T15:38:45.186Z</time></trkpt><trkpt lat="45.6446351" lon="10.4582593"><ele>262.0</ele><time>2026-04-16T15:38:46.186Z</time></trkpt><trkpt lat="45.6445485" lon="10.4584303"><ele>261.5</ele><time>2026-04-16T15:38:47.185Z</time></trkpt><trkpt lat="45.6444643" lon="10.4585917"><ele>261.0</ele><time>2026-04-16T15:38:48.186Z</time></trkpt><trkpt lat="45.6443823" lon="10.4587517"><ele>261.0</ele><time>2026-04-16T15:38:49.185Z</time></trkpt><trkpt lat="45.6442971" lon="10.4589109"><ele>261.0</ele><time>2026-04-16T15:38:50.186Z</time></trkpt><trkpt lat="45.6442147" lon="10.4590795"><ele>261.0</ele><time>2026-04-16T15:38:51.185Z</time></trkpt><trkpt lat="45.6441299" lon="10.4592472"><ele>261.0</ele><time>2026-04-16T15:38:52.185Z</time></trkpt><trkpt lat="45.6440395" lon="10.4594144"><ele>261.0</ele><time>2026-04-16T15:38:53.185Z</time></trkpt><trkpt lat="45.6439553" lon="10.4595734"><ele>261.0</ele><time>2026-04-16T15:38:54.186Z</time></trkpt><trkpt lat="45.6438726" lon="10.4597235"><ele>261.0</ele><time>2026-04-16T15:38:55.185Z</time></trkpt><trkpt lat="45.6437875" lon="10.4598485"><ele>261.0</ele><time>2026-04-16T15:38:56.185Z</time></trkpt><trkpt lat="45.6437005" lon="10.4599586"><ele>260.6</ele><time>2026-04-16T15:38:57.186Z</time></trkpt><trkpt lat="45.6436207" lon="10.4600535"><ele>260.20000000000005</ele><time>2026-04-16T15:38:58.186Z</time></trkpt><trkpt lat="45.6435545" lon="10.4601389"><ele>259.79999999999995</ele><time>2026-04-16T15:38:59.185Z</time></trkpt><trkpt lat="45.6435033" lon="10.4602214"><ele>259.4</ele><time>2026-04-16T15:39:00.186Z</time></trkpt><trkpt lat="45.6434254" lon="10.4603532"><ele>259.0</ele><time>2026-04-16T15:39:02.186Z</time></trkpt><trkpt lat="45.6433312" lon="10.4604793"><ele>259.0</ele><time>2026-04-16T15:39:04.186Z</time></trkpt><trkpt lat="45.6432739" lon="10.4605461"><ele>259.0</ele><time>2026-04-16T15:39:05.186Z</time></trkpt><trkpt lat="45.6432241" lon="10.4606238"><ele>259.0</ele><time>2026-04-16T15:39:06.185Z</time></trkpt><trkpt lat="45.6431834" lon="10.4607113"><ele>259.0</ele><time>2026-04-16T15:39:07.186Z</time></trkpt><trkpt lat="45.6431667" lon="10.4608058"><ele>259.0</ele><time>2026-04-16T15:39:08.186Z</time></trkpt><trkpt lat="45.6431738" lon="10.460911"><ele>259.0</ele><time>2026-04-16T15:39:09.186Z</time></trkpt><trkpt lat="45.6431984" lon="10.4610253"><ele>259.0</ele><time>2026-04-16T15:39:10.185Z</time></trkpt><trkpt lat="45.6432301" lon="10.4611542"><ele>259.0</ele><time>2026-04-16T15:39:11.185Z</time></trkpt><trkpt lat="45.6432547" lon="10.4613176"><ele>259.0</ele><time>2026-04-16T15:39:12.186Z</time></trkpt><trkpt lat="45.6432625" lon="10.4615127"><ele>259.0</ele><time>2026-04-16T15:39:13.186Z</time></trkpt><trkpt lat="45.6432548" lon="10.4617211"><ele>259.0</ele><time>2026-04-16T15:39:14.186Z</time></trkpt><trkpt lat="45.6432491" lon="10.4619325"><ele>258.75</ele><time>2026-04-16T15:39:15.186Z</time></trkpt><trkpt lat="45.6432364" lon="10.4621444"><ele>258.5</ele><time>2026-04-16T15:39:16.186Z</time></trkpt><trkpt lat="45.6432364" lon="10.4623412"><ele>258.25</ele><time>2026-04-16T15:39:17.186Z</time></trkpt><trkpt lat="45.643234" lon="10.4625306"><ele>258.0</ele><time>2026-04-16T15:39:18.185Z</time></trkpt><trkpt lat="45.6432273" lon="10.462713"><ele>258.0</ele><time>2026-04-16T15:39:19.185Z</time></trkpt><trkpt lat="45.643219" lon="10.4628785"><ele>258.0</ele><time>2026-04-16T15:39:20.186Z</time></trkpt><trkpt lat="45.6432034" lon="10.4630385"><ele>258.0</ele><time>2026-04-16T15:39:21.186Z</time></trkpt><trkpt lat="45.6431899" lon="10.4631973"><ele>258.0</ele><time>2026-04-16T15:39:22.186Z</time></trkpt><trkpt lat="45.6431756" lon="10.4633415"><ele>258.0</ele><time>2026-04-16T15:39:23.185Z</time></trkpt><trkpt lat="45.6431693" lon="10.4634659"><ele>257.5</ele><time>2026-04-16T15:39:24.186Z</time></trkpt><trkpt lat="45.6431806" lon="10.4636158"><ele>257.0</ele><time>2026-04-16T15:39:25.185Z</time></trkpt><trkpt lat="45.6432025" lon="10.4637939"><ele>256.5</ele><time>2026-04-16T15:39:26.186Z</time></trkpt><trkpt lat="45.6432283" lon="10.4639986"><ele>256.0</ele><time>2026-04-16T15:39:27.186Z</time></trkpt><trkpt lat="45.6432566" lon="10.4642195"><ele>255.66666666666666</ele><time>2026-04-16T15:39:28.185Z</time></trkpt><trkpt lat="45.6432879" lon="10.4644508"><ele>255.33333333333331</ele><time>2026-04-16T15:39:29.185Z</time></trkpt><trkpt lat="45.643325" lon="10.4646814"><ele>255.0</ele><time>2026-04-16T15:39:30.185Z</time></trkpt><trkpt lat="45.6433715" lon="10.4649256"><ele>254.66666666666669</ele><time>2026-04-16T15:39:31.185Z</time></trkpt><trkpt lat="45.6434246" lon="10.4651728"><ele>254.33333333333334</ele><time>2026-04-16T15:39:32.185Z</time></trkpt><trkpt lat="45.643482" lon="10.4654047"><ele>254.0</ele><time>2026-04-16T15:39:33.185Z</time></trkpt><trkpt lat="45.6435443" lon="10.4656203"><ele>254.0</ele><time>2026-04-16T15:39:34.186Z</time></trkpt><trkpt lat="45.6436156" lon="10.4658243"><ele>254.0</ele><time>2026-04-16T15:39:35.186Z</time></trkpt><trkpt lat="45.6437053" lon="10.4660153"><ele>254.0</ele><time>2026-04-16T15:39:36.186Z</time></trkpt><trkpt lat="45.6438115" lon="10.466217"><ele>255.66666666666669</ele><time>2026-04-16T15:39:37.185Z</time></trkpt><trkpt lat="45.6439306" lon="10.4664231"><ele>257.3333333333333</ele><time>2026-04-16T15:39:38.185Z</time></trkpt><trkpt lat="45.6440521" lon="10.4666272"><ele>259.0</ele><time>2026-04-16T15:39:39.185Z</time></trkpt><trkpt lat="45.6441686" lon="10.4668281"><ele>259.0</ele><time>2026-04-16T15:39:40.185Z</time></trkpt><trkpt lat="45.6442907" lon="10.4670265"><ele>259.0</ele><time>2026-04-16T15:39:41.185Z</time></trkpt><trkpt lat="45.6444216" lon="10.4672274"><ele>259.0</ele><time>2026-04-16T15:39:42.185Z</time></trkpt><trkpt lat="45.6445599" lon="10.467435"><ele>259.3333333333333</ele><time>2026-04-16T15:39:43.186Z</time></trkpt><trkpt lat="45.6446909" lon="10.467649"><ele>259.6666666666667</ele><time>2026-04-16T15:39:44.186Z</time></trkpt><trkpt lat="45.6448201" lon="10.4678692"><ele>260.0</ele><time>2026-04-16T15:39:45.186Z</time></trkpt><trkpt lat="45.6449473" lon="10.4681026"><ele>260.0</ele><time>2026-04-16T15:39:46.186Z</time></trkpt><trkpt lat="45.6450721" lon="10.4683425"><ele>260.0</ele><time>2026-04-16T15:39:47.185Z</time></trkpt><trkpt lat="45.6451866" lon="10.4685778"><ele>260.0</ele><time>2026-04-16T15:39:48.186Z</time></trkpt><trkpt lat="45.6452993" lon="10.4688128"><ele>261.33333333333337</ele><time>2026-04-16T15:39:49.185Z</time></trkpt><trkpt lat="45.6454149" lon="10.4690454"><ele>262.6666666666667</ele><time>2026-04-16T15:39:50.185Z</time></trkpt><trkpt lat="45.6455303" lon="10.4692767"><ele>264.0</ele><time>2026-04-16T15:39:51.185Z</time></trkpt><trkpt lat="45.645645" lon="10.4695104"><ele>261.3333333333333</ele><time>2026-04-16T15:39:52.185Z</time></trkpt><trkpt lat="45.6457563" lon="10.469744"><ele>258.66666666666663</ele><time>2026-04-16T15:39:53.185Z</time></trkpt><trkpt lat="45.6458751" lon="10.4699858"><ele>256.0</ele><time>2026-04-16T15:39:54.186Z</time></trkpt><trkpt lat="45.6460025" lon="10.4702328"><ele>256.66666666666663</ele><time>2026-04-16T15:39:55.186Z</time></trkpt><trkpt lat="45.6461323" lon="10.4704741"><ele>257.3333333333333</ele><time>2026-04-16T15:39:56.185Z</time></trkpt><trkpt lat="45.6462652" lon="10.4707086"><ele>258.0</ele><time>2026-04-16T15:39:57.185Z</time></trkpt><trkpt lat="45.6464015" lon="10.4709419"><ele>258.0</ele><time>2026-04-16T15:39:58.185Z</time></trkpt><trkpt lat="45.6465477" lon="10.4711623"><ele>258.0</ele><time>2026-04-16T15:39:59.186Z</time></trkpt><trkpt lat="45.6466994" lon="10.4713716"><ele>258.0</ele><time>2026-04-16T15:40:00.186Z</time></trkpt><trkpt lat="45.646858" lon="10.4715633"><ele>257.6666666666667</ele><time>2026-04-16T15:40:01.186Z</time></trkpt><trkpt lat="45.6470056" lon="10.4717539"><ele>257.33333333333337</ele><time>2026-04-16T15:40:02.185Z</time></trkpt><trkpt lat="45.6471498" lon="10.4719394"><ele>257.0</ele><time>2026-04-16T15:40:03.186Z</time></trkpt><trkpt lat="45.6472941" lon="10.4721273"><ele>256.0</ele><time>2026-04-16T15:40:04.186Z</time></trkpt><trkpt lat="45.647442" lon="10.4723135"><ele>255.0</ele><time>2026-04-16T15:40:05.185Z</time></trkpt><trkpt lat="45.6475882" lon="10.4724898"><ele>254.0</ele><time>2026-04-16T15:40:06.185Z</time></trkpt><trkpt lat="45.6477277" lon="10.4726726"><ele>254.33333333333334</ele><time>2026-04-16T15:40:07.186Z</time></trkpt><trkpt lat="45.6478554" lon="10.4728487"><ele>254.66666666666669</ele><time>2026-04-16T15:40:08.186Z</time></trkpt><trkpt lat="45.6479827" lon="10.4730215"><ele>255.0</ele><time>2026-04-16T15:40:09.185Z</time></trkpt><trkpt lat="45.6481096" lon="10.473191"><ele>254.33333333333331</ele><time>2026-04-16T15:40:10.186Z</time></trkpt><trkpt lat="45.648227" lon="10.4733559"><ele>253.66666666666666</ele><time>2026-04-16T15:40:11.185Z</time></trkpt><trkpt lat="45.6483408" lon="10.4735101"><ele>253.0</ele><time>2026-04-16T15:40:12.186Z</time></trkpt><trkpt lat="45.6484465" lon="10.473656"><ele>253.0</ele><time>2026-04-16T15:40:13.185Z</time></trkpt><trkpt lat="45.6485469" lon="10.473798"><ele>253.0</ele><time>2026-04-16T15:40:14.186Z</time></trkpt><trkpt lat="45.648655" lon="10.4739325"><ele>253.0</ele><time>2026-04-16T15:40:15.186Z</time></trkpt><trkpt lat="45.6487717" lon="10.474057"><ele>253.0</ele><time>2026-04-16T15:40:16.186Z</time></trkpt><trkpt lat="45.6489075" lon="10.474161"><ele>253.0</ele><time>2026-04-16T15:40:17.185Z</time></trkpt><trkpt lat="45.6490429" lon="10.4742351"><ele>253.0</ele><time>2026-04-16T15:40:18.186Z</time></trkpt><trkpt lat="45.6491715" lon="10.4743042"><ele>253.0</ele><time>2026-04-16T15:40:19.186Z</time></trkpt><trkpt lat="45.6492872" lon="10.4743616"><ele>253.0</ele><time>2026-04-16T15:40:20.186Z</time></trkpt><trkpt lat="45.6494016" lon="10.4744247"><ele>253.0</ele><time>2026-04-16T15:40:21.186Z</time></trkpt><trkpt lat="45.6495177" lon="10.4744815"><ele>253.0</ele><time>2026-04-16T15:40:22.186Z</time></trkpt><trkpt lat="45.6496307" lon="10.4745389"><ele>253.0</ele><time>2026-04-16T15:40:23.186Z</time></trkpt><trkpt lat="45.649743" lon="10.4746025"><ele>253.0</ele><time>2026-04-16T15:40:24.186Z</time></trkpt><trkpt lat="45.6498464" lon="10.4746645"><ele>253.0</ele><time>2026-04-16T15:40:25.186Z</time></trkpt><trkpt lat="45.6499458" lon="10.4747305"><ele>253.0</ele><time>2026-04-16T15:40:26.186Z</time></trkpt><trkpt lat="45.6500374" lon="10.4748045"><ele>253.0</ele><time>2026-04-16T15:40:27.186Z</time></trkpt><trkpt lat="45.6501153" lon="10.4748826"><ele>253.0</ele><time>2026-04-16T15:40:28.186Z</time></trkpt><trkpt lat="45.6501771" lon="10.4749489"><ele>253.0</ele><time>2026-04-16T15:40:29.185Z</time></trkpt><trkpt lat="45.6502386" lon="10.4750211"><ele>252.99999999999997</ele><time>2026-04-16T15:40:30.186Z</time></trkpt><trkpt lat="45.6502844" lon="10.4750892"><ele>253.0</ele><time>2026-04-16T15:40:31.186Z</time></trkpt><trkpt lat="45.6503244" lon="10.4751588"><ele>253.0</ele><time>2026-04-16T15:40:32.186Z</time></trkpt><trkpt lat="45.6503838" lon="10.4753013"><ele>253.0</ele><time>2026-04-16T15:40:34.186Z</time></trkpt><trkpt lat="45.6504718" lon="10.4754248"><ele>252.99999999999997</ele><time>2026-04-16T15:40:36.186Z</time></trkpt><trkpt lat="45.6505355" lon="10.4754693"><ele>253.0</ele><time>2026-04-16T15:40:37.185Z</time></trkpt><trkpt lat="45.650604" lon="10.4754914"><ele>252.49999999999997</ele><time>2026-04-16T15:40:38.185Z</time></trkpt><trkpt lat="45.6506735" lon="10.4755377"><ele>252.0</ele><time>2026-04-16T15:40:39.185Z</time></trkpt><trkpt lat="45.6507415" lon="10.4756024"><ele>251.5</ele><time>2026-04-16T15:40:40.184Z</time></trkpt><trkpt lat="45.6508087" lon="10.4756796"><ele>251.0</ele><time>2026-04-16T15:40:41.185Z</time></trkpt><trkpt lat="45.6508697" lon="10.4757603"><ele>250.49999999999997</ele><time>2026-04-16T15:40:42.184Z</time></trkpt><trkpt lat="45.6509318" lon="10.4758504"><ele>250.0</ele><time>2026-04-16T15:40:43.185Z</time></trkpt><trkpt lat="45.6510002" lon="10.4759517"><ele>250.0</ele><time>2026-04-16T15:40:44.185Z</time></trkpt><trkpt lat="45.6510613" lon="10.4760435"><ele>250.0</ele><time>2026-04-16T15:40:45.185Z</time></trkpt><trkpt lat="45.6511214" lon="10.4761352"><ele>250.0</ele><time>2026-04-16T15:40:46.184Z</time></trkpt><trkpt lat="45.651182" lon="10.4762425"><ele>250.0</ele><time>2026-04-16T15:40:47.185Z</time></trkpt><trkpt lat="45.6512372" lon="10.4763626"><ele>250.0</ele><time>2026-04-16T15:40:48.185Z</time></trkpt><trkpt lat="45.6512895" lon="10.4764964"><ele>252.0</ele><time>2026-04-16T15:40:49.184Z</time></trkpt><trkpt lat="45.6513347" lon="10.4766402"><ele>254.0</ele><time>2026-04-16T15:40:50.185Z</time></trkpt><trkpt lat="45.6513831" lon="10.4768042"><ele>256.0</ele><time>2026-04-16T15:40:51.185Z</time></trkpt><trkpt lat="45.6514208" lon="10.476982"><ele>258.0</ele><time>2026-04-16T15:40:52.184Z</time></trkpt><trkpt lat="45.6514437" lon="10.4771413"><ele>260.25</ele><time>2026-04-16T15:40:53.184Z</time></trkpt><trkpt lat="45.651452" lon="10.4773054"><ele>262.5</ele><time>2026-04-16T15:40:54.184Z</time></trkpt><trkpt lat="45.6514504" lon="10.4774791"><ele>264.75</ele><time>2026-04-16T15:40:55.185Z</time></trkpt><trkpt lat="45.6514301" lon="10.4776594"><ele>267.0</ele><time>2026-04-16T15:40:56.184Z</time></trkpt><trkpt lat="45.651392" lon="10.4778815"><ele>268.0</ele><time>2026-04-16T15:40:57.185Z</time></trkpt><trkpt lat="45.6513406" lon="10.4781103"><ele>269.0</ele><time>2026-04-16T15:40:58.184Z</time></trkpt><trkpt lat="45.651302" lon="10.4783218"><ele>270.0</ele><time>2026-04-16T15:40:59.185Z</time></trkpt><trkpt lat="45.651252" lon="10.4785234"><ele>270.0</ele><time>2026-04-16T15:41:00.185Z</time></trkpt><trkpt lat="45.6512103" lon="10.4787222"><ele>270.0</ele><time>2026-04-16T15:41:01.184Z</time></trkpt><trkpt lat="45.6511721" lon="10.4789103"><ele>270.0</ele><time>2026-04-16T15:41:02.184Z</time></trkpt><trkpt lat="45.6511342" lon="10.4790994"><ele>270.0</ele><time>2026-04-16T15:41:03.184Z</time></trkpt><trkpt lat="45.6510985" lon="10.4792838"><ele>267.0</ele><time>2026-04-16T15:41:04.184Z</time></trkpt><trkpt lat="45.6510606" lon="10.4794623"><ele>264.0</ele><time>2026-04-16T15:41:05.185Z</time></trkpt><trkpt lat="45.6510111" lon="10.4796392"><ele>261.0</ele><time>2026-04-16T15:41:06.184Z</time></trkpt><trkpt lat="45.650956" lon="10.4798156"><ele>258.0</ele><time>2026-04-16T15:41:07.184Z</time></trkpt><trkpt lat="45.6508993" lon="10.4799903"><ele>258.0</ele><time>2026-04-16T15:41:08.184Z</time></trkpt><trkpt lat="45.6508451" lon="10.4801663"><ele>258.0</ele><time>2026-04-16T15:41:09.184Z</time></trkpt><trkpt lat="45.6507952" lon="10.4803479"><ele>258.0</ele><time>2026-04-16T15:41:10.185Z</time></trkpt><trkpt lat="45.6507383" lon="10.4805295"><ele>258.0</ele><time>2026-04-16T15:41:11.185Z</time></trkpt><trkpt lat="45.6506833" lon="10.4807057"><ele>259.25</ele><time>2026-04-16T15:41:12.184Z</time></trkpt><trkpt lat="45.6506304" lon="10.4808778"><ele>260.5</ele><time>2026-04-16T15:41:13.184Z</time></trkpt><trkpt lat="45.6505821" lon="10.4810555"><ele>261.75</ele><time>2026-04-16T15:41:14.185Z</time></trkpt><trkpt lat="45.6505289" lon="10.4812213"><ele>263.0</ele><time>2026-04-16T15:41:15.185Z</time></trkpt><trkpt lat="45.6504747" lon="10.4813886"><ele>264.0</ele><time>2026-04-16T15:41:16.185Z</time></trkpt><trkpt lat="45.6504279" lon="10.4815464"><ele>265.0</ele><time>2026-04-16T15:41:17.184Z</time></trkpt><trkpt lat="45.6503853" lon="10.481693"><ele>266.0</ele><time>2026-04-16T15:41:18.184Z</time></trkpt><trkpt lat="45.6503391" lon="10.4818405"><ele>267.0</ele><time>2026-04-16T15:41:19.185Z</time></trkpt><trkpt lat="45.6502996" lon="10.4819931"><ele>262.25</ele><time>2026-04-16T15:41:20.185Z</time></trkpt><trkpt lat="45.6502581" lon="10.4821428"><ele>257.5</ele><time>2026-04-16T15:41:21.184Z</time></trkpt><trkpt lat="45.6502174" lon="10.482297"><ele>252.75</ele><time>2026-04-16T15:41:22.185Z</time></trkpt><trkpt lat="45.6501741" lon="10.482455"><ele>248.0</ele><time>2026-04-16T15:41:23.185Z</time></trkpt><trkpt lat="45.6501326" lon="10.4826139"><ele>248.0</ele><time>2026-04-16T15:41:24.185Z</time></trkpt><trkpt lat="45.6500901" lon="10.482776"><ele>248.0</ele><time>2026-04-16T15:41:25.185Z</time></trkpt><trkpt lat="45.6500574" lon="10.4829295"><ele>248.0</ele><time>2026-04-16T15:41:26.185Z</time></trkpt><trkpt lat="45.6500235" lon="10.483087"><ele>248.0</ele><time>2026-04-16T15:41:27.185Z</time></trkpt><trkpt lat="45.6499881" lon="10.4832591"><ele>249.75</ele><time>2026-04-16T15:41:28.185Z</time></trkpt><trkpt lat="45.6499605" lon="10.4834336"><ele>251.5</ele><time>2026-04-16T15:41:29.184Z</time></trkpt><trkpt lat="45.6499333" lon="10.4836237"><ele>253.25</ele><time>2026-04-16T15:41:30.184Z</time></trkpt><trkpt lat="45.649903" lon="10.4838141"><ele>255.0</ele><time>2026-04-16T15:41:31.184Z</time></trkpt><trkpt lat="45.6498772" lon="10.483995"><ele>255.75</ele><time>2026-04-16T15:41:32.184Z</time></trkpt><trkpt lat="45.6498534" lon="10.4841603"><ele>256.5</ele><time>2026-04-16T15:41:33.185Z</time></trkpt><trkpt lat="45.6498263" lon="10.4843301"><ele>257.25</ele><time>2026-04-16T15:41:34.185Z</time></trkpt><trkpt lat="45.649804" lon="10.4845034"><ele>258.0</ele><time>2026-04-16T15:41:35.185Z</time></trkpt><trkpt lat="45.6497822" lon="10.4846906"><ele>259.75</ele><time>2026-04-16T15:41:36.185Z</time></trkpt><trkpt lat="45.6497609" lon="10.4848831"><ele>261.5</ele><time>2026-04-16T15:41:37.185Z</time></trkpt><trkpt lat="45.6497451" lon="10.4850667"><ele>263.25</ele><time>2026-04-16T15:41:38.185Z</time></trkpt><trkpt lat="45.6497356" lon="10.485237"><ele>265.0</ele><time>2026-04-16T15:41:39.185Z</time></trkpt><trkpt lat="45.6497347" lon="10.4854063"><ele>265.0</ele><time>2026-04-16T15:41:40.185Z</time></trkpt><trkpt lat="45.6497521" lon="10.4855818"><ele>265.0</ele><time>2026-04-16T15:41:41.184Z</time></trkpt><trkpt lat="45.6497618" lon="10.4857603"><ele>265.0</ele><time>2026-04-16T15:41:42.184Z</time></trkpt><trkpt lat="45.6497739" lon="10.4859529"><ele>265.0</ele><time>2026-04-16T15:41:43.185Z</time></trkpt><trkpt lat="45.64979" lon="10.4861295"><ele>265.5</ele><time>2026-04-16T15:41:44.185Z</time></trkpt><trkpt lat="45.6497971" lon="10.4862913"><ele>266.0</ele><time>2026-04-16T15:41:45.185Z</time></trkpt><trkpt lat="45.6498049" lon="10.4864633"><ele>266.5</ele><time>2026-04-16T15:41:46.184Z</time></trkpt><trkpt lat="45.6498187" lon="10.4866404"><ele>267.0</ele><time>2026-04-16T15:41:47.185Z</time></trkpt><trkpt lat="45.6498254" lon="10.4868256"><ele>267.0</ele><time>2026-04-16T15:41:48.184Z</time></trkpt><trkpt lat="45.6498243" lon="10.4870057"><ele>267.0</ele><time>2026-04-16T15:41:49.184Z</time></trkpt><trkpt lat="45.6498181" lon="10.4871893"><ele>267.0</ele><time>2026-04-16T15:41:50.185Z</time></trkpt><trkpt lat="45.6498003" lon="10.4873609"><ele>267.0</ele><time>2026-04-16T15:41:51.184Z</time></trkpt><trkpt lat="45.6497881" lon="10.4875393"><ele>265.25</ele><time>2026-04-16T15:41:52.184Z</time></trkpt><trkpt lat="45.6497783" lon="10.4877184"><ele>263.5</ele><time>2026-04-16T15:41:53.184Z</time></trkpt><trkpt lat="45.6497621" lon="10.4878953"><ele>261.75</ele><time>2026-04-16T15:41:54.185Z</time></trkpt><trkpt lat="45.6497467" lon="10.4880917"><ele>260.0</ele><time>2026-04-16T15:41:55.185Z</time></trkpt><trkpt lat="45.6497288" lon="10.4883728"><ele>259.6666666666667</ele><time>2026-04-16T15:41:56.185Z</time></trkpt><trkpt lat="45.6497109" lon="10.4886695"><ele>259.3333333333333</ele><time>2026-04-16T15:41:57.184Z</time></trkpt><trkpt lat="45.6496857" lon="10.4889389"><ele>259.0</ele><time>2026-04-16T15:41:58.184Z</time></trkpt><trkpt lat="45.6496774" lon="10.4891852"><ele>261.0</ele><time>2026-04-16T15:41:59.185Z</time></trkpt><trkpt lat="45.6496524" lon="10.4894136"><ele>263.0</ele><time>2026-04-16T15:42:00.185Z</time></trkpt><trkpt lat="45.6496254" lon="10.4896314"><ele>265.0</ele><time>2026-04-16T15:42:01.185Z</time></trkpt><trkpt lat="45.6496017" lon="10.4898383"><ele>266.0</ele><time>2026-04-16T15:42:02.184Z</time></trkpt><trkpt lat="45.6495828" lon="10.4900356"><ele>267.0</ele><time>2026-04-16T15:42:03.184Z</time></trkpt><trkpt lat="45.649566" lon="10.4902318"><ele>268.0</ele><time>2026-04-16T15:42:04.185Z</time></trkpt><trkpt lat="45.6495459" lon="10.4904324"><ele>269.0</ele><time>2026-04-16T15:42:05.185Z</time></trkpt><trkpt lat="45.6495167" lon="10.4906319"><ele>269.75</ele><time>2026-04-16T15:42:06.185Z</time></trkpt><trkpt lat="45.6494782" lon="10.4908309"><ele>270.5</ele><time>2026-04-16T15:42:07.185Z</time></trkpt><trkpt lat="45.6494444" lon="10.4910163"><ele>271.25</ele><time>2026-04-16T15:42:08.185Z</time></trkpt><trkpt lat="45.6494066" lon="10.4911973"><ele>272.0</ele><time>2026-04-16T15:42:09.184Z</time></trkpt><trkpt lat="45.6493633" lon="10.4913788"><ele>266.25</ele><time>2026-04-16T15:42:10.185Z</time></trkpt><trkpt lat="45.6493152" lon="10.4915603"><ele>260.5</ele><time>2026-04-16T15:42:11.184Z</time></trkpt><trkpt lat="45.6492658" lon="10.4917495"><ele>254.75</ele><time>2026-04-16T15:42:12.185Z</time></trkpt><trkpt lat="45.6492157" lon="10.491927"><ele>249.0</ele><time>2026-04-16T15:42:13.185Z</time></trkpt><trkpt lat="45.6491615" lon="10.4921005"><ele>249.0</ele><time>2026-04-16T15:42:14.184Z</time></trkpt><trkpt lat="45.6491081" lon="10.4922771"><ele>249.0</ele><time>2026-04-16T15:42:15.184Z</time></trkpt><trkpt lat="45.6490569" lon="10.4924523"><ele>249.0</ele><time>2026-04-16T15:42:16.185Z</time></trkpt><trkpt lat="45.6490023" lon="10.4926218"><ele>249.0</ele><time>2026-04-16T15:42:17.184Z</time></trkpt><trkpt lat="45.6489539" lon="10.4927901"><ele>250.5</ele><time>2026-04-16T15:42:18.185Z</time></trkpt><trkpt lat="45.6488995" lon="10.4929668"><ele>252.0</ele><time>2026-04-16T15:42:19.185Z</time></trkpt><trkpt lat="45.6488428" lon="10.4931372"><ele>253.5</ele><time>2026-04-16T15:42:20.184Z</time></trkpt><trkpt lat="45.6487928" lon="10.4933073"><ele>255.0</ele><time>2026-04-16T15:42:21.184Z</time></trkpt><trkpt lat="45.6487472" lon="10.4934814"><ele>255.0</ele><time>2026-04-16T15:42:22.185Z</time></trkpt><trkpt lat="45.6487016" lon="10.4936588"><ele>255.0</ele><time>2026-04-16T15:42:23.185Z</time></trkpt><trkpt lat="45.6486538" lon="10.4938273"><ele>255.0</ele><time>2026-04-16T15:42:24.184Z</time></trkpt><trkpt lat="45.6486014" lon="10.4939977"><ele>255.0</ele><time>2026-04-16T15:42:25.184Z</time></trkpt><trkpt lat="45.6485395" lon="10.4941642"><ele>255.0</ele><time>2026-04-16T15:42:26.185Z</time></trkpt><trkpt lat="45.6484633" lon="10.4943208"><ele>255.0</ele><time>2026-04-16T15:42:27.184Z</time></trkpt><trkpt lat="45.6483869" lon="10.4944709"><ele>255.0</ele><time>2026-04-16T15:42:28.185Z</time></trkpt><trkpt lat="45.6483045" lon="10.4946254"><ele>255.0</ele><time>2026-04-16T15:42:29.185Z</time></trkpt><trkpt lat="45.6482207" lon="10.4947855"><ele>255.0</ele><time>2026-04-16T15:42:30.185Z</time></trkpt><trkpt lat="45.6481325" lon="10.4949332"><ele>255.0</ele><time>2026-04-16T15:42:31.184Z</time></trkpt><trkpt lat="45.6480469" lon="10.4950758"><ele>255.0</ele><time>2026-04-16T15:42:32.184Z</time></trkpt><trkpt lat="45.6479623" lon="10.4952047"><ele>255.0</ele><time>2026-04-16T15:42:33.184Z</time></trkpt><trkpt lat="45.6478815" lon="10.4953382"><ele>257.5</ele><time>2026-04-16T15:42:34.185Z</time></trkpt><trkpt lat="45.6477979" lon="10.4954723"><ele>260.0</ele><time>2026-04-16T15:42:35.185Z</time></trkpt><trkpt lat="45.647712" lon="10.4955957"><ele>262.5</ele><time>2026-04-16T15:42:36.185Z</time></trkpt><trkpt lat="45.6476303" lon="10.4957259"><ele>265.0</ele><time>2026-04-16T15:42:37.185Z</time></trkpt><trkpt lat="45.6475493" lon="10.4958516"><ele>261.5</ele><time>2026-04-16T15:42:38.184Z</time></trkpt><trkpt lat="45.6474658" lon="10.4959797"><ele>258.0</ele><time>2026-04-16T15:42:39.184Z</time></trkpt><trkpt lat="45.647383" lon="10.4961091"><ele>254.5</ele><time>2026-04-16T15:42:40.184Z</time></trkpt><trkpt lat="45.6473077" lon="10.4962373"><ele>251.0</ele><time>2026-04-16T15:42:41.184Z</time></trkpt><trkpt lat="45.6472406" lon="10.4963724"><ele>251.0</ele><time>2026-04-16T15:42:42.184Z</time></trkpt><trkpt lat="45.6471715" lon="10.4965024"><ele>251.00000000000003</ele><time>2026-04-16T15:42:43.185Z</time></trkpt><trkpt lat="45.6471034" lon="10.4966312"><ele>251.00000000000003</ele><time>2026-04-16T15:42:44.185Z</time></trkpt><trkpt lat="45.6470359" lon="10.4967522"><ele>251.0</ele><time>2026-04-16T15:42:45.184Z</time></trkpt><trkpt lat="45.6469696" lon="10.4968739"><ele>251.0</ele><time>2026-04-16T15:42:46.184Z</time></trkpt><trkpt lat="45.6469064" lon="10.4970059"><ele>249.25</ele><time>2026-04-16T15:42:47.185Z</time></trkpt><trkpt lat="45.6468346" lon="10.4971367"><ele>247.5</ele><time>2026-04-16T15:42:48.185Z</time></trkpt><trkpt lat="45.646761" lon="10.4972654"><ele>245.75</ele><time>2026-04-16T15:42:49.185Z</time></trkpt><trkpt lat="45.6466979" lon="10.4973949"><ele>244.0</ele><time>2026-04-16T15:42:50.185Z</time></trkpt><trkpt lat="45.6466439" lon="10.4975317"><ele>244.0</ele><time>2026-04-16T15:42:51.184Z</time></trkpt><trkpt lat="45.6465922" lon="10.4976629"><ele>243.99999999999997</ele><time>2026-04-16T15:42:52.184Z</time></trkpt><trkpt lat="45.6465504" lon="10.497785"><ele>243.99999999999997</ele><time>2026-04-16T15:42:53.184Z</time></trkpt><trkpt lat="45.6465068" lon="10.4978977"><ele>244.0</ele><time>2026-04-16T15:42:54.184Z</time></trkpt><trkpt lat="45.646463" lon="10.498018"><ele>244.0</ele><time>2026-04-16T15:42:55.184Z</time></trkpt><trkpt lat="45.6464097" lon="10.4981512"><ele>244.6</ele><time>2026-04-16T15:42:56.185Z</time></trkpt><trkpt lat="45.6463579" lon="10.4982785"><ele>245.2</ele><time>2026-04-16T15:42:57.185Z</time></trkpt><trkpt lat="45.64632" lon="10.4984047"><ele>245.79999999999998</ele><time>2026-04-16T15:42:58.185Z</time></trkpt><trkpt lat="45.6462828" lon="10.4985235"><ele>246.39999999999998</ele><time>2026-04-16T15:42:59.185Z</time></trkpt><trkpt lat="45.6462409" lon="10.4986434"><ele>247.0</ele><time>2026-04-16T15:43:00.185Z</time></trkpt><trkpt lat="45.6462023" lon="10.4987668"><ele>247.6</ele><time>2026-04-16T15:43:01.184Z</time></trkpt><trkpt lat="45.6461688" lon="10.4988881"><ele>248.2</ele><time>2026-04-16T15:43:02.185Z</time></trkpt><trkpt lat="45.646133" lon="10.4990021"><ele>248.8</ele><time>2026-04-16T15:43:03.185Z</time></trkpt><trkpt lat="45.6460952" lon="10.4991228"><ele>249.4</ele><time>2026-04-16T15:43:04.185Z</time></trkpt><trkpt lat="45.6460648" lon="10.4992461"><ele>250.0</ele><time>2026-04-16T15:43:05.184Z</time></trkpt><trkpt lat="45.6460446" lon="10.4993691"><ele>248.0</ele><time>2026-04-16T15:43:06.185Z</time></trkpt><trkpt lat="45.6460329" lon="10.4994912"><ele>246.0</ele><time>2026-04-16T15:43:07.185Z</time></trkpt><trkpt lat="45.6460297" lon="10.499611"><ele>244.0</ele><time>2026-04-16T15:43:08.185Z</time></trkpt><trkpt lat="45.6460367" lon="10.4997412"><ele>242.0</ele><time>2026-04-16T15:43:09.185Z</time></trkpt><trkpt lat="45.6460552" lon="10.4998745"><ele>240.0</ele><time>2026-04-16T15:43:10.185Z</time></trkpt><trkpt lat="45.6460748" lon="10.5000159"><ele>239.8</ele><time>2026-04-16T15:43:11.184Z</time></trkpt><trkpt lat="45.6461009" lon="10.5001413"><ele>239.6</ele><time>2026-04-16T15:43:12.185Z</time></trkpt><trkpt lat="45.6461204" lon="10.5002757"><ele>239.39999999999998</ele><time>2026-04-16T15:43:13.185Z</time></trkpt><trkpt lat="45.6461333" lon="10.5004096"><ele>239.2</ele><time>2026-04-16T15:43:14.185Z</time></trkpt><trkpt lat="45.6461347" lon="10.5005325"><ele>239.0</ele><time>2026-04-16T15:43:15.184Z</time></trkpt><trkpt lat="45.6461423" lon="10.5006574"><ele>241.0</ele><time>2026-04-16T15:43:16.184Z</time></trkpt><trkpt lat="45.6461483" lon="10.5007988"><ele>242.99999999999997</ele><time>2026-04-16T15:43:17.185Z</time></trkpt><trkpt lat="45.6461517" lon="10.5009492"><ele>244.99999999999997</ele><time>2026-04-16T15:43:18.184Z</time></trkpt><trkpt lat="45.6461567" lon="10.5011065"><ele>247.0</ele><time>2026-04-16T15:43:19.185Z</time></trkpt><trkpt lat="45.6461617" lon="10.5012631"><ele>249.0</ele><time>2026-04-16T15:43:20.185Z</time></trkpt><trkpt lat="45.646161" lon="10.5014153"><ele>249.0</ele><time>2026-04-16T15:43:21.184Z</time></trkpt><trkpt lat="45.6461597" lon="10.5015675"><ele>248.99999999999997</ele><time>2026-04-16T15:43:22.185Z</time></trkpt><trkpt lat="45.646163" lon="10.5017219"><ele>248.99999999999997</ele><time>2026-04-16T15:43:23.184Z</time></trkpt><trkpt lat="45.646167" lon="10.5018788"><ele>249.0</ele><time>2026-04-16T15:43:24.185Z</time></trkpt><trkpt lat="45.646168" lon="10.5020311"><ele>249.0</ele><time>2026-04-16T15:43:25.185Z</time></trkpt><trkpt lat="45.6461681" lon="10.5021753"><ele>247.6</ele><time>2026-04-16T15:43:26.185Z</time></trkpt><trkpt lat="45.646167" lon="10.5023106"><ele>246.2</ele><time>2026-04-16T15:43:27.184Z</time></trkpt><trkpt lat="45.6461686" lon="10.5024358"><ele>244.79999999999998</ele><time>2026-04-16T15:43:28.185Z</time></trkpt><trkpt lat="45.6461765" lon="10.5025554"><ele>243.39999999999998</ele><time>2026-04-16T15:43:29.185Z</time></trkpt><trkpt lat="45.6461814" lon="10.5026862"><ele>242.0</ele><time>2026-04-16T15:43:30.185Z</time></trkpt><trkpt lat="45.6461791" lon="10.5028264"><ele>242.6</ele><time>2026-04-16T15:43:31.185Z</time></trkpt><trkpt lat="45.6461743" lon="10.5029745"><ele>243.2</ele><time>2026-04-16T15:43:32.185Z</time></trkpt><trkpt lat="45.646171" lon="10.5031321"><ele>243.8</ele><time>2026-04-16T15:43:33.184Z</time></trkpt><trkpt lat="45.6461628" lon="10.5032883"><ele>244.4</ele><time>2026-04-16T15:43:34.185Z</time></trkpt><trkpt lat="45.6461402" lon="10.5034469"><ele>245.0</ele><time>2026-04-16T15:43:35.184Z</time></trkpt><trkpt lat="45.6461013" lon="10.5036079"><ele>243.75</ele><time>2026-04-16T15:43:36.185Z</time></trkpt><trkpt lat="45.6460551" lon="10.5037676"><ele>242.5</ele><time>2026-04-16T15:43:37.185Z</time></trkpt><trkpt lat="45.6460035" lon="10.5039127"><ele>241.25</ele><time>2026-04-16T15:43:38.184Z</time></trkpt><trkpt lat="45.6459541" lon="10.5040578"><ele>240.0</ele><time>2026-04-16T15:43:39.185Z</time></trkpt><trkpt lat="45.6459044" lon="10.5042129"><ele>240.0</ele><time>2026-04-16T15:43:40.184Z</time></trkpt><trkpt lat="45.6458389" lon="10.5043693"><ele>240.0</ele><time>2026-04-16T15:43:41.185Z</time></trkpt><trkpt lat="45.6457579" lon="10.5045186"><ele>240.0</ele><time>2026-04-16T15:43:42.184Z</time></trkpt><trkpt lat="45.6456753" lon="10.5046583"><ele>240.0</ele><time>2026-04-16T15:43:43.184Z</time></trkpt><trkpt lat="45.6455916" lon="10.5047738"><ele>240.75</ele><time>2026-04-16T15:43:44.185Z</time></trkpt><trkpt lat="45.6454873" lon="10.504867"><ele>241.5</ele><time>2026-04-16T15:43:45.185Z</time></trkpt><trkpt lat="45.6453467" lon="10.5049348"><ele>242.25</ele><time>2026-04-16T15:43:46.184Z</time></trkpt><trkpt lat="45.6452105" lon="10.5050033"><ele>243.0</ele><time>2026-04-16T15:43:47.185Z</time></trkpt><trkpt lat="45.645068" lon="10.5050729"><ele>243.0</ele><time>2026-04-16T15:43:48.185Z</time></trkpt><trkpt lat="45.6449091" lon="10.5051184"><ele>243.0</ele><time>2026-04-16T15:43:49.185Z</time></trkpt><trkpt lat="45.6447384" lon="10.5051436"><ele>243.0</ele><time>2026-04-16T15:43:50.185Z</time></trkpt><trkpt lat="45.6445655" lon="10.5051584"><ele>243.0</ele><time>2026-04-16T15:43:51.184Z</time></trkpt><trkpt lat="45.6443939" lon="10.5051684"><ele>243.0</ele><time>2026-04-16T15:43:52.185Z</time></trkpt><trkpt lat="45.6442204" lon="10.5051828"><ele>243.0</ele><time>2026-04-16T15:43:53.184Z</time></trkpt><trkpt lat="45.6440571" lon="10.505197"><ele>243.0</ele><time>2026-04-16T15:43:54.184Z</time></trkpt><trkpt lat="45.6439001" lon="10.505202"><ele>243.0</ele><time>2026-04-16T15:43:55.184Z</time></trkpt><trkpt lat="45.6437445" lon="10.505214"><ele>243.0</ele><time>2026-04-16T15:43:56.184Z</time></trkpt><trkpt lat="45.6435918" lon="10.5052285"><ele>243.33333333333331</ele><time>2026-04-16T15:43:57.184Z</time></trkpt><trkpt lat="45.6434383" lon="10.5052379"><ele>243.66666666666666</ele><time>2026-04-16T15:43:58.183Z</time></trkpt><trkpt lat="45.6432785" lon="10.5052434"><ele>244.0</ele><time>2026-04-16T15:43:59.183Z</time></trkpt><trkpt lat="45.6431255" lon="10.5052625"><ele>244.0</ele><time>2026-04-16T15:44:00.184Z</time></trkpt><trkpt lat="45.6429823" lon="10.5052786"><ele>244.0</ele><time>2026-04-16T15:44:01.184Z</time></trkpt><trkpt lat="45.6428348" lon="10.5052934"><ele>244.0</ele><time>2026-04-16T15:44:02.184Z</time></trkpt><trkpt lat="45.6427015" lon="10.5053024"><ele>244.0</ele><time>2026-04-16T15:44:03.184Z</time></trkpt><trkpt lat="45.6425773" lon="10.5053138"><ele>242.79999999999998</ele><time>2026-04-16T15:44:04.184Z</time></trkpt><trkpt lat="45.6424744" lon="10.505326"><ele>241.59999999999997</ele><time>2026-04-16T15:44:05.184Z</time></trkpt><trkpt lat="45.6423752" lon="10.5053328"><ele>240.4</ele><time>2026-04-16T15:44:06.183Z</time></trkpt><trkpt lat="45.6422827" lon="10.5053368"><ele>239.2</ele><time>2026-04-16T15:44:07.183Z</time></trkpt><trkpt lat="45.6421969" lon="10.5053312"><ele>238.0</ele><time>2026-04-16T15:44:08.183Z</time></trkpt><trkpt lat="45.6421222" lon="10.5053091"><ele>238.0</ele><time>2026-04-16T15:44:09.184Z</time></trkpt><trkpt lat="45.6420422" lon="10.5052905"><ele>238.0</ele><time>2026-04-16T15:44:10.184Z</time></trkpt><trkpt lat="45.6419423" lon="10.50528"><ele>238.0</ele><time>2026-04-16T15:44:11.184Z</time></trkpt><trkpt lat="45.6418354" lon="10.5052791"><ele>238.0</ele><time>2026-04-16T15:44:12.183Z</time></trkpt><trkpt lat="45.6417315" lon="10.5052955"><ele>238.0</ele><time>2026-04-16T15:44:13.184Z</time></trkpt><trkpt lat="45.641624" lon="10.5053217"><ele>238.0</ele><time>2026-04-16T15:44:14.184Z</time></trkpt><trkpt lat="45.6415091" lon="10.5053584"><ele>238.0</ele><time>2026-04-16T15:44:15.183Z</time></trkpt><trkpt lat="45.6413967" lon="10.50539"><ele>238.0</ele><time>2026-04-16T15:44:16.183Z</time></trkpt><trkpt lat="45.6412844" lon="10.5054042"><ele>238.0</ele><time>2026-04-16T15:44:17.184Z</time></trkpt><trkpt lat="45.6411709" lon="10.5054198"><ele>241.5</ele><time>2026-04-16T15:44:18.183Z</time></trkpt><trkpt lat="45.6410529" lon="10.505458"><ele>245.0</ele><time>2026-04-16T15:44:19.184Z</time></trkpt><trkpt lat="45.6409314" lon="10.5055032"><ele>248.5</ele><time>2026-04-16T15:44:20.183Z</time></trkpt><trkpt lat="45.6408049" lon="10.5055544"><ele>252.0</ele><time>2026-04-16T15:44:21.183Z</time></trkpt><trkpt lat="45.6406642" lon="10.5056301"><ele>252.0</ele><time>2026-04-16T15:44:22.183Z</time></trkpt><trkpt lat="45.6405228" lon="10.5057367"><ele>252.0</ele><time>2026-04-16T15:44:23.184Z</time></trkpt><trkpt lat="45.6403717" lon="10.5058458"><ele>252.0</ele><time>2026-04-16T15:44:24.183Z</time></trkpt><trkpt lat="45.6402153" lon="10.5059631"><ele>252.33333333333331</ele><time>2026-04-16T15:44:25.183Z</time></trkpt><trkpt lat="45.6400712" lon="10.5060801"><ele>252.66666666666666</ele><time>2026-04-16T15:44:26.183Z</time></trkpt><trkpt lat="45.6399287" lon="10.5061827"><ele>253.0</ele><time>2026-04-16T15:44:27.183Z</time></trkpt><trkpt lat="45.6397851" lon="10.5062784"><ele>253.0</ele><time>2026-04-16T15:44:28.183Z</time></trkpt><trkpt lat="45.6396513" lon="10.5063649"><ele>253.0</ele><time>2026-04-16T15:44:29.184Z</time></trkpt><trkpt lat="45.6395158" lon="10.5064363"><ele>253.0</ele><time>2026-04-16T15:44:30.183Z</time></trkpt><trkpt lat="45.6393808" lon="10.5065057"><ele>253.0</ele><time>2026-04-16T15:44:31.184Z</time></trkpt><trkpt lat="45.6392504" lon="10.5065736"><ele>250.0</ele><time>2026-04-16T15:44:32.183Z</time></trkpt><trkpt lat="45.6391199" lon="10.5066402"><ele>247.0</ele><time>2026-04-16T15:44:33.183Z</time></trkpt><trkpt lat="45.6389858" lon="10.5066936"><ele>244.0</ele><time>2026-04-16T15:44:34.184Z</time></trkpt><trkpt lat="45.6388517" lon="10.5067475"><ele>241.0</ele><time>2026-04-16T15:44:35.183Z</time></trkpt><trkpt lat="45.6387182" lon="10.5068042"><ele>240.75</ele><time>2026-04-16T15:44:36.184Z</time></trkpt><trkpt lat="45.6385869" lon="10.5068631"><ele>240.5</ele><time>2026-04-16T15:44:37.184Z</time></trkpt><trkpt lat="45.6384539" lon="10.5069243"><ele>240.25</ele><time>2026-04-16T15:44:38.184Z</time></trkpt><trkpt lat="45.638322" lon="10.506991"><ele>240.0</ele><time>2026-04-16T15:44:39.184Z</time></trkpt><trkpt lat="45.63818" lon="10.5070569"><ele>240.5</ele><time>2026-04-16T15:44:40.184Z</time></trkpt><trkpt lat="45.6380467" lon="10.5071211"><ele>241.0</ele><time>2026-04-16T15:44:41.184Z</time></trkpt><trkpt lat="45.6379215" lon="10.5071897"><ele>241.5</ele><time>2026-04-16T15:44:42.183Z</time></trkpt><trkpt lat="45.6377986" lon="10.5072499"><ele>242.0</ele><time>2026-04-16T15:44:43.184Z</time></trkpt><trkpt lat="45.6376795" lon="10.5073143"><ele>242.0</ele><time>2026-04-16T15:44:44.184Z</time></trkpt><trkpt lat="45.6375603" lon="10.5073731"><ele>242.0</ele><time>2026-04-16T15:44:45.183Z</time></trkpt><trkpt lat="45.6374391" lon="10.5074312"><ele>242.0</ele><time>2026-04-16T15:44:46.183Z</time></trkpt><trkpt lat="45.6373169" lon="10.5074883"><ele>242.0</ele><time>2026-04-16T15:44:47.184Z</time></trkpt><trkpt lat="45.6371948" lon="10.5075448"><ele>242.0</ele><time>2026-04-16T15:44:48.184Z</time></trkpt><trkpt lat="45.6370682" lon="10.5075979"><ele>242.0</ele><time>2026-04-16T15:44:49.184Z</time></trkpt><trkpt lat="45.6369481" lon="10.5076516"><ele>242.0</ele><time>2026-04-16T15:44:50.183Z</time></trkpt><trkpt lat="45.6368275" lon="10.5077084"><ele>242.0</ele><time>2026-04-16T15:44:51.183Z</time></trkpt><trkpt lat="45.6367029" lon="10.5077596"><ele>242.0</ele><time>2026-04-16T15:44:52.184Z</time></trkpt><trkpt lat="45.6365733" lon="10.5078115"><ele>242.0</ele><time>2026-04-16T15:44:53.184Z</time></trkpt><trkpt lat="45.6364483" lon="10.5078643"><ele>242.0</ele><time>2026-04-16T15:44:54.184Z</time></trkpt><trkpt lat="45.6363216" lon="10.5079112"><ele>242.0</ele><time>2026-04-16T15:44:55.184Z</time></trkpt><trkpt lat="45.6361936" lon="10.5079448"><ele>242.5</ele><time>2026-04-16T15:44:56.183Z</time></trkpt><trkpt lat="45.6360672" lon="10.5079665"><ele>243.0</ele><time>2026-04-16T15:44:57.184Z</time></trkpt><trkpt lat="45.6359458" lon="10.5079782"><ele>243.5</ele><time>2026-04-16T15:44:58.184Z</time></trkpt><trkpt lat="45.6358335" lon="10.5079733"><ele>244.0</ele><time>2026-04-16T15:44:59.184Z</time></trkpt><trkpt lat="45.6357245" lon="10.5079628"><ele>244.0</ele><time>2026-04-16T15:45:00.184Z</time></trkpt><trkpt lat="45.6356131" lon="10.5079371"><ele>243.99999999999997</ele><time>2026-04-16T15:45:01.184Z</time></trkpt><trkpt lat="45.6354996" lon="10.5079023"><ele>243.99999999999997</ele><time>2026-04-16T15:45:02.183Z</time></trkpt><trkpt lat="45.6353928" lon="10.5078639"><ele>244.0</ele><time>2026-04-16T15:45:03.184Z</time></trkpt><trkpt lat="45.6352925" lon="10.5078176"><ele>244.0</ele><time>2026-04-16T15:45:04.184Z</time></trkpt><trkpt lat="45.6351914" lon="10.5077658"><ele>243.0</ele><time>2026-04-16T15:45:05.183Z</time></trkpt><trkpt lat="45.6350936" lon="10.5077092"><ele>241.99999999999997</ele><time>2026-04-16T15:45:06.184Z</time></trkpt><trkpt lat="45.6349918" lon="10.5076544"><ele>240.99999999999997</ele><time>2026-04-16T15:45:07.183Z</time></trkpt><trkpt lat="45.6348913" lon="10.507599"><ele>240.0</ele><time>2026-04-16T15:45:08.184Z</time></trkpt><trkpt lat="45.6347917" lon="10.5075353"><ele>239.0</ele><time>2026-04-16T15:45:09.183Z</time></trkpt><trkpt lat="45.6346904" lon="10.5074751"><ele>239.0</ele><time>2026-04-16T15:45:10.183Z</time></trkpt><trkpt lat="45.6345902" lon="10.5074137"><ele>238.99999999999997</ele><time>2026-04-16T15:45:11.184Z</time></trkpt><trkpt lat="45.6344934" lon="10.5073531"><ele>238.99999999999997</ele><time>2026-04-16T15:45:12.183Z</time></trkpt><trkpt lat="45.6344003" lon="10.5072957"><ele>239.0</ele><time>2026-04-16T15:45:13.184Z</time></trkpt><trkpt lat="45.6343146" lon="10.5072378"><ele>239.0</ele><time>2026-04-16T15:45:14.184Z</time></trkpt><trkpt lat="45.6342364" lon="10.5071637"><ele>239.14285714285717</ele><time>2026-04-16T15:45:15.183Z</time></trkpt><trkpt lat="45.6341706" lon="10.5070816"><ele>239.28571428571428</ele><time>2026-04-16T15:45:16.183Z</time></trkpt><trkpt lat="45.6341168" lon="10.5070046"><ele>239.42857142857144</ele><time>2026-04-16T15:45:17.183Z</time></trkpt><trkpt lat="45.634074" lon="10.5069253"><ele>239.57142857142858</ele><time>2026-04-16T15:45:18.183Z</time></trkpt><trkpt lat="45.6340357" lon="10.5068418"><ele>239.71428571428572</ele><time>2026-04-16T15:45:19.184Z</time></trkpt><trkpt lat="45.6339982" lon="10.506753"><ele>239.85714285714286</ele><time>2026-04-16T15:45:20.183Z</time></trkpt><trkpt lat="45.6339621" lon="10.5066657"><ele>240.0</ele><time>2026-04-16T15:45:21.184Z</time></trkpt><trkpt lat="45.633877" lon="10.5065399"><ele>240.0</ele><time>2026-04-16T15:45:23.184Z</time></trkpt><trkpt lat="45.6338113" lon="10.5065052"><ele>240.0</ele><time>2026-04-16T15:45:24.184Z</time></trkpt><trkpt lat="45.6337433" lon="10.5065094"><ele>240.0</ele><time>2026-04-16T15:45:25.183Z</time></trkpt><trkpt lat="45.6336674" lon="10.5065384"><ele>240.0</ele><time>2026-04-16T15:45:26.183Z</time></trkpt><trkpt lat="45.6335783" lon="10.5065744"><ele>240.0</ele><time>2026-04-16T15:45:27.184Z</time></trkpt><trkpt lat="45.6334723" lon="10.5066049"><ele>240.0</ele><time>2026-04-16T15:45:28.183Z</time></trkpt><trkpt lat="45.6333679" lon="10.5066065"><ele>241.5</ele><time>2026-04-16T15:45:29.184Z</time></trkpt><trkpt lat="45.6332571" lon="10.5065793"><ele>243.0</ele><time>2026-04-16T15:45:30.183Z</time></trkpt><trkpt lat="45.6331359" lon="10.5065357"><ele>244.5</ele><time>2026-04-16T15:45:31.184Z</time></trkpt><trkpt lat="45.6330028" lon="10.5064705"><ele>246.0</ele><time>2026-04-16T15:45:32.184Z</time></trkpt><trkpt lat="45.6328549" lon="10.5063993"><ele>244.0</ele><time>2026-04-16T15:45:33.184Z</time></trkpt><trkpt lat="45.6327021" lon="10.506334"><ele>242.0</ele><time>2026-04-16T15:45:34.184Z</time></trkpt><trkpt lat="45.6325349" lon="10.5062653"><ele>240.0</ele><time>2026-04-16T15:45:35.184Z</time></trkpt><trkpt lat="45.6323659" lon="10.5061848"><ele>240.0</ele><time>2026-04-16T15:45:36.184Z</time></trkpt><trkpt lat="45.6322041" lon="10.5061073"><ele>240.0</ele><time>2026-04-16T15:45:37.184Z</time></trkpt><trkpt lat="45.632057" lon="10.5060343"><ele>240.0</ele><time>2026-04-16T15:45:38.183Z</time></trkpt><trkpt lat="45.6319144" lon="10.5059685"><ele>243.25</ele><time>2026-04-16T15:45:39.184Z</time></trkpt><trkpt lat="45.6317786" lon="10.5059024"><ele>246.5</ele><time>2026-04-16T15:45:40.183Z</time></trkpt><trkpt lat="45.6316388" lon="10.5058429"><ele>249.75</ele><time>2026-04-16T15:45:41.184Z</time></trkpt><trkpt lat="45.6315" lon="10.5057789"><ele>253.0</ele><time>2026-04-16T15:45:42.184Z</time></trkpt><trkpt lat="45.6313578" lon="10.505723"><ele>237.0</ele><time>2026-04-16T15:45:43.184Z</time></trkpt><trkpt lat="45.629341" lon="10.502758"><ele>240.0</ele><time>2026-04-16T15:45:58.678Z</time></trkpt><trkpt lat="45.6297976" lon="10.5030452"><ele>239.25</ele><time>2026-04-16T15:46:00.184Z</time></trkpt><trkpt lat="45.6297044" lon="10.5028326"><ele>238.5</ele><time>2026-04-16T15:46:01.184Z</time></trkpt><trkpt lat="45.6296191" lon="10.5027201"><ele>237.75</ele><time>2026-04-16T15:46:02.184Z</time></trkpt><trkpt lat="45.6295225" lon="10.5025639"><ele>237.0</ele><time>2026-04-16T15:46:03.183Z</time></trkpt><trkpt lat="45.6294133" lon="10.5024274"><ele>237.0</ele><time>2026-04-16T15:46:04.184Z</time></trkpt><trkpt lat="45.6293007" lon="10.5022884"><ele>237.0</ele><time>2026-04-16T15:46:05.183Z</time></trkpt><trkpt lat="45.629199" lon="10.50216"><ele>237.0</ele><time>2026-04-16T15:46:06.183Z</time></trkpt><trkpt lat="45.6290948" lon="10.5020363"><ele>237.0</ele><time>2026-04-16T15:46:07.184Z</time></trkpt><trkpt lat="45.6289911" lon="10.5019165"><ele>236.5</ele><time>2026-04-16T15:46:08.184Z</time></trkpt><trkpt lat="45.6288874" lon="10.5017897"><ele>236.0</ele><time>2026-04-16T15:46:09.183Z</time></trkpt><trkpt lat="45.6287784" lon="10.5016676"><ele>235.5</ele><time>2026-04-16T15:46:10.184Z</time></trkpt><trkpt lat="45.6286776" lon="10.5015472"><ele>235.0</ele><time>2026-04-16T15:46:11.183Z</time></trkpt><trkpt lat="45.6285752" lon="10.5014258"><ele>235.0</ele><time>2026-04-16T15:46:12.183Z</time></trkpt><trkpt lat="45.6284658" lon="10.501299"><ele>235.0</ele><time>2026-04-16T15:46:13.183Z</time></trkpt><trkpt lat="45.6283619" lon="10.5011801"><ele>235.0</ele><time>2026-04-16T15:46:14.183Z</time></trkpt><trkpt lat="45.628266" lon="10.5010738"><ele>235.0</ele><time>2026-04-16T15:46:15.184Z</time></trkpt><trkpt lat="45.6281718" lon="10.5009657"><ele>235.25</ele><time>2026-04-16T15:46:16.184Z</time></trkpt><trkpt lat="45.6280775" lon="10.5008591"><ele>235.5</ele><time>2026-04-16T15:46:17.184Z</time></trkpt><trkpt lat="45.6279765" lon="10.5007506"><ele>235.75</ele><time>2026-04-16T15:46:18.184Z</time></trkpt><trkpt lat="45.6278711" lon="10.50064"><ele>236.0</ele><time>2026-04-16T15:46:19.184Z</time></trkpt><trkpt lat="45.6277634" lon="10.5005349"><ele>236.0</ele><time>2026-04-16T15:46:20.183Z</time></trkpt><trkpt lat="45.6276664" lon="10.500441"><ele>236.0</ele><time>2026-04-16T15:46:21.183Z</time></trkpt><trkpt lat="45.6275724" lon="10.5003509"><ele>236.0</ele><time>2026-04-16T15:46:22.184Z</time></trkpt><trkpt lat="45.6274809" lon="10.5002648"><ele>236.0</ele><time>2026-04-16T15:46:23.184Z</time></trkpt><trkpt lat="45.6273841" lon="10.5001777"><ele>235.8</ele><time>2026-04-16T15:46:24.184Z</time></trkpt><trkpt lat="45.627291" lon="10.5000911"><ele>235.60000000000002</ele><time>2026-04-16T15:46:25.183Z</time></trkpt><trkpt lat="45.6272006" lon="10.5000071"><ele>235.4</ele><time>2026-04-16T15:46:26.183Z</time></trkpt><trkpt lat="45.6271174" lon="10.4999343"><ele>235.2</ele><time>2026-04-16T15:46:27.184Z</time></trkpt><trkpt lat="45.6270485" lon="10.4998731"><ele>235.0</ele><time>2026-04-16T15:46:28.184Z</time></trkpt><trkpt lat="45.6269431" lon="10.4997989"><ele>235.4</ele><time>2026-04-16T15:46:30.183Z</time></trkpt><trkpt lat="45.6268475" lon="10.499729"><ele>235.8</ele><time>2026-04-16T15:46:32.184Z</time></trkpt><trkpt lat="45.6267765" lon="10.4996672"><ele>236.2</ele><time>2026-04-16T15:46:33.183Z</time></trkpt><trkpt lat="45.6266919" lon="10.4995937"><ele>236.6</ele><time>2026-04-16T15:46:34.183Z</time></trkpt><trkpt lat="45.626596" lon="10.4995298"><ele>237.0</ele><time>2026-04-16T15:46:35.183Z</time></trkpt><trkpt lat="45.6265015" lon="10.4994685"><ele>237.0</ele><time>2026-04-16T15:46:36.184Z</time></trkpt><trkpt lat="45.6264108" lon="10.4993985"><ele>237.0</ele><time>2026-04-16T15:46:37.183Z</time></trkpt><trkpt lat="45.6263277" lon="10.4993348"><ele>237.0</ele><time>2026-04-16T15:46:38.183Z</time></trkpt><trkpt lat="45.6262467" lon="10.4992755"><ele>237.0</ele><time>2026-04-16T15:46:39.184Z</time></trkpt><trkpt lat="45.6261662" lon="10.4992108"><ele>237.0</ele><time>2026-04-16T15:46:40.183Z</time></trkpt><trkpt lat="45.6260798" lon="10.4991456"><ele>236.66666666666666</ele><time>2026-04-16T15:46:41.184Z</time></trkpt><trkpt lat="45.6259971" lon="10.4990816"><ele>236.33333333333331</ele><time>2026-04-16T15:46:42.183Z</time></trkpt><trkpt lat="45.6259116" lon="10.4990221"><ele>236.0</ele><time>2026-04-16T15:46:43.184Z</time></trkpt><trkpt lat="45.6258334" lon="10.4989655"><ele>235.66666666666666</ele><time>2026-04-16T15:46:44.184Z</time></trkpt><trkpt lat="45.625768" lon="10.4989086"><ele>235.33333333333331</ele><time>2026-04-16T15:46:45.184Z</time></trkpt><trkpt lat="45.625702" lon="10.4988499"><ele>235.0</ele><time>2026-04-16T15:46:46.183Z</time></trkpt><trkpt lat="45.6256395" lon="10.4988096"><ele>235.0</ele><time>2026-04-16T15:46:47.183Z</time></trkpt><trkpt lat="45.6255854" lon="10.4987576"><ele>235.0</ele><time>2026-04-16T15:46:48.183Z</time></trkpt><trkpt lat="45.625499" lon="10.4986327"><ele>235.0</ele><time>2026-04-16T15:46:50.183Z</time></trkpt><trkpt lat="45.625456" lon="10.4984484"><ele>235.0</ele><time>2026-04-16T15:46:52.184Z</time></trkpt><trkpt lat="45.6254687" lon="10.4983367"><ele>235.0</ele><time>2026-04-16T15:46:53.184Z</time></trkpt><trkpt lat="45.6254609" lon="10.4982385"><ele>234.83333333333331</ele><time>2026-04-16T15:46:54.184Z</time></trkpt><trkpt lat="45.6254249" lon="10.4981434"><ele>234.66666666666666</ele><time>2026-04-16T15:46:55.184Z</time></trkpt><trkpt lat="45.6253686" lon="10.4980702"><ele>234.5</ele><time>2026-04-16T15:46:56.184Z</time></trkpt><trkpt lat="45.6252975" lon="10.4979981"><ele>234.33333333333331</ele><time>2026-04-16T15:46:57.184Z</time></trkpt><trkpt lat="45.6252285" lon="10.4979269"><ele>234.16666666666666</ele><time>2026-04-16T15:46:58.183Z</time></trkpt><trkpt lat="45.6251842" lon="10.4978102"><ele>234.0</ele><time>2026-04-16T15:46:59.184Z</time></trkpt><trkpt lat="45.6251597" lon="10.4976774"><ele>233.79999999999998</ele><time>2026-04-16T15:47:00.184Z</time></trkpt><trkpt lat="45.6251499" lon="10.4975301"><ele>233.59999999999997</ele><time>2026-04-16T15:47:01.183Z</time></trkpt><trkpt lat="45.625147" lon="10.4973758"><ele>233.4</ele><time>2026-04-16T15:47:02.183Z</time></trkpt><trkpt lat="45.6251355" lon="10.4972246"><ele>233.2</ele><time>2026-04-16T15:47:03.183Z</time></trkpt><trkpt lat="45.6251266" lon="10.4970668"><ele>233.0</ele><time>2026-04-16T15:47:04.182Z</time></trkpt><trkpt lat="45.6251113" lon="10.4969103"><ele>233.0</ele><time>2026-04-16T15:47:05.183Z</time></trkpt><trkpt lat="45.6250937" lon="10.496749"><ele>233.0</ele><time>2026-04-16T15:47:06.183Z</time></trkpt><trkpt lat="45.6250785" lon="10.4965946"><ele>233.0</ele><time>2026-04-16T15:47:07.182Z</time></trkpt><trkpt lat="45.6250465" lon="10.4964547"><ele>233.0</ele><time>2026-04-16T15:47:08.183Z</time></trkpt><trkpt lat="45.6250056" lon="10.4963247"><ele>233.0</ele><time>2026-04-16T15:47:09.182Z</time></trkpt><trkpt lat="45.6249648" lon="10.4962131"><ele>233.75</ele><time>2026-04-16T15:47:10.183Z</time></trkpt><trkpt lat="45.6249026" lon="10.4961026"><ele>234.5</ele><time>2026-04-16T15:47:11.183Z</time></trkpt><trkpt lat="45.6248322" lon="10.4959663"><ele>235.25</ele><time>2026-04-16T15:47:12.183Z</time></trkpt><trkpt lat="45.6247593" lon="10.4958043"><ele>236.0</ele><time>2026-04-16T15:47:13.182Z</time></trkpt><trkpt lat="45.6246747" lon="10.4956384"><ele>236.0</ele><time>2026-04-16T15:47:14.182Z</time></trkpt><trkpt lat="45.6245857" lon="10.4954749"><ele>236.0</ele><time>2026-04-16T15:47:15.182Z</time></trkpt><trkpt lat="45.6244926" lon="10.495296"><ele>236.0</ele><time>2026-04-16T15:47:16.183Z</time></trkpt><trkpt lat="45.624395" lon="10.4950959"><ele>235.33333333333334</ele><time>2026-04-16T15:47:17.183Z</time></trkpt><trkpt lat="45.6242975" lon="10.4949002"><ele>234.66666666666669</ele><time>2026-04-16T15:47:18.183Z</time></trkpt><trkpt lat="45.6242015" lon="10.4947031"><ele>234.0</ele><time>2026-04-16T15:47:19.182Z</time></trkpt><trkpt lat="45.6240994" lon="10.4945178"><ele>233.0</ele><time>2026-04-16T15:47:20.182Z</time></trkpt><trkpt lat="45.6239992" lon="10.4943239"><ele>232.0</ele><time>2026-04-16T15:47:21.182Z</time></trkpt><trkpt lat="45.6239011" lon="10.4941291"><ele>231.0</ele><time>2026-04-16T15:47:22.183Z</time></trkpt><trkpt lat="45.6238087" lon="10.4939216"><ele>230.33333333333331</ele><time>2026-04-16T15:47:23.183Z</time></trkpt><trkpt lat="45.6237151" lon="10.4936952"><ele>229.66666666666666</ele><time>2026-04-16T15:47:24.182Z</time></trkpt><trkpt lat="45.6236307" lon="10.4934836"><ele>229.0</ele><time>2026-04-16T15:47:25.182Z</time></trkpt><trkpt lat="45.6235603" lon="10.4932718"><ele>230.5</ele><time>2026-04-16T15:47:26.182Z</time></trkpt><trkpt lat="45.6234948" lon="10.4930765"><ele>232.0</ele><time>2026-04-16T15:47:27.183Z</time></trkpt><trkpt lat="45.6234416" lon="10.4928914"><ele>233.5</ele><time>2026-04-16T15:47:28.182Z</time></trkpt><trkpt lat="45.6233993" lon="10.492705"><ele>235.0</ele><time>2026-04-16T15:47:29.183Z</time></trkpt><trkpt lat="45.6233403" lon="10.4925319"><ele>235.0</ele><time>2026-04-16T15:47:30.183Z</time></trkpt><trkpt lat="45.6232869" lon="10.4923501"><ele>235.0</ele><time>2026-04-16T15:47:31.183Z</time></trkpt><trkpt lat="45.6232319" lon="10.4921651"><ele>235.0</ele><time>2026-04-16T15:47:32.183Z</time></trkpt><trkpt lat="45.6231788" lon="10.4919895"><ele>235.0</ele><time>2026-04-16T15:47:33.182Z</time></trkpt><trkpt lat="45.6231321" lon="10.4918166"><ele>233.5</ele><time>2026-04-16T15:47:34.183Z</time></trkpt><trkpt lat="45.6230854" lon="10.4916434"><ele>232.0</ele><time>2026-04-16T15:47:35.183Z</time></trkpt><trkpt lat="45.6230469" lon="10.4914701"><ele>230.5</ele><time>2026-04-16T15:47:36.182Z</time></trkpt><trkpt lat="45.6230085" lon="10.4913021"><ele>229.0</ele><time>2026-04-16T15:47:37.182Z</time></trkpt><trkpt lat="45.6229723" lon="10.4911298"><ele>229.0</ele><time>2026-04-16T15:47:38.183Z</time></trkpt><trkpt lat="45.6229228" lon="10.4909512"><ele>229.0</ele><time>2026-04-16T15:47:39.182Z</time></trkpt><trkpt lat="45.6228621" lon="10.4907825"><ele>229.0</ele><time>2026-04-16T15:47:40.182Z</time></trkpt><trkpt lat="45.6227885" lon="10.4906179"><ele>229.0</ele><time>2026-04-16T15:47:41.182Z</time></trkpt><trkpt lat="45.6227032" lon="10.4904528"><ele>231.33333333333331</ele><time>2026-04-16T15:47:42.183Z</time></trkpt><trkpt lat="45.622609" lon="10.4902952"><ele>233.66666666666669</ele><time>2026-04-16T15:47:43.183Z</time></trkpt><trkpt lat="45.6225013" lon="10.4901216"><ele>236.0</ele><time>2026-04-16T15:47:44.182Z</time></trkpt><trkpt lat="45.6223931" lon="10.4899398"><ele>236.0</ele><time>2026-04-16T15:47:45.183Z</time></trkpt><trkpt lat="45.6222892" lon="10.4897537"><ele>236.0</ele><time>2026-04-16T15:47:46.183Z</time></trkpt><trkpt lat="45.6221968" lon="10.4895761"><ele>236.0</ele><time>2026-04-16T15:47:47.182Z</time></trkpt><trkpt lat="45.6221075" lon="10.4894044"><ele>236.75</ele><time>2026-04-16T15:47:48.183Z</time></trkpt><trkpt lat="45.6220197" lon="10.4892364"><ele>237.5</ele><time>2026-04-16T15:47:49.183Z</time></trkpt><trkpt lat="45.6219291" lon="10.4890806"><ele>238.25</ele><time>2026-04-16T15:47:50.182Z</time></trkpt><trkpt lat="45.6218343" lon="10.4889166"><ele>239.0</ele><time>2026-04-16T15:47:51.182Z</time></trkpt><trkpt lat="45.6217456" lon="10.4887598"><ele>237.75</ele><time>2026-04-16T15:47:52.182Z</time></trkpt><trkpt lat="45.6216573" lon="10.4885974"><ele>236.5</ele><time>2026-04-16T15:47:53.183Z</time></trkpt><trkpt lat="45.6215762" lon="10.488431"><ele>235.25</ele><time>2026-04-16T15:47:54.182Z</time></trkpt><trkpt lat="45.621491" lon="10.4882609"><ele>234.0</ele><time>2026-04-16T15:47:55.182Z</time></trkpt><trkpt lat="45.6214124" lon="10.4880919"><ele>235.0</ele><time>2026-04-16T15:47:56.182Z</time></trkpt><trkpt lat="45.6213346" lon="10.4879159"><ele>236.0</ele><time>2026-04-16T15:47:57.183Z</time></trkpt><trkpt lat="45.6212653" lon="10.4877271"><ele>237.0</ele><time>2026-04-16T15:47:58.183Z</time></trkpt><trkpt lat="45.6211937" lon="10.4875289"><ele>235.25</ele><time>2026-04-16T15:47:59.182Z</time></trkpt><trkpt lat="45.6211236" lon="10.4873418"><ele>233.5</ele><time>2026-04-16T15:48:00.182Z</time></trkpt><trkpt lat="45.6210523" lon="10.4871587"><ele>231.75</ele><time>2026-04-16T15:48:01.183Z</time></trkpt><trkpt lat="45.6209765" lon="10.4869773"><ele>230.0</ele><time>2026-04-16T15:48:02.182Z</time></trkpt><trkpt lat="45.6208973" lon="10.4867915"><ele>230.0</ele><time>2026-04-16T15:48:03.182Z</time></trkpt><trkpt lat="45.6208166" lon="10.4866005"><ele>230.0</ele><time>2026-04-16T15:48:04.182Z</time></trkpt><trkpt lat="45.6207237" lon="10.4863928"><ele>230.0</ele><time>2026-04-16T15:48:05.183Z</time></trkpt><trkpt lat="45.6206085" lon="10.4861683"><ele>230.0</ele><time>2026-04-16T15:48:06.182Z</time></trkpt><trkpt lat="45.6204661" lon="10.4858874"><ele>230.0</ele><time>2026-04-16T15:48:07.183Z</time></trkpt><trkpt lat="45.6203297" lon="10.4855934"><ele>231.66666666666669</ele><time>2026-04-16T15:48:08.183Z</time></trkpt><trkpt lat="45.6202023" lon="10.4853295"><ele>233.33333333333331</ele><time>2026-04-16T15:48:09.182Z</time></trkpt><trkpt lat="45.6200821" lon="10.4850761"><ele>235.0</ele><time>2026-04-16T15:48:10.182Z</time></trkpt><trkpt lat="45.6199707" lon="10.4848379"><ele>235.0</ele><time>2026-04-16T15:48:11.183Z</time></trkpt><trkpt lat="45.6198759" lon="10.484606"><ele>235.0</ele><time>2026-04-16T15:48:12.183Z</time></trkpt><trkpt lat="45.619795" lon="10.4843849"><ele>235.0</ele><time>2026-04-16T15:48:13.182Z</time></trkpt><trkpt lat="45.619729" lon="10.4841981"><ele>233.0</ele><time>2026-04-16T15:48:14.183Z</time></trkpt><trkpt lat="45.6196491" lon="10.4840298"><ele>231.0</ele><time>2026-04-16T15:48:15.183Z</time></trkpt><trkpt lat="45.6195549" lon="10.4838702"><ele>229.0</ele><time>2026-04-16T15:48:16.182Z</time></trkpt><trkpt lat="45.619432" lon="10.4837601"><ele>227.0</ele><time>2026-04-16T15:48:17.183Z</time></trkpt><trkpt lat="45.6192884" lon="10.4836664"><ele>226.66666666666669</ele><time>2026-04-16T15:48:18.183Z</time></trkpt><trkpt lat="45.6191169" lon="10.483609"><ele>226.33333333333331</ele><time>2026-04-16T15:48:19.182Z</time></trkpt><trkpt lat="45.6189162" lon="10.4835724"><ele>226.0</ele><time>2026-04-16T15:48:20.183Z</time></trkpt><trkpt lat="45.6187129" lon="10.4835365"><ele>226.33333333333331</ele><time>2026-04-16T15:48:21.182Z</time></trkpt><trkpt lat="45.6185003" lon="10.4834955"><ele>226.66666666666669</ele><time>2026-04-16T15:48:22.183Z</time></trkpt><trkpt lat="45.6182777" lon="10.4834537"><ele>227.0</ele><time>2026-04-16T15:48:23.182Z</time></trkpt><trkpt lat="45.6180551" lon="10.4834177"><ele>227.0</ele><time>2026-04-16T15:48:24.183Z</time></trkpt><trkpt lat="45.6178362" lon="10.4833825"><ele>227.0</ele><time>2026-04-16T15:48:25.182Z</time></trkpt><trkpt lat="45.6176266" lon="10.48335"><ele>227.0</ele><time>2026-04-16T15:48:26.183Z</time></trkpt><trkpt lat="45.6174221" lon="10.4833097"><ele>227.0</ele><time>2026-04-16T15:48:27.182Z</time></trkpt><trkpt lat="45.6172213" lon="10.4832812"><ele>227.0</ele><time>2026-04-16T15:48:28.183Z</time></trkpt><trkpt lat="45.6170138" lon="10.4832459"><ele>227.0</ele><time>2026-04-16T15:48:29.183Z</time></trkpt><trkpt lat="45.6168112" lon="10.483216"><ele>227.0</ele><time>2026-04-16T15:48:30.182Z</time></trkpt><trkpt lat="45.6166098" lon="10.4831839"><ele>227.0</ele><time>2026-04-16T15:48:31.183Z</time></trkpt><trkpt lat="45.6164159" lon="10.4831528"><ele>227.0</ele><time>2026-04-16T15:48:32.183Z</time></trkpt><trkpt lat="45.6162241" lon="10.4831186"><ele>228.33333333333334</ele><time>2026-04-16T15:48:33.182Z</time></trkpt><trkpt lat="45.6160375" lon="10.483088"><ele>229.66666666666669</ele><time>2026-04-16T15:48:34.183Z</time></trkpt><trkpt lat="45.6158566" lon="10.4830591"><ele>231.0</ele><time>2026-04-16T15:48:35.182Z</time></trkpt><trkpt lat="45.6156711" lon="10.4830325"><ele>231.0</ele><time>2026-04-16T15:48:36.183Z</time></trkpt><trkpt lat="45.6154897" lon="10.4829851"><ele>231.0</ele><time>2026-04-16T15:48:37.182Z</time></trkpt><trkpt lat="45.6153066" lon="10.4829212"><ele>231.0</ele><time>2026-04-16T15:48:38.183Z</time></trkpt><trkpt lat="45.6151296" lon="10.4828389"><ele>229.33333333333331</ele><time>2026-04-16T15:48:39.183Z</time></trkpt><trkpt lat="45.6149567" lon="10.4827494"><ele>227.66666666666666</ele><time>2026-04-16T15:48:40.183Z</time></trkpt><trkpt lat="45.6147814" lon="10.4826615"><ele>226.0</ele><time>2026-04-16T15:48:41.183Z</time></trkpt><trkpt lat="45.6146001" lon="10.4825919"><ele>228.0</ele><time>2026-04-16T15:48:42.183Z</time></trkpt><trkpt lat="45.6144222" lon="10.4825379"><ele>230.0</ele><time>2026-04-16T15:48:43.182Z</time></trkpt><trkpt lat="45.6142512" lon="10.4824659"><ele>232.0</ele><time>2026-04-16T15:48:44.182Z</time></trkpt><trkpt lat="45.614085" lon="10.4823576"><ele>232.0</ele><time>2026-04-16T15:48:45.183Z</time></trkpt><trkpt lat="45.6139344" lon="10.4822167"><ele>232.0</ele><time>2026-04-16T15:48:46.183Z</time></trkpt><trkpt lat="45.6137893" lon="10.4820712"><ele>232.0</ele><time>2026-04-16T15:48:47.182Z</time></trkpt><trkpt lat="45.6136489" lon="10.4819504"><ele>229.33333333333331</ele><time>2026-04-16T15:48:48.182Z</time></trkpt><trkpt lat="45.6135074" lon="10.4818619"><ele>226.66666666666669</ele><time>2026-04-16T15:48:49.183Z</time></trkpt><trkpt lat="45.6133635" lon="10.4817884"><ele>224.0</ele><time>2026-04-16T15:48:50.183Z</time></trkpt><trkpt lat="45.6132265" lon="10.4817311"><ele>224.0</ele><time>2026-04-16T15:48:51.183Z</time></trkpt><trkpt lat="45.6130952" lon="10.4816797"><ele>224.0</ele><time>2026-04-16T15:48:52.183Z</time></trkpt><trkpt lat="45.6129722" lon="10.4816341"><ele>224.0</ele><time>2026-04-16T15:48:53.183Z</time></trkpt><trkpt lat="45.6128532" lon="10.4815791"><ele>224.0</ele><time>2026-04-16T15:48:54.182Z</time></trkpt><trkpt lat="45.6127425" lon="10.481535"><ele>224.39999999999998</ele><time>2026-04-16T15:48:55.182Z</time></trkpt><trkpt lat="45.6126391" lon="10.4814856"><ele>224.79999999999998</ele><time>2026-04-16T15:48:56.182Z</time></trkpt><trkpt lat="45.6125411" lon="10.4814211"><ele>225.20000000000002</ele><time>2026-04-16T15:48:57.183Z</time></trkpt><trkpt lat="45.6124425" lon="10.4813471"><ele>225.60000000000002</ele><time>2026-04-16T15:48:58.183Z</time></trkpt><trkpt lat="45.6123452" lon="10.4812648"><ele>226.0</ele><time>2026-04-16T15:48:59.183Z</time></trkpt><trkpt lat="45.6122536" lon="10.4811886"><ele>225.49999999999997</ele><time>2026-04-16T15:49:00.182Z</time></trkpt><trkpt lat="45.6121693" lon="10.4811207"><ele>225.0</ele><time>2026-04-16T15:49:01.182Z</time></trkpt><trkpt lat="45.6120992" lon="10.4810369"><ele>224.5</ele><time>2026-04-16T15:49:02.183Z</time></trkpt><trkpt lat="45.6120361" lon="10.4809647"><ele>224.0</ele><time>2026-04-16T15:49:03.183Z</time></trkpt><trkpt lat="45.6119804" lon="10.4808906"><ele>223.49999999999997</ele><time>2026-04-16T15:49:04.183Z</time></trkpt><trkpt lat="45.6119366" lon="10.4808002"><ele>223.0</ele><time>2026-04-16T15:49:05.183Z</time></trkpt><trkpt lat="45.6119011" lon="10.4807103"><ele>223.0</ele><time>2026-04-16T15:49:06.182Z</time></trkpt><trkpt lat="45.6118524" lon="10.4806436"><ele>223.0</ele><time>2026-04-16T15:49:07.182Z</time></trkpt><trkpt lat="45.6117433" lon="10.4806187"><ele>223.0</ele><time>2026-04-16T15:49:09.183Z</time></trkpt><trkpt lat="45.611682" lon="10.4807641"><ele>223.0</ele><time>2026-04-16T15:49:11.183Z</time></trkpt><trkpt lat="45.6116748" lon="10.4808598"><ele>223.0</ele><time>2026-04-16T15:49:12.183Z</time></trkpt><trkpt lat="45.6116762" lon="10.4809852"><ele>222.99999999999997</ele><time>2026-04-16T15:49:13.182Z</time></trkpt><trkpt lat="45.6116667" lon="10.4811143"><ele>223.0</ele><time>2026-04-16T15:49:14.182Z</time></trkpt><trkpt lat="45.6116335" lon="10.4812303"><ele>223.0</ele><time>2026-04-16T15:49:15.182Z</time></trkpt><trkpt lat="45.6115916" lon="10.4813262"><ele>223.0</ele><time>2026-04-16T15:49:16.183Z</time></trkpt><trkpt lat="45.6115557" lon="10.481402"><ele>222.99999999999997</ele><time>2026-04-16T15:49:17.182Z</time></trkpt><trkpt lat="45.6115081" lon="10.4814744"><ele>223.0</ele><time>2026-04-16T15:49:18.183Z</time></trkpt><trkpt lat="45.6114277" lon="10.4815543"><ele>223.33333333333331</ele><time>2026-04-16T15:49:19.183Z</time></trkpt><trkpt lat="45.6113163" lon="10.4816766"><ele>223.66666666666669</ele><time>2026-04-16T15:49:20.182Z</time></trkpt><trkpt lat="45.6112002" lon="10.4818308"><ele>224.0</ele><time>2026-04-16T15:49:21.183Z</time></trkpt><trkpt lat="45.6110816" lon="10.482001"><ele>223.25</ele><time>2026-04-16T15:49:22.183Z</time></trkpt><trkpt lat="45.6109684" lon="10.4821259"><ele>222.5</ele><time>2026-04-16T15:49:23.183Z</time></trkpt><trkpt lat="45.6108539" lon="10.4822126"><ele>221.75</ele><time>2026-04-16T15:49:24.183Z</time></trkpt><trkpt lat="45.6107257" lon="10.4822813"><ele>221.0</ele><time>2026-04-16T15:49:25.182Z</time></trkpt><trkpt lat="45.6105743" lon="10.482324"><ele>221.0</ele><time>2026-04-16T15:49:26.183Z</time></trkpt><trkpt lat="45.610419" lon="10.4823587"><ele>221.0</ele><time>2026-04-16T15:49:27.183Z</time></trkpt><trkpt lat="45.6102722" lon="10.4823887"><ele>221.0</ele><time>2026-04-16T15:49:28.182Z</time></trkpt><trkpt lat="45.6101265" lon="10.4824064"><ele>220.0</ele><time>2026-04-16T15:49:29.182Z</time></trkpt><trkpt lat="45.6099897" lon="10.4824277"><ele>219.0</ele><time>2026-04-16T15:49:30.183Z</time></trkpt><trkpt lat="45.6098576" lon="10.4824105"><ele>218.0</ele><time>2026-04-16T15:49:31.183Z</time></trkpt><trkpt lat="45.609716" lon="10.4823409"><ele>217.0</ele><time>2026-04-16T15:49:32.182Z</time></trkpt><trkpt lat="45.6095667" lon="10.4822409"><ele>215.0</ele><time>2026-04-16T15:49:33.183Z</time></trkpt><trkpt lat="45.6094268" lon="10.482114"><ele>213.0</ele><time>2026-04-16T15:49:34.183Z</time></trkpt><trkpt lat="45.6092923" lon="10.4819936"><ele>211.0</ele><time>2026-04-16T15:49:35.183Z</time></trkpt><trkpt lat="45.6091453" lon="10.4819048"><ele>215.66666666666666</ele><time>2026-04-16T15:49:36.183Z</time></trkpt><trkpt lat="45.6089893" lon="10.4818505"><ele>220.33333333333331</ele><time>2026-04-16T15:49:37.182Z</time></trkpt><trkpt lat="45.6088279" lon="10.4818383"><ele>225.0</ele><time>2026-04-16T15:49:38.182Z</time></trkpt><trkpt lat="45.6086678" lon="10.481865"><ele>224.33333333333331</ele><time>2026-04-16T15:49:39.182Z</time></trkpt><trkpt lat="45.6084976" lon="10.4819643"><ele>223.66666666666666</ele><time>2026-04-16T15:49:40.183Z</time></trkpt><trkpt lat="45.6083297" lon="10.4820881"><ele>223.0</ele><time>2026-04-16T15:49:41.183Z</time></trkpt><trkpt lat="45.608164" lon="10.4822305"><ele>225.33333333333331</ele><time>2026-04-16T15:49:42.183Z</time></trkpt><trkpt lat="45.6079862" lon="10.4823923"><ele>227.66666666666669</ele><time>2026-04-16T15:49:43.183Z</time></trkpt><trkpt lat="45.607791" lon="10.4825723"><ele>230.0</ele><time>2026-04-16T15:49:44.183Z</time></trkpt><trkpt lat="45.6075975" lon="10.4827445"><ele>230.0</ele><time>2026-04-16T15:49:45.182Z</time></trkpt><trkpt lat="45.6074161" lon="10.4829088"><ele>230.0</ele><time>2026-04-16T15:49:46.183Z</time></trkpt><trkpt lat="45.607232" lon="10.4830551"><ele>230.0</ele><time>2026-04-16T15:49:47.183Z</time></trkpt><trkpt lat="45.6070496" lon="10.4832063"><ele>225.66666666666669</ele><time>2026-04-16T15:49:48.182Z</time></trkpt><trkpt lat="45.606875" lon="10.4833599"><ele>221.33333333333331</ele><time>2026-04-16T15:49:49.182Z</time></trkpt><trkpt lat="45.6067036" lon="10.4835283"><ele>217.0</ele><time>2026-04-16T15:49:50.183Z</time></trkpt><trkpt lat="45.6065433" lon="10.4837089"><ele>213.33333333333331</ele><time>2026-04-16T15:49:51.182Z</time></trkpt><trkpt lat="45.6064047" lon="10.4839116"><ele>209.66666666666669</ele><time>2026-04-16T15:49:52.182Z</time></trkpt><trkpt lat="45.6062792" lon="10.4841133"><ele>206.0</ele><time>2026-04-16T15:49:53.182Z</time></trkpt><trkpt lat="45.6061766" lon="10.4843079"><ele>211.0</ele><time>2026-04-16T15:49:54.183Z</time></trkpt><trkpt lat="45.6061005" lon="10.4845039"><ele>216.0</ele><time>2026-04-16T15:49:55.182Z</time></trkpt><trkpt lat="45.6060531" lon="10.484728"><ele>221.0</ele><time>2026-04-16T15:49:56.183Z</time></trkpt><trkpt lat="45.6060052" lon="10.4849708"><ele>221.0</ele><time>2026-04-16T15:49:57.183Z</time></trkpt><trkpt lat="45.6059738" lon="10.4852429"><ele>221.0</ele><time>2026-04-16T15:49:58.182Z</time></trkpt><trkpt lat="45.6059292" lon="10.4855268"><ele>221.0</ele><time>2026-04-16T15:49:59.182Z</time></trkpt><trkpt lat="45.6058912" lon="10.4857804"><ele>219.75</ele><time>2026-04-16T15:50:00.182Z</time></trkpt><trkpt lat="45.6058547" lon="10.4860231"><ele>218.5</ele><time>2026-04-16T15:50:01.183Z</time></trkpt><trkpt lat="45.6058244" lon="10.4862206"><ele>217.25</ele><time>2026-04-16T15:50:02.182Z</time></trkpt><trkpt lat="45.6057961" lon="10.4863981"><ele>216.0</ele><time>2026-04-16T15:50:03.182Z</time></trkpt><trkpt lat="45.6057711" lon="10.4865675"><ele>214.0</ele><time>2026-04-16T15:50:04.182Z</time></trkpt><trkpt lat="45.6057443" lon="10.4867344"><ele>212.0</ele><time>2026-04-16T15:50:05.183Z</time></trkpt><trkpt lat="45.6057132" lon="10.4869172"><ele>210.0</ele><time>2026-04-16T15:50:06.183Z</time></trkpt><trkpt lat="45.6056995" lon="10.4871106"><ele>208.0</ele><time>2026-04-16T15:50:07.182Z</time></trkpt><trkpt lat="45.6056744" lon="10.4873349"><ele>206.0</ele><time>2026-04-16T15:50:08.183Z</time></trkpt><trkpt lat="45.6056494" lon="10.4875675"><ele>204.0</ele><time>2026-04-16T15:50:09.183Z</time></trkpt><trkpt lat="45.6056185" lon="10.4878027"><ele>202.0</ele><time>2026-04-16T15:50:10.182Z</time></trkpt><trkpt lat="45.6055906" lon="10.4880491"><ele>202.0</ele><time>2026-04-16T15:50:11.182Z</time></trkpt><trkpt lat="45.6055764" lon="10.4882999"><ele>202.0</ele><time>2026-04-16T15:50:12.181Z</time></trkpt><trkpt lat="45.6055757" lon="10.4885437"><ele>202.0</ele><time>2026-04-16T15:50:13.182Z</time></trkpt><trkpt lat="45.6055797" lon="10.4887955"><ele>202.66666666666666</ele><time>2026-04-16T15:50:14.181Z</time></trkpt><trkpt lat="45.605595" lon="10.4890347"><ele>203.33333333333331</ele><time>2026-04-16T15:50:15.182Z</time></trkpt><trkpt lat="45.6056262" lon="10.4892587"><ele>204.0</ele><time>2026-04-16T15:50:16.182Z</time></trkpt><trkpt lat="45.6056692" lon="10.4894805"><ele>205.0</ele><time>2026-04-16T15:50:17.181Z</time></trkpt><trkpt lat="45.6057184" lon="10.4897033"><ele>206.0</ele><time>2026-04-16T15:50:18.181Z</time></trkpt><trkpt lat="45.6057655" lon="10.489923"><ele>207.0</ele><time>2026-04-16T15:50:19.181Z</time></trkpt><trkpt lat="45.6058106" lon="10.4901569"><ele>207.0</ele><time>2026-04-16T15:50:20.182Z</time></trkpt><trkpt lat="45.6058623" lon="10.4903822"><ele>207.0</ele><time>2026-04-16T15:50:21.182Z</time></trkpt><trkpt lat="45.6059115" lon="10.4906064"><ele>207.0</ele><time>2026-04-16T15:50:22.182Z</time></trkpt><trkpt lat="45.6059608" lon="10.4908333"><ele>209.0</ele><time>2026-04-16T15:50:23.182Z</time></trkpt><trkpt lat="45.6060107" lon="10.4910597"><ele>211.0</ele><time>2026-04-16T15:50:24.182Z</time></trkpt><trkpt lat="45.606065" lon="10.4912971"><ele>213.0</ele><time>2026-04-16T15:50:25.182Z</time></trkpt><trkpt lat="45.6061134" lon="10.4915354"><ele>215.66666666666669</ele><time>2026-04-16T15:50:26.182Z</time></trkpt><trkpt lat="45.6061583" lon="10.4917781"><ele>218.33333333333334</ele><time>2026-04-16T15:50:27.182Z</time></trkpt><trkpt lat="45.6062044" lon="10.4920087"><ele>221.0</ele><time>2026-04-16T15:50:28.181Z</time></trkpt><trkpt lat="45.6062532" lon="10.4922404"><ele>212.66666666666669</ele><time>2026-04-16T15:50:29.181Z</time></trkpt><trkpt lat="45.6062979" lon="10.4924727"><ele>204.33333333333331</ele><time>2026-04-16T15:50:30.182Z</time></trkpt><trkpt lat="45.6063444" lon="10.4927105"><ele>196.0</ele><time>2026-04-16T15:50:31.182Z</time></trkpt><trkpt lat="45.6063935" lon="10.4929485"><ele>196.0</ele><time>2026-04-16T15:50:32.182Z</time></trkpt><trkpt lat="45.6064435" lon="10.4931861"><ele>196.0</ele><time>2026-04-16T15:50:33.182Z</time></trkpt><trkpt lat="45.6064898" lon="10.4934199"><ele>196.0</ele><time>2026-04-16T15:50:34.182Z</time></trkpt><trkpt lat="45.6065358" lon="10.4936451"><ele>197.33333333333331</ele><time>2026-04-16T15:50:35.181Z</time></trkpt><trkpt lat="45.6065765" lon="10.4938611"><ele>198.66666666666669</ele><time>2026-04-16T15:50:36.181Z</time></trkpt><trkpt lat="45.6066078" lon="10.4940788"><ele>200.0</ele><time>2026-04-16T15:50:37.181Z</time></trkpt><trkpt lat="45.606638" lon="10.4943026"><ele>200.0</ele><time>2026-04-16T15:50:38.182Z</time></trkpt><trkpt lat="45.6066592" lon="10.4945393"><ele>200.0</ele><time>2026-04-16T15:50:39.181Z</time></trkpt><trkpt lat="45.6066715" lon="10.4947653"><ele>200.0</ele><time>2026-04-16T15:50:40.182Z</time></trkpt><trkpt lat="45.606675" lon="10.4949866"><ele>199.66666666666669</ele><time>2026-04-16T15:50:41.182Z</time></trkpt><trkpt lat="45.6066731" lon="10.4952078"><ele>199.33333333333331</ele><time>2026-04-16T15:50:42.182Z</time></trkpt><trkpt lat="45.606666" lon="10.4954211"><ele>199.0</ele><time>2026-04-16T15:50:43.182Z</time></trkpt><trkpt lat="45.6066449" lon="10.4956424"><ele>198.66666666666666</ele><time>2026-04-16T15:50:44.181Z</time></trkpt><trkpt lat="45.6066153" lon="10.4958627"><ele>198.33333333333331</ele><time>2026-04-16T15:50:45.182Z</time></trkpt><trkpt lat="45.6065762" lon="10.49609"><ele>198.0</ele><time>2026-04-16T15:50:46.182Z</time></trkpt><trkpt lat="45.6065279" lon="10.4963149"><ele>195.33333333333334</ele><time>2026-04-16T15:50:47.181Z</time></trkpt><trkpt lat="45.6064665" lon="10.4965439"><ele>192.66666666666669</ele><time>2026-04-16T15:50:48.181Z</time></trkpt><trkpt lat="45.6063997" lon="10.4967641"><ele>190.0</ele><time>2026-04-16T15:50:49.181Z</time></trkpt><trkpt lat="45.6063268" lon="10.4969844"><ele>188.33333333333334</ele><time>2026-04-16T15:50:50.182Z</time></trkpt><trkpt lat="45.6062527" lon="10.4972026"><ele>186.66666666666666</ele><time>2026-04-16T15:50:51.181Z</time></trkpt><trkpt lat="45.6061828" lon="10.4974272"><ele>185.0</ele><time>2026-04-16T15:50:52.182Z</time></trkpt><trkpt lat="45.6061099" lon="10.4976517"><ele>188.33333333333331</ele><time>2026-04-16T15:50:53.182Z</time></trkpt><trkpt lat="45.6060371" lon="10.4978834"><ele>191.66666666666666</ele><time>2026-04-16T15:50:54.181Z</time></trkpt><trkpt lat="45.6059678" lon="10.4980984"><ele>195.0</ele><time>2026-04-16T15:50:55.182Z</time></trkpt><trkpt lat="45.6059015" lon="10.4983136"><ele>195.0</ele><time>2026-04-16T15:50:56.181Z</time></trkpt><trkpt lat="45.6058383" lon="10.4985197"><ele>195.0</ele><time>2026-04-16T15:50:57.182Z</time></trkpt><trkpt lat="45.6057743" lon="10.498717"><ele>195.0</ele><time>2026-04-16T15:50:58.181Z</time></trkpt><trkpt lat="45.6057132" lon="10.4989115"><ele>192.0</ele><time>2026-04-16T15:50:59.181Z</time></trkpt><trkpt lat="45.605651" lon="10.4991001"><ele>189.0</ele><time>2026-04-16T15:51:00.181Z</time></trkpt><trkpt lat="45.6055933" lon="10.499274"><ele>186.0</ele><time>2026-04-16T15:51:01.182Z</time></trkpt><trkpt lat="45.6055241" lon="10.499445"><ele>183.0</ele><time>2026-04-16T15:51:02.181Z</time></trkpt><trkpt lat="45.6054363" lon="10.4996006"><ele>183.25</ele><time>2026-04-16T15:51:03.182Z</time></trkpt><trkpt lat="45.6053354" lon="10.4997382"><ele>183.5</ele><time>2026-04-16T15:51:04.181Z</time></trkpt><trkpt lat="45.6052201" lon="10.4998497"><ele>183.75</ele><time>2026-04-16T15:51:05.182Z</time></trkpt><trkpt lat="45.6050923" lon="10.4999363"><ele>184.0</ele><time>2026-04-16T15:51:06.181Z</time></trkpt><trkpt lat="45.6049547" lon="10.499995"><ele>184.0</ele><time>2026-04-16T15:51:07.182Z</time></trkpt><trkpt lat="45.6048116" lon="10.5000311"><ele>184.0</ele><time>2026-04-16T15:51:08.182Z</time></trkpt><trkpt lat="45.6046604" lon="10.5000406"><ele>184.0</ele><time>2026-04-16T15:51:09.182Z</time></trkpt><trkpt lat="45.6045044" lon="10.5000346"><ele>184.25</ele><time>2026-04-16T15:51:10.181Z</time></trkpt><trkpt lat="45.6043596" lon="10.5000158"><ele>184.5</ele><time>2026-04-16T15:51:11.182Z</time></trkpt><trkpt lat="45.6042146" lon="10.4999974"><ele>184.75</ele><time>2026-04-16T15:51:12.182Z</time></trkpt><trkpt lat="45.604075" lon="10.4999938"><ele>185.0</ele><time>2026-04-16T15:51:13.181Z</time></trkpt><trkpt lat="45.6039389" lon="10.4999906"><ele>185.0</ele><time>2026-04-16T15:51:14.181Z</time></trkpt><trkpt lat="45.6038014" lon="10.4999981"><ele>185.0</ele><time>2026-04-16T15:51:15.182Z</time></trkpt><trkpt lat="45.603668" lon="10.5000353"><ele>185.0</ele><time>2026-04-16T15:51:16.181Z</time></trkpt><trkpt lat="45.603542" lon="10.5001068"><ele>185.0</ele><time>2026-04-16T15:51:17.181Z</time></trkpt><trkpt lat="45.6034177" lon="10.5002093"><ele>183.75</ele><time>2026-04-16T15:51:18.182Z</time></trkpt><trkpt lat="45.6033003" lon="10.5003226"><ele>182.5</ele><time>2026-04-16T15:51:19.182Z</time></trkpt><trkpt lat="45.6031803" lon="10.5004559"><ele>181.25</ele><time>2026-04-16T15:51:20.181Z</time></trkpt><trkpt lat="45.603062" lon="10.5005923"><ele>180.0</ele><time>2026-04-16T15:51:21.181Z</time></trkpt><trkpt lat="45.6029355" lon="10.5007258"><ele>182.0</ele><time>2026-04-16T15:51:22.181Z</time></trkpt><trkpt lat="45.6028144" lon="10.5008561"><ele>184.0</ele><time>2026-04-16T15:51:23.181Z</time></trkpt><trkpt lat="45.6026951" lon="10.500992"><ele>186.0</ele><time>2026-04-16T15:51:24.182Z</time></trkpt><trkpt lat="45.6025756" lon="10.5011288"><ele>182.33333333333334</ele><time>2026-04-16T15:51:25.181Z</time></trkpt><trkpt lat="45.6024544" lon="10.5012647"><ele>178.66666666666669</ele><time>2026-04-16T15:51:26.181Z</time></trkpt><trkpt lat="45.6023334" lon="10.5013958"><ele>175.0</ele><time>2026-04-16T15:51:27.182Z</time></trkpt><trkpt lat="45.6022186" lon="10.5015309"><ele>175.0</ele><time>2026-04-16T15:51:28.182Z</time></trkpt><trkpt lat="45.6021009" lon="10.5016602"><ele>175.0</ele><time>2026-04-16T15:51:29.182Z</time></trkpt><trkpt lat="45.6019829" lon="10.5017954"><ele>175.0</ele><time>2026-04-16T15:51:30.181Z</time></trkpt><trkpt lat="45.60186" lon="10.5019327"><ele>176.33333333333334</ele><time>2026-04-16T15:51:31.181Z</time></trkpt><trkpt lat="45.6017368" lon="10.5020678"><ele>177.66666666666666</ele><time>2026-04-16T15:51:32.182Z</time></trkpt><trkpt lat="45.6016113" lon="10.5022104"><ele>179.0</ele><time>2026-04-16T15:51:33.182Z</time></trkpt><trkpt lat="45.6014944" lon="10.5023445"><ele>179.0</ele><time>2026-04-16T15:51:34.182Z</time></trkpt><trkpt lat="45.601377" lon="10.502467"><ele>179.0</ele><time>2026-04-16T15:51:35.181Z</time></trkpt><trkpt lat="45.6012535" lon="10.5025748"><ele>179.0</ele><time>2026-04-16T15:51:36.182Z</time></trkpt><trkpt lat="45.601116" lon="10.5026667"><ele>179.0</ele><time>2026-04-16T15:51:37.182Z</time></trkpt><trkpt lat="45.6009689" lon="10.5027273"><ele>179.5</ele><time>2026-04-16T15:51:38.181Z</time></trkpt><trkpt lat="45.6008165" lon="10.5027431"><ele>180.0</ele><time>2026-04-16T15:51:39.182Z</time></trkpt><trkpt lat="45.6006673" lon="10.5027351"><ele>180.5</ele><time>2026-04-16T15:51:40.182Z</time></trkpt><trkpt lat="45.6005211" lon="10.5027118"><ele>181.0</ele><time>2026-04-16T15:51:41.182Z</time></trkpt><trkpt lat="45.6003837" lon="10.5026694"><ele>181.25</ele><time>2026-04-16T15:51:42.182Z</time></trkpt><trkpt lat="45.6002531" lon="10.5026309"><ele>181.5</ele><time>2026-04-16T15:51:43.182Z</time></trkpt><trkpt lat="45.6001198" lon="10.502603"><ele>181.75</ele><time>2026-04-16T15:51:44.182Z</time></trkpt><trkpt lat="45.599982" lon="10.5025994"><ele>182.0</ele><time>2026-04-16T15:51:45.181Z</time></trkpt><trkpt lat="45.5998405" lon="10.5026211"><ele>182.0</ele><time>2026-04-16T15:51:46.182Z</time></trkpt><trkpt lat="45.5997043" lon="10.5026807"><ele>182.0</ele><time>2026-04-16T15:51:47.182Z</time></trkpt><trkpt lat="45.599567" lon="10.5027528"><ele>182.0</ele><time>2026-04-16T15:51:48.181Z</time></trkpt><trkpt lat="45.5994383" lon="10.5028584"><ele>182.0</ele><time>2026-04-16T15:51:49.181Z</time></trkpt><trkpt lat="45.5993091" lon="10.502997"><ele>180.66666666666666</ele><time>2026-04-16T15:51:50.181Z</time></trkpt><trkpt lat="45.5991852" lon="10.503134"><ele>179.33333333333334</ele><time>2026-04-16T15:51:51.182Z</time></trkpt><trkpt lat="45.5990596" lon="10.5032685"><ele>178.0</ele><time>2026-04-16T15:51:52.182Z</time></trkpt><trkpt lat="45.5989368" lon="10.5033902"><ele>178.0</ele><time>2026-04-16T15:51:53.182Z</time></trkpt><trkpt lat="45.598813" lon="10.5035138"><ele>178.0</ele><time>2026-04-16T15:51:54.182Z</time></trkpt><trkpt lat="45.5986797" lon="10.5036329"><ele>178.0</ele><time>2026-04-16T15:51:55.181Z</time></trkpt><trkpt lat="45.598541" lon="10.5037309"><ele>177.33333333333334</ele><time>2026-04-16T15:51:56.181Z</time></trkpt><trkpt lat="45.5983958" lon="10.5038134"><ele>176.66666666666666</ele><time>2026-04-16T15:51:57.182Z</time></trkpt><trkpt lat="45.5982469" lon="10.5038799"><ele>176.0</ele><time>2026-04-16T15:51:58.182Z</time></trkpt><trkpt lat="45.5980915" lon="10.5039312"><ele>176.0</ele><time>2026-04-16T15:51:59.181Z</time></trkpt><trkpt lat="45.5979257" lon="10.5039771"><ele>176.0</ele><time>2026-04-16T15:52:00.182Z</time></trkpt><trkpt lat="45.5977577" lon="10.5040091"><ele>176.0</ele><time>2026-04-16T15:52:01.182Z</time></trkpt><trkpt lat="45.5975857" lon="10.5040214"><ele>174.33333333333331</ele><time>2026-04-16T15:52:02.181Z</time></trkpt><trkpt lat="45.5974162" lon="10.5040279"><ele>172.66666666666666</ele><time>2026-04-16T15:52:03.182Z</time></trkpt><trkpt lat="45.597245" lon="10.5040305"><ele>171.0</ele><time>2026-04-16T15:52:04.182Z</time></trkpt><trkpt lat="45.5970779" lon="10.5040321"><ele>171.0</ele><time>2026-04-16T15:52:05.182Z</time></trkpt><trkpt lat="45.5969072" lon="10.5040317"><ele>171.0</ele><time>2026-04-16T15:52:06.181Z</time></trkpt><trkpt lat="45.5967384" lon="10.5040351"><ele>171.0</ele><time>2026-04-16T15:52:07.181Z</time></trkpt><trkpt lat="45.5965711" lon="10.5040331"><ele>171.0</ele><time>2026-04-16T15:52:08.182Z</time></trkpt><trkpt lat="45.5964033" lon="10.5040333"><ele>171.0</ele><time>2026-04-16T15:52:09.182Z</time></trkpt><trkpt lat="45.596234" lon="10.5040289"><ele>171.0</ele><time>2026-04-16T15:52:10.182Z</time></trkpt><trkpt lat="45.5960665" lon="10.5040318"><ele>171.66666666666666</ele><time>2026-04-16T15:52:11.181Z</time></trkpt><trkpt lat="45.5958998" lon="10.5040319"><ele>172.33333333333331</ele><time>2026-04-16T15:52:12.182Z</time></trkpt><trkpt lat="45.5957334" lon="10.5040327"><ele>173.0</ele><time>2026-04-16T15:52:13.182Z</time></trkpt><trkpt lat="45.5955639" lon="10.5040306"><ele>173.0</ele><time>2026-04-16T15:52:14.182Z</time></trkpt><trkpt lat="45.595396" lon="10.504029"><ele>173.0</ele><time>2026-04-16T15:52:15.182Z</time></trkpt><trkpt lat="45.5952235" lon="10.5040318"><ele>173.0</ele><time>2026-04-16T15:52:16.182Z</time></trkpt><trkpt lat="45.5950546" lon="10.5040343"><ele>171.66666666666666</ele><time>2026-04-16T15:52:17.181Z</time></trkpt><trkpt lat="45.5948868" lon="10.5040343"><ele>170.33333333333334</ele><time>2026-04-16T15:52:18.182Z</time></trkpt><trkpt lat="45.5947211" lon="10.5040349"><ele>169.0</ele><time>2026-04-16T15:52:19.182Z</time></trkpt><trkpt lat="45.5945574" lon="10.5040427"><ele>168.66666666666669</ele><time>2026-04-16T15:52:20.182Z</time></trkpt><trkpt lat="45.5943942" lon="10.504063"><ele>168.33333333333334</ele><time>2026-04-16T15:52:21.182Z</time></trkpt><trkpt lat="45.5942321" lon="10.5040924"><ele>168.0</ele><time>2026-04-16T15:52:22.182Z</time></trkpt><trkpt lat="45.5940704" lon="10.504144"><ele>168.0</ele><time>2026-04-16T15:52:23.182Z</time></trkpt><trkpt lat="45.5939166" lon="10.5042029"><ele>168.0</ele><time>2026-04-16T15:52:24.182Z</time></trkpt><trkpt lat="45.5937705" lon="10.504271"><ele>168.0</ele><time>2026-04-16T15:52:25.181Z</time></trkpt><trkpt lat="45.5936366" lon="10.5043522"><ele>167.75</ele><time>2026-04-16T15:52:26.181Z</time></trkpt><trkpt lat="45.5935081" lon="10.5044459"><ele>167.5</ele><time>2026-04-16T15:52:27.182Z</time></trkpt><trkpt lat="45.5933847" lon="10.5045542"><ele>167.25</ele><time>2026-04-16T15:52:28.181Z</time></trkpt><trkpt lat="45.5932712" lon="10.5046785"><ele>167.0</ele><time>2026-04-16T15:52:29.181Z</time></trkpt><trkpt lat="45.5931579" lon="10.5048174"><ele>167.0</ele><time>2026-04-16T15:52:30.182Z</time></trkpt><trkpt lat="45.5930479" lon="10.5049547"><ele>167.0</ele><time>2026-04-16T15:52:31.181Z</time></trkpt><trkpt lat="45.5929489" lon="10.505104"><ele>167.0</ele><time>2026-04-16T15:52:32.181Z</time></trkpt><trkpt lat="45.5928575" lon="10.5052596"><ele>167.0</ele><time>2026-04-16T15:52:33.182Z</time></trkpt><trkpt lat="45.5927731" lon="10.5054146"><ele>166.25</ele><time>2026-04-16T15:52:34.182Z</time></trkpt><trkpt lat="45.5926969" lon="10.5055639"><ele>165.5</ele><time>2026-04-16T15:52:35.181Z</time></trkpt><trkpt lat="45.5926258" lon="10.5057078"><ele>164.75</ele><time>2026-04-16T15:52:36.181Z</time></trkpt><trkpt lat="45.592556" lon="10.5058455"><ele>164.0</ele><time>2026-04-16T15:52:37.182Z</time></trkpt><trkpt lat="45.5924882" lon="10.5059754"><ele>164.0</ele><time>2026-04-16T15:52:38.181Z</time></trkpt><trkpt lat="45.5924204" lon="10.5061136"><ele>164.0</ele><time>2026-04-16T15:52:39.182Z</time></trkpt><trkpt lat="45.5923465" lon="10.506254"><ele>164.0</ele><time>2026-04-16T15:52:40.181Z</time></trkpt><trkpt lat="45.5922716" lon="10.5064051"><ele>164.0</ele><time>2026-04-16T15:52:41.181Z</time></trkpt><trkpt lat="45.5921973" lon="10.5065592"><ele>163.5</ele><time>2026-04-16T15:52:42.181Z</time></trkpt><trkpt lat="45.5921276" lon="10.5067171"><ele>163.0</ele><time>2026-04-16T15:52:43.181Z</time></trkpt><trkpt lat="45.5920647" lon="10.5068781"><ele>162.5</ele><time>2026-04-16T15:52:44.182Z</time></trkpt><trkpt lat="45.5920041" lon="10.507032"><ele>162.0</ele><time>2026-04-16T15:52:45.182Z</time></trkpt><trkpt lat="45.5919487" lon="10.5071812"><ele>162.0</ele><time>2026-04-16T15:52:46.181Z</time></trkpt><trkpt lat="45.5918967" lon="10.5073213"><ele>162.0</ele><time>2026-04-16T15:52:47.182Z</time></trkpt><trkpt lat="45.5918507" lon="10.5074563"><ele>162.0</ele><time>2026-04-16T15:52:48.182Z</time></trkpt><trkpt lat="45.5918104" lon="10.5075894"><ele>162.0</ele><time>2026-04-16T15:52:49.181Z</time></trkpt><trkpt lat="45.591775" lon="10.507705"><ele>162.0</ele><time>2026-04-16T15:52:50.182Z</time></trkpt><trkpt lat="45.5917457" lon="10.5078021"><ele>162.39999999999998</ele><time>2026-04-16T15:52:51.181Z</time></trkpt><trkpt lat="45.5917271" lon="10.5079357"><ele>162.79999999999998</ele><time>2026-04-16T15:52:53.181Z</time></trkpt><trkpt lat="45.5917053" lon="10.5080209"><ele>163.2</ele><time>2026-04-16T15:52:55.182Z</time></trkpt><trkpt lat="45.5916723" lon="10.5081137"><ele>163.6</ele><time>2026-04-16T15:52:59.181Z</time></trkpt><trkpt lat="45.591625" lon="10.5082455"><ele>164.0</ele><time>2026-04-16T15:53:12.182Z</time></trkpt><trkpt lat="45.5915779" lon="10.5084342"><ele>164.0</ele><time>2026-04-16T15:53:14.182Z</time></trkpt><trkpt lat="45.5915425" lon="10.5085779"><ele>164.0</ele><time>2026-04-16T15:53:15.182Z</time></trkpt><trkpt lat="45.5914994" lon="10.5087321"><ele>164.0</ele><time>2026-04-16T15:53:16.182Z</time></trkpt><trkpt lat="45.5914604" lon="10.508899"><ele>164.0</ele><time>2026-04-16T15:53:17.182Z</time></trkpt><trkpt lat="45.5914166" lon="10.5090823"><ele>164.25</ele><time>2026-04-16T15:53:18.182Z</time></trkpt><trkpt lat="45.59137" lon="10.5092762"><ele>164.5</ele><time>2026-04-16T15:53:19.181Z</time></trkpt><trkpt lat="45.5913268" lon="10.5094711"><ele>164.75</ele><time>2026-04-16T15:53:20.181Z</time></trkpt><trkpt lat="45.5912853" lon="10.509671"><ele>165.0</ele><time>2026-04-16T15:53:21.18Z</time></trkpt><trkpt lat="45.5912486" lon="10.5098838"><ele>165.0</ele><time>2026-04-16T15:53:22.181Z</time></trkpt><trkpt lat="45.5912052" lon="10.5100825"><ele>165.0</ele><time>2026-04-16T15:53:23.181Z</time></trkpt><trkpt lat="45.591156" lon="10.5102868"><ele>165.0</ele><time>2026-04-16T15:53:24.18Z</time></trkpt><trkpt lat="45.5911108" lon="10.5104948"><ele>165.0</ele><time>2026-04-16T15:53:25.18Z</time></trkpt><trkpt lat="45.5910679" lon="10.5107038"><ele>163.33333333333334</ele><time>2026-04-16T15:53:26.18Z</time></trkpt><trkpt lat="45.591021" lon="10.510918"><ele>161.66666666666669</ele><time>2026-04-16T15:53:27.181Z</time></trkpt><trkpt lat="45.5909739" lon="10.5111339"><ele>160.0</ele><time>2026-04-16T15:53:28.181Z</time></trkpt><trkpt lat="45.5909282" lon="10.511345"><ele>160.0</ele><time>2026-04-16T15:53:29.18Z</time></trkpt><trkpt lat="45.5908803" lon="10.5115569"><ele>160.0</ele><time>2026-04-16T15:53:30.181Z</time></trkpt><trkpt lat="45.5908357" lon="10.5117718"><ele>160.0</ele><time>2026-04-16T15:53:31.181Z</time></trkpt><trkpt lat="45.5907822" lon="10.5119907"><ele>160.0</ele><time>2026-04-16T15:53:32.18Z</time></trkpt><trkpt lat="45.5907298" lon="10.5122006"><ele>160.0</ele><time>2026-04-16T15:53:33.18Z</time></trkpt><trkpt lat="45.5906696" lon="10.5124082"><ele>160.0</ele><time>2026-04-16T15:53:34.18Z</time></trkpt><trkpt lat="45.5906019" lon="10.5126105"><ele>160.0</ele><time>2026-04-16T15:53:35.181Z</time></trkpt><trkpt lat="45.5905228" lon="10.5127994"><ele>160.0</ele><time>2026-04-16T15:53:36.181Z</time></trkpt><trkpt lat="45.5904398" lon="10.5129804"><ele>160.0</ele><time>2026-04-16T15:53:37.181Z</time></trkpt><trkpt lat="45.5903475" lon="10.5131489"><ele>159.0</ele><time>2026-04-16T15:53:38.181Z</time></trkpt><trkpt lat="45.5902484" lon="10.5133005"><ele>158.0</ele><time>2026-04-16T15:53:39.181Z</time></trkpt><trkpt lat="45.5901349" lon="10.5134538"><ele>157.0</ele><time>2026-04-16T15:53:40.181Z</time></trkpt><trkpt lat="45.5900139" lon="10.5135967"><ele>159.33333333333334</ele><time>2026-04-16T15:53:41.181Z</time></trkpt><trkpt lat="45.589889" lon="10.5137421"><ele>161.66666666666666</ele><time>2026-04-16T15:53:42.181Z</time></trkpt><trkpt lat="45.5897581" lon="10.513895"><ele>164.0</ele><time>2026-04-16T15:53:43.181Z</time></trkpt><trkpt lat="45.5896244" lon="10.5140512"><ele>161.66666666666666</ele><time>2026-04-16T15:53:44.181Z</time></trkpt><trkpt lat="45.5894904" lon="10.5142128"><ele>159.33333333333334</ele><time>2026-04-16T15:53:45.181Z</time></trkpt><trkpt lat="45.5893509" lon="10.5143703"><ele>157.0</ele><time>2026-04-16T15:53:46.181Z</time></trkpt><trkpt lat="45.5892143" lon="10.5145188"><ele>159.33333333333334</ele><time>2026-04-16T15:53:47.181Z</time></trkpt><trkpt lat="45.5890816" lon="10.5146638"><ele>161.66666666666666</ele><time>2026-04-16T15:53:48.181Z</time></trkpt><trkpt lat="45.5889529" lon="10.5148039"><ele>164.0</ele><time>2026-04-16T15:53:49.181Z</time></trkpt><trkpt lat="45.5888315" lon="10.514942"><ele>164.0</ele><time>2026-04-16T15:53:50.18Z</time></trkpt><trkpt lat="45.5887215" lon="10.5150793"><ele>164.0</ele><time>2026-04-16T15:53:51.181Z</time></trkpt><trkpt lat="45.5886192" lon="10.5151938"><ele>164.0</ele><time>2026-04-16T15:53:52.18Z</time></trkpt><trkpt lat="45.5885192" lon="10.5153039"><ele>164.0</ele><time>2026-04-16T15:53:53.18Z</time></trkpt><trkpt lat="45.5884225" lon="10.5154081"><ele>163.0</ele><time>2026-04-16T15:53:54.18Z</time></trkpt><trkpt lat="45.5883355" lon="10.5155098"><ele>162.0</ele><time>2026-04-16T15:53:55.18Z</time></trkpt><trkpt lat="45.5882515" lon="10.5156004"><ele>161.0</ele><time>2026-04-16T15:53:56.181Z</time></trkpt><trkpt lat="45.5881725" lon="10.5156924"><ele>160.0</ele><time>2026-04-16T15:53:57.181Z</time></trkpt><trkpt lat="45.5881005" lon="10.5157785"><ele>159.0</ele><time>2026-04-16T15:53:58.181Z</time></trkpt><trkpt lat="45.5880326" lon="10.5158553"><ele>159.0</ele><time>2026-04-16T15:53:59.18Z</time></trkpt><trkpt lat="45.5879713" lon="10.5159189"><ele>159.0</ele><time>2026-04-16T15:54:00.18Z</time></trkpt><trkpt lat="45.5879122" lon="10.5159827"><ele>159.0</ele><time>2026-04-16T15:54:01.181Z</time></trkpt><trkpt lat="45.5878606" lon="10.5160482"><ele>159.0</ele><time>2026-04-16T15:54:02.18Z</time></trkpt><trkpt lat="45.587774" lon="10.5161426"><ele>159.0</ele><time>2026-04-16T15:54:04.181Z</time></trkpt><trkpt lat="45.5877119" lon="10.5162126"><ele>159.0</ele><time>2026-04-16T15:54:07.181Z</time></trkpt><trkpt lat="45.5876575" lon="10.5162807"><ele>158.16666666666666</ele><time>2026-04-16T15:54:10.181Z</time></trkpt><trkpt lat="45.5875911" lon="10.5163657"><ele>157.33333333333334</ele><time>2026-04-16T15:54:13.181Z</time></trkpt><trkpt lat="45.5875269" lon="10.5164308"><ele>156.5</ele><time>2026-04-16T15:54:15.18Z</time></trkpt><trkpt lat="45.5874459" lon="10.5165286"><ele>155.66666666666669</ele><time>2026-04-16T15:54:17.18Z</time></trkpt><trkpt lat="45.5873711" lon="10.5166053"><ele>154.83333333333334</ele><time>2026-04-16T15:54:19.181Z</time></trkpt><trkpt lat="45.5873184" lon="10.5166732"><ele>154.0</ele><time>2026-04-16T15:54:21.18Z</time></trkpt><trkpt lat="45.5872255" lon="10.5167649"><ele>154.0</ele><time>2026-04-16T15:54:23.181Z</time></trkpt><trkpt lat="45.5871354" lon="10.5168828"><ele>154.0</ele><time>2026-04-16T15:54:25.181Z</time></trkpt><trkpt lat="45.5870877" lon="10.5169433"><ele>154.0</ele><time>2026-04-16T15:54:26.181Z</time></trkpt><trkpt lat="45.5870003" lon="10.5170519"><ele>154.0</ele><time>2026-04-16T15:54:28.18Z</time></trkpt><trkpt lat="45.5869339" lon="10.5171508"><ele>154.0</ele><time>2026-04-16T15:54:30.181Z</time></trkpt><trkpt lat="45.5868774" lon="10.5171968"><ele>154.5</ele><time>2026-04-16T15:54:31.18Z</time></trkpt><trkpt lat="45.586811" lon="10.5172412"><ele>155.0</ele><time>2026-04-16T15:54:32.181Z</time></trkpt><trkpt lat="45.5867557" lon="10.5172927"><ele>155.5</ele><time>2026-04-16T15:54:33.18Z</time></trkpt><trkpt lat="45.5867107" lon="10.5174153"><ele>156.0</ele><time>2026-04-16T15:54:35.18Z</time></trkpt><trkpt lat="45.5867193" lon="10.5175145"><ele>156.5</ele><time>2026-04-16T15:54:36.181Z</time></trkpt><trkpt lat="45.5867488" lon="10.5176145"><ele>157.0</ele><time>2026-04-16T15:54:37.181Z</time></trkpt><trkpt lat="45.5867813" lon="10.5177263"><ele>157.0</ele><time>2026-04-16T15:54:38.18Z</time></trkpt><trkpt lat="45.586823" lon="10.5178681"><ele>157.0</ele><time>2026-04-16T15:54:39.181Z</time></trkpt><trkpt lat="45.5868629" lon="10.5179853"><ele>157.0</ele><time>2026-04-16T15:54:40.181Z</time></trkpt><trkpt lat="45.5868985" lon="10.5181357"><ele>157.0</ele><time>2026-04-16T15:54:41.181Z</time></trkpt><trkpt lat="45.5869363" lon="10.5182799"><ele>157.0</ele><time>2026-04-16T15:54:42.18Z</time></trkpt><trkpt lat="45.5869882" lon="10.518433"><ele>155.66666666666669</ele><time>2026-04-16T15:54:43.18Z</time></trkpt><trkpt lat="45.5870511" lon="10.5186243"><ele>154.33333333333334</ele><time>2026-04-16T15:54:44.18Z</time></trkpt><trkpt lat="45.5871135" lon="10.5188214"><ele>153.0</ele><time>2026-04-16T15:54:45.181Z</time></trkpt><trkpt lat="45.5871812" lon="10.5190188"><ele>152.33333333333334</ele><time>2026-04-16T15:54:46.181Z</time></trkpt><trkpt lat="45.58724" lon="10.5192213"><ele>151.66666666666669</ele><time>2026-04-16T15:54:47.181Z</time></trkpt><trkpt lat="45.5872982" lon="10.5194222"><ele>151.0</ele><time>2026-04-16T15:54:48.18Z</time></trkpt><trkpt lat="45.587356" lon="10.519621"><ele>151.0</ele><time>2026-04-16T15:54:49.181Z</time></trkpt><trkpt lat="45.5874133" lon="10.5198159"><ele>151.0</ele><time>2026-04-16T15:54:50.18Z</time></trkpt><trkpt lat="45.5874743" lon="10.5200056"><ele>151.0</ele><time>2026-04-16T15:54:51.181Z</time></trkpt><trkpt lat="45.5875337" lon="10.520183"><ele>151.0</ele><time>2026-04-16T15:54:52.181Z</time></trkpt><trkpt lat="45.5875985" lon="10.5203443"><ele>151.25</ele><time>2026-04-16T15:54:53.181Z</time></trkpt><trkpt lat="45.5876679" lon="10.5204956"><ele>151.5</ele><time>2026-04-16T15:54:54.181Z</time></trkpt><trkpt lat="45.5877433" lon="10.5206298"><ele>151.75</ele><time>2026-04-16T15:54:55.18Z</time></trkpt><trkpt lat="45.5878189" lon="10.5207447"><ele>152.0</ele><time>2026-04-16T15:54:56.181Z</time></trkpt><trkpt lat="45.5878989" lon="10.52085"><ele>152.2</ele><time>2026-04-16T15:54:57.181Z</time></trkpt><trkpt lat="45.5879827" lon="10.5209433"><ele>152.39999999999998</ele><time>2026-04-16T15:54:58.18Z</time></trkpt><trkpt lat="45.5880683" lon="10.5210406"><ele>152.60000000000002</ele><time>2026-04-16T15:54:59.181Z</time></trkpt><trkpt lat="45.5881597" lon="10.5211322"><ele>152.8</ele><time>2026-04-16T15:55:00.181Z</time></trkpt><trkpt lat="45.5882594" lon="10.521218"><ele>153.0</ele><time>2026-04-16T15:55:01.181Z</time></trkpt><trkpt lat="45.5883648" lon="10.5213109"><ele>153.0</ele><time>2026-04-16T15:55:02.181Z</time></trkpt><trkpt lat="45.5884723" lon="10.5213871"><ele>153.0</ele><time>2026-04-16T15:55:03.181Z</time></trkpt><trkpt lat="45.588571" lon="10.5214575"><ele>153.0</ele><time>2026-04-16T15:55:04.18Z</time></trkpt><trkpt lat="45.5886671" lon="10.5215306"><ele>153.0</ele><time>2026-04-16T15:55:05.18Z</time></trkpt><trkpt lat="45.5887606" lon="10.5216128"><ele>153.0</ele><time>2026-04-16T15:55:06.181Z</time></trkpt><trkpt lat="45.5888521" lon="10.5216845"><ele>153.0</ele><time>2026-04-16T15:55:07.18Z</time></trkpt><trkpt lat="45.5889461" lon="10.5217567"><ele>153.0</ele><time>2026-04-16T15:55:08.181Z</time></trkpt><trkpt lat="45.5890403" lon="10.52182"><ele>153.0</ele><time>2026-04-16T15:55:09.18Z</time></trkpt><trkpt lat="45.5891328" lon="10.5218896"><ele>153.0</ele><time>2026-04-16T15:55:10.18Z</time></trkpt><trkpt lat="45.5892154" lon="10.5219441"><ele>153.0</ele><time>2026-04-16T15:55:11.181Z</time></trkpt><trkpt lat="45.5893093" lon="10.5220051"><ele>154.0</ele><time>2026-04-16T15:55:12.181Z</time></trkpt><trkpt lat="45.5894107" lon="10.5220849"><ele>155.0</ele><time>2026-04-16T15:55:13.18Z</time></trkpt><trkpt lat="45.5895187" lon="10.52216"><ele>156.0</ele><time>2026-04-16T15:55:14.181Z</time></trkpt><trkpt lat="45.589622" lon="10.5222348"><ele>157.0</ele><time>2026-04-16T15:55:15.18Z</time></trkpt><trkpt lat="45.5897187" lon="10.5223154"><ele>157.2</ele><time>2026-04-16T15:55:16.181Z</time></trkpt><trkpt lat="45.5898056" lon="10.5223755"><ele>157.39999999999998</ele><time>2026-04-16T15:55:17.181Z</time></trkpt><trkpt lat="45.5899037" lon="10.5224432"><ele>157.60000000000002</ele><time>2026-04-16T15:55:18.181Z</time></trkpt><trkpt lat="45.5900022" lon="10.5225125"><ele>157.8</ele><time>2026-04-16T15:55:19.181Z</time></trkpt><trkpt lat="45.590101" lon="10.5225894"><ele>158.0</ele><time>2026-04-16T15:55:20.181Z</time></trkpt><trkpt lat="45.5901946" lon="10.5226635"><ele>158.0</ele><time>2026-04-16T15:55:21.181Z</time></trkpt><trkpt lat="45.5902812" lon="10.5227338"><ele>158.0</ele><time>2026-04-16T15:55:22.181Z</time></trkpt><trkpt lat="45.590364" lon="10.5228061"><ele>158.0</ele><time>2026-04-16T15:55:23.18Z</time></trkpt><trkpt lat="45.590445" lon="10.5228691"><ele>158.0</ele><time>2026-04-16T15:55:24.181Z</time></trkpt><trkpt lat="45.5905318" lon="10.5229275"><ele>158.0</ele><time>2026-04-16T15:55:25.18Z</time></trkpt><trkpt lat="45.5906152" lon="10.5229845"><ele>160.0</ele><time>2026-04-16T15:55:26.18Z</time></trkpt><trkpt lat="45.5907013" lon="10.5230371"><ele>162.0</ele><time>2026-04-16T15:55:27.18Z</time></trkpt><trkpt lat="45.590789" lon="10.5230934"><ele>164.0</ele><time>2026-04-16T15:55:28.181Z</time></trkpt><trkpt lat="45.5908822" lon="10.5231349"><ele>166.0</ele><time>2026-04-16T15:55:29.181Z</time></trkpt><trkpt lat="45.5909674" lon="10.5231609"><ele>168.0</ele><time>2026-04-16T15:55:30.181Z</time></trkpt><trkpt lat="45.5910548" lon="10.523178"><ele>168.0</ele><time>2026-04-16T15:55:31.181Z</time></trkpt><trkpt lat="45.5911529" lon="10.523183"><ele>168.0</ele><time>2026-04-16T15:55:32.18Z</time></trkpt><trkpt lat="45.5912518" lon="10.5231857"><ele>168.0</ele><time>2026-04-16T15:55:33.181Z</time></trkpt><trkpt lat="45.591354" lon="10.5231716"><ele>168.0</ele><time>2026-04-16T15:55:34.181Z</time></trkpt><trkpt lat="45.5914463" lon="10.5231515"><ele>168.0</ele><time>2026-04-16T15:55:35.18Z</time></trkpt><trkpt lat="45.5915409" lon="10.523124"><ele>168.0</ele><time>2026-04-16T15:55:36.18Z</time></trkpt><trkpt lat="45.5916308" lon="10.5230994"><ele>168.0</ele><time>2026-04-16T15:55:37.18Z</time></trkpt><trkpt lat="45.5917134" lon="10.5230604"><ele>168.0</ele><time>2026-04-16T15:55:38.18Z</time></trkpt><trkpt lat="45.5917928" lon="10.5230152"><ele>168.0</ele><time>2026-04-16T15:55:39.18Z</time></trkpt><trkpt lat="45.5918659" lon="10.5229646"><ele>168.0</ele><time>2026-04-16T15:55:40.181Z</time></trkpt><trkpt lat="45.5919382" lon="10.5229262"><ele>168.0</ele><time>2026-04-16T15:55:41.181Z</time></trkpt><trkpt lat="45.5920085" lon="10.5229028"><ele>166.0</ele><time>2026-04-16T15:55:42.18Z</time></trkpt><trkpt lat="45.5920793" lon="10.5228952"><ele>164.0</ele><time>2026-04-16T15:55:43.181Z</time></trkpt><trkpt lat="45.5921464" lon="10.5229089"><ele>162.0</ele><time>2026-04-16T15:55:44.181Z</time></trkpt><trkpt lat="45.5922105" lon="10.5229266"><ele>160.0</ele><time>2026-04-16T15:55:45.181Z</time></trkpt><trkpt lat="45.5923227" lon="10.5229931"><ele>158.0</ele><time>2026-04-16T15:55:47.18Z</time></trkpt><trkpt lat="45.5923738" lon="10.5230577"><ele>156.0</ele><time>2026-04-16T15:55:48.181Z</time></trkpt><trkpt lat="45.5924216" lon="10.5231545"><ele>156.0</ele><time>2026-04-16T15:55:49.18Z</time></trkpt><trkpt lat="45.5924619" lon="10.5232826"><ele>156.0</ele><time>2026-04-16T15:55:50.18Z</time></trkpt><trkpt lat="45.5924968" lon="10.5234081"><ele>156.0</ele><time>2026-04-16T15:55:51.181Z</time></trkpt><trkpt lat="45.5925256" lon="10.523528"><ele>156.0</ele><time>2026-04-16T15:55:52.181Z</time></trkpt><trkpt lat="45.5925483" lon="10.523649"><ele>156.0</ele><time>2026-04-16T15:55:53.181Z</time></trkpt><trkpt lat="45.5925671" lon="10.5237715"><ele>157.0</ele><time>2026-04-16T15:55:54.18Z</time></trkpt><trkpt lat="45.5925762" lon="10.5239028"><ele>158.0</ele><time>2026-04-16T15:55:55.181Z</time></trkpt><trkpt lat="45.5925836" lon="10.5240224"><ele>159.0</ele><time>2026-04-16T15:55:56.18Z</time></trkpt><trkpt lat="45.5925897" lon="10.524124"><ele>160.0</ele><time>2026-04-16T15:55:57.181Z</time></trkpt><trkpt lat="45.5926003" lon="10.5243046"><ele>161.0</ele><time>2026-04-16T15:55:59.18Z</time></trkpt><trkpt lat="45.5925946" lon="10.524434"><ele>160.60000000000002</ele><time>2026-04-16T15:56:00.18Z</time></trkpt><trkpt lat="45.5925921" lon="10.5245848"><ele>160.20000000000002</ele><time>2026-04-16T15:56:01.181Z</time></trkpt><trkpt lat="45.5925899" lon="10.5247477"><ele>159.8</ele><time>2026-04-16T15:56:02.18Z</time></trkpt><trkpt lat="45.5925887" lon="10.5249031"><ele>159.4</ele><time>2026-04-16T15:56:03.181Z</time></trkpt><trkpt lat="45.5925839" lon="10.5250537"><ele>159.0</ele><time>2026-04-16T15:56:04.18Z</time></trkpt><trkpt lat="45.592575" lon="10.5252013"><ele>159.0</ele><time>2026-04-16T15:56:05.181Z</time></trkpt><trkpt lat="45.5925632" lon="10.5253514"><ele>159.0</ele><time>2026-04-16T15:56:06.18Z</time></trkpt><trkpt lat="45.5925504" lon="10.5254997"><ele>159.0</ele><time>2026-04-16T15:56:07.181Z</time></trkpt><trkpt lat="45.5925357" lon="10.5256557"><ele>159.0</ele><time>2026-04-16T15:56:08.181Z</time></trkpt><trkpt lat="45.5925193" lon="10.5258122"><ele>159.0</ele><time>2026-04-16T15:56:09.181Z</time></trkpt><trkpt lat="45.5925093" lon="10.5259675"><ele>158.75</ele><time>2026-04-16T15:56:10.181Z</time></trkpt><trkpt lat="45.5925174" lon="10.5261186"><ele>158.5</ele><time>2026-04-16T15:56:11.18Z</time></trkpt><trkpt lat="45.592535" lon="10.5262807"><ele>158.25</ele><time>2026-04-16T15:56:12.181Z</time></trkpt><trkpt lat="45.5925819" lon="10.5264356"><ele>158.0</ele><time>2026-04-16T15:56:13.181Z</time></trkpt><trkpt lat="45.5926277" lon="10.5265919"><ele>158.0</ele><time>2026-04-16T15:56:14.18Z</time></trkpt><trkpt lat="45.592669" lon="10.5267544"><ele>158.0</ele><time>2026-04-16T15:56:15.18Z</time></trkpt><trkpt lat="45.5927033" lon="10.5269194"><ele>158.0</ele><time>2026-04-16T15:56:16.18Z</time></trkpt><trkpt lat="45.5927353" lon="10.5270743"><ele>158.0</ele><time>2026-04-16T15:56:17.181Z</time></trkpt><trkpt lat="45.5927621" lon="10.5272278"><ele>158.4</ele><time>2026-04-16T15:56:18.18Z</time></trkpt><trkpt lat="45.5927896" lon="10.5273788"><ele>158.8</ele><time>2026-04-16T15:56:19.181Z</time></trkpt><trkpt lat="45.5928208" lon="10.5275224"><ele>159.2</ele><time>2026-04-16T15:56:20.18Z</time></trkpt><trkpt lat="45.592848" lon="10.5276708"><ele>159.6</ele><time>2026-04-16T15:56:21.181Z</time></trkpt><trkpt lat="45.5928766" lon="10.5278125"><ele>160.0</ele><time>2026-04-16T15:56:22.18Z</time></trkpt><trkpt lat="45.5929046" lon="10.5279495"><ele>158.8</ele><time>2026-04-16T15:56:23.181Z</time></trkpt><trkpt lat="45.5929302" lon="10.5280794"><ele>157.6</ele><time>2026-04-16T15:56:24.181Z</time></trkpt><trkpt lat="45.5929549" lon="10.5282042"><ele>156.4</ele><time>2026-04-16T15:56:25.18Z</time></trkpt><trkpt lat="45.5929802" lon="10.5282996"><ele>155.2</ele><time>2026-04-16T15:56:26.18Z</time></trkpt><trkpt lat="45.5930136" lon="10.5284696"><ele>154.0</ele><time>2026-04-16T15:56:28.18Z</time></trkpt><trkpt lat="45.5930331" lon="10.528589"><ele>154.33333333333334</ele><time>2026-04-16T15:56:29.18Z</time></trkpt><trkpt lat="45.5930634" lon="10.5287799"><ele>154.66666666666666</ele><time>2026-04-16T15:56:30.179Z</time></trkpt><trkpt lat="45.5931029" lon="10.5290207"><ele>155.0</ele><time>2026-04-16T15:56:31.18Z</time></trkpt><trkpt lat="45.5931327" lon="10.5292589"><ele>155.0</ele><time>2026-04-16T15:56:32.18Z</time></trkpt><trkpt lat="45.5931662" lon="10.5294932"><ele>155.0</ele><time>2026-04-16T15:56:33.18Z</time></trkpt><trkpt lat="45.5931881" lon="10.529733"><ele>155.0</ele><time>2026-04-16T15:56:34.18Z</time></trkpt><trkpt lat="45.5931965" lon="10.5299805"><ele>155.0</ele><time>2026-04-16T15:56:35.18Z</time></trkpt><trkpt lat="45.5931989" lon="10.5302358"><ele>155.0</ele><time>2026-04-16T15:56:36.18Z</time></trkpt><trkpt lat="45.593175" lon="10.5304921"><ele>155.0</ele><time>2026-04-16T15:56:37.18Z</time></trkpt><trkpt lat="45.5931404" lon="10.5307353"><ele>155.0</ele><time>2026-04-16T15:56:38.18Z</time></trkpt><trkpt lat="45.5931025" lon="10.5309709"><ele>155.0</ele><time>2026-04-16T15:56:39.18Z</time></trkpt><trkpt lat="45.5930702" lon="10.5311884"><ele>155.0</ele><time>2026-04-16T15:56:40.18Z</time></trkpt><trkpt lat="45.593035" lon="10.5313982"><ele>154.75</ele><time>2026-04-16T15:56:41.18Z</time></trkpt><trkpt lat="45.5930033" lon="10.5315897"><ele>154.5</ele><time>2026-04-16T15:56:42.18Z</time></trkpt><trkpt lat="45.5929835" lon="10.5317595"><ele>154.25</ele><time>2026-04-16T15:56:43.179Z</time></trkpt><trkpt lat="45.5929508" lon="10.5319125"><ele>154.0</ele><time>2026-04-16T15:56:44.18Z</time></trkpt><trkpt lat="45.5929036" lon="10.5320308"><ele>154.0</ele><time>2026-04-16T15:56:45.179Z</time></trkpt><trkpt lat="45.592865" lon="10.5321205"><ele>154.0</ele><time>2026-04-16T15:56:46.18Z</time></trkpt><trkpt lat="45.5928447" lon="10.5322192"><ele>154.0</ele><time>2026-04-16T15:56:47.18Z</time></trkpt><trkpt lat="45.5928575" lon="10.532323"><ele>154.0</ele><time>2026-04-16T15:56:48.18Z</time></trkpt><trkpt lat="45.5928832" lon="10.5324433"><ele>154.0</ele><time>2026-04-16T15:56:49.179Z</time></trkpt><trkpt lat="45.5929185" lon="10.5325936"><ele>154.0</ele><time>2026-04-16T15:56:50.179Z</time></trkpt><trkpt lat="45.5929323" lon="10.5327904"><ele>154.0</ele><time>2026-04-16T15:56:51.18Z</time></trkpt><trkpt lat="45.5929294" lon="10.5329996"><ele>154.0</ele><time>2026-04-16T15:56:52.179Z</time></trkpt><trkpt lat="45.5929307" lon="10.5332328"><ele>154.0</ele><time>2026-04-16T15:56:53.179Z</time></trkpt><trkpt lat="45.5929296" lon="10.5334675"><ele>154.0</ele><time>2026-04-16T15:56:54.179Z</time></trkpt><trkpt lat="45.5929271" lon="10.5337106"><ele>154.0</ele><time>2026-04-16T15:56:55.18Z</time></trkpt><trkpt lat="45.5929258" lon="10.5339692"><ele>154.0</ele><time>2026-04-16T15:56:56.179Z</time></trkpt><trkpt lat="45.5929277" lon="10.5342337"><ele>155.0</ele><time>2026-04-16T15:56:57.179Z</time></trkpt><trkpt lat="45.5929283" lon="10.5344873"><ele>156.0</ele><time>2026-04-16T15:56:58.18Z</time></trkpt><trkpt lat="45.592913" lon="10.5347393"><ele>157.0</ele><time>2026-04-16T15:56:59.18Z</time></trkpt><trkpt lat="45.5928905" lon="10.5349858"><ele>157.0</ele><time>2026-04-16T15:57:00.179Z</time></trkpt><trkpt lat="45.5928415" lon="10.5352402"><ele>157.0</ele><time>2026-04-16T15:57:01.18Z</time></trkpt><trkpt lat="45.5927742" lon="10.5354866"><ele>157.0</ele><time>2026-04-16T15:57:02.179Z</time></trkpt><trkpt lat="45.5927181" lon="10.5357458"><ele>157.0</ele><time>2026-04-16T15:57:03.179Z</time></trkpt><trkpt lat="45.59269" lon="10.5359996"><ele>157.0</ele><time>2026-04-16T15:57:04.18Z</time></trkpt><trkpt lat="45.5926721" lon="10.5362829"><ele>157.0</ele><time>2026-04-16T15:57:05.18Z</time></trkpt><trkpt lat="45.5926712" lon="10.5365803"><ele>157.0</ele><time>2026-04-16T15:57:06.179Z</time></trkpt><trkpt lat="45.5926804" lon="10.5368776"><ele>157.0</ele><time>2026-04-16T15:57:07.18Z</time></trkpt><trkpt lat="45.5926904" lon="10.537167"><ele>157.0</ele><time>2026-04-16T15:57:08.179Z</time></trkpt><trkpt lat="45.5927031" lon="10.5374322"><ele>156.66666666666669</ele><time>2026-04-16T15:57:09.179Z</time></trkpt><trkpt lat="45.592703" lon="10.5376772"><ele>156.33333333333334</ele><time>2026-04-16T15:57:10.179Z</time></trkpt><trkpt lat="45.5927119" lon="10.5379199"><ele>156.0</ele><time>2026-04-16T15:57:11.179Z</time></trkpt><trkpt lat="45.5927159" lon="10.5381577"><ele>155.25</ele><time>2026-04-16T15:57:12.18Z</time></trkpt><trkpt lat="45.5927204" lon="10.5383822"><ele>154.5</ele><time>2026-04-16T15:57:13.18Z</time></trkpt><trkpt lat="45.5927208" lon="10.5385906"><ele>153.75</ele><time>2026-04-16T15:57:14.18Z</time></trkpt><trkpt lat="45.5927117" lon="10.5387939"><ele>153.0</ele><time>2026-04-16T15:57:15.18Z</time></trkpt><trkpt lat="45.5926736" lon="10.5389794"><ele>152.33333333333334</ele><time>2026-04-16T15:57:16.179Z</time></trkpt><trkpt lat="45.5926098" lon="10.5391603"><ele>151.66666666666669</ele><time>2026-04-16T15:57:17.18Z</time></trkpt><trkpt lat="45.5925265" lon="10.5393438"><ele>151.0</ele><time>2026-04-16T15:57:18.18Z</time></trkpt><trkpt lat="45.5924226" lon="10.5395206"><ele>150.33333333333334</ele><time>2026-04-16T15:57:19.18Z</time></trkpt><trkpt lat="45.5923035" lon="10.5397003"><ele>149.66666666666666</ele><time>2026-04-16T15:57:20.179Z</time></trkpt><trkpt lat="45.5921717" lon="10.5398845"><ele>149.0</ele><time>2026-04-16T15:57:21.18Z</time></trkpt><trkpt lat="45.5920324" lon="10.5400777"><ele>149.0</ele><time>2026-04-16T15:57:22.179Z</time></trkpt><trkpt lat="45.5918984" lon="10.5402722"><ele>149.0</ele><time>2026-04-16T15:57:23.18Z</time></trkpt><trkpt lat="45.5917646" lon="10.5404614"><ele>149.0</ele><time>2026-04-16T15:57:24.179Z</time></trkpt><trkpt lat="45.5916319" lon="10.5406486"><ele>149.0</ele><time>2026-04-16T15:57:25.18Z</time></trkpt><trkpt lat="45.5915084" lon="10.5408279"><ele>149.0</ele><time>2026-04-16T15:57:26.18Z</time></trkpt><trkpt lat="45.5913859" lon="10.5410038"><ele>149.0</ele><time>2026-04-16T15:57:27.179Z</time></trkpt><trkpt lat="45.5912594" lon="10.5411766"><ele>149.33333333333331</ele><time>2026-04-16T15:57:28.179Z</time></trkpt><trkpt lat="45.5911318" lon="10.5413486"><ele>149.66666666666666</ele><time>2026-04-16T15:57:29.18Z</time></trkpt><trkpt lat="45.5910001" lon="10.5415034"><ele>150.0</ele><time>2026-04-16T15:57:30.179Z</time></trkpt><trkpt lat="45.590857" lon="10.5416365"><ele>150.0</ele><time>2026-04-16T15:57:31.179Z</time></trkpt><trkpt lat="45.5906982" lon="10.5417543"><ele>150.0</ele><time>2026-04-16T15:57:32.179Z</time></trkpt><trkpt lat="45.5905426" lon="10.5418697"><ele>150.0</ele><time>2026-04-16T15:57:33.179Z</time></trkpt><trkpt lat="45.5903864" lon="10.5419759"><ele>148.33333333333334</ele><time>2026-04-16T15:57:34.18Z</time></trkpt><trkpt lat="45.5902258" lon="10.5420818"><ele>146.66666666666669</ele><time>2026-04-16T15:57:35.179Z</time></trkpt><trkpt lat="45.590064" lon="10.5421754"><ele>145.0</ele><time>2026-04-16T15:57:36.18Z</time></trkpt><trkpt lat="45.5899038" lon="10.542251"><ele>145.0</ele><time>2026-04-16T15:57:37.18Z</time></trkpt><trkpt lat="45.5897467" lon="10.542309"><ele>145.0</ele><time>2026-04-16T15:57:38.179Z</time></trkpt><trkpt lat="45.5895908" lon="10.5423548"><ele>145.0</ele><time>2026-04-16T15:57:39.179Z</time></trkpt><trkpt lat="45.5894411" lon="10.5424025"><ele>144.25</ele><time>2026-04-16T15:57:40.179Z</time></trkpt><trkpt lat="45.589293" lon="10.5424617"><ele>143.5</ele><time>2026-04-16T15:57:41.179Z</time></trkpt><trkpt lat="45.5891543" lon="10.5425343"><ele>142.75</ele><time>2026-04-16T15:57:42.18Z</time></trkpt><trkpt lat="45.5890215" lon="10.5426067"><ele>142.0</ele><time>2026-04-16T15:57:43.179Z</time></trkpt><trkpt lat="45.5888886" lon="10.5426791"><ele>142.0</ele><time>2026-04-16T15:57:44.18Z</time></trkpt><trkpt lat="45.5887593" lon="10.5427598"><ele>142.0</ele><time>2026-04-16T15:57:45.18Z</time></trkpt><trkpt lat="45.5886349" lon="10.5428379"><ele>142.0</ele><time>2026-04-16T15:57:46.179Z</time></trkpt><trkpt lat="45.5885156" lon="10.5429239"><ele>142.0</ele><time>2026-04-16T15:57:47.179Z</time></trkpt><trkpt lat="45.5883956" lon="10.5430112"><ele>140.0</ele><time>2026-04-16T15:57:48.18Z</time></trkpt><trkpt lat="45.588283" lon="10.5431024"><ele>138.0</ele><time>2026-04-16T15:57:49.18Z</time></trkpt><trkpt lat="45.5881773" lon="10.5432089"><ele>136.0</ele><time>2026-04-16T15:57:50.179Z</time></trkpt><trkpt lat="45.5880788" lon="10.5433152"><ele>134.0</ele><time>2026-04-16T15:57:51.18Z</time></trkpt><trkpt lat="45.5879867" lon="10.5434346"><ele>134.0</ele><time>2026-04-16T15:57:52.179Z</time></trkpt><trkpt lat="45.5879007" lon="10.5435645"><ele>134.0</ele><time>2026-04-16T15:57:53.18Z</time></trkpt><trkpt lat="45.5878216" lon="10.5436973"><ele>134.0</ele><time>2026-04-16T15:57:54.18Z</time></trkpt><trkpt lat="45.5877469" lon="10.5438299"><ele>134.0</ele><time>2026-04-16T15:57:55.179Z</time></trkpt><trkpt lat="45.5876709" lon="10.5439519"><ele>132.4</ele><time>2026-04-16T15:57:56.179Z</time></trkpt><trkpt lat="45.587595" lon="10.5440727"><ele>130.8</ele><time>2026-04-16T15:57:57.18Z</time></trkpt><trkpt lat="45.5875213" lon="10.5441901"><ele>129.2</ele><time>2026-04-16T15:57:58.179Z</time></trkpt><trkpt lat="45.5874451" lon="10.544313"><ele>127.6</ele><time>2026-04-16T15:57:59.18Z</time></trkpt><trkpt lat="45.5873785" lon="10.5444276"><ele>126.0</ele><time>2026-04-16T15:58:00.18Z</time></trkpt><trkpt lat="45.5873202" lon="10.5445554"><ele>125.0</ele><time>2026-04-16T15:58:01.18Z</time></trkpt><trkpt lat="45.5872985" lon="10.5446877"><ele>124.0</ele><time>2026-04-16T15:58:02.18Z</time></trkpt><trkpt lat="45.5872838" lon="10.5448421"><ele>123.0</ele><time>2026-04-16T15:58:03.18Z</time></trkpt><trkpt lat="45.5872887" lon="10.5450195"><ele>122.0</ele><time>2026-04-16T15:58:04.179Z</time></trkpt><trkpt lat="45.5873012" lon="10.5452127"><ele>120.75</ele><time>2026-04-16T15:58:05.179Z</time></trkpt><trkpt lat="45.5873122" lon="10.545405"><ele>119.5</ele><time>2026-04-16T15:58:06.18Z</time></trkpt><trkpt lat="45.5873203" lon="10.5455921"><ele>118.25</ele><time>2026-04-16T15:58:07.18Z</time></trkpt><trkpt lat="45.5873268" lon="10.5457623"><ele>117.0</ele><time>2026-04-16T15:58:08.179Z</time></trkpt><trkpt lat="45.5873349" lon="10.5459172"><ele>117.0</ele><time>2026-04-16T15:58:09.179Z</time></trkpt><trkpt lat="45.5873463" lon="10.5460589"><ele>116.99999999999999</ele><time>2026-04-16T15:58:10.179Z</time></trkpt><trkpt lat="45.5873562" lon="10.5461849"><ele>116.99999999999999</ele><time>2026-04-16T15:58:11.18Z</time></trkpt><trkpt lat="45.5873609" lon="10.5462818"><ele>117.0</ele><time>2026-04-16T15:58:12.18Z</time></trkpt><trkpt lat="45.5873389" lon="10.5464189"><ele>117.0</ele><time>2026-04-16T15:58:14.18Z</time></trkpt><trkpt lat="45.5872515" lon="10.546473"><ele>116.19999999999999</ele><time>2026-04-16T15:58:16.18Z</time></trkpt><trkpt lat="45.5871417" lon="10.5464276"><ele>115.39999999999999</ele><time>2026-04-16T15:58:18.179Z</time></trkpt><trkpt lat="45.5870843" lon="10.5463905"><ele>114.60000000000001</ele><time>2026-04-16T15:58:19.18Z</time></trkpt><trkpt lat="45.5870019" lon="10.5463635"><ele>113.80000000000001</ele><time>2026-04-16T15:58:21.18Z</time></trkpt><trkpt lat="45.5869414" lon="10.5464553"><ele>113.0</ele><time>2026-04-16T15:58:23.179Z</time></trkpt><trkpt lat="45.5869613" lon="10.5466126"><ele>113.0</ele><time>2026-04-16T15:58:25.18Z</time></trkpt><trkpt lat="45.5869247" lon="10.5467738"><ele>113.00000000000001</ele><time>2026-04-16T15:58:27.18Z</time></trkpt><trkpt lat="45.586888" lon="10.5468603"><ele>113.00000000000001</ele><time>2026-04-16T15:58:28.179Z</time></trkpt><trkpt lat="45.5868418" lon="10.5469656"><ele>113.0</ele><time>2026-04-16T15:58:29.18Z</time></trkpt><trkpt lat="45.5867914" lon="10.5470802"><ele>113.0</ele><time>2026-04-16T15:58:30.18Z</time></trkpt><trkpt lat="45.5867445" lon="10.5471869"><ele>112.49999999999999</ele><time>2026-04-16T15:58:31.179Z</time></trkpt><trkpt lat="45.5867057" lon="10.5472814"><ele>112.0</ele><time>2026-04-16T15:58:32.18Z</time></trkpt><trkpt lat="45.586669" lon="10.5473663"><ele>111.5</ele><time>2026-04-16T15:58:33.179Z</time></trkpt><trkpt lat="45.5866087" lon="10.5475008"><ele>111.0</ele><time>2026-04-16T15:58:35.18Z</time></trkpt><trkpt lat="45.5865642" lon="10.547594"><ele>110.49999999999999</ele><time>2026-04-16T15:58:37.18Z</time></trkpt><trkpt lat="45.5865216" lon="10.5476747"><ele>110.0</ele><time>2026-04-16T15:58:40.18Z</time></trkpt><trkpt lat="45.5864799" lon="10.5477813"><ele>110.0</ele><time>2026-04-16T15:58:42.179Z</time></trkpt><trkpt lat="45.5864311" lon="10.547904"><ele>106.0</ele><time>2026-04-16T15:58:44.18Z</time></trkpt><trkpt lat="45.586381" lon="10.5480238"><ele>106.0</ele><time>2026-04-16T15:58:46.179Z</time></trkpt><trkpt lat="45.5863505" lon="10.5481626"><ele>106.0</ele><time>2026-04-16T15:58:48.18Z</time></trkpt><trkpt lat="45.5862867" lon="10.5482152"><ele>106.0</ele><time>2026-04-16T15:58:51.179Z</time></trkpt><trkpt lat="45.5862867" lon="10.5482152"><ele>106.0</ele><time>2026-04-16T15:58:51.179Z</time></trkpt></trkseg></trk></gpx>